# Wetter Temperatur Luftdruck Luftfeuchtigkeit Sichtweite Windgeschwindigkeit Windrichtung Zeit
1 Clear 27 1010 46 10000 4.12 60 11:20 14.08.2022
2 Clear 22 1011 65 10000 3.6 30 08:56 14.08.2022
3 Clear 19 1010 70 10000 2.06 10 06:23 14.08.2022
4 Clear 19 1010 70 10000 2.06 10 06:23 14.08.2022
5 Clear 19 1010 70 10000 2.06 10 06:23 14.08.2022
6 Clear 20 1011 74 10000 2.57 50 04:21 14.08.2022
7 Clear 22 1011 78 10000 1.03 0 00:42 14.08.2022
8 Clear 24 1011 77 10000 2.06 200 22:56 13.08.2022
9 Clear 24 1010 75 10000 1.54 220 21:55 13.08.2022
10 Clear 25 1010 68 10000 3.6 270 20:49 13.08.2022
11 Clear 27 1010 63 10000 4.63 270 19:46 13.08.2022
12 Clouds 29 1010 54 10000 4.12 250 18:19 13.08.2022
13 Clouds 29 1011 52 10000 2.06 0 15:57 13.08.2022
14 Clouds 28 1011 55 10000 2.57 250 14:41 13.08.2022
15 Clouds 27 1012 60 10000 1.54 0 13:46 13.08.2022
16 Clouds 26 1012 63 10000 1.54 310 13:23 13.08.2022
17 Clouds 20 1012 76 9000 2.06 50 10:44 13.08.2022
18 Rain 19 1013 89 7000 2.68 200 09:22 13.08.2022
19 Clouds 19 1011 78 10000 2.06 80 06:26 13.08.2022
20 Clear 22 1013 72 10000 3.09 200 00:44 13.08.2022
21 Clear 23 1013 69 10000 2.57 140 22:37 12.08.2022
22 Clear 24 1011 66 10000 1.79 120 21:35 12.08.2022
23 Clouds 26 1011 54 10000 3.6 110 19:46 12.08.2022
24 Rain 27 1011 53 10000 5.66 170 19:22 12.08.2022
25 Clouds 28 1011 52 10000 4.63 240 17:59 12.08.2022
26 Clouds 30 1011 52 10000 5.14 200 16:25 12.08.2022
27 Clouds 31 1011 44 10000 4.63 200 14:50 12.08.2022
28 Clouds 31 1011 44 10000 4.12 270 13:26 12.08.2022
29 Clouds 28 1012 54 10000 2.57 10 11:40 12.08.2022
30 Clear 23 1011 71 10000 1.03 0 08:50 12.08.2022
31 Clear 22 1012 71 10000 3.6 80 07:45 12.08.2022
32 Clear 23 1013 70 10000 1.54 110 03:56 12.08.2022
33 Clear 25 1013 67 10000 2.57 120 00:31 12.08.2022
34 Clear 26 1012 66 10000 1.54 120 23:52 11.08.2022
35 Rain 27 1012 61 10000 2.06 160 22:42 11.08.2022
36 Clear 27 1013 63 10000 2.57 200 21:53 11.08.2022
37 Clouds 28 1013 55 10000 3.09 200 21:26 11.08.2022
38 Clouds 29 1011 48 10000 3.09 230 20:30 11.08.2022
39 Clouds 30 1011 46 10000 4.12 280 19:33 11.08.2022
40 Clouds 31 1010 46 10000 2.57 250 18:41 11.08.2022
41 Clouds 31 1011 51 10000 2.57 130 16:46 11.08.2022
42 Clouds 30 1013 55 10000 5.14 150 15:42 11.08.2022
43 Clouds 30 1012 52 10000 3.6 90 14:31 11.08.2022
44 Clouds 29 1013 55 10000 2.06 300 11:53 11.08.2022
45 Clear 24 1015 66 10000 3.6 40 08:48 11.08.2022
46 Clear 22 1013 73 10000 2.06 40 05:44 11.08.2022
47 Clear 23 1014 72 10000 1.54 350 02:26 11.08.2022
48 Clear 25 1015 59 10000 1.54 70 22:59 10.08.2022
49 Clear 26 1014 60 10000 1.54 30 21:46 10.08.2022
50 Clear 27 1015 57 10000 2.57 100 20:56 10.08.2022
51 Clouds 27 1014 56 10000 4.12 80 20:27 10.08.2022
52 Thunderstorm 29 1013 48 8000 3.09 130 18:48 10.08.2022
53 Clouds 32 1014 40 10000 5.14 240 17:27 10.08.2022
54 Clouds 34 1014 33 10000 5.14 260 14:36 10.08.2022
55 Clear 33 1014 34 10000 3.6 290 13:32 10.08.2022
56 Clear 28 1015 51 10000 3.09 30 10:47 10.08.2022
57 Clear 23 1015 70 10000 3.09 50 08:37 10.08.2022
58 Clear 21 1015 74 10000 3.09 50 07:23 10.08.2022
59 Clear 21 1015 77 10000 1.54 20 04:50 10.08.2022
60 Clear 21 1015 77 10000 1.54 20 04:50 10.08.2022
61 Clear 22 1016 72 10000 1.03 80 01:33 10.08.2022
62 Clear 23 1016 72 10000 1.54 300 23:31 09.08.2022
63 Clear 24 1015 70 10000 1.03 30 21:58 09.08.2022
64 Clear 24 1014 66 10000 1.54 70 21:23 09.08.2022
65 Clouds 24 1014 64 10000 1.03 0 19:18 09.08.2022
66 Rain 23 1015 71 10000 3.6 110 17:37 09.08.2022
67 Rain 24 1015 66 10000 3.6 110 17:19 09.08.2022
68 Thunderstorm 25 1015 62 10000 5.66 90 16:23 09.08.2022
69 Thunderstorm 28 1015 54 10000 6.17 30 15:23 09.08.2022
70 Clear 31 1015 50 10000 2.57 40 11:30 09.08.2022
71 Clouds 24 1014 65 10000 3.6 50 08:53 09.08.2022
72 Clear 23 1015 62 10000 1.34 52 07:58 09.08.2022
73 Clear 22 1013 70 10000 3.6 40 05:25 09.08.2022
74 Clear 24 1015 57 10000 2.57 10 00:59 09.08.2022
75 Clear 24 1015 57 10000 2.57 10 00:59 09.08.2022
76 Clear 25 1013 60 10000 4.12 10 23:25 08.08.2022
77 Clear 25 1014 59 10000 3.6 50 22:42 08.08.2022
78 Clear 26 1013 58 10000 4.12 40 21:47 08.08.2022
79 Thunderstorm 26 1013 56 10000 5.14 60 20:43 08.08.2022
80 Clouds 27 1013 56 10000 7.2 40 19:39 08.08.2022
81 Clouds 33 1012 38 6000 6.17 90 18:18 08.08.2022
82 Clouds 34 1010 45 10000 4.63 230 15:54 08.08.2022
83 Clouds 34 1010 44 10000 4.63 230 15:36 08.08.2022
84 Clear 34 1012 43 10000 2.57 10 12:31 08.08.2022
85 Clear 32 1012 46 10000 1.54 10 10:37 08.08.2022
86 Clear 25 1012 61 10000 2.06 50 07:59 08.08.2022
87 Clear 24 1011 62 10000 2.06 20 04:31 08.08.2022
88 Clear 25 1012 60 10000 3.09 60 01:29 08.08.2022
89 Clear 29 1011 49 10000 4.12 130 21:42 07.08.2022
90 Clear 29 1011 49 10000 4.63 140 21:24 07.08.2022
91 Clear 30 1010 46 10000 6.17 90 20:24 07.08.2022
92 Clouds 31 1010 43 10000 6.69 90 19:52 07.08.2022
93 Clouds 32 1010 40 10000 8.23 30 19:22 07.08.2022
94 Clear 34 1009 41 10000 6.17 250 17:45 07.08.2022
95 Clear 34 1008 42 10000 5.14 240 16:52 07.08.2022
96 Clouds 36 1008 34 10000 5.66 220 15:40 07.08.2022
97 Clear 36 1009 38 10000 3.6 0 14:27 07.08.2022
98 Clear 36 1010 39 10000 4.12 200 12:41 07.08.2022
99 Clear 32 1011 47 10000 2.06 350 10:53 07.08.2022
100 Clear 32 1011 49 10000 2.06 350 10:21 07.08.2022
101 Clear 26 1010 69 10000 2.06 190 04:38 07.08.2022
102 Clouds 27 1010 62 10000 0.45 180 02:25 07.08.2022
103 Clear 29 1011 67 10000 3.09 220 22:39 06.08.2022
104 Clear 29 1011 61 10000 3.09 220 22:18 06.08.2022
105 Clouds 32 1010 47 10000 4.63 240 19:46 06.08.2022
106 Clouds 34 1009 35 10000 5.14 300 18:50 06.08.2022
107 Clouds 35 1009 36 10000 5.66 230 17:48 06.08.2022
108 Clouds 36 1010 32 10000 6.69 280 16:29 06.08.2022
109 Clear 36 1010 37 10000 3.09 0 13:51 06.08.2022
110 Clear 35 1011 39 10000 2.57 280 12:38 06.08.2022
111 Clear 33 1011 48 10000 2.06 0 11:21 06.08.2022
112 Clear 29 1011 62 10000 2.06 50 09:41 06.08.2022
113 Clear 25 1011 76 10000 1.54 100 07:28 06.08.2022
114 Clear 27 1012 78 10000 1.03 0 01:59 06.08.2022
115 Clear 28 1012 71 10000 2.06 220 22:37 05.08.2022
116 Clear 29 1012 66 10000 2.06 250 21:34 05.08.2022
117 Clear 32 1012 52 10000 5.14 250 19:20 05.08.2022
118 Clear 33 1011 47 10000 5.66 250 18:44 05.08.2022
119 Clouds 34 1012 41 10000 6.17 250 16:53 05.08.2022
120 Clouds 35 1012 37 10000 5.14 270 15:55 05.08.2022
121 Clouds 35 1013 38 10000 5.36 285 14:54 05.08.2022
122 Clear 35 1012 34 10000 4.63 270 13:39 05.08.2022
123 Clear 35 1013 37 10000 3.09 300 13:19 05.08.2022
124 Clear 33 1014 38 10000 2.57 340 11:58 05.08.2022
125 Clear 30 1014 56 10000 1.03 0 10:24 05.08.2022
126 Clear 25 1013 65 10000 1.03 0 07:58 05.08.2022
127 Clear 25 1014 67 10000 0.51 0 05:20 05.08.2022
128 Clear 28 1014 56 10000 0.51 0 23:49 04.08.2022
129 Clear 29 1013 52 10000 1.03 0 21:37 04.08.2022
130 Clear 29 1013 49 10000 2.06 270 21:18 04.08.2022
131 Clear 31 1013 42 10000 4.12 230 20:38 04.08.2022
132 Clear 33 1013 43 10000 5.14 270 19:21 04.08.2022
133 Clear 33 1012 41 10000 6.69 250 18:34 04.08.2022
134 Clear 34 1012 42 10000 6.69 300 16:54 04.08.2022
135 Clear 35 1013 34 10000 4.12 240 13:34 04.08.2022
136 Clear 33 1015 38 10000 1.54 0 11:46 04.08.2022
137 Clear 31 1014 47 10000 1.54 0 10:27 04.08.2022
138 Clear 25 1013 61 10000 1.54 70 07:50 04.08.2022
139 Clear 25 1013 74 10000 2.57 170 03:33 04.08.2022
140 Clear 26 1014 69 10000 1.54 230 01:58 04.08.2022
141 Clear 28 1013 65 10000 1.54 200 23:42 03.08.2022
142 Clear 29 1013 62 10000 2.06 240 21:39 03.08.2022
143 Clear 31 1013 49 10000 3.09 240 20:22 03.08.2022
144 Clear 33 1011 35 10000 4.12 260 19:28 03.08.2022
145 Clear 34 1013 32 10000 5.66 250 17:41 03.08.2022
146 Clear 34 1013 34 10000 5.66 240 16:24 03.08.2022
147 Clouds 36 1013 30 10000 5.14 210 14:25 03.08.2022
148 Clear 34 1014 33 10000 2.57 270 11:53 03.08.2022
149 Clear 26 1013 56 10000 2.06 60 08:20 03.08.2022
150 Clear 25 1012 57 10000 2.06 60 04:46 03.08.2022
151 Clear 25 1014 57 10000 2.06 50 03:28 03.08.2022
152 Clear 27 1014 66 10000 1.03 80 01:18 03.08.2022
153 Clear 27 1014 66 10000 1.03 80 01:18 03.08.2022
154 Clear 27 1014 66 10000 1.03 80 01:18 03.08.2022
155 Clear 28 1013 60 10000 1.54 240 22:59 02.08.2022
156 Clouds 29 1013 60 10000 1.54 220 21:53 02.08.2022
157 Clouds 29 1013 59 10000 3.09 220 21:21 02.08.2022
158 Clear 33 1011 37 10000 6.17 260 18:52 02.08.2022
159 Clouds 35 1011 33 10000 6.69 250 16:24 02.08.2022
160 Clear 35 1012 31 10000 1.54 0 12:34 02.08.2022
161 Clear 28 1014 56 10000 3.6 50 09:34 02.08.2022
162 Clear 25 1013 65 10000 2.57 50 07:56 02.08.2022
163 Clear 23 1012 66 10000 1.34 21 06:43 02.08.2022
164 Clear 24 1012 71 10000 1.97 14 04:55 02.08.2022
165 Clear 27 1013 67 10000 1.03 0 23:52 01.08.2022
166 Clear 28 1013 65 10000 1.03 220 22:36 01.08.2022
167 Clear 29 1012 63 10000 2.06 250 20:53 01.08.2022
168 Clear 31 1011 50 10000 4.63 240 19:34 01.08.2022
169 Clear 32 1011 45 10000 4.63 250 18:42 01.08.2022
170 Clear 32 1011 45 10000 4.63 250 18:42 01.08.2022
171 Clear 34 1011 31 10000 6.17 230 16:54 01.08.2022
172 Clear 34 1011 30 10000 5.66 220 16:28 01.08.2022
173 Clouds 34 1011 31 10000 5.66 240 15:30 01.08.2022
174 Clear 35 1012 30 10000 4.12 260 14:43 01.08.2022
175 Clear 34 1013 28 10000 2.06 0 12:51 01.08.2022
176 Clear 30 1014 37 10000 3.09 350 10:29 01.08.2022
177 Clear 27 1013 56 10000 1.54 50 08:39 01.08.2022
178 Clear 24 1013 65 10000 2.57 130 06:21 01.08.2022
179 Clear 24 1013 63 10000 1.54 120 04:20 01.08.2022
180 Clear 26 1013 54 10000 1.54 160 00:55 01.08.2022
181 Clear 28 1012 53 10000 1.03 0 22:42 31.07.2022
182 Clear 29 1011 53 10000 3.6 200 21:35 31.07.2022
183 Clear 31 1010 39 10000 4.12 230 19:58 31.07.2022
184 Clear 32 1011 38 10000 5.66 220 18:36 31.07.2022
185 Clouds 33 1011 39 10000 4.12 250 15:54 31.07.2022
186 Clouds 34 1012 31 10000 2.57 260 13:53 31.07.2022
187 Clear 33 1012 39 10000 1.54 0 12:29 31.07.2022
188 Clear 29 1013 56 10000 2.06 0 10:22 31.07.2022
189 Clear 26 1013 67 10000 3.6 40 08:18 31.07.2022
190 Clear 24 1011 69 10000 1.03 100 04:30 31.07.2022
191 Clear 27 1012 67 10000 1.54 230 00:23 31.07.2022
192 Clear 28 1012 66 10000 1.79 264 22:19 30.07.2022
193 Clear 28 1014 69 10000 2.06 260 21:50 30.07.2022
194 Clouds 29 1012 62 10000 3.09 270 21:20 30.07.2022
195 Clouds 31 1010 52 10000 4.12 270 19:59 30.07.2022
196 Clouds 32 1011 50 10000 3.6 290 19:20 30.07.2022
197 Clouds 32 1011 51 10000 5.14 240 17:45 30.07.2022
198 Clouds 33 1011 48 10000 5.66 230 16:21 30.07.2022
199 Clouds 33 1011 47 10000 5.66 200 15:27 30.07.2022
200 Clouds 33 1011 45 10000 4.12 260 13:21 30.07.2022
201 Clouds 31 1012 47 10000 3.09 300 12:20 30.07.2022
202 Clouds 30 1013 64 10000 2.57 130 10:36 30.07.2022
203 Clouds 28 1013 68 10000 1.03 0 09:57 30.07.2022
204 Clouds 24 1012 75 10000 2.57 180 07:55 30.07.2022
205 Rain 23 1012 72 10000 1.03 150 05:29 30.07.2022
206 Clear 25 1012 76 10000 2.06 200 02:31 30.07.2022
207 Clear 27 1014 69 10000 1.54 230 22:57 29.07.2022
208 Clear 28 1013 64 10000 2.57 270 21:30 29.07.2022
209 Clear 28 1014 62 10000 2.57 230 20:50 29.07.2022
210 Clear 30 1012 58 10000 4.12 240 19:29 29.07.2022
211 Clear 33 1012 49 10000 5.14 230 16:43 29.07.2022
212 Clouds 33 1013 47 10000 5.66 230 14:23 29.07.2022
213 Clouds 32 1014 43 10000 2.57 360 12:32 29.07.2022
214 Clear 26 1014 67 10000 1.03 360 08:51 29.07.2022
215 Clear 25 1014 69 10000 1.03 360 08:21 29.07.2022
216 Clear 24 1014 76 10000 2.57 130 03:55 29.07.2022
217 Clear 26 1013 70 10000 2.06 180 23:30 28.07.2022
218 Clouds 27 1012 72 10000 2.57 220 21:31 28.07.2022
219 Clouds 28 1011 68 10000 3.09 230 20:50 28.07.2022
220 Clear 28 1011 65 10000 3.09 240 20:18 28.07.2022
221 Clouds 29 1012 64 10000 4.63 250 19:26 28.07.2022
222 Clear 31 1011 57 10000 5.66 230 17:46 28.07.2022
223 Clear 31 1011 56 10000 5.66 230 17:20 28.07.2022
224 Clouds 31 1011 52 10000 6.17 240 16:40 28.07.2022
225 Clear 34 1012 36 10000 5.14 230 13:56 28.07.2022
226 Clear 32 1010 48 10000 3.09 200 12:33 28.07.2022
227 Clear 24 1010 72 10000 0.51 0 07:33 28.07.2022
228 Clear 23 1009 70 10000 1.54 50 05:37 28.07.2022
229 Clear 24 1009 73 10000 2.57 70 05:19 28.07.2022
230 Clear 26 1010 72 10000 2.06 250 23:19 27.07.2022
231 Clouds 29 1008 56 10000 2.06 320 21:30 27.07.2022
232 Clouds 30 1008 65 10000 3.6 220 19:46 27.07.2022
233 Clouds 30 1008 62 10000 3.09 220 19:19 27.07.2022
234 Clouds 32 1007 57 10000 5.14 220 16:31 27.07.2022
235 Clouds 32 1007 58 10000 6.17 210 15:51 27.07.2022
236 Clouds 33 1009 52 10000 6.69 220 14:41 27.07.2022
237 Clouds 33 1009 50 10000 6.17 230 13:34 27.07.2022
238 Clouds 28 1010 63 10000 2.57 0 09:28 27.07.2022
239 Clear 26 1010 74 10000 2.06 210 07:40 27.07.2022
240 Clear 25 1009 77 10000 2.06 180 03:57 27.07.2022
241 Clear 27 1011 79 10000 2.57 220 22:49 26.07.2022
242 Clear 28 1010 77 10000 3.09 230 21:36 26.07.2022
243 Clear 29 1009 71 10000 3.6 230 20:49 26.07.2022
244 Clear 31 1009 60 10000 5.66 220 18:47 26.07.2022
245 Clear 32 1009 59 10000 6.17 210 18:28 26.07.2022
246 Clear 33 1008 53 10000 5.14 230 17:46 26.07.2022
247 Clear 33 1010 53 10000 6.17 220 15:43 26.07.2022
248 Clear 34 1009 45 10000 4.63 230 14:38 26.07.2022
249 Clear 32 1010 56 10000 3.09 190 11:47 26.07.2022
250 Clear 32 1010 56 10000 3.09 190 11:47 26.07.2022
251 Clear 28 1010 69 10000 2.57 220 09:44 26.07.2022
252 Clouds 26 1010 62 10000 3.09 190 08:18 26.07.2022
253 Clear 27 1012 70 10000 1.54 210 01:44 26.07.2022
254 Clear 27 1013 75 10000 2.06 210 23:44 25.07.2022
255 Clear 28 1011 67 10000 2.06 210 22:33 25.07.2022
256 Clear 29 1011 62 10000 2.57 240 21:43 25.07.2022
257 Clear 31 1011 52 10000 4.12 260 20:42 25.07.2022
258 Clear 33 1012 46 10000 4.12 290 19:51 25.07.2022
259 Clear 34 1011 38 10000 5.14 260 19:20 25.07.2022
260 Clear 35 1011 39 10000 5.66 240 17:34 25.07.2022
261 Clear 35 1012 35 10000 6.17 260 16:40 25.07.2022
262 Clear 34 1013 46 10000 3.13 225 12:47 25.07.2022
263 Clear 31 1013 51 10000 1.54 0 10:42 25.07.2022
264 Clear 24 1015 76 10000 1.03 0 07:29 25.07.2022
265 Clear 26 1015 77 10000 1.54 210 23:57 24.07.2022
266 Clear 27 1015 79 10000 1.54 220 23:22 24.07.2022
267 Clear 27 1016 79 10000 2.06 230 22:41 24.07.2022
268 Clear 28 1014 73 10000 2.57 250 21:30 24.07.2022
269 Clear 29 1013 68 10000 2.57 250 20:57 24.07.2022
270 Clear 30 1013 65 10000 3.09 240 20:32 24.07.2022
271 Clear 32 1013 54 10000 4.12 230 18:59 24.07.2022
272 Clear 33 1014 51 10000 5.14 230 16:53 24.07.2022
273 Clear 35 1016 43 10000 4.12 250 15:53 24.07.2022
274 Clear 35 1015 42 10000 4.12 230 14:41 24.07.2022
275 Clear 35 1015 42 10000 4.12 230 14:41 24.07.2022
276 Clear 35 1016 40 10000 2.57 210 13:43 24.07.2022
277 Clear 33 1016 42 10000 1.79 311 12:19 24.07.2022
278 Clear 32 1017 45 10000 1.79 173 11:28 24.07.2022
279 Clear 28 1017 64 10000 2.06 30 09:33 24.07.2022
280 Clear 24 1016 71 10000 1.03 0 07:53 24.07.2022
281 Clear 23 1017 68 10000 2.06 90 06:54 24.07.2022
282 Clear 24 1017 68 10000 1.03 0 02:41 24.07.2022
283 Clear 27 1017 75 10000 2.06 230 22:37 23.07.2022
284 Clear 30 1015 62 10000 2.57 240 20:47 23.07.2022
285 Clear 33 1014 44 10000 4.12 260 18:55 23.07.2022
286 Clear 34 1015 42 10000 4.63 240 17:58 23.07.2022
287 Clear 35 1015 34 10000 5.66 250 17:24 23.07.2022
288 Clear 36 1016 34 10000 4.63 270 15:55 23.07.2022
289 Clear 36 1016 36 10000 5.14 240 15:21 23.07.2022
290 Clear 36 1016 37 10000 4.63 280 14:50 23.07.2022
291 Clear 35 1017 40 10000 4.12 290 13:54 23.07.2022
292 Clear 34 1017 41 10000 2.06 0 11:48 23.07.2022
293 Clear 31 1016 47 10000 1.54 70 10:36 23.07.2022
294 Clear 29 1017 67 8000 2.06 350 09:28 23.07.2022
295 Clear 24 1017 61 10000 2.06 90 06:40 23.07.2022
296 Clear 25 1016 58 10000 1.03 90 03:37 23.07.2022
297 Clear 28 1017 70 10000 2.06 220 23:59 22.07.2022
298 Clear 30 1016 59 10000 3.09 230 21:28 22.07.2022
299 Clear 31 1015 45 10000 4.12 220 20:29 22.07.2022
300 Clear 34 1015 41 10000 1.34 180 18:41 22.07.2022
301 Clear 35 1014 38 10000 6.69 250 17:38 22.07.2022
302 Clouds 36 1014 36 10000 5.66 270 15:35 22.07.2022
303 Clear 35 1016 37 10000 3.09 0 12:47 22.07.2022
304 Clear 31 1017 61 10000 1.54 0 09:56 22.07.2022
305 Clear 29 1016 68 10000 2.06 50 09:21 22.07.2022
306 Clear 25 1015 72 10000 1.54 30 07:51 22.07.2022
307 Clouds 25 1015 69 10000 1.54 150 04:23 22.07.2022
308 Clear 27 1016 75 10000 3.09 200 23:36 21.07.2022
309 Clear 29 1015 67 10000 3.09 220 21:41 21.07.2022
310 Clear 32 1014 49 10000 5.14 240 19:42 21.07.2022
311 Clear 33 1014 45 10000 5.66 230 18:30 21.07.2022
312 Clear 34 1015 43 10000 6.17 240 17:21 21.07.2022
313 Clear 35 1015 40 10000 5.66 250 16:23 21.07.2022
314 Clear 35 1016 40 10000 6.17 250 14:46 21.07.2022
315 Clear 35 1015 35 10000 2.57 0 13:53 21.07.2022
316 Clear 34 1017 34 10000 2.06 330 11:54 21.07.2022
317 Clear 30 1016 60 10000 2.06 10 09:54 21.07.2022
318 Clear 27 1016 68 10000 2.06 50 08:53 21.07.2022
319 Clear 27 1016 68 10000 2.06 50 08:53 21.07.2022
320 Clear 25 1017 71 10000 1.54 90 07:50 21.07.2022
321 Clear 23 1016 73 10000 1.54 90 06:27 21.07.2022
322 Clear 25 1017 74 10000 1.54 10 02:49 21.07.2022
323 Clear 27 1018 75 10000 1.54 240 22:47 20.07.2022
324 Clear 27 1017 74 10000 2.06 260 22:19 20.07.2022
325 Clear 29 1016 66 10000 3.6 240 20:46 20.07.2022
326 Clear 31 1015 60 10000 4.12 230 19:46 20.07.2022
327 Clear 32 1015 53 10000 4.63 230 18:54 20.07.2022
328 Clear 33 1015 50 10000 4.63 220 18:31 20.07.2022
329 Clear 33 1016 43 10000 4.63 240 17:25 20.07.2022
330 Clear 35 1016 38 10000 5.66 220 15:33 20.07.2022
331 Clear 35 1017 39 10000 5.14 220 14:49 20.07.2022
332 Clear 34 1018 35 10000 2.06 250 12:54 20.07.2022
333 Clear 32 1018 41 10000 0.89 229 10:57 20.07.2022
334 Clear 23 1016 68 10000 1.03 80 06:35 20.07.2022
335 Clear 26 1016 68 10000 1.03 110 01:47 20.07.2022
336 Clear 26 1016 69 10000 0.51 300 00:42 20.07.2022
337 Clear 28 1015 64 10000 2.06 210 22:36 19.07.2022
338 Clear 29 1016 58 10000 2.57 220 22:18 19.07.2022
339 Clear 30 1014 54 10000 2.57 250 20:50 19.07.2022
340 Clear 32 1014 41 10000 4.12 230 19:32 19.07.2022
341 Clear 33 1015 42 10000 4.63 220 18:42 19.07.2022
342 Clear 33 1014 39 10000 4.63 240 17:54 19.07.2022
343 Clear 35 1015 34 10000 6.17 220 15:49 19.07.2022
344 Clear 36 1016 30 10000 5.14 230 13:46 19.07.2022
345 Clear 33 1016 37 10000 2.57 320 11:34 19.07.2022
346 Clear 30 1016 49 10000 2.06 10 09:53 19.07.2022
347 Clear 27 1017 56 10000 2.06 60 08:48 19.07.2022
348 Clear 26 1017 59 10000 2.06 40 07:57 19.07.2022
349 Clear 24 1017 61 10000 2.57 50 07:18 19.07.2022
350 Clear 24 1016 63 10000 2.06 30 05:19 19.07.2022
351 Clear 25 1016 60 10000 1.54 60 03:40 19.07.2022
352 Clear 27 1018 54 10000 1.54 80 23:57 18.07.2022
353 Clear 27 1018 53 10000 2.06 30 23:20 18.07.2022
354 Clear 28 1016 51 10000 3.6 40 22:27 18.07.2022
355 Clouds 29 1016 53 10000 2.24 314 21:26 18.07.2022
356 Clouds 31 1015 42 10000 1.54 310 20:45 18.07.2022
357 Clouds 33 1016 40 10000 3.09 220 18:50 18.07.2022
358 Clouds 35 1016 32 10000 5.66 220 16:45 18.07.2022
359 Clear 36 1016 27 10000 6.17 230 15:34 18.07.2022
360 Clouds 37 1017 28 10000 5.14 230 13:40 18.07.2022
361 Clear 36 1017 32 10000 2.06 0 12:21 18.07.2022
362 Clear 31 1017 43 10000 2.57 50 09:56 18.07.2022
363 Clear 27 1018 51 10000 2.06 60 08:20 18.07.2022
364 Clear 24 1016 57 10000 0.89 16 06:39 18.07.2022
365 Clear 28 1018 54 10000 1.03 240 23:19 17.07.2022
366 Clear 28 1017 48 10000 1.03 270 22:32 17.07.2022
367 Clear 28 1018 50 10000 1.03 260 21:43 17.07.2022
368 Clear 30 1017 40 10000 2.57 220 20:46 17.07.2022
369 Clear 31 1016 35 10000 2.57 220 20:18 17.07.2022
370 Clear 33 1015 31 10000 4.63 260 19:26 17.07.2022
371 Clear 34 1016 31 10000 4.63 250 18:22 17.07.2022
372 Clear 34 1016 31 10000 6.17 270 17:37 17.07.2022
373 Clear 35 1016 33 10000 5.66 270 16:49 17.07.2022
374 Clear 35 1016 34 10000 5.66 270 16:24 17.07.2022
375 Clear 36 1017 29 10000 3.58 204 13:58 17.07.2022
376 Clear 35 1017 27 10000 3.13 230 13:24 17.07.2022
377 Clear 31 1016 39 10000 2.06 340 10:34 17.07.2022
378 Clear 26 1018 57 10000 3.09 50 08:38 17.07.2022
379 Clear 23 1016 64 10000 1.03 0 02:43 17.07.2022
380 Clear 25 1016 70 10000 0.51 0 00:41 17.07.2022
381 Clear 26 1017 64 10000 1.03 0 23:18 16.07.2022
382 Clear 29 1016 47 10000 2.57 290 20:59 16.07.2022
383 Clear 33 1014 33 10000 4.12 270 18:59 16.07.2022
384 Clear 33 1014 32 10000 4.63 280 17:53 16.07.2022
385 Clear 35 1014 33 10000 4.63 260 16:24 16.07.2022
386 Clear 34 1015 35 10000 2.68 287 13:47 16.07.2022
387 Clear 31 1015 43 10000 2.06 0 10:35 16.07.2022
388 Clear 28 1015 56 10000 1.03 0 09:29 16.07.2022
389 Clear 26 1015 58 10000 1.03 0 08:42 16.07.2022
390 Clear 24 1014 64 10000 1.54 40 07:41 16.07.2022
391 Clear 23 1015 69 10000 2.06 100 03:39 16.07.2022
392 Clear 25 1014 73 10000 0.51 0 01:59 16.07.2022
393 Clear 26 1014 67 10000 2.06 220 23:21 15.07.2022
394 Clear 27 1013 62 10000 3.09 210 22:37 15.07.2022
395 Clear 28 1013 56 10000 2.06 240 21:18 15.07.2022
396 Clear 30 1012 46 10000 3.6 270 19:51 15.07.2022
397 Clear 33 1012 36 10000 5.66 230 18:32 15.07.2022
398 Clear 34 1012 29 10000 5.66 250 17:25 15.07.2022
399 Clear 34 1013 38 10000 5.14 280 14:45 15.07.2022
400 Clear 34 1013 38 10000 2.68 241 12:48 15.07.2022
401 Clear 31 1014 45 10000 2.06 30 10:53 15.07.2022
402 Clear 25 1014 70 10000 2.57 30 08:42 15.07.2022
403 Clear 22 1013 75 10000 1.03 80 05:55 15.07.2022
404 Clear 24 1016 74 10000 0.51 0 00:51 15.07.2022
405 Clear 25 1017 77 10000 1.03 0 23:35 14.07.2022
406 Clear 26 1016 71 10000 1.03 260 22:42 14.07.2022
407 Clear 26 1016 68 10000 2.06 240 21:42 14.07.2022
408 Clear 27 1016 65 10000 2.06 250 21:24 14.07.2022
409 Clear 28 1015 60 10000 3.6 220 20:43 14.07.2022
410 Clear 28 1015 60 10000 3.6 220 20:43 14.07.2022
411 Clear 28 1015 57 10000 3.6 220 20:19 14.07.2022
412 Clear 30 1016 51 10000 4.63 240 18:38 14.07.2022
413 Clear 31 1016 48 10000 5.14 230 16:21 14.07.2022
414 Clear 32 1017 44 10000 4.12 250 15:26 14.07.2022
415 Clear 32 1018 41 10000 4.63 210 13:52 14.07.2022
416 Clear 32 1019 37 10000 4.12 220 12:40 14.07.2022
417 Clear 31 1018 41 10000 3.09 230 11:41 14.07.2022
418 Clear 30 1019 40 10000 1.54 0 11:21 14.07.2022
419 Clear 27 1019 54 10000 1.54 70 09:49 14.07.2022
420 Clear 27 1019 54 10000 1.54 70 09:49 14.07.2022
421 Clear 21 1018 68 10000 0.51 0 05:20 14.07.2022
422 Clear 24 1019 72 10000 2.06 160 01:22 14.07.2022
423 Clear 24 1020 73 10000 1.54 220 00:52 14.07.2022
424 Clear 25 1021 58 10000 1.54 240 22:32 13.07.2022
425 Clear 26 1019 57 10000 2.06 220 21:54 13.07.2022
426 Clear 27 1019 49 10000 3.6 250 20:45 13.07.2022
427 Clear 29 1018 40 10000 4.63 240 19:19 13.07.2022
428 Clear 30 1018 42 10000 5.66 250 17:35 13.07.2022
429 Clouds 31 1018 41 10000 5.66 240 16:23 13.07.2022
430 Clouds 31 1019 39 10000 5.14 230 15:24 13.07.2022
431 Clouds 31 1020 42 10000 2.57 210 12:39 13.07.2022
432 Clear 29 1020 50 10000 2.57 240 10:45 13.07.2022
433 Clear 28 1019 54 10000 2.57 190 09:57 13.07.2022
434 Clear 26 1021 63 10000 3.6 180 09:21 13.07.2022
435 Clear 21 1018 75 10000 1.03 0 05:52 13.07.2022
436 Clear 23 1017 72 10000 1.53 6 01:27 13.07.2022
437 Clear 25 1019 76 10000 0.51 0 23:39 12.07.2022
438 Clear 26 1018 64 10000 2.57 220 21:55 12.07.2022
439 Clear 26 1018 61 10000 3.09 230 21:19 12.07.2022
440 Clear 27 1017 59 10000 4.12 240 20:41 12.07.2022
441 Clear 29 1017 50 10000 3.6 250 19:25 12.07.2022
442 Clear 31 1017 47 10000 5.14 270 17:49 12.07.2022
443 Clear 32 1019 37 10000 5.14 240 15:43 12.07.2022
444 Clear 32 1018 34 10000 4.63 240 14:23 12.07.2022
445 Clouds 32 1019 33 10000 3.6 300 12:19 12.07.2022
446 Clear 30 1018 43 10000 1.54 20 10:51 12.07.2022
447 Clear 27 1019 61 10000 1.03 0 09:28 12.07.2022
448 Clear 24 1018 69 10000 2.06 50 08:18 12.07.2022
449 Clear 21 1018 73 10000 1.03 90 06:24 12.07.2022
450 Clear 21 1017 70 10000 0.51 0 05:39 12.07.2022
451 Clear 23 1017 74 10000 1.54 150 01:57 12.07.2022
452 Clear 23 1017 74 10000 1.54 150 01:57 12.07.2022
453 Clear 23 1017 74 10000 1.54 150 01:57 12.07.2022
454 Clear 24 1018 73 10000 2.06 240 22:59 11.07.2022
455 Clear 25 1017 73 10000 2.06 230 22:29 11.07.2022
456 Clear 28 1016 55 10000 4.12 230 20:33 11.07.2022
457 Clear 29 1016 41 10000 3.6 270 19:36 11.07.2022
458 Clear 30 1015 42 10000 4.63 240 18:32 11.07.2022
459 Clear 30 1015 40 10000 6.69 260 17:39 11.07.2022
460 Clouds 31 1015 38 10000 6.17 250 16:18 11.07.2022
461 Clouds 32 1015 36 10000 4.12 270 14:32 11.07.2022
462 Clear 30 1016 41 10000 2.06 0 11:40 11.07.2022
463 Clear 28 1016 47 10000 1.54 0 10:22 11.07.2022
464 Clear 27 1016 53 10000 1.54 330 09:42 11.07.2022
465 Clear 24 1016 65 10000 1.54 350 08:33 11.07.2022
466 Clear 20 1014 70 10000 1.54 160 04:34 11.07.2022
467 Clear 23 1014 70 10000 1.54 210 00:20 11.07.2022
468 Clear 24 1014 68 10000 2.06 210 22:56 10.07.2022
469 Clear 25 1014 63 10000 2.06 240 21:51 10.07.2022
470 Clear 25 1014 61 10000 3.09 270 20:54 10.07.2022
471 Clear 26 1014 54 10000 4.63 280 19:50 10.07.2022
472 Clouds 28 1013 46 10000 6.17 270 18:48 10.07.2022
473 Clear 29 1013 42 10000 7.2 270 17:37 10.07.2022
474 Clear 29 1013 39 10000 6.69 270 16:45 10.07.2022
475 Clear 30 1013 36 10000 7.2 270 15:28 10.07.2022
476 Clear 31 1013 29 10000 4.12 340 14:21 10.07.2022
477 Clear 29 1015 33 10000 3.6 360 12:28 10.07.2022
478 Clear 27 1015 34 10000 3.09 50 10:20 10.07.2022
479 Clear 23 1015 41 10000 3.09 50 08:45 10.07.2022
480 Clear 23 1015 41 10000 3.09 50 08:45 10.07.2022
481 Clear 21 1014 48 10000 3.6 30 07:39 10.07.2022
482 Clear 21 1015 43 10000 2.06 50 02:47 10.07.2022
483 Clear 25 1015 32 10000 4.12 40 22:51 09.07.2022
484 Clear 26 1014 26 10000 4.63 20 22:24 09.07.2022
485 Clear 28 1014 24 10000 8.23 10 20:50 09.07.2022
486 Clear 32 1014 20 10000 7.72 360 18:43 09.07.2022
487 Clear 32 1013 21 10000 6.69 350 17:45 09.07.2022
488 Clear 33 1014 23 10000 4.63 360 16:44 09.07.2022
489 Clear 32 1015 23 10000 4.63 10 15:41 09.07.2022
490 Clear 32 1015 24 10000 4.92 319 14:44 09.07.2022
491 Clear 31 1017 28 10000 4.12 30 13:51 09.07.2022
492 Clear 30 1017 31 10000 5.14 360 12:48 09.07.2022
493 Clear 29 1018 36 10000 7.2 360 11:32 09.07.2022
494 Clear 27 1017 42 10000 5.14 10 10:23 09.07.2022
495 Clear 22 1017 53 10000 3.6 50 07:54 09.07.2022
496 Clear 20 1017 53 10000 3.09 50 05:37 09.07.2022
497 Clear 21 1018 54 10000 4.12 40 03:29 09.07.2022
498 Clear 24 1017 44 10000 4.63 30 23:18 08.07.2022
499 Clear 24 1017 44 10000 4.63 30 23:18 08.07.2022
500 Clear 25 1017 39 10000 6.17 30 21:59 08.07.2022
501 Clear 26 1016 34 10000 7.2 40 20:55 08.07.2022
502 Clear 27 1015 33 10000 8.23 30 20:24 08.07.2022
503 Clear 30 1014 30 10000 9.77 30 18:32 08.07.2022
504 Clear 31 1014 27 10000 7.72 40 17:25 08.07.2022
505 Clear 31 1014 28 10000 8.75 40 14:55 08.07.2022
506 Clear 31 1013 30 10000 8.75 40 13:56 08.07.2022
507 Clear 29 1015 35 10000 7.2 30 12:28 08.07.2022
508 Clear 27 1013 42 10000 6.69 40 10:45 08.07.2022
509 Clear 22 1013 70 10000 4.63 360 08:51 08.07.2022
510 Clear 19 1014 86 10000 4.12 50 06:54 08.07.2022
511 Clouds 18 1013 83 6000 7.72 130 02:53 08.07.2022
512 Clouds 26 1013 69 10000 2.06 230 23:45 07.07.2022
513 Clear 25 1014 83 10000 1.54 230 22:40 07.07.2022
514 Clear 28 1013 71 10000 2.57 230 20:56 07.07.2022
515 Clouds 29 1012 56 10000 5.66 300 18:37 07.07.2022
516 Clouds 30 1012 55 10000 5.66 260 17:19 07.07.2022
517 Clear 33 1012 53 10000 5.66 260 15:22 07.07.2022
518 Clouds 33 1013 44 10000 4.63 210 13:25 07.07.2022
519 Clear 33 1014 42 10000 2.06 0 12:39 07.07.2022
520 Clear 32 1014 44 10000 2.06 0 12:19 07.07.2022
521 Clear 31 1013 53 10000 2.06 0 11:30 07.07.2022
522 Clear 30 1014 58 10000 2.57 0 10:43 07.07.2022
523 Clear 29 1014 60 10000 4.12 180 10:25 07.07.2022
524 Clear 24 1015 75 10000 1.54 100 07:40 07.07.2022
525 Clear 23 1013 79 10000 0.51 0 04:18 07.07.2022
526 Clouds 25 1014 62 10000 0.21 26 23:37 06.07.2022
527 Clear 26 1014 66 10000 1.54 260 23:18 06.07.2022
528 Clear 26 1013 73 10000 1.54 260 22:56 06.07.2022
529 Clear 26 1013 72 10000 1.54 260 22:38 06.07.2022
530 Clear 28 1013 66 10000 3.09 220 21:27 06.07.2022
531 Clear 31 1012 51 10000 4.12 210 19:35 06.07.2022
532 Clear 35 1013 33 10000 5.14 220 17:32 06.07.2022
533 Clear 35 1013 30 10000 5.14 210 16:19 06.07.2022
534 Clear 36 1013 28 10000 5.66 260 14:46 06.07.2022
535 Clear 35 1014 29 10000 2.06 240 12:35 06.07.2022
536 Clear 33 1013 35 10000 2.57 280 11:48 06.07.2022
537 Clear 31 1013 40 10000 3.09 60 10:18 06.07.2022
538 Clear 24 1015 53 10000 2.57 50 07:44 06.07.2022
539 Clear 23 1014 60 10000 1.54 70 07:23 06.07.2022
540 Clear 24 1014 59 10000 1.03 230 02:55 06.07.2022
541 Clear 28 1014 46 10000 3.6 190 22:45 05.07.2022
542 Clear 28 1014 40 10000 3.09 200 21:36 05.07.2022
543 Clear 30 1012 38 10000 3.6 240 20:38 05.07.2022
544 Clear 33 1012 29 10000 3.6 260 19:41 05.07.2022
545 Clear 34 1012 28 10000 3.6 250 19:21 05.07.2022
546 Clear 34 1012 26 10000 5.66 240 17:46 05.07.2022
547 Clear 34 1013 36 10000 5.14 240 16:39 05.07.2022
548 Clear 35 1013 42 10000 5.66 250 15:24 05.07.2022
549 Clear 35 1014 30 10000 3.09 0 13:47 05.07.2022
550 Clear 34 1014 31 10000 2.57 270 12:42 05.07.2022
551 Clear 32 1013 33 10000 1.54 160 11:24 05.07.2022
552 Clear 31 1015 40 10000 2.57 220 10:31 05.07.2022
553 Clear 26 1015 61 10000 1.54 10 08:25 05.07.2022
554 Clear 24 1014 66 10000 1.03 260 07:31 05.07.2022
555 Clear 23 1014 69 10000 1.54 220 04:46 05.07.2022
556 Clear 25 1013 75 10000 1.54 170 02:48 05.07.2022
557 Clear 27 1013 58 10000 2.06 200 23:42 04.07.2022
558 Clear 28 1015 54 10000 2.06 250 22:59 04.07.2022
559 Clear 28 1014 58 10000 2.57 230 22:20 04.07.2022
560 Clear 31 1014 45 10000 2.57 250 20:59 04.07.2022
561 Clear 31 1012 40 10000 4.63 250 20:38 04.07.2022
562 Clear 33 1012 34 10000 4.63 250 20:18 04.07.2022
563 Clear 34 1012 30 10000 5.14 270 19:43 04.07.2022
564 Clear 35 1012 32 10000 4.63 240 19:24 04.07.2022
565 Clear 37 1012 30 10000 6.17 260 17:40 04.07.2022
566 Clear 37 1013 32 10000 5.66 260 15:42 04.07.2022
567 Clear 38 1014 33 10000 4.63 290 14:39 04.07.2022
568 Clear 37 1014 32 10000 3.09 260 13:20 04.07.2022
569 Clear 34 1014 34 10000 2.06 190 11:43 04.07.2022
570 Clear 33 1015 43 10000 2.06 220 10:33 04.07.2022
571 Clear 30 1015 51 10000 1.54 340 09:33 04.07.2022
572 Clear 24 1014 68 10000 0.51 0 06:42 04.07.2022
573 Clear 25 1015 75 10000 1.03 220 03:23 04.07.2022
574 Clear 27 1015 58 10000 1.03 0 23:53 03.07.2022
575 Clear 28 1014 46 10000 1.03 0 22:48 03.07.2022
576 Clear 31 1015 45 10000 2.06 210 20:46 03.07.2022
577 Clear 32 1015 40 10000 2.57 230 20:20 03.07.2022
578 Clear 33 1014 42 10000 4.12 260 19:25 03.07.2022
579 Clear 33 1014 41 10000 5.14 260 18:31 03.07.2022
580 Clear 35 1014 37 10000 5.66 280 17:42 03.07.2022
581 Clear 37 1014 30 10000 5.14 230 15:28 03.07.2022
582 Clear 38 1014 28 10000 4.12 250 14:57 03.07.2022
583 Clear 37 1014 28 10000 2.57 230 13:50 03.07.2022
584 Clear 36 1015 31 10000 2.57 220 12:51 03.07.2022
585 Clear 35 1015 32 10000 2.06 0 12:21 03.07.2022
586 Clear 34 1016 35 10000 2.57 280 10:55 03.07.2022
587 Clear 33 1016 37 10000 2.57 280 10:36 03.07.2022
588 Clear 27 1015 52 10000 1.54 30 08:21 03.07.2022
589 Clear 26 1016 51 10000 1.54 10 07:34 03.07.2022
590 Clear 26 1016 56 10000 1.03 0 00:41 03.07.2022
591 Clear 27 1015 53 10000 2.06 240 23:38 02.07.2022
592 Clear 28 1016 48 10000 2.57 200 22:31 02.07.2022
593 Clear 32 1015 37 10000 2.57 250 20:31 02.07.2022
594 Clear 33 1014 32 10000 5.66 250 19:49 02.07.2022
595 Clear 35 1015 30 10000 5.14 280 18:48 02.07.2022
596 Clear 36 1014 28 10000 5.14 250 17:40 02.07.2022
597 Clear 36 1015 29 10000 5.66 230 16:32 02.07.2022
598 Clear 35 1014 24 10000 2.06 0 13:51 02.07.2022
599 Clear 33 1015 25 10000 3.09 340 11:51 02.07.2022
600 Clear 32 1015 30 10000 2.57 50 10:52 02.07.2022
601 Clear 30 1016 34 10000 2.57 30 10:28 02.07.2022
602 Clear 24 1015 49 10000 2.06 40 08:39 02.07.2022
603 Clear 24 1015 50 10000 2.06 30 08:19 02.07.2022
604 Clear 22 1014 49 10000 1.95 8 05:51 02.07.2022
605 Clear 24 1014 51 10000 1.03 0 00:34 02.07.2022
606 Clear 26 1014 45 10000 1.03 0 23:30 01.07.2022
607 Clear 27 1013 44 10000 1.54 240 22:35 01.07.2022
608 Clear 27 1015 36 10000 1.03 0 21:38 01.07.2022
609 Clear 29 1015 32 10000 2.06 280 20:59 01.07.2022
610 Clear 30 1013 33 10000 2.06 270 20:37 01.07.2022
611 Clear 31 1012 30 10000 2.57 240 19:40 01.07.2022
612 Clouds 32 1013 29 10000 4.12 240 17:39 01.07.2022
613 Clear 33 1013 31 10000 6.69 250 14:59 01.07.2022
614 Clear 34 1012 30 10000 6.17 210 13:54 01.07.2022
615 Clear 33 1012 34 10000 6.17 220 11:22 01.07.2022
616 Clear 30 1011 40 10000 3.09 230 10:19 01.07.2022
617 Clear 24 1012 52 10000 3.6 80 07:40 01.07.2022
618 Clear 22 1011 56 10000 1.54 180 02:43 01.07.2022
619 Clear 24 1011 52 10000 1.03 0 00:22 01.07.2022
620 Clear 25 1013 48 10000 2.06 230 22:52 30.06.2022
621 Clear 27 1011 43 10000 2.06 230 22:32 30.06.2022
622 Clear 28 1012 41 10000 2.06 230 21:55 30.06.2022
623 Clear 29 1012 31 10000 2.57 250 20:58 30.06.2022
624 Clear 31 1011 33 10000 4.12 280 20:22 30.06.2022
625 Clear 32 1010 29 10000 4.63 270 19:51 30.06.2022
626 Clear 33 1010 26 10000 4.12 280 19:18 30.06.2022
627 Clear 33 1010 28 10000 4.63 280 18:34 30.06.2022
628 Clear 33 1010 31 10000 4.63 270 17:37 30.06.2022
629 Clear 34 1011 35 10000 4.12 260 16:28 30.06.2022
630 Clear 34 1010 33 10000 2.57 250 14:31 30.06.2022
631 Clear 34 1011 34 10000 3.09 240 13:29 30.06.2022
632 Clear 33 1011 34 10000 2.57 0 12:34 30.06.2022
633 Clear 32 1011 43 10000 1.54 0 11:23 30.06.2022
634 Clear 29 1011 52 10000 1.54 0 09:53 30.06.2022
635 Clear 28 1011 55 10000 1.54 350 09:31 30.06.2022
636 Clear 23 1010 69 10000 3.09 40 07:41 30.06.2022
637 Clear 22 1011 80 10000 0.51 250 05:47 30.06.2022
638 Clear 24 1011 75 10000 1.03 0 00:27 30.06.2022
639 Clear 25 1010 72 10000 2.57 240 23:19 29.06.2022
640 Clear 26 1010 70 10000 2.57 230 22:38 29.06.2022
641 Clear 26 1010 66 10000 2.06 210 21:34 29.06.2022
642 Clear 28 1009 56 10000 3.6 260 20:33 29.06.2022
643 Clear 30 1010 49 10000 4.63 250 19:36 29.06.2022
644 Clear 32 1011 48 10000 5.14 250 17:42 29.06.2022
645 Clear 32 1011 43 10000 5.66 270 16:35 29.06.2022
646 Clouds 33 1012 43 10000 4.63 320 14:56 29.06.2022
647 Clouds 31 1012 47 10000 2.06 0 12:39 29.06.2022
648 Clouds 28 1012 64 10000 2.06 350 10:37 29.06.2022
649 Clear 26 1013 78 10000 1.54 70 09:32 29.06.2022
650 Clouds 24 1012 81 10000 1.54 240 07:36 29.06.2022
651 Clear 23 1012 87 10000 2.06 200 04:50 29.06.2022
652 Clear 25 1013 83 10000 2.57 210 00:56 29.06.2022
653 Clear 26 1014 76 10000 2.57 210 00:35 29.06.2022
654 Clouds 26 1014 81 8000 2.57 250 22:53 28.06.2022
655 Clouds 26 1014 81 9000 3.09 250 22:23 28.06.2022
656 Clouds 27 1012 71 9000 4.63 180 21:53 28.06.2022
657 Clouds 27 1012 76 10000 5.66 230 21:31 28.06.2022
658 Clouds 28 1013 69 10000 1.79 180 20:27 28.06.2022
659 Clouds 31 1010 47 10000 5.36 209 19:33 28.06.2022
660 Clouds 31 1010 47 10000 5.36 209 19:33 28.06.2022
661 Clouds 32 1009 42 10000 2.68 191 18:45 28.06.2022
662 Clouds 32 1009 42 10000 2.68 191 18:45 28.06.2022
663 Clouds 31 1012 51 8000 5.66 140 17:39 28.06.2022
664 Clouds 32 1014 51 10000 3.6 200 15:57 28.06.2022
665 Clouds 31 1014 54 8000 5.14 280 15:21 28.06.2022
666 Rain 37 1012 21 8000 7.72 200 14:20 28.06.2022
667 Clouds 39 1011 16 10000 6.69 180 13:50 28.06.2022
668 Clouds 39 1011 14 10000 4.12 170 12:54 28.06.2022
669 Clear 37 1011 18 10000 5.66 110 11:18 28.06.2022
670 Clear 34 1012 23 10000 5.66 160 09:28 28.06.2022
671 Clear 32 1014 28 10000 3.6 170 08:43 28.06.2022
672 Clear 29 1014 37 10000 0.51 0 07:42 28.06.2022
673 Clear 25 1013 46 10000 1.03 0 05:58 28.06.2022
674 Clouds 30 1012 31 10000 0.89 183 00:00 28.06.2022
675 Clouds 30 1013 35 10000 1.59 72 23:37 27.06.2022
676 Clear 31 1015 26 10000 4.63 210 22:52 27.06.2022
677 Clouds 31 1015 30 10000 2.57 200 21:33 27.06.2022
678 Clear 33 1015 24 8000 3.6 220 20:48 27.06.2022
679 Clear 34 1014 22 10000 6.17 200 18:58 27.06.2022
680 Clear 35 1014 20 8000 7.2 200 18:19 27.06.2022
681 Clear 38 1012 18 10000 8.23 190 16:19 27.06.2022
682 Clear 40 1012 15 10000 8.23 190 14:44 27.06.2022
683 Clear 39 1012 17 10000 6.17 170 13:35 27.06.2022
684 Clear 38 1012 18 10000 6.69 180 12:52 27.06.2022
685 Clear 34 1013 29 10000 4.63 180 10:23 27.06.2022
686 Clear 30 1015 36 10000 0.51 0 08:48 27.06.2022
687 Clear 27 1014 50 10000 1.54 10 08:19 27.06.2022
688 Clear 25 1012 43 10000 1.03 0 06:38 27.06.2022
689 Clouds 25 1013 45 10000 1.03 0 02:23 27.06.2022
690 Clouds 27 1015 44 10000 1.54 120 23:49 26.06.2022
691 Clear 30 1012 32 10000 2.57 190 21:58 26.06.2022
692 Clear 32 1012 31 10000 3.6 200 20:43 26.06.2022
693 Clear 34 1012 24 10000 3.6 190 19:27 26.06.2022
694 Clear 35 1011 26 10000 5.66 220 18:28 26.06.2022
695 Clouds 35 1011 29 10000 3.58 171 16:21 26.06.2022
696 Clear 36 1012 25 10000 4.12 230 14:34 26.06.2022
697 Clouds 36 1013 28 10000 2.68 318 13:30 26.06.2022
698 Clouds 36 1013 28 10000 2.68 318 13:30 26.06.2022
699 Clouds 36 1012 25 10000 2.24 205 12:52 26.06.2022
700 Clear 34 1013 36 10000 2.06 0 11:21 26.06.2022
701 Clear 31 1014 42 10000 2.57 20 10:23 26.06.2022
702 Clear 26 1014 58 10000 1.54 10 08:46 26.06.2022
703 Clear 23 1014 66 10000 2.06 50 07:23 26.06.2022
704 Clear 24 1014 64 10000 1.54 110 00:49 26.06.2022
705 Clear 24 1014 62 10000 1.03 140 00:20 26.06.2022
706 Clear 25 1013 61 10000 2.06 120 23:33 25.06.2022
707 Clear 26 1014 55 10000 1.03 0 22:55 25.06.2022
708 Clear 26 1015 56 10000 1.54 230 22:27 25.06.2022
709 Clear 27 1013 57 10000 1.54 240 21:37 25.06.2022
710 Clear 27 1013 51 10000 2.06 260 21:18 25.06.2022
711 Clear 28 1013 52 10000 3.6 270 20:25 25.06.2022
712 Clear 30 1013 46 10000 4.63 250 18:45 25.06.2022
713 Clear 31 1012 38 10000 4.63 240 17:28 25.06.2022
714 Clear 31 1012 41 10000 4.63 240 16:44 25.06.2022
715 Clear 32 1013 38 10000 3.6 250 14:59 25.06.2022
716 Clear 30 1013 45 10000 3.09 220 12:57 25.06.2022
717 Clouds 29 1015 49 10000 3.09 220 12:37 25.06.2022
718 Rain 25 1015 69 10000 2.06 220 10:32 25.06.2022
719 Rain 25 1016 64 10000 3.09 190 08:57 25.06.2022
720 Clouds 24 1015 74 10000 3.09 170 08:29 25.06.2022
721 Rain 22 1014 67 10000 1.54 170 06:53 25.06.2022
722 Clear 23 1014 68 10000 2.57 200 03:26 25.06.2022
723 Clear 24 1013 58 10000 2.06 210 00:33 25.06.2022
724 Clear 26 1014 56 10000 1.54 220 22:51 24.06.2022
725 Clear 27 1013 50 10000 2.06 270 21:31 24.06.2022
726 Clear 29 1014 44 10000 2.06 240 20:25 24.06.2022
727 Clear 30 1013 43 10000 2.06 300 19:52 24.06.2022
728 Clear 30 1013 44 10000 3.6 240 19:19 24.06.2022
729 Clear 30 1013 44 10000 3.6 240 18:47 24.06.2022
730 Clear 30 1012 44 10000 5.14 280 18:29 24.06.2022
731 Clear 31 1012 37 10000 4.12 260 16:57 24.06.2022
732 Clear 32 1013 41 10000 4.63 230 15:28 24.06.2022
733 Clear 31 1014 46 10000 4.63 210 14:25 24.06.2022
734 Clear 31 1013 50 10000 1.79 262 13:53 24.06.2022
735 Clouds 28 1014 68 10000 3.6 190 11:42 24.06.2022
736 Mist 27 1014 73 5000 2.06 170 10:43 24.06.2022
737 Clouds 25 1015 84 6000 2.06 220 09:42 24.06.2022
738 Rain 25 1014 80 10000 3.09 240 08:58 24.06.2022
739 Rain 25 1014 73 10000 3.09 240 08:40 24.06.2022
740 Clear 23 1013 79 10000 2.06 230 06:47 24.06.2022
741 Clear 22 1013 75 10000 1.03 0 06:27 24.06.2022
742 Clear 22 1012 79 10000 1.03 220 05:21 24.06.2022
743 Clear 24 1015 78 10000 2.57 170 00:47 24.06.2022
744 Clear 25 1015 80 10000 3.09 210 22:43 23.06.2022
745 Clear 26 1014 76 10000 3.09 240 21:40 23.06.2022
746 Clear 27 1014 76 10000 4.12 220 20:42 23.06.2022
747 Clouds 27 1013 68 10000 5.14 220 19:55 23.06.2022
748 Clouds 29 1014 67 10000 4.63 240 18:43 23.06.2022
749 Clouds 31 1014 55 10000 5.14 240 17:35 23.06.2022
750 Clear 32 1013 41 10000 1.54 0 16:32 23.06.2022
751 Clear 31 1014 43 10000 3.6 50 15:26 23.06.2022
752 Clear 30 1013 49 10000 5.14 70 14:36 23.06.2022
753 Rain 28 1015 54 10000 4.63 220 11:49 23.06.2022
754 Clear 28 1014 53 10000 4.63 220 10:42 23.06.2022
755 Clear 27 1013 50 10000 2.06 230 09:19 23.06.2022
756 Clear 22 1013 66 10000 1.54 90 05:37 23.06.2022
757 Clear 24 1010 43 10000 1.54 250 00:28 23.06.2022
758 Clear 25 1013 35 10000 2.06 230 23:59 22.06.2022
759 Clear 26 1013 31 10000 1.03 0 23:18 22.06.2022
760 Clear 27 1013 38 10000 2.06 260 21:44 22.06.2022
761 Clear 29 1011 27 10000 2.57 180 20:52 22.06.2022
762 Clear 30 1011 28 10000 3.6 190 20:19 22.06.2022
763 Clear 31 1011 25 10000 4.12 180 19:30 22.06.2022
764 Clear 31 1012 24 10000 5.14 230 17:40 22.06.2022
765 Clear 32 1012 28 10000 6.17 240 16:41 22.06.2022
766 Clear 34 1012 23 10000 5.14 200 15:29 22.06.2022
767 Clear 34 1011 26 10000 5.66 200 14:47 22.06.2022
768 Clear 33 1012 28 10000 5.14 190 13:47 22.06.2022
769 Clear 33 1012 30 10000 4.12 200 13:24 22.06.2022
770 Clear 32 1013 30 10000 4.12 180 11:54 22.06.2022
771 Clear 31 1013 32 10000 4.12 210 11:29 22.06.2022
772 Clear 30 1012 40 10000 3.6 230 10:43 22.06.2022
773 Clear 27 1013 51 10000 1.54 80 09:18 22.06.2022
774 Clear 21 1011 60 10000 0.76 54 06:55 22.06.2022
775 Clouds 22 1012 60 10000 0.18 78 02:26 22.06.2022
776 Clouds 24 1013 56 10000 1.34 169 00:57 22.06.2022
777 Clear 25 1014 57 10000 2.06 200 22:49 21.06.2022
778 Clear 27 1014 48 10000 3.09 240 20:47 21.06.2022
779 Clear 29 1013 42 10000 4.63 240 19:23 21.06.2022
780 Clear 30 1013 41 10000 6.17 230 17:54 21.06.2022
781 Clear 31 1013 40 10000 5.66 230 16:38 21.06.2022
782 Clear 31 1014 29 10000 1.54 0 11:57 21.06.2022
783 Clear 29 1015 36 10000 1.54 0 10:38 21.06.2022
784 Clear 26 1015 46 10000 2.06 60 09:24 21.06.2022
785 Clear 22 1014 55 10000 1.34 87 07:44 21.06.2022
786 Clouds 20 1015 69 10000 1.59 34 04:57 21.06.2022
787 Clear 22 1016 70 10000 1.54 140 00:23 21.06.2022
788 Clear 24 1016 62 10000 1.44 259 22:21 20.06.2022
789 Clear 24 1016 62 10000 1.44 259 22:21 20.06.2022
790 Clear 25 1014 58 10000 2.57 220 21:37 20.06.2022
791 Clear 27 1014 42 10000 3.09 240 20:28 20.06.2022
792 Clear 29 1013 35 10000 4.12 240 19:35 20.06.2022
793 Clear 30 1014 30 10000 4.63 240 18:26 20.06.2022
794 Clear 31 1013 26 10000 5.14 250 17:49 20.06.2022
795 Clear 31 1014 30 10000 5.66 240 16:26 20.06.2022
796 Clear 32 1014 31 10000 5.14 240 15:20 20.06.2022
797 Clear 32 1014 27 10000 2.68 217 12:32 20.06.2022
798 Clear 29 1015 35 10000 2.06 200 10:21 20.06.2022
799 Clear 29 1015 35 10000 2.06 200 10:21 20.06.2022
800 Clear 25 1014 46 10000 2.06 350 08:54 20.06.2022
801 Clear 22 1013 51 10000 1.54 350 07:51 20.06.2022
802 Clear 20 1013 54 10000 2.06 10 05:18 20.06.2022
803 Clear 22 1015 51 10000 1.54 90 01:32 20.06.2022
804 Clear 22 1015 46 10000 2.57 110 23:57 19.06.2022
805 Clear 24 1016 42 10000 0.51 0 22:40 19.06.2022
806 Clear 25 1016 38 10000 1.03 0 21:43 19.06.2022
807 Clear 27 1015 35 10000 2.06 270 20:55 19.06.2022
808 Clear 28 1014 30 10000 3.09 270 20:25 19.06.2022
809 Clear 29 1014 30 10000 4.63 230 19:45 19.06.2022
810 Clear 30 1014 28 10000 4.63 250 18:33 19.06.2022
811 Clear 31 1013 26 10000 5.14 240 17:48 19.06.2022
812 Clear 31 1013 25 10000 5.14 260 17:20 19.06.2022
813 Clear 31 1014 28 10000 5.14 230 16:34 19.06.2022
814 Clear 31 1014 26 10000 5.66 220 15:35 19.06.2022
815 Clear 32 1014 27 10000 4.63 240 14:43 19.06.2022
816 Clear 31 1014 30 10000 4.12 250 13:54 19.06.2022
817 Clear 31 1014 32 10000 2.06 0 12:26 19.06.2022
818 Clear 29 1015 39 10000 2.06 90 10:53 19.06.2022
819 Clear 27 1015 45 10000 1.03 0 09:34 19.06.2022
820 Clear 25 1016 51 10000 1.03 0 08:35 19.06.2022
821 Clear 22 1015 51 10000 0.51 0 07:36 19.06.2022
822 Clear 21 1014 60 10000 1.03 0 04:33 19.06.2022
823 Clear 23 1016 59 10000 1.03 0 01:28 19.06.2022
824 Clear 24 1015 65 10000 1.54 230 00:23 19.06.2022
825 Clear 25 1014 58 10000 4.63 200 23:35 18.06.2022
826 Clear 25 1014 62 10000 4.63 200 22:36 18.06.2022
827 Clouds 27 1013 48 10000 0.45 180 20:55 18.06.2022
828 Clouds 28 1012 41 10000 0.89 180 20:26 18.06.2022
829 Clear 30 1014 34 10000 4.63 230 19:25 18.06.2022
830 Clear 31 1013 33 10000 4.63 230 18:44 18.06.2022
831 Clear 33 1014 30 10000 5.66 230 17:30 18.06.2022
832 Clear 33 1014 30 10000 5.66 230 17:30 18.06.2022
833 Clear 34 1014 25 10000 4.63 220 16:23 18.06.2022
834 Clouds 33 1015 26 10000 3.6 0 15:18 18.06.2022
835 Clear 33 1016 25 10000 6.69 20 14:42 18.06.2022
836 Clear 32 1017 28 10000 5.66 40 12:51 18.06.2022
837 Clear 31 1017 29 10000 6.17 20 11:31 18.06.2022
838 Clear 29 1018 34 10000 6.17 30 10:26 18.06.2022
839 Clear 27 1018 46 10000 3.6 60 09:19 18.06.2022
840 Clear 24 1017 60 10000 3.6 50 08:18 18.06.2022
841 Clear 21 1017 71 10000 3.09 60 06:26 18.06.2022
842 Clear 22 1017 74 10000 1.03 50 03:24 18.06.2022
843 Clear 22 1018 75 10000 2.06 50 01:24 18.06.2022
844 Clear 23 1019 73 10000 0.51 0 00:42 18.06.2022
845 Clear 23 1018 66 10000 1.03 0 23:45 17.06.2022
846 Clear 24 1019 63 10000 1.54 170 22:55 17.06.2022
847 Clear 25 1018 68 10000 3.6 120 20:42 17.06.2022
848 Clear 27 1016 60 10000 3.6 100 19:29 17.06.2022
849 Rain 27 1016 57 10000 6.17 140 18:25 17.06.2022
850 Clear 28 1016 54 10000 10.29 100 17:34 17.06.2022
851 Rain 29 1015 52 10000 4.12 250 16:38 17.06.2022
852 Rain 30 1015 44 10000 6.17 260 15:42 17.06.2022
853 Clear 32 1015 40 10000 6.17 240 14:46 17.06.2022
854 Clear 33 1014 38 10000 5.66 240 14:19 17.06.2022
855 Clear 33 1015 35 10000 2.68 230 13:42 17.06.2022
856 Clear 33 1016 32 10000 2.06 0 12:42 17.06.2022
857 Clear 31 1016 37 10000 1.54 0 11:56 17.06.2022
858 Clear 31 1016 37 10000 1.54 0 11:35 17.06.2022
859 Clear 29 1017 44 10000 1.54 10 09:59 17.06.2022
860 Clear 24 1016 60 10000 2.06 50 08:27 17.06.2022
861 Clear 21 1015 65 10000 2.06 40 06:57 17.06.2022
862 Clear 20 1017 66 10000 1.03 0 04:52 17.06.2022
863 Clear 22 1016 67 10000 0.51 0 02:41 17.06.2022
864 Clear 24 1016 55 10000 2.06 200 00:33 17.06.2022
865 Clear 25 1017 48 10000 2.57 230 22:44 16.06.2022
866 Clear 26 1015 40 10000 2.06 240 21:26 16.06.2022
867 Clear 27 1017 44 10000 2.57 250 20:59 16.06.2022
868 Clear 28 1016 41 10000 3.09 220 20:36 16.06.2022
869 Clear 29 1015 38 10000 3.09 270 19:53 16.06.2022
870 Clear 31 1014 36 10000 5.66 270 18:27 16.06.2022
871 Clear 31 1015 37 10000 4.63 300 17:43 16.06.2022
872 Clear 32 1015 35 10000 5.14 230 16:39 16.06.2022
873 Clear 33 1015 34 10000 5.14 280 15:24 16.06.2022
874 Clear 32 1015 35 10000 5.14 290 14:46 16.06.2022
875 Clear 33 1015 32 10000 5.14 290 13:32 16.06.2022
876 Clear 33 1016 29 10000 3.09 290 12:36 16.06.2022
877 Clear 32 1016 29 10000 2.57 340 11:52 16.06.2022
878 Clear 30 1017 33 10000 1.54 0 10:56 16.06.2022
879 Clear 29 1017 39 10000 1.54 30 10:27 16.06.2022
880 Clear 27 1016 48 10000 2.06 340 09:22 16.06.2022
881 Clear 25 1016 56 10000 1.54 330 08:36 16.06.2022
882 Clear 22 1016 61 10000 2.06 70 07:28 16.06.2022
883 Clouds 22 1017 66 10000 2.5 10 05:29 16.06.2022
884 Rain 23 1017 65 10000 1.03 0 02:50 16.06.2022
885 Clear 23 1017 61 10000 2.06 60 01:50 16.06.2022
886 Clear 23 1018 60 10000 1.54 300 01:21 16.06.2022
887 Clouds 24 1018 61 10000 2.42 6 23:47 15.06.2022
888 Clear 25 1018 54 10000 4.12 80 22:42 15.06.2022
889 Clear 25 1019 62 10000 2.57 80 21:23 15.06.2022
890 Clear 26 1018 62 10000 1.03 0 20:56 15.06.2022
891 Clouds 25 1018 62 9000 1.54 330 20:35 15.06.2022
892 Clouds 27 1016 57 9000 4.63 260 19:30 15.06.2022
893 Clear 29 1015 48 10000 5.14 220 17:58 15.06.2022
894 Clear 30 1016 42 10000 5.14 220 17:33 15.06.2022
895 Clear 31 1016 35 10000 4.63 240 15:46 15.06.2022
896 Clear 32 1017 36 10000 5.14 240 14:26 15.06.2022
897 Clear 32 1017 37 10000 3.09 250 12:54 15.06.2022
898 Clear 32 1017 38 10000 3.09 250 12:32 15.06.2022
899 Clear 29 1017 47 10000 1.54 0 10:27 15.06.2022
900 Clear 28 1017 46 10000 1.03 0 09:53 15.06.2022
901 Clear 25 1016 60 10000 1.54 50 08:50 15.06.2022
902 Clear 21 1016 63 10000 0.51 0 06:42 15.06.2022
903 Clear 20 1016 76 10000 0.51 0 04:47 15.06.2022
904 Clear 22 1016 73 10000 1.54 230 01:55 15.06.2022
905 Clear 22 1017 74 10000 1.03 200 00:54 15.06.2022
906 Clear 23 1016 66 10000 1.54 230 23:55 14.06.2022
907 Clear 23 1016 66 10000 1.54 230 23:37 14.06.2022
908 Clear 23 1017 72 10000 1.54 250 22:28 14.06.2022
909 Clouds 24 1016 67 10000 1.54 250 21:40 14.06.2022
910 Clouds 25 1014 59 10000 2.57 230 20:57 14.06.2022
911 Clouds 26 1014 58 10000 2.57 230 20:32 14.06.2022
912 Clear 28 1014 52 10000 5.14 240 19:22 14.06.2022
913 Clear 29 1014 47 10000 6.17 210 18:25 14.06.2022
914 Clear 30 1013 43 10000 4.63 230 16:48 14.06.2022
915 Clouds 31 1014 38 10000 4.63 260 15:50 14.06.2022
916 Clear 32 1015 41 10000 5.14 240 15:28 14.06.2022
917 Clear 32 1014 37 10000 4.63 260 14:40 14.06.2022
918 Clear 32 1014 34 10000 3.09 210 13:46 14.06.2022
919 Clear 31 1015 34 10000 2.57 0 12:48 14.06.2022
920 Clear 30 1015 35 10000 2.06 0 11:41 14.06.2022
921 Clear 29 1015 39 10000 1.54 30 10:49 14.06.2022
922 Clear 28 1015 41 10000 1.54 30 10:22 14.06.2022
923 Clear 24 1014 55 10000 0.51 0 08:49 14.06.2022
924 Clear 22 1014 57 10000 1.54 340 07:49 14.06.2022
925 Clear 20 1014 66 10000 2.06 130 05:46 14.06.2022
926 Clear 20 1014 66 10000 1.51 21 03:20 14.06.2022
927 Clear 22 1014 56 10000 1.03 190 00:54 14.06.2022
928 Clear 22 1014 60 10000 0.51 0 23:41 13.06.2022
929 Clear 24 1015 56 10000 1.54 250 22:26 13.06.2022
930 Clear 24 1013 53 10000 1.54 250 21:52 13.06.2022
931 Clear 26 1014 47 10000 3.09 200 20:42 13.06.2022
932 Clear 28 1013 41 10000 4.12 230 19:35 13.06.2022
933 Clear 30 1012 36 10000 4.12 240 18:28 13.06.2022
934 Clear 30 1013 36 10000 4.63 230 17:47 13.06.2022
935 Clear 31 1012 35 10000 5.14 240 16:53 13.06.2022
936 Clear 31 1013 32 10000 5.14 250 15:40 13.06.2022
937 Clear 32 1014 30 10000 4.12 240 14:47 13.06.2022
938 Clear 32 1013 29 10000 3.6 270 13:55 13.06.2022
939 Clear 31 1015 30 10000 2.06 0 12:49 13.06.2022
940 Clear 29 1015 36 10000 2.06 150 11:37 13.06.2022
941 Clear 27 1015 38 10000 1.54 350 10:27 13.06.2022
942 Clear 26 1015 40 10000 2.06 360 09:42 13.06.2022
943 Clear 23 1014 48 10000 2.57 70 08:24 13.06.2022
944 Clear 20 1016 56 10000 2.06 70 06:33 13.06.2022
945 Clear 21 1015 53 10000 2.06 70 03:28 13.06.2022
946 Clear 23 1014 45 10000 2.57 30 01:38 13.06.2022
947 Clear 23 1016 36 10000 1.54 30 00:48 13.06.2022
948 Clear 25 1014 35 10000 2.57 50 23:31 12.06.2022
949 Clear 26 1016 38 10000 0.51 0 22:23 12.06.2022
950 Clear 26 1016 38 10000 1.54 270 21:39 12.06.2022
951 Clear 29 1013 25 10000 5.14 350 20:39 12.06.2022
952 Clear 30 1014 33 10000 6.17 360 19:41 12.06.2022
953 Clear 31 1013 29 10000 5.66 360 18:43 12.06.2022
954 Clear 32 1014 27 10000 6.17 200 16:42 12.06.2022
955 Clouds 33 1015 27 10000 4.12 350 15:30 12.06.2022
956 Clear 32 1014 29 10000 4.63 10 14:32 12.06.2022
957 Clear 32 1015 29 10000 4.12 30 13:55 12.06.2022
958 Clear 31 1016 33 10000 2.24 46 12:58 12.06.2022
959 Clear 29 1017 36 10000 3.6 20 11:48 12.06.2022
960 Clear 28 1017 39 10000 4.63 10 10:45 12.06.2022
961 Clear 26 1017 48 10000 1.79 71 09:28 12.06.2022
962 Clear 25 1016 46 10000 3.09 40 08:49 12.06.2022
963 Clear 22 1017 51 10000 2.57 40 07:40 12.06.2022
964 Clear 20 1016 61 10000 2.06 50 05:39 12.06.2022
965 Clear 21 1016 55 10000 2.06 30 03:38 12.06.2022
966 Clear 23 1017 52 10000 3.6 60 01:43 12.06.2022
967 Clear 24 1016 48 10000 3.6 40 00:59 12.06.2022
968 Clear 24 1016 47 10000 3.09 30 00:28 12.06.2022
969 Clear 25 1016 45 10000 3.6 40 23:53 11.06.2022
970 Clear 25 1016 38 10000 2.57 30 22:49 11.06.2022
971 Clear 26 1016 42 10000 2.57 40 22:28 11.06.2022
972 Clear 28 1013 35 10000 5.66 360 20:55 11.06.2022
973 Clear 29 1013 34 10000 6.17 360 20:24 11.06.2022
974 Clear 30 1015 33 10000 6.17 10 19:32 11.06.2022
975 Clear 30 1014 35 10000 4.63 270 18:36 11.06.2022
976 Clear 30 1015 40 10000 5.14 260 17:52 11.06.2022
977 Clear 31 1013 35 10000 5.66 250 17:29 11.06.2022
978 Clouds 30 1015 40 10000 5.66 270 16:59 11.06.2022
979 Clouds 31 1014 35 10000 5.66 270 16:38 11.06.2022
980 Clear 32 1013 31 10000 5.14 260 15:45 11.06.2022
981 Clear 32 1013 31 10000 5.14 260 15:45 11.06.2022
982 Clouds 31 1014 32 10000 2.57 0 13:54 11.06.2022
983 Clear 31 1014 33 10000 3.09 360 13:25 11.06.2022
984 Clear 29 1016 41 10000 4.63 360 11:18 11.06.2022
985 Clear 27 1015 46 10000 4.12 20 10:22 11.06.2022
986 Clear 26 1015 49 10000 3.6 20 09:38 11.06.2022
987 Clear 21 1014 60 10000 2.57 50 07:52 11.06.2022
988 Clear 19 1014 68 10000 2.57 30 06:31 11.06.2022
989 Clear 20 1013 64 10000 3.09 40 05:21 11.06.2022
990 Clear 21 1014 61 10000 3.09 60 01:53 11.06.2022
991 Clear 21 1014 61 10000 3.09 60 01:53 11.06.2022
992 Clear 21 1014 61 10000 3.09 60 01:34 11.06.2022
993 Clear 22 1013 59 10000 4.63 20 00:22 11.06.2022
994 Clear 23 1013 55 10000 5.14 20 22:35 10.06.2022
995 Clear 23 1013 54 10000 6.17 20 21:54 10.06.2022
996 Clear 25 1011 49 10000 6.69 360 20:43 10.06.2022
997 Clear 26 1011 48 10000 7.72 20 20:23 10.06.2022
998 Clear 27 1011 45 10000 6.17 30 19:48 10.06.2022
999 Clear 28 1010 41 10000 6.69 30 19:18 10.06.2022
1000 Clear 28 1010 40 10000 8.23 20 18:19 10.06.2022
1001 Clouds 28 1009 41 10000 6.69 50 17:36 10.06.2022
1002 Clouds 29 1009 38 10000 7.72 30 16:56 10.06.2022
1003 Clear 28 1009 43 10000 7.72 20 15:48 10.06.2022
1004 Clear 28 1009 43 10000 8.75 10 15:19 10.06.2022
1005 Clear 27 1009 43 10000 8.23 30 13:44 10.06.2022
1006 Clear 26 1009 46 10000 8.75 20 12:28 10.06.2022
1007 Clear 25 1009 48 10000 7.72 30 11:40 10.06.2022
1008 Clear 24 1008 51 10000 7.2 10 10:40 10.06.2022
1009 Clear 23 1008 53 10000 7.2 10 09:43 10.06.2022
1010 Clear 21 1007 62 10000 6.17 350 08:23 10.06.2022
1011 Clouds 19 1006 66 10000 4.12 30 06:52 10.06.2022
1012 Clouds 19 1006 66 10000 4.12 30 06:32 10.06.2022
1013 Clear 19 1005 68 10000 5.14 40 05:45 10.06.2022
1014 Clear 18 1005 72 10000 3.6 30 03:41 10.06.2022
1015 Clear 18 1005 72 10000 6.69 30 01:38 10.06.2022
1016 Clear 18 1007 73 10000 5.66 10 00:25 10.06.2022
1017 Clear 19 1005 69 10000 4.63 360 23:25 09.06.2022
1018 Clear 20 1006 69 10000 2.68 42 21:47 09.06.2022
1019 Clouds 20 1005 68 10000 2.06 30 21:29 09.06.2022
1020 Clear 21 1004 72 10000 2.57 40 20:47 09.06.2022
1021 Clouds 22 1003 69 10000 3.09 40 19:54 09.06.2022
1022 Clouds 21 1004 75 10000 2.57 350 18:47 09.06.2022
1023 Rain 20 1003 78 10000 4.63 60 17:56 09.06.2022
1024 Clouds 19 1004 87 8000 3.6 120 16:44 09.06.2022
1025 Thunderstorm 20 1005 83 7000 4.12 340 15:44 09.06.2022
1026 Rain 22 1004 68 10000 2.57 50 14:34 09.06.2022
1027 Rain 24 1003 59 10000 2.06 330 13:46 09.06.2022
1028 Thunderstorm 24 1003 60 10000 2.24 34 13:26 09.06.2022
1029 Clouds 25 1003 60 10000 2.57 290 11:53 09.06.2022
1030 Clouds 24 1005 65 10000 3.6 210 10:40 09.06.2022
1031 Clouds 24 1004 67 10000 3.6 210 09:41 09.06.2022
1032 Clouds 23 1003 67 10000 2.57 240 09:23 09.06.2022
1033 Clouds 22 1004 73 10000 3.09 210 07:34 09.06.2022
1034 Clouds 22 1005 79 10000 3.6 170 05:27 09.06.2022
1035 Clouds 22 1006 70 10000 3.6 210 01:44 09.06.2022
1036 Rain 23 1007 75 10000 2.57 200 23:34 08.06.2022
1037 Clear 23 1008 70 10000 2.57 200 22:51 08.06.2022
1038 Clouds 23 1008 73 10000 2.57 220 22:26 08.06.2022
1039 Clouds 24 1007 67 10000 3.09 230 21:49 08.06.2022
1040 Clear 25 1007 60 10000 2.57 240 20:43 08.06.2022
1041 Clear 26 1007 53 10000 3.6 260 19:49 08.06.2022
1042 Clouds 27 1008 50 10000 3.6 290 18:58 08.06.2022
1043 Clear 27 1008 48 10000 3.6 240 18:40 08.06.2022
1044 Clear 29 1008 44 10000 5.14 260 16:34 08.06.2022
1045 Clouds 30 1007 41 10000 5.66 260 14:54 08.06.2022
1046 Clear 30 1008 39 10000 4.12 300 13:36 08.06.2022
1047 Clear 29 1009 40 10000 2.06 0 11:50 08.06.2022
1048 Clear 28 1009 40 10000 1.54 0 11:24 08.06.2022
1049 Clear 26 1009 59 10000 2.06 360 09:47 08.06.2022
1050 Clear 25 1009 64 10000 2.06 360 09:20 08.06.2022
1051 Clear 21 1008 76 10000 0.51 0 07:32 08.06.2022
1052 Clouds 20 1009 80 10000 1.54 80 05:20 08.06.2022
1053 Clear 21 1009 74 10000 1.54 200 02:38 08.06.2022
1054 Clear 23 1009 76 10000 2.06 200 23:42 07.06.2022
1055 Clear 23 1009 76 10000 3.09 230 23:24 07.06.2022
1056 Clear 22 1011 82 10000 2.06 230 22:39 07.06.2022
1057 Clear 24 1009 75 10000 3.09 220 21:52 07.06.2022
1058 Clear 24 1009 69 10000 3.09 220 21:27 07.06.2022
1059 Clear 26 1009 57 10000 4.12 230 20:46 07.06.2022
1060 Clear 27 1009 52 10000 3.6 230 20:23 07.06.2022
1061 Clear 29 1008 38 10000 4.12 250 18:51 07.06.2022
1062 Clear 31 1008 35 10000 5.14 260 17:55 07.06.2022
1063 Clear 32 1009 33 10000 3.13 254 16:56 07.06.2022
1064 Clear 32 1009 30 10000 4.63 240 16:33 07.06.2022
1065 Clear 32 1010 32 10000 5.14 280 15:40 07.06.2022
1066 Clear 32 1010 32 10000 5.14 270 15:22 07.06.2022
1067 Clear 32 1010 30 10000 5.14 270 14:46 07.06.2022
1068 Clear 32 1010 25 10000 3.6 310 13:46 07.06.2022
1069 Clear 32 1010 25 10000 3.6 310 13:46 07.06.2022
1070 Clear 32 1010 25 10000 4.12 270 13:27 07.06.2022
1071 Clear 32 1011 28 10000 2.57 0 12:22 07.06.2022
1072 Clear 30 1011 33 10000 1.79 207 10:57 07.06.2022
1073 Clear 28 1011 49 10000 1.54 10 09:58 07.06.2022
1074 Clear 24 1012 60 10000 2.06 40 08:32 07.06.2022
1075 Clear 21 1012 70 10000 1.54 40 07:21 07.06.2022
1076 Clear 20 1011 74 10000 1.03 0 05:47 07.06.2022
1077 Clear 22 1012 75 10000 1.54 200 02:28 07.06.2022
1078 Clear 23 1013 68 10000 2.06 220 00:33 07.06.2022
1079 Clear 24 1013 65 10000 2.06 210 23:32 06.06.2022
1080 Clear 25 1013 61 10000 2.57 190 22:37 06.06.2022
1081 Clear 26 1013 60 10000 2.57 200 21:36 06.06.2022
1082 Clear 29 1012 46 10000 5.14 280 19:53 06.06.2022
1083 Clear 30 1012 44 10000 6.17 280 19:19 06.06.2022
1084 Clear 31 1012 38 10000 5.66 290 18:34 06.06.2022
1085 Clear 33 1012 29 10000 5.66 290 17:36 06.06.2022
1086 Clear 33 1013 25 10000 6.69 300 16:33 06.06.2022
1087 Clear 34 1013 29 10000 5.66 290 15:39 06.06.2022
1088 Clear 34 1013 27 10000 5.14 330 14:39 06.06.2022
1089 Clear 34 1014 26 10000 3.6 360 13:27 06.06.2022
1090 Clear 33 1014 30 10000 3.09 350 12:37 06.06.2022
1091 Clear 32 1013 32 10000 2.57 350 11:58 06.06.2022
1092 Clear 32 1014 32 10000 2.24 6 11:28 06.06.2022
1093 Clear 28 1013 42 10000 3.6 40 09:40 06.06.2022
1094 Clear 25 1014 50 10000 2.06 30 08:35 06.06.2022
1095 Clear 22 1013 54 10000 2.57 50 07:37 06.06.2022
1096 Clear 21 1013 59 10000 1.03 40 05:29 06.06.2022
1097 Clear 21 1013 59 10000 1.03 40 05:29 06.06.2022
1098 Clear 23 1014 59 10000 2.06 160 03:46 06.06.2022
1099 Clear 24 1015 60 10000 1.03 0 01:29 06.06.2022
1100 Clear 24 1016 60 10000 1.54 170 00:42 06.06.2022
1101 Clear 25 1017 55 10000 4.12 280 23:49 05.06.2022
1102 Clear 26 1016 50 10000 4.63 300 22:52 05.06.2022
1103 Clouds 27 1015 52 10000 1.26 286 20:59 05.06.2022
1104 Clouds 30 1013 34 10000 3.09 320 19:50 05.06.2022
1105 Clear 30 1014 33 10000 4.63 130 18:30 05.06.2022
1106 Clear 30 1015 33 10000 2.57 340 17:55 05.06.2022
1107 Clear 31 1016 33 10000 4.63 310 17:27 05.06.2022
1108 Clear 31 1017 33 10000 4.63 270 16:57 05.06.2022
1109 Clear 31 1017 32 10000 4.63 270 16:37 05.06.2022
1110 Clear 31 1017 32 10000 4.63 270 16:37 05.06.2022
1111 Clear 33 1017 31 10000 5.14 240 14:34 05.06.2022
1112 Clear 34 1016 29 10000 3.13 240 12:59 05.06.2022
1113 Clouds 32 1016 27 10000 3.09 110 11:49 05.06.2022
1114 Clear 26 1019 48 10000 3.6 60 10:42 05.06.2022
1115 Clouds 29 1019 34 10000 3.6 30 10:22 05.06.2022
1116 Clouds 23 1017 53 10000 3.6 110 08:40 05.06.2022
1117 Clouds 23 1017 56 10000 2.68 123 08:20 05.06.2022
1118 Clear 22 1015 49 10000 1.03 0 05:23 05.06.2022
1119 Clear 23 1015 46 10000 1.34 45 04:30 05.06.2022
1120 Clear 24 1017 46 10000 2.06 100 01:33 05.06.2022
1121 Clear 24 1018 47 10000 0.51 0 00:52 05.06.2022
1122 Clear 26 1017 41 10000 0.51 0 22:43 04.06.2022
1123 Clear 29 1016 34 10000 2.57 270 20:42 04.06.2022
1124 Clear 32 1015 28 10000 3.09 230 18:53 04.06.2022
1125 Clear 34 1017 28 10000 3.6 200 16:47 04.06.2022
1126 Clear 34 1017 29 10000 3.6 190 16:19 04.06.2022
1127 Clear 31 1019 30 10000 3.6 320 14:54 04.06.2022
1128 Clear 33 1019 31 10000 4.12 280 13:37 04.06.2022
1129 Clear 31 1017 33 10000 2.06 290 11:23 04.06.2022
1130 Clear 31 1017 35 10000 1.03 0 10:50 04.06.2022
1131 Clear 29 1017 42 10000 2.57 60 09:45 04.06.2022
1132 Clear 26 1017 53 10000 1.03 0 08:44 04.06.2022
1133 Clear 24 1018 56 10000 1.03 0 07:51 04.06.2022
1134 Clear 22 1018 69 10000 1.54 40 05:38 04.06.2022
1135 Clear 23 1017 61 10000 0.51 0 02:36 04.06.2022
1136 Clouds 24 1017 54 10000 0.65 86 00:20 04.06.2022
1137 Clear 26 1017 37 10000 1.54 260 22:41 03.06.2022
1138 Clear 28 1016 43 10000 2.57 110 21:39 03.06.2022
1139 Clear 29 1017 39 10000 1.03 350 20:38 03.06.2022
1140 Clear 31 1017 33 10000 1.54 270 18:54 03.06.2022
1141 Clear 32 1018 34 10000 5.66 250 16:54 03.06.2022
1142 Clear 33 1017 33 10000 5.66 240 15:40 03.06.2022
1143 Clear 32 1016 42 10000 6.69 230 13:49 03.06.2022
1144 Clear 33 1016 39 10000 4.12 230 11:51 03.06.2022
1145 Clear 29 1018 45 10000 2.06 50 09:53 03.06.2022
1146 Clear 27 1018 50 10000 1.03 0 09:28 03.06.2022
1147 Clear 21 1016 68 10000 1.03 0 07:27 03.06.2022
1148 Clear 20 1016 71 10000 1.54 20 06:45 03.06.2022
1149 Clear 20 1016 70 10000 1.54 80 06:27 03.06.2022
1150 Clear 22 1017 63 10000 1.03 170 02:24 03.06.2022
1151 Clear 23 1016 62 10000 1.54 80 23:34 02.06.2022
1152 Clear 24 1017 66 10000 2.06 320 21:57 02.06.2022
1153 Clear 27 1016 57 10000 2.57 240 20:26 02.06.2022
1154 Clear 28 1017 49 10000 3.09 250 19:53 02.06.2022
1155 Clear 27 1017 48 10000 4.63 240 19:35 02.06.2022
1156 Clear 29 1015 47 10000 5.14 240 18:34 02.06.2022
1157 Clear 32 1015 43 10000 4.63 220 16:28 02.06.2022
1158 Clear 33 1015 36 10000 4.63 250 15:30 02.06.2022
1159 Clear 34 1016 26 10000 2.57 0 13:30 02.06.2022
1160 Clear 33 1016 31 10000 2.06 240 12:46 02.06.2022
1161 Clear 29 1016 49 10000 3.6 50 10:32 02.06.2022
1162 Clear 26 1016 60 10000 2.06 30 09:29 02.06.2022
1163 Clear 23 1016 68 10000 1.03 0 08:30 02.06.2022
1164 Clear 21 1016 72 10000 1.54 70 07:58 02.06.2022
1165 Clear 19 1015 78 10000 1.34 87 06:20 02.06.2022
1166 Rain 19 1015 76 10000 0.51 70 03:49 02.06.2022
1167 Clear 21 1015 73 10000 0.51 0 00:31 02.06.2022
1168 Clear 22 1015 71 10000 1.54 240 22:57 01.06.2022
1169 Clear 23 1015 71 10000 1.54 250 21:45 01.06.2022
1170 Clear 24 1015 69 10000 3.09 280 21:22 01.06.2022
1171 Clear 24 1015 69 10000 3.09 280 21:22 01.06.2022
1172 Clear 25 1016 67 10000 2.57 270 20:38 01.06.2022
1173 Clear 27 1014 56 10000 4.12 230 19:49 01.06.2022
1174 Clear 28 1014 51 10000 4.63 270 18:24 01.06.2022
1175 Clear 30 1014 47 10000 5.14 270 16:48 01.06.2022
1176 Clear 30 1013 45 10000 3.6 230 15:42 01.06.2022
1177 Clear 30 1014 44 10000 4.12 280 14:35 01.06.2022
1178 Clear 30 1015 42 10000 2.06 0 12:46 01.06.2022
1179 Clear 27 1015 52 10000 1.54 10 10:42 01.06.2022
1180 Clear 23 1015 69 10000 3.09 70 09:27 01.06.2022
1181 Clear 20 1014 75 10000 2.06 50 07:57 01.06.2022
1182 Clouds 19 1015 74 10000 1.54 90 06:49 01.06.2022
1183 Clear 20 1014 76 10000 1.03 110 03:22 01.06.2022
1184 Clouds 21 1013 78 10000 1.54 230 23:47 31.05.2022
1185 Clear 22 1013 73 10000 1.54 250 22:38 31.05.2022
1186 Clear 22 1014 78 10000 2.06 240 22:18 31.05.2022
1187 Clear 23 1012 72 10000 2.57 240 21:22 31.05.2022
1188 Clouds 24 1013 73 10000 4.12 230 20:41 31.05.2022
1189 Clear 26 1011 53 10000 5.14 230 19:22 31.05.2022
1190 Clear 28 1012 53 10000 5.14 230 18:19 31.05.2022
1191 Clear 28 1012 49 10000 5.66 230 17:37 31.05.2022
1192 Clear 30 1011 43 10000 6.17 210 15:42 31.05.2022
1193 Clear 30 1011 41 10000 6.69 190 15:21 31.05.2022
1194 Clear 29 1012 36 10000 7.72 190 12:39 31.05.2022
1195 Clear 29 1012 36 10000 7.72 180 12:18 31.05.2022
1196 Clear 26 1011 49 10000 4.12 140 09:53 31.05.2022
1197 Clear 21 1011 67 10000 2.57 350 07:42 31.05.2022
1198 Clear 20 1011 64 10000 4.63 150 05:38 31.05.2022
1199 Clear 20 1011 70 10000 2.57 80 03:41 31.05.2022
1200 Clear 22 1012 70 10000 2.68 175 23:39 30.05.2022
1201 Clear 22 1011 66 10000 4.63 160 23:18 30.05.2022
1202 Clear 23 1010 65 10000 5.14 170 22:32 30.05.2022
1203 Clear 23 1011 75 10000 5.66 190 21:37 30.05.2022
1204 Clear 24 1010 63 10000 5.14 190 20:41 30.05.2022
1205 Clear 25 1010 53 10000 5.66 190 19:38 30.05.2022
1206 Clear 28 1009 37 10000 6.17 190 17:44 30.05.2022
1207 Clear 29 1008 36 10000 5.66 190 17:19 30.05.2022
1208 Clear 29 1008 32 10000 5.66 180 15:44 30.05.2022
1209 Clouds 28 1008 44 10000 5.66 210 13:21 30.05.2022
1210 Clouds 26 1009 49 10000 5.66 170 11:30 30.05.2022
1211 Clouds 23 1008 67 10000 6.17 170 09:41 30.05.2022
1212 Clouds 20 1007 73 10000 4.63 180 07:29 30.05.2022
1213 Clouds 19 1008 73 10000 2.66 134 05:54 30.05.2022
1214 Clouds 20 1007 79 10000 2.45 130 03:22 30.05.2022
1215 Clear 20 1007 82 10000 3.09 190 23:58 29.05.2022
1216 Clear 21 1005 75 10000 4.12 190 22:40 29.05.2022
1217 Clear 22 1006 75 10000 3.09 210 21:44 29.05.2022
1218 Clouds 23 1004 62 10000 4.12 220 20:18 29.05.2022
1219 Clouds 25 1002 54 10000 4.63 230 19:28 29.05.2022
1220 Clouds 26 1002 53 10000 5.66 220 17:56 29.05.2022
1221 Clouds 26 1002 55 10000 6.17 230 16:20 29.05.2022
1222 Clouds 27 1001 55 10000 6.17 240 15:41 29.05.2022
1223 Clear 27 1002 55 10000 5.14 210 14:49 29.05.2022
1224 Clouds 26 1003 58 10000 4.63 260 12:21 29.05.2022
1225 Clouds 25 1002 58 10000 2.57 180 10:56 29.05.2022
1226 Clear 24 1002 57 10000 1.03 0 09:54 29.05.2022
1227 Clouds 20 1002 65 10000 2.57 80 07:55 29.05.2022
1228 Clouds 20 1004 66 10000 1.52 11 04:58 29.05.2022
1229 Clouds 20 1003 64 10000 0.45 54 04:32 29.05.2022
1230 Clear 21 1004 59 10000 4.63 220 00:53 29.05.2022
1231 Clear 22 1004 58 10000 1.03 0 23:47 28.05.2022
1232 Clear 22 1004 49 10000 3.09 350 23:19 28.05.2022
1233 Clear 24 1004 50 10000 4.12 30 21:52 28.05.2022
1234 Thunderstorm 23 1005 57 10000 2.57 20 20:46 28.05.2022
1235 Thunderstorm 24 1004 53 10000 1.54 340 19:19 28.05.2022
1236 Thunderstorm 25 1004 46 10000 2.06 260 18:23 28.05.2022
1237 Rain 26 1005 48 10000 2.57 270 17:32 28.05.2022
1238 Rain 28 1004 47 10000 5.14 220 15:49 28.05.2022
1239 Rain 29 1004 48 10000 4.12 270 15:20 28.05.2022
1240 Clear 32 1004 38 10000 4.12 290 13:29 28.05.2022
1241 Clear 31 1006 34 10000 2.68 275 12:42 28.05.2022
1242 Clear 31 1005 40 10000 1.03 0 11:37 28.05.2022
1243 Clouds 29 1005 40 10000 2.57 10 10:38 28.05.2022
1244 Clear 28 1005 46 10000 2.57 30 09:54 28.05.2022
1245 Clear 24 1005 54 10000 2.06 60 08:21 28.05.2022
1246 Clouds 21 1007 65 10000 1.54 280 06:34 28.05.2022
1247 Clouds 22 1008 64 10000 3.6 70 04:46 28.05.2022
1248 Clear 23 1008 61 10000 1.54 50 02:18 28.05.2022
1249 Clouds 24 1010 52 10000 4.63 40 23:55 27.05.2022
1250 Clouds 25 1011 49 10000 5.14 40 22:38 27.05.2022
1251 Clouds 26 1010 51 10000 5.66 40 21:22 27.05.2022
1252 Clouds 27 1012 51 6000 6.69 30 20:43 27.05.2022
1253 Clouds 28 1011 48 6000 6.69 30 20:19 27.05.2022
1254 Clouds 28 1011 51 10000 3.6 320 19:37 27.05.2022
1255 Clouds 28 1011 48 10000 3.6 320 19:19 27.05.2022
1256 Clouds 28 1011 48 10000 3.6 320 19:19 27.05.2022
1257 Clear 33 1010 33 10000 3.09 210 16:53 27.05.2022
1258 Clear 33 1011 34 10000 3.6 210 15:55 27.05.2022
1259 Clear 33 1012 32 10000 4.63 210 14:47 27.05.2022
1260 Clear 34 1012 25 10000 4.12 130 13:40 27.05.2022
1261 Clear 33 1013 30 10000 2.24 348 11:55 27.05.2022
1262 Clear 33 1013 33 10000 1.79 1 11:30 27.05.2022
1263 Clear 30 1014 38 10000 1.54 80 10:38 27.05.2022
1264 Clear 29 1014 42 10000 1.03 0 09:58 27.05.2022
1265 Clear 27 1014 49 10000 1.03 0 09:28 27.05.2022
1266 Clear 24 1013 53 10000 4.12 70 07:30 27.05.2022
1267 Clear 23 1014 58 10000 2.06 310 03:38 27.05.2022
1268 Clear 24 1016 58 10000 1.79 54 01:27 27.05.2022
1269 Clear 24 1017 58 10000 2.57 170 23:23 26.05.2022
1270 Clear 24 1017 58 10000 2.57 170 23:23 26.05.2022
1271 Clear 25 1016 55 10000 2.06 260 21:57 26.05.2022
1272 Clear 26 1016 52 10000 2.06 310 21:27 26.05.2022
1273 Clear 29 1016 41 10000 3.6 120 19:34 26.05.2022
1274 Clear 30 1015 38 10000 3.09 270 18:45 26.05.2022
1275 Clouds 31 1015 33 10000 4.63 290 17:36 26.05.2022
1276 Clouds 33 1016 30 10000 3.6 200 16:18 26.05.2022
1277 Clear 33 1015 27 10000 2.57 210 15:24 26.05.2022
1278 Clear 32 1016 27 10000 4.12 210 13:58 26.05.2022
1279 Clear 30 1016 34 10000 4.63 200 11:59 26.05.2022
1280 Clear 28 1017 38 10000 2.24 138 11:18 26.05.2022
1281 Clear 25 1016 39 10000 1.03 0 09:38 26.05.2022
1282 Clear 22 1016 52 10000 2.06 10 08:39 26.05.2022
1283 Clear 22 1016 52 10000 2.06 10 08:39 26.05.2022
1284 Clear 20 1014 56 10000 3.09 30 05:30 26.05.2022
1285 Clear 20 1016 57 10000 2.06 90 02:20 26.05.2022
1286 Clear 22 1018 49 10000 1.03 0 23:50 25.05.2022
1287 Clear 22 1014 52 10000 1.38 277 22:52 25.05.2022
1288 Clear 23 1014 48 10000 2.06 180 21:41 25.05.2022
1289 Clear 24 1014 45 10000 2.06 240 20:49 25.05.2022
1290 Clear 27 1011 33 10000 3.09 180 19:32 25.05.2022
1291 Clouds 28 1012 32 10000 5.66 200 18:47 25.05.2022
1292 Rain 29 1012 25 10000 5.14 200 16:58 25.05.2022
1293 Clouds 29 1013 25 10000 4.12 210 16:27 25.05.2022
1294 Clouds 29 1012 28 10000 6.17 210 15:36 25.05.2022
1295 Clouds 29 1012 31 10000 2.57 170 14:50 25.05.2022
1296 Clouds 28 1012 32 10000 5.66 160 14:31 25.05.2022
1297 Rain 29 1011 24 10000 7.2 200 13:23 25.05.2022
1298 Clouds 30 1011 24 10000 3.58 156 11:49 25.05.2022
1299 Clear 28 1011 32 10000 6.17 180 10:24 25.05.2022
1300 Clear 26 1010 39 10000 5.66 190 09:29 25.05.2022
1301 Clouds 21 1009 61 10000 0.89 19 07:36 25.05.2022
1302 Clear 18 1009 67 10000 1.03 360 05:41 25.05.2022
1303 Clouds 20 1009 70 10000 1.6 76 02:41 25.05.2022
1304 Clear 21 1010 71 10000 5.66 220 23:48 24.05.2022
1305 Clear 21 1009 73 10000 6.17 190 22:59 24.05.2022
1306 Clouds 22 1008 70 10000 6.17 220 21:57 24.05.2022
1307 Clouds 22 1008 69 10000 6.17 220 21:37 24.05.2022
1308 Clouds 23 1008 68 10000 5.14 160 21:18 24.05.2022
1309 Clear 25 1007 57 10000 8.23 200 19:23 24.05.2022
1310 Clear 27 1008 53 10000 8.23 200 18:29 24.05.2022
1311 Clear 28 1007 39 10000 7.72 180 16:39 24.05.2022
1312 Clear 29 1007 33 10000 8.75 200 15:45 24.05.2022
1313 Clear 29 1008 29 10000 7.72 210 14:38 24.05.2022
1314 Clear 29 1008 25 10000 8.23 190 13:46 24.05.2022
1315 Clear 29 1008 25 10000 7.72 190 12:19 24.05.2022
1316 Clear 26 1008 29 10000 5.66 180 09:52 24.05.2022
1317 Clear 23 1007 40 10000 5.66 160 08:51 24.05.2022
1318 Clear 22 1008 45 10000 2.57 170 07:56 24.05.2022
1319 Clear 18 1007 61 10000 2.57 10 06:39 24.05.2022
1320 Clear 17 1008 65 10000 1.54 160 03:38 24.05.2022
1321 Clear 18 1009 61 10000 1.54 100 01:46 24.05.2022
1322 Clear 19 1010 64 10000 1.03 0 00:30 24.05.2022
1323 Clear 21 1010 52 10000 3.6 210 22:24 23.05.2022
1324 Clear 21 1010 59 10000 4.12 210 21:50 23.05.2022
1325 Clear 24 1008 36 10000 3.09 220 20:46 23.05.2022
1326 Clear 25 1010 37 10000 4.12 210 19:55 23.05.2022
1327 Clear 26 1008 32 10000 4.63 230 19:24 23.05.2022
1328 Clear 28 1008 31 10000 5.14 220 18:41 23.05.2022
1329 Clear 28 1008 30 10000 5.14 210 17:56 23.05.2022
1330 Clear 29 1009 35 10000 4.63 250 16:29 23.05.2022
1331 Clear 28 1009 39 10000 3.09 0 14:18 23.05.2022
1332 Clear 26 1010 48 10000 3.09 240 11:53 23.05.2022
1333 Clear 25 1011 55 10000 1.03 0 10:49 23.05.2022
1334 Clear 22 1011 68 10000 2.06 360 09:48 23.05.2022
1335 Clear 20 1010 66 10000 0.51 0 08:47 23.05.2022
1336 Clear 18 1010 69 10000 0.51 0 07:37 23.05.2022
1337 Clear 18 1010 73 10000 1.03 220 06:41 23.05.2022
1338 Clear 17 1013 74 10000 1.54 190 03:51 23.05.2022
1339 Clear 18 1012 71 10000 1.54 160 02:18 23.05.2022
1340 Clear 19 1012 71 10000 1.03 0 01:32 23.05.2022
1341 Clear 20 1012 80 10000 2.06 220 23:18 22.05.2022
1342 Clear 20 1012 79 10000 1.54 240 22:27 22.05.2022
1343 Clear 21 1013 80 10000 2.57 220 21:52 22.05.2022
1344 Clear 22 1012 68 10000 2.57 250 20:46 22.05.2022
1345 Clear 23 1011 63 10000 3.09 250 20:23 22.05.2022
1346 Clear 23 1011 62 10000 3.6 220 19:39 22.05.2022
1347 Clear 24 1011 59 10000 3.6 240 18:52 22.05.2022
1348 Clear 25 1012 57 10000 4.63 230 18:21 22.05.2022
1349 Clear 26 1011 56 10000 4.12 240 17:26 22.05.2022
1350 Clear 27 1012 56 10000 4.63 240 15:57 22.05.2022
1351 Clear 28 1013 53 10000 4.63 230 14:48 22.05.2022
1352 Clear 28 1013 45 10000 4.12 260 13:22 22.05.2022
1353 Clear 28 1014 44 10000 2.57 280 12:48 22.05.2022
1354 Clear 26 1014 48 10000 1.54 0 11:29 22.05.2022
1355 Clear 22 1015 74 10000 1.54 330 09:40 22.05.2022
1356 Clear 19 1014 78 10000 1.54 50 07:54 22.05.2022
1357 Clear 18 1014 79 10000 1.54 60 07:21 22.05.2022
1358 Clouds 18 1016 85 10000 1.03 330 04:59 22.05.2022
1359 Clouds 19 1016 80 10000 1.03 220 01:21 22.05.2022
1360 Clouds 19 1017 81 10000 1.54 230 00:39 22.05.2022
1361 Clear 19 1018 77 10000 2.57 210 23:50 21.05.2022
1362 Clear 20 1016 77 10000 2.06 220 22:24 21.05.2022
1363 Clear 21 1016 76 10000 2.57 210 21:41 21.05.2022
1364 Clear 22 1017 72 10000 3.09 210 20:48 21.05.2022
1365 Clear 23 1017 64 10000 3.09 210 20:21 21.05.2022
1366 Clear 24 1017 56 10000 3.6 240 19:25 21.05.2022
1367 Clear 26 1017 45 10000 4.12 220 17:47 21.05.2022
1368 Clear 28 1018 39 10000 4.12 240 15:44 21.05.2022
1369 Clear 28 1019 37 10000 5.14 290 14:37 21.05.2022
1370 Clear 28 1020 35 10000 3.09 300 13:41 21.05.2022
1371 Clear 28 1020 34 10000 3.09 320 12:41 21.05.2022
1372 Clear 27 1020 34 10000 2.06 310 11:56 21.05.2022
1373 Clear 23 1021 48 10000 1.54 320 10:22 21.05.2022
1374 Clear 23 1021 45 10000 1.03 0 09:38 21.05.2022
1375 Clear 20 1021 55 10000 1.54 20 08:52 21.05.2022
1376 Clear 16 1022 65 10000 1.86 13 06:28 21.05.2022
1377 Clear 17 1023 67 10000 1.03 0 02:26 21.05.2022
1378 Clear 19 1024 62 10000 2.06 210 23:47 20.05.2022
1379 Clear 20 1025 60 10000 2.06 220 22:42 20.05.2022
1380 Clear 20 1025 60 10000 2.06 220 22:42 20.05.2022
1381 Clear 20 1025 59 10000 1.54 220 22:23 20.05.2022
1382 Clear 21 1024 56 10000 2.06 230 21:40 20.05.2022
1383 Clear 21 1025 52 10000 2.57 260 20:54 20.05.2022
1384 Clear 23 1024 42 10000 4.63 270 19:57 20.05.2022
1385 Clear 25 1024 38 10000 4.63 260 19:24 20.05.2022
1386 Clear 26 1024 35 10000 5.66 270 18:28 20.05.2022
1387 Clear 27 1025 32 10000 5.66 270 16:51 20.05.2022
1388 Clear 28 1024 34 10000 6.17 280 15:57 20.05.2022
1389 Clear 28 1025 35 10000 6.17 280 15:39 20.05.2022
1390 Clear 28 1025 34 10000 6.17 300 14:29 20.05.2022
1391 Clear 28 1026 34 10000 5.14 280 13:44 20.05.2022
1392 Clear 26 1027 38 10000 3.09 10 11:22 20.05.2022
1393 Clear 23 1027 57 10000 3.6 50 09:51 20.05.2022
1394 Clear 20 1027 64 10000 3.6 60 08:41 20.05.2022
1395 Clear 16 1026 67 10000 2.57 70 06:46 20.05.2022
1396 Clear 15 1027 71 10000 2.57 60 06:21 20.05.2022
1397 Clear 16 1026 73 10000 1.03 0 03:53 20.05.2022
1398 Clear 19 1026 68 10000 2.06 210 23:54 19.05.2022
1399 Clear 20 1025 73 10000 2.06 210 22:44 19.05.2022
1400 Clear 20 1026 73 10000 3.09 200 21:53 19.05.2022
1401 Clear 21 1026 67 10000 2.57 230 21:24 19.05.2022
1402 Clear 21 1026 68 10000 2.57 230 20:58 19.05.2022
1403 Clear 22 1025 56 10000 3.09 230 20:21 19.05.2022
1404 Clear 24 1024 49 10000 3.6 250 19:34 19.05.2022
1405 Clear 26 1023 42 10000 5.14 260 17:52 19.05.2022
1406 Clear 27 1022 43 10000 5.66 280 16:22 19.05.2022
1407 Clear 28 1022 35 10000 4.63 310 14:50 19.05.2022
1408 Clear 28 1022 31 10000 2.57 340 14:21 19.05.2022
1409 Clear 26 1025 38 10000 3.09 0 12:23 19.05.2022
1410 Clear 24 1025 42 10000 2.06 360 10:40 19.05.2022
1411 Clear 22 1022 47 10000 3.6 30 08:57 19.05.2022
1412 Clear 19 1022 54 10000 3.09 60 07:41 19.05.2022
1413 Clear 17 1022 58 10000 1.54 300 04:44 19.05.2022
1414 Clear 19 1020 59 10000 4.12 60 01:57 19.05.2022
1415 Clear 20 1019 62 10000 2.06 70 23:49 18.05.2022
1416 Clear 21 1019 57 10000 2.06 130 22:46 18.05.2022
1417 Clear 22 1020 50 10000 1.03 0 21:47 18.05.2022
1418 Clear 23 1020 51 10000 1.54 220 21:25 18.05.2022
1419 Clear 24 1019 48 10000 3.09 230 20:24 18.05.2022
1420 Clouds 26 1018 38 10000 4.12 230 19:37 18.05.2022
1421 Clear 26 1018 39 10000 3.6 230 18:21 18.05.2022
1422 Clear 26 1018 44 10000 4.12 240 17:41 18.05.2022
1423 Clear 26 1018 44 10000 3.6 230 17:23 18.05.2022
1424 Clouds 28 1018 44 10000 4.63 230 15:59 18.05.2022
1425 Clouds 28 1017 40 10000 4.63 230 15:39 18.05.2022
1426 Clouds 30 1016 37 10000 5.66 260 14:34 18.05.2022
1427 Clear 31 1017 32 10000 3.58 261 13:20 18.05.2022
1428 Clear 30 1017 34 10000 2.57 0 12:39 18.05.2022
1429 Clear 29 1017 38 10000 2.57 60 11:34 18.05.2022
1430 Clear 27 1017 47 10000 2.06 60 10:52 18.05.2022
1431 Clear 21 1017 62 10000 1.54 320 08:53 18.05.2022
1432 Clear 18 1016 68 10000 1.54 40 07:29 18.05.2022
1433 Clear 17 1015 68 10000 0.51 0 05:21 18.05.2022
1434 Clear 19 1016 71 10000 1.03 0 00:52 18.05.2022
1435 Clear 19 1016 63 10000 1.54 200 00:20 18.05.2022
1436 Clear 22 1017 50 10000 2.06 230 21:36 17.05.2022
1437 Clear 23 1017 49 10000 2.06 210 21:18 17.05.2022
1438 Clear 25 1015 40 10000 4.63 270 19:49 17.05.2022
1439 Clear 27 1015 36 10000 4.63 270 19:26 17.05.2022
1440 Clear 28 1014 31 10000 5.66 290 17:50 17.05.2022
1441 Clear 29 1015 32 10000 6.17 280 16:58 17.05.2022
1442 Clear 29 1015 32 10000 5.14 290 16:29 17.05.2022
1443 Clear 29 1016 34 10000 4.63 280 15:24 17.05.2022
1444 Clear 29 1017 34 10000 3.09 20 14:30 17.05.2022
1445 Clear 29 1017 34 10000 3.09 20 14:30 17.05.2022
1446 Clear 29 1017 34 10000 3.09 20 14:30 17.05.2022
1447 Clear 29 1017 34 10000 3.09 20 14:30 17.05.2022
1448 Clear 29 1017 32 10000 3.09 350 13:32 17.05.2022
1449 Clear 26 1019 44 10000 2.06 10 11:21 17.05.2022
1450 Clear 21 1018 59 10000 2.57 30 09:23 17.05.2022
1451 Clear 18 1018 68 10000 1.34 59 07:59 17.05.2022
1452 Clear 16 1017 71 10000 1.54 30 06:45 17.05.2022
1453 Clear 17 1019 75 10000 1.03 0 02:55 17.05.2022
1454 Clear 18 1018 70 10000 1.03 0 00:32 17.05.2022
1455 Clear 19 1019 63 10000 1.54 220 22:42 16.05.2022
1456 Clear 21 1019 54 10000 1.54 230 21:36 16.05.2022
1457 Clear 22 1018 51 10000 2.57 220 20:46 16.05.2022
1458 Clear 24 1017 41 10000 5.14 280 19:22 16.05.2022
1459 Clear 26 1018 39 10000 3.6 250 18:18 16.05.2022
1460 Clear 28 1017 37 10000 5.66 280 15:49 16.05.2022
1461 Clear 28 1019 39 10000 2.68 274 13:49 16.05.2022
1462 Clear 28 1019 40 10000 3.13 240 13:20 16.05.2022
1463 Clear 24 1019 53 10000 1.54 0 10:53 16.05.2022
1464 Clear 21 1020 65 10000 2.06 30 09:23 16.05.2022
1465 Clear 16 1018 79 10000 1.03 90 06:34 16.05.2022
1466 Clear 17 1019 78 10000 1.54 170 02:39 16.05.2022
1467 Clear 19 1019 74 10000 2.06 220 23:26 15.05.2022
1468 Clear 19 1019 66 10000 2.06 230 22:29 15.05.2022
1469 Clear 19 1019 71 10000 2.06 250 21:39 15.05.2022
1470 Clear 21 1018 53 10000 2.06 270 20:54 15.05.2022
1471 Clear 24 1017 42 10000 3.6 250 19:28 15.05.2022
1472 Clear 25 1016 44 10000 5.14 260 17:51 15.05.2022
1473 Clear 26 1017 47 10000 3.6 270 15:56 15.05.2022
1474 Clear 26 1018 48 10000 3.6 250 13:50 15.05.2022
1475 Clear 25 1018 51 10000 2.57 230 12:23 15.05.2022
1476 Clear 25 1018 51 10000 2.06 0 11:38 15.05.2022
1477 Clear 23 1018 58 10000 1.03 0 10:25 15.05.2022
1478 Clear 18 1018 71 10000 1.54 190 08:32 15.05.2022
1479 Clear 15 1017 72 10000 2.57 170 06:58 15.05.2022
1480 Clear 14 1017 77 10000 2.06 170 05:33 15.05.2022
1481 Clear 17 1018 75 10000 2.57 180 00:49 15.05.2022
1482 Clear 17 1020 73 10000 2.57 210 23:38 14.05.2022
1483 Clear 18 1018 67 10000 3.09 210 22:45 14.05.2022
1484 Clear 20 1018 59 10000 2.06 230 21:28 14.05.2022
1485 Clear 21 1019 49 10000 2.06 230 20:44 14.05.2022
1486 Clear 23 1017 38 10000 3.6 230 19:37 14.05.2022
1487 Clear 24 1016 33 10000 3.6 230 19:19 14.05.2022
1488 Clear 26 1016 32 10000 4.63 280 17:56 14.05.2022
1489 Clear 27 1017 34 10000 4.63 270 16:37 14.05.2022
1490 Clear 28 1018 32 10000 3.13 231 14:59 14.05.2022
1491 Clear 27 1018 32 10000 2.57 280 14:30 14.05.2022
1492 Clear 26 1019 28 10000 2.24 39 12:23 14.05.2022
1493 Clear 23 1019 45 10000 1.03 0 10:54 14.05.2022
1494 Clear 22 1019 52 10000 1.03 0 10:20 14.05.2022
1495 Clear 21 1020 55 10000 1.03 0 09:53 14.05.2022
1496 Clear 19 1018 58 10000 1.03 0 08:46 14.05.2022
1497 Clear 15 1018 71 10000 1.03 0 05:47 14.05.2022
1498 Clear 16 1017 68 10000 1.54 150 02:32 14.05.2022
1499 Clear 18 1020 63 10000 2.06 190 23:36 13.05.2022
1500 Clear 19 1019 61 10000 2.06 190 22:58 13.05.2022
1501 Clear 19 1019 59 10000 2.57 190 22:25 13.05.2022
1502 Clear 20 1020 58 10000 2.57 210 21:39 13.05.2022
1503 Clear 21 1018 50 10000 2.57 260 20:44 13.05.2022
1504 Clear 22 1019 49 10000 2.57 260 20:24 13.05.2022
1505 Clear 24 1017 42 10000 4.63 250 19:25 13.05.2022
1506 Clear 26 1018 40 10000 5.66 270 17:50 13.05.2022
1507 Clear 26 1018 40 10000 5.66 270 17:50 13.05.2022
1508 Clear 26 1018 38 10000 5.14 280 17:27 13.05.2022
1509 Clear 27 1018 40 10000 5.14 280 16:18 13.05.2022
1510 Clear 27 1018 41 10000 5.66 270 15:20 13.05.2022
1511 Clear 27 1019 36 10000 3.09 320 13:29 13.05.2022
1512 Clear 26 1020 35 10000 1.79 245 12:25 13.05.2022
1513 Clear 23 1022 54 10000 2.06 0 10:46 13.05.2022
1514 Clear 20 1021 64 10000 1.03 0 09:33 13.05.2022
1515 Clear 18 1021 66 10000 0.51 0 08:23 13.05.2022
1516 Clear 17 1020 68 10000 1.03 0 07:42 13.05.2022
1517 Clear 15 1020 70 10000 1.54 90 05:59 13.05.2022
1518 Clear 15 1022 73 10000 0.51 0 02:44 13.05.2022
1519 Clear 18 1021 64 10000 2.06 180 23:46 12.05.2022
1520 Clear 19 1021 60 10000 2.57 200 22:44 12.05.2022
1521 Clear 20 1022 57 10000 2.06 210 21:54 12.05.2022
1522 Clear 22 1021 50 10000 3.6 270 20:27 12.05.2022
1523 Clear 24 1019 42 10000 5.14 280 18:50 12.05.2022
1524 Clear 27 1019 37 10000 5.14 300 16:58 12.05.2022
1525 Clear 27 1020 38 10000 4.63 300 15:50 12.05.2022
1526 Clear 27 1021 40 10000 5.66 290 14:39 12.05.2022
1527 Clear 27 1021 36 10000 2.57 300 13:34 12.05.2022
1528 Clear 23 1022 56 10000 2.06 350 10:43 12.05.2022
1529 Clear 20 1023 72 10000 2.57 30 09:24 12.05.2022
1530 Clear 18 1021 70 10000 2.06 30 08:50 12.05.2022
1531 Clear 16 1021 76 10000 2.06 70 07:38 12.05.2022
1532 Clear 15 1021 78 10000 0.51 0 05:35 12.05.2022
1533 Clear 16 1021 75 10000 2.06 190 02:49 12.05.2022
1534 Clear 17 1021 76 10000 2.57 200 00:33 12.05.2022
1535 Clear 18 1022 74 10000 2.06 220 22:33 11.05.2022
1536 Clear 20 1021 69 10000 2.57 240 21:33 11.05.2022
1537 Clear 20 1022 67 10000 2.57 250 20:53 11.05.2022
1538 Clear 24 1020 46 10000 3.6 220 18:27 11.05.2022
1539 Clear 24 1020 50 10000 4.12 230 16:51 11.05.2022
1540 Clear 24 1020 50 10000 4.12 230 16:51 11.05.2022
1541 Clouds 25 1019 50 10000 4.63 230 14:51 11.05.2022
1542 Clouds 26 1020 51 10000 5.14 220 14:26 11.05.2022
1543 Clouds 26 1020 48 10000 3.09 260 13:51 11.05.2022
1544 Clear 25 1020 45 10000 1.54 0 11:51 11.05.2022
1545 Clear 22 1020 59 10000 2.57 40 10:32 11.05.2022
1546 Clear 18 1019 69 10000 3.6 50 08:37 11.05.2022
1547 Clear 14 1020 74 10000 1.03 100 05:19 11.05.2022
1548 Clear 17 1021 73 10000 1.54 30 00:42 11.05.2022
1549 Rain 19 1021 73 10000 2.06 260 22:30 10.05.2022
1550 Rain 20 1019 68 10000 2.06 230 21:55 10.05.2022
1551 Rain 20 1020 67 10000 1.54 190 20:54 10.05.2022
1552 Clouds 22 1017 58 10000 3.6 250 19:26 10.05.2022
1553 Clear 24 1017 48 10000 5.66 290 17:54 10.05.2022
1554 Clouds 25 1018 46 10000 4.63 280 16:56 10.05.2022
1555 Clear 26 1019 40 10000 3.58 279 14:48 10.05.2022
1556 Clear 24 1020 45 10000 2.06 30 12:39 10.05.2022
1557 Clear 23 1020 54 10000 2.57 360 11:49 10.05.2022
1558 Clear 22 1020 57 10000 2.57 360 11:20 10.05.2022
1559 Clear 21 1020 61 10000 2.57 40 10:22 10.05.2022
1560 Clear 18 1020 74 10000 3.6 30 09:25 10.05.2022
1561 Clear 13 1019 84 10000 2.57 70 06:54 10.05.2022
1562 Clouds 14 1020 89 10000 2.06 40 03:30 10.05.2022
1563 Clouds 16 1021 87 10000 3.09 20 00:38 10.05.2022
1564 Thunderstorm 17 1021 73 10000 1.54 340 22:52 09.05.2022
1565 Clouds 18 1022 64 10000 1.54 160 21:50 09.05.2022
1566 Clear 19 1019 57 10000 3.09 290 20:30 09.05.2022
1567 Clear 22 1017 46 10000 4.12 260 18:43 09.05.2022
1568 Clouds 22 1018 50 10000 4.12 310 17:44 09.05.2022
1569 Clouds 22 1018 53 10000 3.09 280 16:30 09.05.2022
1570 Clouds 22 1018 53 10000 3.09 280 16:30 09.05.2022
1571 Clouds 22 1019 53 10000 1.54 210 15:51 09.05.2022
1572 Rain 23 1019 46 10000 3.09 240 15:21 09.05.2022
1573 Clouds 23 1019 45 10000 3.6 240 14:29 09.05.2022
1574 Clouds 23 1019 47 10000 3.09 250 13:40 09.05.2022
1575 Clouds 23 1020 42 10000 2.06 250 12:21 09.05.2022
1576 Clear 22 1019 46 10000 2.06 0 11:18 09.05.2022
1577 Clear 21 1020 49 10000 2.06 350 10:42 09.05.2022
1578 Clear 17 1019 72 10000 1.03 0 08:36 09.05.2022
1579 Clouds 16 1018 80 10000 2.06 60 07:53 09.05.2022
1580 Clear 16 1017 83 10000 1.03 110 03:19 09.05.2022
1581 Clear 16 1017 85 10000 1.03 0 23:34 08.05.2022
1582 Clouds 17 1016 77 10000 1.54 160 22:52 08.05.2022
1583 Clouds 17 1017 83 10000 2.06 160 21:48 08.05.2022
1584 Clouds 17 1016 77 10000 3.09 190 20:35 08.05.2022
1585 Clouds 17 1016 80 10000 2.57 270 19:43 08.05.2022
1586 Rain 19 1015 56 10000 5.14 210 18:53 08.05.2022
1587 Clouds 21 1014 43 10000 3.09 110 17:57 08.05.2022
1588 Clouds 22 1014 40 10000 4.12 70 16:42 08.05.2022
1589 Clouds 21 1015 48 10000 4.63 60 15:26 08.05.2022
1590 Clouds 22 1013 43 10000 4.12 80 14:39 08.05.2022
1591 Clouds 22 1014 51 10000 3.6 20 12:25 08.05.2022
1592 Clouds 20 1013 57 10000 3.09 10 10:31 08.05.2022
1593 Clear 19 1013 59 10000 2.57 30 09:56 08.05.2022
1594 Clear 19 1013 59 10000 2.57 30 09:56 08.05.2022
1595 Clear 17 1013 67 10000 2.06 20 08:55 08.05.2022
1596 Clouds 14 1013 78 10000 1.54 40 06:57 08.05.2022
1597 Clouds 15 1013 76 10000 1.54 30 03:26 08.05.2022
1598 Clouds 15 1013 76 10000 1.34 6 02:41 08.05.2022
1599 Clouds 16 1014 68 10000 1.54 0 00:21 08.05.2022
1600 Rain 16 1013 66 10000 3.6 130 23:47 07.05.2022
1601 Clouds 16 1014 70 10000 3.09 130 22:46 07.05.2022
1602 Clouds 17 1012 69 10000 2.06 130 21:57 07.05.2022
1603 Clouds 17 1012 69 10000 2.06 130 21:33 07.05.2022
1604 Clouds 17 1012 67 10000 3.6 30 20:27 07.05.2022
1605 Clouds 18 1011 64 10000 4.12 160 19:22 07.05.2022
1606 Clouds 19 1012 64 10000 3.6 30 17:33 07.05.2022
1607 Rain 21 1011 46 10000 4.12 60 15:34 07.05.2022
1608 Clouds 21 1012 50 10000 2.57 90 12:34 07.05.2022
1609 Clouds 19 1013 66 10000 1.54 50 10:23 07.05.2022
1610 Clouds 16 1011 70 10000 2.57 60 08:37 07.05.2022
1611 Clear 16 1010 73 10000 2.57 40 07:43 07.05.2022
1612 Clouds 14 1011 75 10000 2.06 360 06:43 07.05.2022
1613 Clouds 15 1010 74 10000 3.09 60 04:24 07.05.2022
1614 Clouds 15 1010 78 10000 1.34 16 00:50 07.05.2022
1615 Clouds 16 1011 78 10000 3.6 40 22:55 06.05.2022
1616 Clouds 16 1011 77 10000 3.09 70 22:21 06.05.2022
1617 Clouds 16 1011 79 10000 3.6 60 21:36 06.05.2022
1618 Clouds 17 1011 74 10000 2.57 340 20:18 06.05.2022
1619 Clouds 18 1010 69 10000 2.57 330 19:28 06.05.2022
1620 Clouds 19 1010 62 10000 3.6 10 18:49 06.05.2022
1621 Clouds 20 1009 62 10000 3.6 30 17:38 06.05.2022
1622 Clouds 22 1010 44 10000 6.69 180 15:55 06.05.2022
1623 Clouds 23 1010 38 10000 6.69 180 15:33 06.05.2022
1624 Clouds 23 1009 40 10000 7.2 160 14:22 06.05.2022
1625 Clouds 24 1009 43 10000 5.66 190 12:52 06.05.2022
1626 Clouds 23 1010 45 10000 6.17 180 12:20 06.05.2022
1627 Clouds 22 1009 45 10000 8.23 160 11:31 06.05.2022
1628 Clear 21 1009 55 10000 5.14 90 09:48 06.05.2022
1629 Clear 21 1009 56 10000 5.14 90 09:48 06.05.2022
1630 Clear 20 1009 53 10000 4.63 100 09:18 06.05.2022
1631 Clouds 19 1009 53 10000 6.69 110 07:55 06.05.2022
1632 Clear 18 1010 49 10000 6.17 130 06:28 06.05.2022
1633 Clouds 17 1009 65 10000 3.58 109 04:29 06.05.2022
1634 Clouds 16 1011 74 10000 2.57 30 02:38 06.05.2022
1635 Rain 16 1013 73 10000 2.57 60 23:25 05.05.2022
1636 Rain 17 1013 75 10000 3.09 60 21:51 05.05.2022
1637 Rain 18 1014 68 9000 2.06 10 20:37 05.05.2022
1638 Rain 19 1013 60 10000 3.09 10 19:20 05.05.2022
1639 Rain 19 1016 63 10000 3.6 40 16:49 05.05.2022
1640 Rain 19 1017 66 10000 3.09 40 15:46 05.05.2022
1641 Clear 18 1018 72 8000 4.63 50 14:34 05.05.2022
1642 Mist 17 1017 70 5000 4.63 60 13:18 05.05.2022
1643 Clouds 16 1018 75 6000 3.6 30 11:46 05.05.2022
1644 Clear 15 1017 72 10000 1.54 360 09:47 05.05.2022
1645 Mist 14 1018 75 4000 1.54 350 09:26 05.05.2022
1646 Clear 13 1017 78 10000 1.54 30 06:33 05.05.2022
1647 Clear 13 1017 76 10000 0.51 0 02:28 05.05.2022
1648 Clear 14 1017 73 10000 1.54 90 01:45 05.05.2022
1649 Clear 14 1019 77 10000 1.54 100 00:57 05.05.2022
1650 Clear 15 1018 73 10000 1.03 80 23:27 04.05.2022
1651 Clear 16 1020 75 10000 0.51 0 22:18 04.05.2022
1652 Clear 16 1018 73 10000 1.03 230 21:45 04.05.2022
1653 Clear 17 1017 72 10000 1.54 250 21:18 04.05.2022
1654 Clear 17 1018 71 10000 1.54 250 20:20 04.05.2022
1655 Clear 18 1017 68 10000 3.09 230 19:35 04.05.2022
1656 Clear 19 1017 62 10000 4.12 230 18:43 04.05.2022
1657 Clear 19 1017 63 10000 4.12 230 18:20 04.05.2022
1658 Clear 21 1016 50 10000 5.14 230 17:22 04.05.2022
1659 Clouds 22 1016 49 10000 5.14 250 15:34 04.05.2022
1660 Clouds 23 1017 50 10000 3.09 250 14:45 04.05.2022
1661 Clouds 22 1017 50 10000 2.57 300 14:19 04.05.2022
1662 Clouds 21 1018 60 10000 2.06 0 12:50 04.05.2022
1663 Clouds 20 1018 62 10000 1.54 50 11:59 04.05.2022
1664 Clouds 17 1017 73 7000 1.03 0 10:28 04.05.2022
1665 Clouds 16 1018 78 6000 1.54 20 09:22 04.05.2022
1666 Clear 14 1017 73 10000 1.03 0 07:59 04.05.2022
1667 Clear 13 1016 78 10000 1.54 170 05:34 04.05.2022
1668 Clear 14 1015 78 10000 0.51 110 02:42 04.05.2022
1669 Clear 15 1017 77 10000 1.54 170 23:23 03.05.2022
1670 Clear 16 1016 79 10000 2.57 230 21:55 03.05.2022
1671 Clear 16 1016 79 10000 2.06 260 21:31 03.05.2022
1672 Clouds 17 1015 75 10000 2.57 270 20:52 03.05.2022
1673 Clouds 18 1014 64 10000 3.6 230 19:33 03.05.2022
1674 Clear 20 1012 57 10000 4.12 220 18:47 03.05.2022
1675 Clouds 20 1012 59 10000 5.66 240 17:22 03.05.2022
1676 Clouds 22 1012 60 10000 6.17 220 16:19 03.05.2022
1677 Clouds 22 1013 48 10000 2.68 278 14:25 03.05.2022
1678 Clear 21 1014 51 10000 1.79 345 12:42 03.05.2022
1679 Clear 20 1013 60 10000 1.54 0 11:39 03.05.2022
1680 Clear 18 1013 67 10000 1.03 0 10:49 03.05.2022
1681 Clear 13 1012 74 10000 1.54 60 08:29 03.05.2022
1682 Clear 11 1012 80 10000 1.54 60 06:45 03.05.2022
1683 Clear 13 1011 76 10000 0.51 0 02:48 03.05.2022
1684 Clouds 15 1012 79 10000 2.06 130 23:32 02.05.2022
1685 Clouds 15 1012 77 10000 1.03 0 22:29 02.05.2022
1686 Clouds 16 1011 75 10000 2.06 210 21:47 02.05.2022
1687 Rain 17 1012 64 10000 5.14 40 19:30 02.05.2022
1688 Thunderstorm 19 1011 55 10000 6.17 90 18:26 02.05.2022
1689 Clouds 20 1010 50 10000 4.12 270 17:41 02.05.2022
1690 Clouds 20 1010 50 10000 4.12 270 17:41 02.05.2022
1691 Clear 22 1009 44 10000 5.14 260 16:43 02.05.2022
1692 Clouds 22 1010 45 10000 4.63 270 15:44 02.05.2022
1693 Clouds 22 1010 43 10000 4.63 290 14:51 02.05.2022
1694 Clouds 21 1011 42 10000 2.57 0 13:42 02.05.2022
1695 Clear 20 1012 50 10000 1.79 256 11:41 02.05.2022
1696 Clear 16 1013 70 10000 2.06 30 09:45 02.05.2022
1697 Clear 12 1012 76 10000 2.57 60 08:29 02.05.2022
1698 Clear 10 1011 71 10000 1.54 60 06:56 02.05.2022
1699 Clear 12 1014 69 10000 0.51 0 00:47 02.05.2022
1700 Clear 12 1014 69 10000 0.51 0 00:47 02.05.2022
1701 Clear 13 1014 71 10000 1.54 150 00:22 02.05.2022
1702 Clear 14 1015 61 10000 0.51 0 22:55 01.05.2022
1703 Clear 15 1014 57 10000 1.54 210 21:43 01.05.2022
1704 Clouds 16 1014 56 10000 1.54 250 20:50 01.05.2022
1705 Clear 18 1013 46 10000 2.57 250 19:27 01.05.2022
1706 Clear 20 1012 40 10000 3.6 270 18:53 01.05.2022
1707 Clouds 20 1012 39 10000 3.09 270 17:51 01.05.2022
1708 Clear 20 1014 43 10000 1.54 0 16:38 01.05.2022
1709 Clouds 20 1013 41 10000 1.03 0 15:57 01.05.2022
1710 Clouds 19 1013 48 10000 1.03 0 14:54 01.05.2022
1711 Clear 17 1015 55 10000 2.06 360 12:52 01.05.2022
1712 Rain 16 1015 61 10000 1.54 350 10:36 01.05.2022
1713 Clouds 13 1015 70 10000 1.03 0 08:50 01.05.2022
1714 Clouds 12 1014 67 10000 1.03 0 06:50 01.05.2022
1715 Clouds 12 1015 70 10000 1.54 200 02:46 01.05.2022
1716 Clear 14 1016 75 10000 2.06 200 22:51 30.04.2022
1717 Clear 14 1016 75 10000 2.06 200 22:51 30.04.2022
1718 Clear 16 1017 71 10000 2.57 210 21:33 30.04.2022
1719 Clear 16 1017 71 10000 2.57 210 21:33 30.04.2022
1720 Clear 18 1016 58 10000 3.09 230 20:22 30.04.2022
1721 Clear 20 1015 48 10000 4.12 230 19:31 30.04.2022
1722 Clear 22 1014 43 10000 4.63 220 17:37 30.04.2022
1723 Clouds 22 1016 39 10000 4.63 230 16:28 30.04.2022
1724 Clouds 23 1015 38 10000 4.63 220 15:19 30.04.2022
1725 Clouds 22 1016 39 10000 4.63 210 14:19 30.04.2022
1726 Clear 21 1018 38 10000 5.14 200 11:59 30.04.2022
1727 Clear 20 1018 43 10000 4.63 210 11:31 30.04.2022
1728 Clear 19 1019 50 10000 3.6 200 10:25 30.04.2022
1729 Clear 14 1017 61 10000 1.54 50 08:25 30.04.2022
1730 Clear 12 1018 70 10000 1.03 40 04:58 30.04.2022
1731 Clear 13 1018 72 10000 1.03 240 00:34 30.04.2022
1732 Clear 15 1018 71 10000 2.06 200 22:58 29.04.2022
1733 Clear 15 1018 70 10000 3.09 200 22:29 29.04.2022
1734 Clear 17 1019 60 10000 3.09 200 21:26 29.04.2022
1735 Clear 18 1017 55 10000 3.09 220 20:24 29.04.2022
1736 Clear 20 1016 45 10000 4.12 240 19:28 29.04.2022
1737 Clear 22 1017 38 10000 6.17 270 17:37 29.04.2022
1738 Clear 23 1016 33 10000 5.66 280 16:43 29.04.2022
1739 Clear 24 1017 32 10000 3.6 10 14:38 29.04.2022
1740 Clear 23 1018 33 10000 4.12 20 13:51 29.04.2022
1741 Clear 23 1018 33 10000 3.09 320 12:38 29.04.2022
1742 Clear 20 1020 42 10000 4.12 10 10:44 29.04.2022
1743 Clear 14 1019 56 10000 2.06 30 07:57 29.04.2022
1744 Clear 12 1020 60 10000 2.06 60 07:26 29.04.2022
1745 Clear 12 1018 62 10000 2.57 50 06:33 29.04.2022
1746 Clear 14 1018 57 10000 2.57 10 02:50 29.04.2022
1747 Clear 15 1019 50 10000 3.09 40 00:18 29.04.2022
1748 Clear 16 1018 47 10000 1.54 60 23:26 28.04.2022
1749 Clear 16 1019 40 10000 3.09 30 22:33 28.04.2022
1750 Clear 17 1018 42 10000 3.09 350 21:43 28.04.2022
1751 Clear 19 1016 44 10000 3.09 330 20:48 28.04.2022
1752 Clear 20 1016 45 10000 2.06 260 19:57 28.04.2022
1753 Clear 20 1016 46 10000 2.57 270 19:38 28.04.2022
1754 Clear 21 1016 45 10000 3.6 270 19:19 28.04.2022
1755 Clear 23 1015 36 10000 5.14 270 17:55 28.04.2022
1756 Clear 24 1015 36 10000 5.66 280 16:58 28.04.2022
1757 Clear 24 1015 38 10000 5.66 280 16:21 28.04.2022
1758 Clear 24 1016 37 10000 4.12 290 15:49 28.04.2022
1759 Clouds 25 1017 36 10000 2.68 308 14:58 28.04.2022
1760 Clear 24 1017 37 10000 2.57 340 13:42 28.04.2022
1761 Clear 23 1017 41 10000 2.57 330 12:30 28.04.2022
1762 Clear 23 1017 41 10000 2.57 330 12:30 28.04.2022
1763 Clear 22 1018 44 10000 3.09 30 11:37 28.04.2022
1764 Clear 19 1019 51 10000 4.12 30 10:26 28.04.2022
1765 Clear 17 1018 57 10000 3.6 40 09:50 28.04.2022
1766 Clear 14 1017 67 10000 2.57 50 07:42 28.04.2022
1767 Clear 13 1016 69 10000 1.54 60 06:51 28.04.2022
1768 Clear 13 1017 72 10000 1.34 32 05:53 28.04.2022
1769 Clear 13 1016 72 10000 2.06 50 04:43 28.04.2022
1770 Clear 13 1017 77 10000 2.06 100 02:41 28.04.2022
1771 Clear 14 1016 74 10000 1.03 0 23:36 27.04.2022
1772 Clear 15 1018 70 10000 1.54 190 22:22 27.04.2022
1773 Clear 16 1016 66 10000 1.03 0 21:46 27.04.2022
1774 Clear 18 1017 60 10000 2.06 260 20:46 27.04.2022
1775 Clear 18 1017 56 10000 2.06 250 19:57 27.04.2022
1776 Clear 19 1015 51 10000 2.57 240 19:36 27.04.2022
1777 Clear 21 1016 48 10000 3.6 240 18:41 27.04.2022
1778 Clear 22 1015 44 10000 4.63 270 18:20 27.04.2022
1779 Clear 23 1015 43 10000 5.66 280 16:18 27.04.2022
1780 Clear 23 1017 42 10000 3.09 340 13:18 27.04.2022
1781 Clear 20 1017 50 10000 2.06 30 11:25 27.04.2022
1782 Clear 19 1017 54 10000 2.57 30 10:50 27.04.2022
1783 Clear 12 1016 73 10000 2.57 40 08:28 27.04.2022
1784 Clear 10 1014 73 10000 2.06 60 06:42 27.04.2022
1785 Clear 11 1016 79 10000 2.06 100 02:35 27.04.2022
1786 Clear 12 1016 74 10000 1.54 100 01:23 27.04.2022
1787 Clear 13 1016 76 10000 1.54 90 00:27 27.04.2022
1788 Clear 13 1017 75 10000 1.03 0 23:24 26.04.2022
1789 Clear 14 1015 73 10000 0.51 310 22:45 26.04.2022
1790 Clear 14 1016 71 10000 0.51 10 22:19 26.04.2022
1791 Clear 16 1017 65 10000 2.06 300 21:24 26.04.2022
1792 Clear 16 1016 63 10000 2.06 280 20:38 26.04.2022
1793 Clear 18 1015 60 10000 3.6 270 19:45 26.04.2022
1794 Clear 18 1015 57 10000 3.6 270 19:26 26.04.2022
1795 Clear 20 1014 53 10000 3.6 270 18:39 26.04.2022
1796 Clear 20 1015 51 10000 3.6 280 17:39 26.04.2022
1797 Clear 21 1015 46 10000 4.12 280 15:32 26.04.2022
1798 Clouds 21 1016 49 10000 3.13 302 13:51 26.04.2022
1799 Clouds 21 1015 50 10000 2.06 0 12:57 26.04.2022
1800 Clear 19 1016 55 10000 2.06 0 11:23 26.04.2022
1801 Clear 18 1015 60 10000 1.03 0 10:30 26.04.2022
1802 Clear 13 1015 76 10000 1.54 140 08:33 26.04.2022
1803 Clear 11 1013 74 10000 2.06 150 04:53 26.04.2022
1804 Clouds 11 1013 74 10000 1.01 24 04:22 26.04.2022
1805 Clear 13 1015 78 10000 1.03 170 00:46 26.04.2022
1806 Clear 13 1014 78 10000 1.54 150 23:48 25.04.2022
1807 Clear 15 1016 75 10000 2.57 190 21:51 25.04.2022
1808 Clear 15 1016 80 10000 2.57 200 21:25 25.04.2022
1809 Clear 17 1013 71 10000 4.12 250 19:47 25.04.2022
1810 Clouds 18 1013 64 10000 5.14 230 18:31 25.04.2022
1811 Clouds 19 1012 64 10000 5.66 230 17:39 25.04.2022
1812 Clouds 19 1013 63 10000 5.14 220 16:30 25.04.2022
1813 Clouds 20 1014 64 10000 4.63 230 15:19 25.04.2022
1814 Clouds 19 1013 63 10000 5.14 230 14:22 25.04.2022
1815 Clouds 18 1012 66 10000 4.63 240 12:40 25.04.2022
1816 Clouds 16 1011 73 10000 4.12 210 10:29 25.04.2022
1817 Clouds 16 1011 73 10000 4.12 210 10:29 25.04.2022
1818 Clouds 16 1011 77 10000 3.09 180 09:36 25.04.2022
1819 Clouds 14 1010 78 10000 2.06 180 07:34 25.04.2022
1820 Clouds 14 1009 84 10000 2.06 190 05:53 25.04.2022
1821 Clouds 14 1011 81 10000 2.57 230 01:27 25.04.2022
1822 Clouds 15 1010 79 10000 2.06 220 23:54 24.04.2022
1823 Clouds 15 1010 75 10000 1.54 220 23:20 24.04.2022
1824 Clouds 15 1009 79 10000 2.57 210 22:37 24.04.2022
1825 Clouds 15 1009 84 10000 3.09 210 21:54 24.04.2022
1826 Rain 15 1009 84 10000 2.57 230 21:20 24.04.2022
1827 Rain 15 1008 82 3000 3.6 210 20:39 24.04.2022
1828 Rain 15 1008 81 10000 4.63 210 19:57 24.04.2022
1829 Clouds 16 1008 68 9000 5.14 210 18:33 24.04.2022
1830 Clouds 17 1008 59 10000 5.66 200 17:40 24.04.2022
1831 Clouds 17 1008 55 10000 6.17 210 17:20 24.04.2022
1832 Clouds 18 1008 47 10000 6.17 210 16:49 24.04.2022
1833 Clouds 19 1009 49 10000 6.69 200 16:20 24.04.2022
1834 Clear 20 1008 39 10000 6.17 230 15:32 24.04.2022
1835 Clear 20 1009 41 10000 5.66 220 14:30 24.04.2022
1836 Clear 20 1009 42 10000 5.66 220 13:26 24.04.2022
1837 Clouds 19 1009 44 10000 5.14 250 12:38 24.04.2022
1838 Clouds 18 1009 56 10000 4.63 190 11:44 24.04.2022
1839 Clouds 17 1008 75 10000 5.66 180 10:32 24.04.2022
1840 Clear 15 1008 91 10000 3.09 190 09:41 24.04.2022
1841 Rain 14 1007 89 10000 1.34 226 07:39 24.04.2022
1842 Rain 14 1008 83 10000 4.92 119 04:56 24.04.2022
1843 Clear 16 1009 66 10000 6.17 190 01:39 24.04.2022
1844 Clear 16 1009 62 10000 5.14 180 00:33 24.04.2022
1845 Clear 16 1008 65 10000 4.12 190 23:45 23.04.2022
1846 Clear 16 1008 68 10000 4.12 190 23:22 23.04.2022
1847 Clear 16 1008 62 10000 4.47 134 21:54 23.04.2022
1848 Clear 16 1008 61 10000 4.12 160 21:34 23.04.2022
1849 Clear 17 1008 61 10000 7.72 160 20:57 23.04.2022
1850 Clear 18 1007 61 10000 6.69 170 19:49 23.04.2022
1851 Clear 18 1007 60 10000 7.2 170 19:19 23.04.2022
1852 Clear 19 1007 56 10000 6.69 180 18:53 23.04.2022
1853 Clear 20 1008 55 10000 8.23 190 17:52 23.04.2022
1854 Clear 21 1008 49 10000 8.23 180 17:30 23.04.2022
1855 Clear 21 1008 51 10000 6.69 190 16:42 23.04.2022
1856 Clouds 22 1009 46 10000 6.69 170 15:28 23.04.2022
1857 Clouds 19 1011 62 10000 4.63 190 12:49 23.04.2022
1858 Clouds 18 1011 70 10000 4.63 170 10:49 23.04.2022
1859 Clear 15 1010 76 10000 4.47 168 09:38 23.04.2022
1860 Clouds 11 1007 82 10000 3.09 130 06:41 23.04.2022
1861 Clouds 12 1007 80 10000 1.54 170 03:54 23.04.2022
1862 Clouds 13 1005 80 10000 2.06 210 01:25 23.04.2022
1863 Clouds 14 1005 80 10000 2.57 180 23:31 22.04.2022
1864 Clouds 14 1004 78 10000 2.06 190 22:20 22.04.2022
1865 Clouds 14 1005 77 10000 2.57 210 21:44 22.04.2022
1866 Clear 14 1004 79 10000 2.57 250 20:48 22.04.2022
1867 Clear 15 1003 74 10000 2.57 250 20:27 22.04.2022
1868 Clear 15 1004 74 10000 4.63 240 19:20 22.04.2022
1869 Clouds 16 1002 67 10000 5.14 250 18:45 22.04.2022
1870 Clouds 17 1002 61 10000 4.63 250 17:48 22.04.2022
1871 Clouds 18 1002 54 10000 2.57 240 16:46 22.04.2022
1872 Clouds 17 1001 61 10000 3.6 230 15:44 22.04.2022
1873 Clouds 17 1002 61 10000 2.57 230 15:18 22.04.2022
1874 Clouds 17 1000 66 10000 4.63 210 13:54 22.04.2022
1875 Clouds 16 999 75 10000 5.66 200 12:58 22.04.2022
1876 Clouds 14 999 85 10000 4.12 180 11:52 22.04.2022
1877 Clouds 13 999 90 6000 5.14 200 11:22 22.04.2022
1878 Clouds 13 998 85 4000 4.63 200 10:50 22.04.2022
1879 Clouds 12 998 86 8000 3.6 170 10:30 22.04.2022
1880 Clouds 12 998 87 8000 5.66 200 09:50 22.04.2022
1881 Rain 13 997 88 9000 3.09 200 08:50 22.04.2022
1882 Clouds 12 997 89 10000 3.09 180 07:20 22.04.2022
1883 Clouds 13 996 83 10000 2.24 171 03:30 22.04.2022
1884 Thunderstorm 15 996 85 10000 6.69 150 00:51 22.04.2022
1885 Clouds 17 996 68 10000 5.14 190 23:24 21.04.2022
1886 Clouds 17 998 65 10000 5.81 156 22:29 21.04.2022
1887 Clouds 18 998 55 10000 9.26 160 20:37 21.04.2022
1888 Clouds 19 998 53 10000 4.92 146 20:18 21.04.2022
1889 Clouds 20 998 52 9000 5.14 170 18:42 21.04.2022
1890 Clouds 20 998 54 10000 4.12 140 17:57 21.04.2022
1891 Clouds 20 999 55 9000 3.09 80 16:35 21.04.2022
1892 Rain 20 1000 61 9000 4.47 132 15:21 21.04.2022
1893 Rain 20 1002 60 10000 3.09 120 14:47 21.04.2022
1894 Clear 20 1003 52 10000 2.57 110 13:23 21.04.2022
1895 Clear 21 1003 55 10000 4.63 40 12:57 21.04.2022
1896 Clear 18 1002 63 10000 3.6 20 10:49 21.04.2022
1897 Clouds 16 1004 71 10000 3.6 10 08:56 21.04.2022
1898 Clear 15 1005 70 10000 3.6 60 07:24 21.04.2022
1899 Clear 15 1005 70 10000 4.63 120 05:42 21.04.2022
1900 Clear 15 1007 76 10000 3.09 80 03:30 21.04.2022
1901 Clear 14 1008 80 10000 2.06 40 02:47 21.04.2022
1902 Clouds 15 1009 79 10000 2.06 60 00:45 21.04.2022
1903 Rain 15 1010 76 10000 3.09 40 23:50 20.04.2022
1904 Rain 15 1009 74 10000 3.6 50 23:22 20.04.2022
1905 Clear 15 1009 72 10000 2.57 40 22:50 20.04.2022
1906 Clear 15 1009 71 10000 1.54 20 22:30 20.04.2022
1907 Clear 15 1011 75 10000 2.57 260 21:29 20.04.2022
1908 Clear 16 1009 74 10000 2.57 330 20:24 20.04.2022
1909 Clear 16 1008 70 10000 2.06 260 19:52 20.04.2022
1910 Clear 17 1007 68 10000 3.6 200 19:21 20.04.2022
1911 Clear 17 1009 67 10000 4.12 230 18:22 20.04.2022
1912 Clouds 20 1008 54 10000 4.63 210 16:54 20.04.2022
1913 Clouds 20 1009 52 10000 4.63 210 16:36 20.04.2022
1914 Clouds 20 1010 52 10000 4.63 210 13:59 20.04.2022
1915 Clear 18 1011 54 10000 4.63 190 11:50 20.04.2022
1916 Clear 18 1011 55 10000 3.58 188 11:24 20.04.2022
1917 Clear 16 1011 62 10000 3.13 170 10:22 20.04.2022
1918 Clear 14 1011 69 10000 3.58 141 09:25 20.04.2022
1919 Clear 12 1012 79 10000 2.06 350 08:22 20.04.2022
1920 Clouds 11 1011 74 10000 1.54 50 07:36 20.04.2022
1921 Clear 11 1011 75 10000 2.06 130 03:49 20.04.2022
1922 Clear 12 1011 76 10000 3.6 160 00:23 20.04.2022
1923 Clear 12 1011 71 10000 2.57 190 23:56 19.04.2022
1924 Clear 13 1012 79 10000 4.12 180 22:27 19.04.2022
1925 Clear 13 1011 80 10000 3.09 200 21:57 19.04.2022
1926 Clear 13 1011 76 10000 3.09 200 21:24 19.04.2022
1927 Clear 14 1011 71 10000 3.6 230 20:46 19.04.2022
1928 Clear 14 1012 70 10000 4.12 220 19:57 19.04.2022
1929 Clear 16 1011 58 10000 4.63 230 19:19 19.04.2022
1930 Clear 18 1009 42 10000 3.6 230 17:50 19.04.2022
1931 Clear 19 1011 41 10000 4.12 210 16:43 19.04.2022
1932 Clear 19 1011 40 10000 5.14 220 16:23 19.04.2022
1933 Clouds 18 1012 48 10000 6.69 220 14:50 19.04.2022
1934 Clear 18 1012 49 10000 6.17 230 14:27 19.04.2022
1935 Clouds 18 1012 49 10000 4.63 190 12:51 19.04.2022
1936 Clear 18 1012 51 10000 5.14 200 12:26 19.04.2022
1937 Clear 15 1013 52 10000 4.63 200 10:46 19.04.2022
1938 Clear 12 1013 55 10000 1.54 20 09:22 19.04.2022
1939 Clear 8 1013 65 10000 1.03 0 05:59 19.04.2022
1940 Clear 8 1013 57 10000 2.06 60 03:37 19.04.2022
1941 Clear 11 1014 43 10000 0.51 0 00:55 19.04.2022
1942 Clear 12 1012 40 10000 3.09 340 23:31 18.04.2022
1943 Clear 13 1012 62 10000 0.51 0 21:37 18.04.2022
1944 Clear 14 1011 65 10000 2.06 250 21:18 18.04.2022
1945 Clear 15 1010 43 10000 3.09 310 20:35 18.04.2022
1946 Clear 15 1010 51 10000 4.12 270 19:54 18.04.2022
1947 Clear 16 1010 51 10000 5.66 270 18:57 18.04.2022
1948 Clear 19 1009 36 10000 6.69 280 17:58 18.04.2022
1949 Clear 19 1009 36 10000 6.69 280 17:36 18.04.2022
1950 Clear 20 1009 32 10000 5.36 242 17:18 18.04.2022
1951 Clear 20 1010 30 10000 4.12 310 16:32 18.04.2022
1952 Clear 19 1011 29 10000 3.6 360 14:59 18.04.2022
1953 Clear 18 1011 32 10000 4.63 360 13:42 18.04.2022
1954 Clouds 17 1011 34 10000 4.63 350 12:34 18.04.2022
1955 Clear 16 1011 36 10000 4.63 10 11:35 18.04.2022
1956 Clear 14 1012 41 10000 6.69 20 10:32 18.04.2022
1957 Clear 12 1011 43 10000 5.14 360 09:31 18.04.2022
1958 Clouds 10 1010 48 10000 1.79 30 08:18 18.04.2022
1959 Clear 8 1010 54 10000 3.6 50 05:45 18.04.2022
1960 Clear 10 1010 54 10000 2.57 40 00:49 18.04.2022
1961 Clear 11 1010 51 10000 5.14 20 22:42 17.04.2022
1962 Clouds 12 1010 49 10000 5.66 20 21:49 17.04.2022
1963 Clouds 12 1009 45 10000 5.66 20 21:27 17.04.2022
1964 Clouds 13 1010 47 10000 4.63 30 20:50 17.04.2022
1965 Clear 15 1009 37 10000 7.2 20 19:40 17.04.2022
1966 Clear 17 1009 35 10000 8.23 20 18:21 17.04.2022
1967 Clouds 18 1009 37 10000 6.17 360 16:27 17.04.2022
1968 Clouds 18 1008 35 10000 7.2 20 15:26 17.04.2022
1969 Clouds 18 1009 34 10000 6.69 10 14:25 17.04.2022
1970 Clouds 18 1010 33 10000 7.2 360 13:18 17.04.2022
1971 Clear 18 1009 36 10000 6.69 30 12:27 17.04.2022
1972 Clear 16 1011 44 10000 5.66 20 10:46 17.04.2022
1973 Clear 15 1011 49 10000 5.66 20 10:28 17.04.2022
1974 Clear 14 1010 54 10000 5.66 10 09:37 17.04.2022
1975 Clear 12 1010 57 10000 5.14 30 08:53 17.04.2022
1976 Clouds 12 1011 57 10000 4.12 30 07:53 17.04.2022
1977 Clear 14 1011 54 10000 3.09 40 04:51 17.04.2022
1978 Clear 14 1013 65 10000 3.09 50 01:38 17.04.2022
1979 Clouds 16 1013 60 10000 5.66 70 23:54 16.04.2022
1980 Clouds 16 1013 59 10000 5.66 90 22:39 16.04.2022
1981 Clear 17 1012 55 10000 3.6 80 21:39 16.04.2022
1982 Clear 18 1010 44 10000 1.54 350 20:32 16.04.2022
1983 Clouds 20 1010 40 10000 3.09 270 18:59 16.04.2022
1984 Clear 22 1010 35 10000 4.12 260 17:52 16.04.2022
1985 Clear 24 1009 33 10000 3.6 250 16:40 16.04.2022
1986 Clear 24 1010 34 10000 4.12 230 15:45 16.04.2022
1987 Clear 24 1010 34 10000 4.12 230 15:45 16.04.2022
1988 Clear 25 1010 31 10000 4.12 270 14:56 16.04.2022
1989 Clear 24 1011 34 10000 4.12 230 13:58 16.04.2022
1990 Clear 24 1011 34 10000 4.12 230 13:37 16.04.2022
1991 Clear 23 1012 36 10000 1.03 0 12:26 16.04.2022
1992 Clear 20 1013 50 10000 3.09 40 10:50 16.04.2022
1993 Clear 19 1012 53 10000 3.6 40 09:56 16.04.2022
1994 Clear 16 1011 60 10000 2.06 60 08:58 16.04.2022
1995 Clear 13 1012 68 10000 1.54 50 07:57 16.04.2022
1996 Clear 12 1012 71 10000 2.06 50 06:58 16.04.2022
1997 Clear 13 1013 66 10000 1.03 100 02:52 16.04.2022
1998 Clear 14 1014 62 10000 1.03 0 00:30 16.04.2022
1999 Clear 15 1013 63 10000 0.51 0 23:21 15.04.2022
2000 Clear 16 1015 61 10000 1.03 90 22:32 15.04.2022
2001 Clear 16 1015 64 10000 1.54 30 21:50 15.04.2022
2002 Clear 17 1015 63 10000 1.03 260 21:18 15.04.2022
2003 Clear 18 1015 54 10000 3.09 230 20:22 15.04.2022
2004 Clear 19 1014 43 10000 3.6 240 19:40 15.04.2022
2005 Clear 21 1014 40 10000 3.6 230 18:54 15.04.2022
2006 Clear 21 1015 40 10000 5.14 250 18:25 15.04.2022
2007 Clear 23 1013 37 10000 5.66 220 17:34 15.04.2022
2008 Clear 24 1014 40 10000 3.09 240 16:48 15.04.2022
2009 Clear 25 1013 37 10000 3.09 240 16:18 15.04.2022
2010 Clear 24 1015 38 10000 3.09 310 14:51 15.04.2022
2011 Clear 23 1016 39 10000 2.06 300 13:41 15.04.2022
2012 Clear 22 1017 41 10000 2.57 310 12:42 15.04.2022
2013 Clear 21 1017 45 10000 2.57 20 11:57 15.04.2022
2014 Clear 20 1017 47 10000 2.57 20 11:34 15.04.2022
2015 Clear 18 1016 53 10000 2.57 50 10:43 15.04.2022
2016 Clear 16 1016 59 10000 2.06 50 09:46 15.04.2022
2017 Clear 14 1017 68 10000 2.57 30 09:21 15.04.2022
2018 Clear 13 1016 61 10000 1.54 110 07:32 15.04.2022
2019 Clear 12 1016 66 10000 1.03 50 06:36 15.04.2022
2020 Clear 14 1016 54 10000 0.51 0 02:48 15.04.2022
2021 Clear 16 1018 58 10000 1.03 90 23:31 14.04.2022
2022 Clear 16 1017 57 10000 0.51 0 22:49 14.04.2022
2023 Clear 16 1017 57 10000 0.51 0 22:30 14.04.2022
2024 Clouds 17 1018 49 10000 0.51 0 21:59 14.04.2022
2025 Clouds 18 1017 48 10000 1.54 220 20:43 14.04.2022
2026 Clouds 19 1017 45 10000 2.06 220 19:23 14.04.2022
2027 Clear 20 1015 35 10000 2.57 230 18:22 14.04.2022
2028 Clouds 21 1016 38 10000 3.6 250 17:40 14.04.2022
2029 Clear 22 1015 39 10000 4.63 250 16:46 14.04.2022
2030 Clear 24 1015 32 10000 4.12 220 15:24 14.04.2022
2031 Clear 23 1015 35 10000 2.06 260 13:47 14.04.2022
2032 Clear 23 1015 38 10000 1.54 340 12:57 14.04.2022
2033 Clear 22 1015 40 10000 2.06 60 12:31 14.04.2022
2034 Clear 20 1015 48 10000 3.6 30 11:29 14.04.2022
2035 Clear 19 1017 46 10000 3.6 20 10:53 14.04.2022
2036 Clear 18 1017 48 10000 3.09 40 10:26 14.04.2022
2037 Clear 14 1017 64 10000 2.57 40 09:24 14.04.2022
2038 Clear 10 1014 70 10000 1.54 60 07:27 14.04.2022
2039 Clear 12 1014 60 10000 1.54 70 04:28 14.04.2022
2040 Clear 13 1017 61 10000 2.57 70 23:29 13.04.2022
2041 Clear 15 1017 55 10000 2.06 50 22:23 13.04.2022
2042 Clear 15 1015 53 10000 1.03 0 21:37 13.04.2022
2043 Clear 16 1015 49 10000 2.06 330 20:23 13.04.2022
2044 Clear 18 1015 43 10000 2.06 280 19:37 13.04.2022
2045 Clear 19 1016 41 10000 3.6 220 18:36 13.04.2022
2046 Clear 20 1015 38 10000 4.12 270 17:24 13.04.2022
2047 Clear 21 1014 38 10000 4.63 230 16:37 13.04.2022
2048 Clear 21 1016 34 10000 4.12 260 15:41 13.04.2022
2049 Clear 22 1015 35 10000 1.54 0 14:51 13.04.2022
2050 Clear 22 1015 35 10000 2.06 0 14:30 13.04.2022
2051 Clear 21 1016 37 10000 1.03 0 13:29 13.04.2022
2052 Clear 20 1016 39 10000 1.03 0 12:30 13.04.2022
2053 Clear 18 1016 41 10000 1.03 0 10:55 13.04.2022
2054 Clear 13 1016 61 10000 2.06 40 09:44 13.04.2022
2055 Clear 10 1016 71 10000 1.54 330 08:43 13.04.2022
2056 Clear 9 1015 67 10000 1.54 50 07:18 13.04.2022
2057 Clear 9 1015 65 10000 1.54 70 06:46 13.04.2022
2058 Clear 9 1015 66 10000 2.06 60 06:18 13.04.2022
2059 Clear 10 1018 73 10000 2.06 60 00:24 13.04.2022
2060 Clear 11 1018 66 10000 1.54 110 23:46 12.04.2022
2061 Clear 12 1018 67 10000 0 0 22:19 12.04.2022
2062 Clear 12 1020 66 10000 0.51 260 21:32 12.04.2022
2063 Clear 13 1018 59 10000 1.54 280 20:42 12.04.2022
2064 Clear 14 1019 53 10000 3.09 240 19:53 12.04.2022
2065 Clear 14 1019 51 10000 3.09 240 19:32 12.04.2022
2066 Clear 16 1018 40 10000 3.6 240 18:42 12.04.2022
2067 Clear 17 1018 35 10000 4.63 230 17:34 12.04.2022
2068 Clear 18 1019 38 10000 4.63 240 16:25 12.04.2022
2069 Clear 19 1019 38 10000 5.14 210 15:33 12.04.2022
2070 Clear 19 1019 38 10000 5.14 210 14:32 12.04.2022
2071 Clear 18 1020 38 10000 6.17 220 13:38 12.04.2022
2072 Clear 18 1021 42 10000 5.66 200 12:53 12.04.2022
2073 Clear 16 1021 44 10000 4.12 210 11:47 12.04.2022
2074 Clear 16 1021 46 10000 1.03 0 11:20 12.04.2022
2075 Clear 11 1020 62 10000 2.06 20 09:24 12.04.2022
2076 Clear 7 1019 67 10000 1.03 0 07:59 12.04.2022
2077 Clear 6 1020 78 10000 1.54 80 06:32 12.04.2022
2078 Clear 6 1020 78 10000 1.54 80 06:32 12.04.2022
2079 Clear 6 1022 83 10000 1.03 0 05:34 12.04.2022
2080 Clear 8 1022 78 10000 2.06 110 00:59 12.04.2022
2081 Clear 10 1022 76 10000 1.54 160 22:53 11.04.2022
2082 Clear 11 1023 73 10000 1.54 220 21:49 11.04.2022
2083 Clear 12 1023 72 10000 2.57 230 20:59 11.04.2022
2084 Clear 13 1022 66 10000 3.6 230 20:29 11.04.2022
2085 Clear 13 1023 64 10000 3.6 230 19:55 11.04.2022
2086 Clear 14 1021 53 10000 4.12 250 19:18 11.04.2022
2087 Clear 15 1022 51 10000 4.12 230 18:47 11.04.2022
2088 Clear 16 1021 43 10000 4.63 210 17:57 11.04.2022
2089 Clear 17 1020 37 10000 5.14 230 16:54 11.04.2022
2090 Clear 17 1023 38 10000 4.12 230 15:58 11.04.2022
2091 Clear 17 1022 34 10000 4.63 240 14:33 11.04.2022
2092 Clear 16 1024 40 10000 2.57 0 12:53 11.04.2022
2093 Clear 16 1024 39 10000 3.6 230 12:33 11.04.2022
2094 Clear 15 1022 40 10000 3.6 200 11:33 11.04.2022
2095 Clear 13 1023 48 10000 2.06 30 10:31 11.04.2022
2096 Clear 10 1022 52 10000 2.06 30 09:20 11.04.2022
2097 Clear 6 1021 54 10000 1.54 80 06:44 11.04.2022
2098 Clear 7 1022 55 10000 2.06 90 01:55 11.04.2022
2099 Clear 10 1019 46 10000 3.09 270 22:38 10.04.2022
2100 Clear 11 1020 42 10000 2.06 120 21:55 10.04.2022
2101 Clear 12 1020 41 10000 2.06 120 21:32 10.04.2022
2102 Clear 13 1018 32 10000 5.14 360 20:31 10.04.2022
2103 Clear 15 1016 27 10000 5.66 340 19:44 10.04.2022
2104 Clear 15 1017 28 10000 5.66 340 19:22 10.04.2022
2105 Clear 16 1017 27 10000 6.69 330 18:42 10.04.2022
2106 Clear 16 1016 29 10000 6.71 323 17:54 10.04.2022
2107 Clear 16 1016 30 10000 6.69 350 17:34 10.04.2022
2108 Clear 16 1016 32 10000 7.72 340 16:22 10.04.2022
2109 Clear 16 1015 34 10000 7.72 360 15:19 10.04.2022
2110 Clear 16 1015 37 10000 7.2 360 13:58 10.04.2022
2111 Clear 15 1015 45 10000 7.72 20 12:34 10.04.2022
2112 Clear 14 1015 46 10000 7.2 10 11:46 10.04.2022
2113 Clear 13 1014 48 10000 6.69 350 11:28 10.04.2022
2114 Clear 12 1015 55 10000 8.23 20 10:48 10.04.2022
2115 Clear 11 1013 60 10000 7.72 20 09:55 10.04.2022
2116 Clear 10 1014 65 10000 6.69 20 09:21 10.04.2022
2117 Clear 8 1013 66 10000 6.17 360 08:21 10.04.2022
2118 Clear 7 1011 74 10000 3.13 356 07:18 10.04.2022
2119 Clouds 7 1010 78 10000 4.63 30 05:19 10.04.2022
2120 Clouds 10 1009 83 6000 1.79 281 02:20 10.04.2022
2121 Clear 11 1007 78 10000 2.06 160 23:54 09.04.2022
2122 Clear 12 1006 72 10000 2.06 160 23:35 09.04.2022
2123 Clouds 12 1005 66 10000 3.6 190 22:43 09.04.2022
2124 Clouds 13 1005 61 10000 3.6 210 21:32 09.04.2022
2125 Clouds 13 1007 66 8000 5.14 230 20:39 09.04.2022
2126 Clouds 13 1006 62 8000 5.14 230 20:19 09.04.2022
2127 Clouds 14 1006 58 10000 6.17 240 19:41 09.04.2022
2128 Clouds 14 1006 59 10000 5.66 240 18:54 09.04.2022
2129 Clouds 15 1005 57 10000 5.66 220 18:18 09.04.2022
2130 Clouds 16 1005 54 10000 5.66 230 17:32 09.04.2022
2131 Clouds 16 1006 59 10000 6.17 230 16:43 09.04.2022
2132 Clouds 17 1005 58 10000 5.66 220 15:53 09.04.2022
2133 Clouds 17 1005 60 10000 7.2 210 15:26 09.04.2022
2134 Clouds 17 1005 64 10000 7.72 210 14:26 09.04.2022
2135 Clouds 17 1006 65 10000 8.75 210 13:38 09.04.2022
2136 Clouds 17 1006 64 10000 6.69 210 12:59 09.04.2022
2137 Clouds 17 1005 69 10000 8.23 180 11:52 09.04.2022
2138 Clouds 16 1006 72 10000 6.69 190 10:53 09.04.2022
2139 Clouds 15 1006 82 10000 6.69 180 10:19 09.04.2022
2140 Clouds 14 1006 81 10000 6.17 180 09:36 09.04.2022
2141 Clouds 14 1006 83 10000 5.14 190 08:45 09.04.2022
2142 Clear 12 1007 86 10000 4.63 190 05:35 09.04.2022
2143 Clear 14 1009 75 10000 3.09 220 00:36 09.04.2022
2144 Clear 14 1010 72 10000 2.24 175 23:25 08.04.2022
2145 Clear 15 1010 74 10000 4.47 149 21:57 08.04.2022
2146 Clouds 16 1010 66 10000 4.47 141 20:47 08.04.2022
2147 Clear 16 1011 63 10000 4.63 190 19:57 08.04.2022
2148 Clouds 18 1009 55 10000 6.17 210 18:59 08.04.2022
2149 Clouds 19 1010 58 10000 4.63 220 18:25 08.04.2022
2150 Clouds 19 1010 60 10000 5.66 210 17:38 08.04.2022
2151 Clouds 19 1010 60 10000 5.66 210 17:19 08.04.2022
2152 Clouds 19 1011 61 10000 5.14 230 16:35 08.04.2022
2153 Clouds 18 1010 63 10000 5.66 250 15:39 08.04.2022
2154 Clouds 18 1012 64 10000 5.66 220 14:52 08.04.2022
2155 Clouds 18 1012 68 10000 6.17 200 14:21 08.04.2022
2156 Clouds 18 1012 70 10000 5.66 190 13:41 08.04.2022
2157 Clouds 17 1012 68 10000 5.66 190 13:22 08.04.2022
2158 Clouds 16 1014 73 10000 5.14 170 11:51 08.04.2022
2159 Clouds 15 1011 78 10000 5.14 170 10:31 08.04.2022
2160 Clouds 14 1011 76 10000 4.63 180 09:25 08.04.2022
2161 Clouds 12 1010 76 10000 4.12 170 08:25 08.04.2022
2162 Clouds 12 1010 82 10000 3.09 190 06:47 08.04.2022
2163 Clear 12 1011 88 10000 2.57 200 04:32 08.04.2022
2164 Clear 12 1011 82 10000 3.09 180 00:32 08.04.2022
2165 Clear 12 1011 87 10000 3.09 180 23:59 07.04.2022
2166 Clear 12 1011 81 10000 3.09 190 22:58 07.04.2022
2167 Clear 12 1011 80 10000 3.09 190 22:37 07.04.2022
2168 Clear 13 1011 80 10000 3.09 190 22:19 07.04.2022
2169 Clear 13 1011 77 10000 3.09 200 21:47 07.04.2022
2170 Clear 14 1010 72 10000 2.57 200 20:57 07.04.2022
2171 Clear 14 1009 67 10000 3.09 210 20:30 07.04.2022
2172 Clouds 18 1008 53 10000 4.63 280 17:57 07.04.2022
2173 Clouds 18 1008 55 10000 2.68 219 17:24 07.04.2022
2174 Clouds 17 1008 57 10000 1.54 310 16:43 07.04.2022
2175 Clouds 18 1008 55 10000 1.54 0 16:18 07.04.2022
2176 Clouds 16 1009 58 10000 2.06 0 14:31 07.04.2022
2177 Clouds 16 1009 63 10000 2.57 310 13:41 07.04.2022
2178 Clouds 15 1009 62 10000 1.54 90 12:40 07.04.2022
2179 Clouds 12 1009 72 10000 3.6 320 10:58 07.04.2022
2180 Clear 11 1008 81 10000 2.57 310 09:36 07.04.2022
2181 Clear 8 1007 91 10000 1.79 310 08:37 07.04.2022
2182 Clouds 8 1005 86 7000 3.09 360 06:42 07.04.2022
2183 Mist 9 1005 89 5000 3.09 350 02:43 07.04.2022
2184 Clouds 9 1005 84 10000 2.24 337 01:52 07.04.2022
2185 Clouds 11 1006 79 8000 1.03 0 23:57 06.04.2022
2186 Clouds 11 1007 73 10000 1.03 0 22:48 06.04.2022
2187 Clouds 11 1007 71 10000 2.06 160 22:25 06.04.2022
2188 Clouds 12 1006 74 10000 1.79 157 21:32 06.04.2022
2189 Clouds 12 1006 77 9000 1.54 320 20:28 06.04.2022
2190 Clouds 12 1006 76 10000 2.06 320 19:53 06.04.2022
2191 Clouds 12 1006 74 10000 2.06 120 18:51 06.04.2022
2192 Clouds 12 1007 75 10000 2.57 30 17:57 06.04.2022
2193 Clouds 12 1007 74 10000 2.57 30 17:35 06.04.2022
2194 Clouds 11 1008 78 10000 2.06 220 16:36 06.04.2022
2195 Clouds 12 1009 71 10000 3.09 210 15:48 06.04.2022
2196 Clouds 13 1010 62 10000 3.6 190 14:23 06.04.2022
2197 Rain 14 1011 60 10000 4.12 180 12:58 06.04.2022
2198 Clear 14 1010 56 10000 4.63 200 11:55 06.04.2022
2199 Clear 13 1010 61 10000 1.79 169 10:45 06.04.2022
2200 Clear 13 1010 63 10000 2.06 360 10:20 06.04.2022
2201 Clear 12 1011 65 10000 1.54 20 09:40 06.04.2022
2202 Clear 8 1011 76 10000 2.57 360 08:32 06.04.2022
2203 Clear 8 1010 69 10000 1.03 0 07:47 06.04.2022
2204 Clear 7 1011 71 10000 0.51 0 03:37 06.04.2022
2205 Clear 10 1013 73 10000 2.06 160 23:51 05.04.2022
2206 Clear 11 1013 69 10000 2.57 170 22:30 05.04.2022
2207 Clear 12 1012 62 10000 2.57 210 21:19 05.04.2022
2208 Clear 13 1012 51 10000 2.57 250 20:25 05.04.2022
2209 Clear 15 1012 46 10000 3.6 280 19:26 05.04.2022
2210 Clear 17 1012 43 10000 4.12 290 17:55 05.04.2022
2211 Clear 18 1011 42 10000 4.63 290 16:54 05.04.2022
2212 Clear 18 1011 36 10000 3.6 270 15:53 05.04.2022
2213 Clear 18 1011 34 10000 3.6 270 15:33 05.04.2022
2214 Clear 17 1013 32 10000 2.57 330 14:27 05.04.2022
2215 Clear 16 1013 36 10000 3.09 360 12:56 05.04.2022
2216 Clear 15 1014 46 10000 1.54 40 11:50 05.04.2022
2217 Clear 14 1014 53 10000 2.57 40 11:32 05.04.2022
2218 Clear 11 1013 63 10000 4.12 40 09:55 05.04.2022
2219 Clear 7 1013 79 10000 3.09 50 08:52 05.04.2022
2220 Clear 6 1012 78 10000 2.57 50 06:58 05.04.2022
2221 Clear 7 1014 79 10000 2.06 60 01:51 05.04.2022
2222 Clear 9 1014 73 10000 0.51 0 22:42 04.04.2022
2223 Clear 9 1014 72 10000 0.51 0 22:22 04.04.2022
2224 Clear 10 1015 69 10000 0.51 0 21:21 04.04.2022
2225 Clear 10 1015 68 10000 0.51 0 21:21 04.04.2022
2226 Clear 11 1015 64 10000 2.06 260 20:49 04.04.2022
2227 Clear 12 1014 56 10000 3.09 300 19:57 04.04.2022
2228 Clear 13 1014 54 10000 4.12 290 19:26 04.04.2022
2229 Clouds 14 1013 47 10000 4.12 260 18:33 04.04.2022
2230 Clouds 15 1016 43 10000 2.57 270 16:36 04.04.2022
2231 Clouds 15 1015 42 10000 2.06 230 15:44 04.04.2022
2232 Clouds 15 1015 38 10000 2.06 230 15:25 04.04.2022
2233 Clouds 15 1016 38 10000 1.54 0 14:46 04.04.2022
2234 Clouds 14 1017 43 10000 1.54 240 13:30 04.04.2022
2235 Clouds 13 1018 57 10000 2.06 0 11:55 04.04.2022
2236 Clouds 13 1018 59 10000 1.54 60 11:29 04.04.2022
2237 Clouds 8 1017 78 10000 1.54 90 09:18 04.04.2022
2238 Clear 6 1016 76 10000 2.57 160 04:45 04.04.2022
2239 Clouds 8 1017 74 10000 1.02 112 01:28 04.04.2022
2240 Clear 8 1016 75 10000 2.06 130 22:45 03.04.2022
2241 Clouds 9 1016 71 10000 3.09 160 21:47 03.04.2022
2242 Clear 9 1017 68 10000 2.06 220 20:57 03.04.2022
2243 Clear 11 1014 58 10000 3.09 240 19:51 03.04.2022
2244 Clear 13 1014 48 10000 4.63 250 18:33 03.04.2022
2245 Clouds 13 1013 49 10000 4.12 250 17:48 03.04.2022
2246 Clouds 13 1013 49 10000 4.12 250 17:21 03.04.2022
2247 Clouds 13 1013 49 10000 4.12 240 16:42 03.04.2022
2248 Clouds 13 1013 54 10000 3.09 220 15:18 03.04.2022
2249 Clouds 12 1013 59 10000 2.57 220 13:57 03.04.2022
2250 Clouds 12 1014 60 10000 3.09 270 12:48 03.04.2022
2251 Clouds 10 1013 69 10000 1.54 310 11:33 03.04.2022
2252 Clear 7 1011 83 10000 1.54 20 09:39 03.04.2022
2253 Clear 5 1010 87 10000 1.54 30 08:40 03.04.2022
2254 Clouds 4 1007 84 10000 1.03 0 05:42 03.04.2022
2255 Rain 5 1006 86 10000 1.79 100 02:54 03.04.2022
2256 Clouds 6 1004 80 10000 5.66 200 23:22 02.04.2022
2257 Rain 7 1004 79 10000 4.63 210 22:40 02.04.2022
2258 Clouds 7 1003 77 10000 3.13 224 21:54 02.04.2022
2259 Clouds 7 1003 74 10000 4.12 200 21:19 02.04.2022
2260 Clouds 8 1002 75 8000 3.09 210 20:35 02.04.2022
2261 Thunderstorm 8 1003 73 8000 5.66 170 18:45 02.04.2022
2262 Clouds 7 1003 75 10000 4.63 200 18:18 02.04.2022
2263 Snow 9 1003 64 4000 9.77 250 16:39 02.04.2022
2264 Clouds 11 1003 54 7000 7.72 240 15:23 02.04.2022
2265 Clouds 12 1003 50 10000 7.72 230 14:51 02.04.2022
2266 Clouds 12 1003 51 8000 7.72 230 14:20 02.04.2022
2267 Clouds 11 1003 49 10000 7.2 240 13:29 02.04.2022
2268 Clouds 10 1003 59 10000 5.66 250 11:56 02.04.2022
2269 Clouds 9 1002 66 10000 5.14 270 09:57 02.04.2022
2270 Clouds 8 1001 63 10000 4.63 230 07:33 02.04.2022
2271 Clouds 9 1001 59 10000 2.68 291 04:25 02.04.2022
2272 Clouds 10 1000 55 10000 5.66 260 00:27 02.04.2022
2273 Rain 10 1001 54 10000 6.69 260 23:53 01.04.2022
2274 Rain 11 1000 61 10000 6.17 280 22:34 01.04.2022
2275 Clouds 11 999 70 10000 3.09 240 20:54 01.04.2022
2276 Clouds 11 999 70 10000 5.66 240 20:32 01.04.2022
2277 Clouds 12 998 67 10000 5.66 240 19:41 01.04.2022
2278 Clouds 12 998 67 10000 5.66 240 19:23 01.04.2022
2279 Clouds 13 997 70 10000 6.17 240 18:36 01.04.2022
2280 Clouds 14 997 67 8000 6.69 240 17:36 01.04.2022
2281 Clouds 14 996 70 10000 7.2 230 15:46 01.04.2022
2282 Clouds 14 997 72 10000 7.2 230 14:51 01.04.2022
2283 Clouds 14 996 70 9000 6.26 243 13:39 01.04.2022
2284 Clouds 13 997 79 8000 5.14 180 12:33 01.04.2022
2285 Clouds 12 996 79 8000 5.66 180 11:47 01.04.2022
2286 Clouds 11 996 84 6000 5.66 210 10:49 01.04.2022
2287 Rain 12 996 79 7000 5.66 220 09:35 01.04.2022
2288 Clouds 12 994 85 6000 4.12 200 07:24 01.04.2022
2289 Clouds 12 995 92 6000 3.6 220 04:57 01.04.2022
2290 Clouds 12 995 91 6000 3.6 220 04:39 01.04.2022
2291 Clouds 12 994 81 10000 2.68 232 02:32 01.04.2022
2292 Clouds 12 995 86 6000 3.09 210 01:33 01.04.2022
2293 Clouds 12 995 86 7000 2.06 200 22:27 31.03.2022
2294 Clouds 12 995 89 4000 3.6 230 21:38 31.03.2022
2295 Clouds 12 993 86 10000 2.57 240 20:51 31.03.2022
2296 Clouds 12 993 86 10000 5.66 260 20:28 31.03.2022
2297 Clouds 14 991 83 10000 7.72 190 19:21 31.03.2022
2298 Clouds 14 991 81 10000 5.14 200 18:31 31.03.2022
2299 Clouds 15 991 81 6000 5.66 220 16:47 31.03.2022
2300 Clouds 16 991 80 10000 6.69 200 15:54 31.03.2022
2301 Clouds 16 992 80 8000 5.66 210 15:24 31.03.2022
2302 Clouds 16 992 83 8000 5.66 200 14:44 31.03.2022
2303 Mist 16 992 80 8000 6.17 190 13:28 31.03.2022
2304 Clouds 14 993 88 4000 5.66 190 11:30 31.03.2022
2305 Mist 15 993 89 5000 6.17 190 10:22 31.03.2022
2306 Clouds 14 992 87 6000 6.69 180 09:39 31.03.2022
2307 Clouds 14 992 87 5000 6.69 190 07:48 31.03.2022
2308 Clouds 13 995 94 10000 2.24 115 01:37 31.03.2022
2309 Clouds 13 997 92 10000 0.89 115 23:24 30.03.2022
2310 Rain 13 998 93 10000 2.24 164 21:55 30.03.2022
2311 Clouds 13 999 93 10000 3.13 173 21:30 30.03.2022
2312 Rain 13 999 87 4000 5.14 170 20:37 30.03.2022
2313 Rain 13 999 88 3000 5.66 130 19:47 30.03.2022
2314 Rain 13 999 91 3000 5.66 210 18:41 30.03.2022
2315 Clouds 13 999 85 10000 4.02 134 17:51 30.03.2022
2316 Rain 13 1000 89 10000 3.13 68 16:59 30.03.2022
2317 Rain 13 1001 87 5000 5.66 170 16:39 30.03.2022
2318 Rain 13 1000 83 6000 8.75 140 15:55 30.03.2022
2319 Rain 14 1002 82 6000 9.77 170 14:35 30.03.2022
2320 Clouds 12 1003 83 6000 6.17 180 13:21 30.03.2022
2321 Clouds 11 1004 91 4000 4.63 100 12:19 30.03.2022
2322 Rain 11 1005 85 5000 4.63 130 10:48 30.03.2022
2323 Rain 11 1006 85 4000 2.57 100 09:43 30.03.2022
2324 Rain 11 1007 76 6000 3.6 190 08:20 30.03.2022
2325 Rain 12 1007 66 10000 2.57 0 06:32 30.03.2022
2326 Rain 12 1007 64 10000 3.09 140 05:38 30.03.2022
2327 Clear 10 1010 69 10000 1.03 320 01:45 30.03.2022
2328 Clear 12 1012 70 10000 1.03 0 22:38 29.03.2022
2329 Clouds 12 1014 70 10000 1.41 131 21:47 29.03.2022
2330 Clear 13 1013 69 10000 3.6 160 21:20 29.03.2022
2331 Clear 14 1012 66 10000 2.06 210 20:25 29.03.2022
2332 Clear 15 1013 62 10000 4.63 220 19:27 29.03.2022
2333 Clear 16 1012 55 10000 4.63 230 18:53 29.03.2022
2334 Clear 18 1012 49 10000 4.12 230 17:40 29.03.2022
2335 Clouds 18 1013 49 10000 4.63 240 16:59 29.03.2022
2336 Clear 18 1013 49 10000 4.63 220 16:25 29.03.2022
2337 Clear 19 1014 45 10000 4.12 270 14:58 29.03.2022
2338 Clear 19 1015 44 10000 4.12 270 14:39 29.03.2022
2339 Clear 18 1017 48 10000 2.06 330 13:30 29.03.2022
2340 Clear 16 1018 59 10000 1.54 300 11:46 29.03.2022
2341 Clear 15 1017 59 10000 1.03 0 10:59 29.03.2022
2342 Clear 12 1016 66 10000 1.54 50 09:50 29.03.2022
2343 Clear 8 1017 79 10000 1.54 50 08:20 29.03.2022
2344 Clear 8 1017 77 10000 1.54 50 05:44 29.03.2022
2345 Clear 10 1020 78 10000 0.51 0 01:31 29.03.2022
2346 Clear 11 1020 73 10000 1.03 120 23:26 28.03.2022
2347 Clear 11 1021 77 10000 1.54 60 22:55 28.03.2022
2348 Clear 12 1020 71 10000 0.51 0 22:30 28.03.2022
2349 Clear 13 1020 68 10000 1.54 210 21:18 28.03.2022
2350 Clear 14 1021 66 10000 3.09 250 20:32 28.03.2022
2351 Clear 15 1021 63 10000 5.14 270 19:46 28.03.2022
2352 Clear 15 1021 56 10000 5.14 270 19:28 28.03.2022
2353 Clear 16 1021 55 10000 6.17 260 18:40 28.03.2022
2354 Clear 18 1022 50 10000 5.14 240 17:39 28.03.2022
2355 Clear 19 1021 49 10000 4.12 270 16:38 28.03.2022
2356 Clouds 19 1021 41 10000 1.54 270 14:50 28.03.2022
2357 Clear 19 1021 44 10000 2.06 270 14:22 28.03.2022
2358 Clear 18 1024 51 10000 2.57 200 12:41 28.03.2022
2359 Clear 16 1023 56 10000 1.54 0 11:38 28.03.2022
2360 Clouds 13 1023 56 10000 1.03 0 09:43 28.03.2022
2361 Clouds 13 1023 57 10000 1.54 70 09:20 28.03.2022
2362 Clouds 11 1023 59 10000 1.54 40 08:23 28.03.2022
2363 Clouds 12 1022 56 10000 1.03 0 07:56 28.03.2022
2364 Clouds 13 1023 51 10000 2.57 100 04:27 28.03.2022
2365 Clouds 15 1024 42 10000 3.6 60 23:43 27.03.2022
2366 Clouds 16 1024 41 10000 0.51 0 22:25 27.03.2022
2367 Clouds 16 1024 41 10000 0.51 0 22:25 27.03.2022
2368 Rain 17 1023 38 10000 0.51 0 21:42 27.03.2022
2369 Rain 17 1023 38 10000 0.51 0 21:42 27.03.2022
2370 Rain 17 1024 38 10000 3.6 190 20:58 27.03.2022
2371 Rain 17 1022 36 10000 3.09 330 19:53 27.03.2022
2372 Rain 17 1022 37 10000 3.09 330 19:30 27.03.2022
2373 Clouds 18 1022 34 9000 3.09 260 18:28 27.03.2022
2374 Clouds 19 1022 35 10000 3.09 240 17:40 27.03.2022
2375 Clouds 19 1021 31 10000 3.09 240 17:20 27.03.2022
2376 Clouds 22 1021 25 10000 3.6 120 15:28 27.03.2022
2377 Clear 22 1022 22 10000 3.09 240 13:56 27.03.2022
2378 Clear 21 1023 35 10000 1.54 0 12:41 27.03.2022
2379 Clear 18 1023 34 10000 3.6 30 11:30 27.03.2022
2380 Clouds 15 1023 38 10000 1.54 60 09:32 27.03.2022
2381 Clear 12 1022 58 10000 2.06 100 06:44 27.03.2022
2382 Clouds 14 1023 55 8000 4.12 30 01:41 27.03.2022
2383 Rain 13 1023 58 8000 1.54 60 00:24 27.03.2022
2384 Clear 13 1024 62 10000 2.06 80 22:45 26.03.2022
2385 Clear 14 1024 61 10000 0.51 0 21:50 26.03.2022
2386 Clear 14 1024 64 10000 1.03 20 21:26 26.03.2022
2387 Clear 15 1024 53 10000 2.57 210 19:31 26.03.2022
2388 Clear 17 1024 46 10000 1.54 260 17:54 26.03.2022
2389 Clear 17 1024 45 10000 2.06 310 17:33 26.03.2022
2390 Clear 19 1022 38 10000 3.09 260 16:27 26.03.2022
2391 Clear 19 1023 39 10000 3.6 250 15:23 26.03.2022
2392 Clear 20 1023 37 10000 4.12 240 13:54 26.03.2022
2393 Clear 21 1024 34 10000 4.12 240 13:18 26.03.2022
2394 Clear 19 1024 36 10000 2.06 280 11:41 26.03.2022
2395 Clear 15 1025 48 10000 1.54 350 10:29 26.03.2022
2396 Clear 11 1023 52 10000 2.06 30 08:44 26.03.2022
2397 Clear 7 1023 63 10000 1.54 40 06:30 26.03.2022
2398 Clear 8 1023 62 10000 1.54 60 05:28 26.03.2022
2399 Clear 9 1024 65 10000 1.03 140 00:30 26.03.2022
2400 Clouds 11 1025 59 10000 0.51 160 21:51 25.03.2022
2401 Clear 11 1025 67 10000 0.51 0 20:46 25.03.2022
2402 Clear 12 1026 66 10000 1.03 0 20:20 25.03.2022
2403 Clear 14 1025 56 10000 2.06 220 18:47 25.03.2022
2404 Clear 16 1025 41 10000 4.12 230 17:49 25.03.2022
2405 Clear 17 1024 40 10000 4.12 230 17:27 25.03.2022
2406 Clear 18 1025 35 10000 4.63 260 16:19 25.03.2022
2407 Clear 20 1025 29 10000 4.12 250 14:49 25.03.2022
2408 Clear 20 1025 27 10000 2.06 320 13:24 25.03.2022
2409 Clear 14 1026 49 10000 0.51 0 10:26 25.03.2022
2410 Clear 12 1026 56 10000 1.54 10 09:28 25.03.2022
2411 Clear 8 1026 65 10000 1.54 360 08:24 25.03.2022
2412 Clear 7 1025 70 10000 1.54 40 07:28 25.03.2022
2413 Clear 7 1025 67 10000 1.03 40 06:24 25.03.2022
2414 Clear 9 1025 69 10000 1.03 180 01:32 25.03.2022
2415 Clear 10 1026 63 10000 1.03 0 22:53 24.03.2022
2416 Clear 12 1026 59 10000 1.03 0 21:52 24.03.2022
2417 Clear 13 1027 60 10000 1.54 190 20:37 24.03.2022
2418 Clear 13 1026 54 10000 1.54 220 19:47 24.03.2022
2419 Clear 17 1024 37 10000 4.63 230 17:48 24.03.2022
2420 Clear 18 1024 39 10000 4.63 230 17:23 24.03.2022
2421 Clear 20 1025 31 10000 4.63 290 15:45 24.03.2022
2422 Clear 20 1026 32 10000 4.63 240 14:50 24.03.2022
2423 Clear 20 1026 31 10000 4.63 240 14:19 24.03.2022
2424 Clear 20 1027 29 10000 3.13 276 13:23 24.03.2022
2425 Clear 18 1028 34 10000 1.54 280 11:47 24.03.2022
2426 Clear 15 1026 35 10000 0.73 2 09:55 24.03.2022
2427 Clear 11 1027 51 10000 2.57 30 08:49 24.03.2022
2428 Clear 7 1025 58 10000 1.54 70 06:49 24.03.2022
2429 Clear 8 1025 56 10000 2.06 60 03:59 24.03.2022
2430 Clear 9 1026 62 10000 1.03 0 23:20 23.03.2022
2431 Clear 10 1026 61 10000 2.06 170 21:45 23.03.2022
2432 Clear 11 1027 61 10000 1.54 180 21:20 23.03.2022
2433 Clear 13 1026 50 10000 2.06 200 19:46 23.03.2022
2434 Clear 14 1027 48 10000 2.57 240 18:55 23.03.2022
2435 Clear 17 1024 29 10000 4.63 240 17:38 23.03.2022
2436 Clear 18 1026 30 10000 5.14 290 16:50 23.03.2022
2437 Clear 20 1025 24 10000 3.58 217 14:51 23.03.2022
2438 Clear 20 1026 23 10000 3.13 282 14:26 23.03.2022
2439 Clear 18 1027 27 10000 2.57 350 12:55 23.03.2022
2440 Clear 13 1029 41 10000 2.57 30 10:20 23.03.2022
2441 Clear 6 1028 57 10000 3.09 70 06:55 23.03.2022
2442 Clear 6 1027 60 10000 2.06 40 05:27 23.03.2022
2443 Clear 7 1029 64 10000 1.03 0 00:35 23.03.2022
2444 Clear 7 1028 65 10000 0.51 0 23:41 22.03.2022
2445 Clear 9 1029 60 10000 1.54 200 21:30 22.03.2022
2446 Clear 10 1030 57 10000 1.54 230 20:49 22.03.2022
2447 Clear 11 1029 53 10000 1.54 220 19:51 22.03.2022
2448 Clear 11 1029 52 10000 1.54 240 19:23 22.03.2022
2449 Clear 12 1030 49 10000 2.57 260 18:38 22.03.2022
2450 Clear 14 1029 41 10000 5.66 250 17:38 22.03.2022
2451 Clear 16 1028 34 10000 6.69 270 16:28 22.03.2022
2452 Clear 17 1029 26 10000 5.14 290 15:23 22.03.2022
2453 Clear 17 1029 26 10000 3.09 250 14:57 22.03.2022
2454 Clear 16 1029 25 10000 3.09 250 14:38 22.03.2022
2455 Clear 16 1030 23 10000 3.09 0 13:36 22.03.2022
2456 Clear 14 1031 23 10000 2.57 360 11:52 22.03.2022
2457 Clear 14 1031 23 10000 2.57 360 11:52 22.03.2022
2458 Clear 13 1033 29 10000 2.06 50 10:46 22.03.2022
2459 Clear 6 1031 49 10000 2.57 50 08:38 22.03.2022
2460 Clear 5 1030 50 10000 1.79 6 06:53 22.03.2022
2461 Clear 5 1031 62 10000 2.06 20 03:52 22.03.2022
2462 Clear 6 1031 61 10000 1.03 0 00:29 22.03.2022
2463 Clear 8 1031 60 10000 2.57 110 22:42 21.03.2022
2464 Clear 9 1030 62 10000 3.09 180 21:18 21.03.2022
2465 Clear 10 1031 59 10000 3.6 170 20:40 21.03.2022
2466 Clear 10 1029 55 10000 3.6 200 19:59 21.03.2022
2467 Clear 10 1029 54 10000 3.6 200 19:34 21.03.2022
2468 Clear 12 1029 43 10000 3.6 250 18:31 21.03.2022
2469 Clear 14 1028 36 10000 5.66 260 17:19 21.03.2022
2470 Clear 14 1030 37 10000 5.14 270 16:51 21.03.2022
2471 Clear 15 1028 32 10000 6.17 270 15:59 21.03.2022
2472 Clear 16 1029 31 10000 6.17 290 15:20 21.03.2022
2473 Clear 15 1030 30 10000 4.02 231 14:25 21.03.2022
2474 Clear 14 1032 31 10000 3.09 270 12:42 21.03.2022
2475 Clear 14 1032 32 10000 1.03 0 11:54 21.03.2022
2476 Clear 12 1033 44 10000 3.6 20 10:44 21.03.2022
2477 Clear 8 1032 62 10000 3.6 30 08:56 21.03.2022
2478 Clouds 5 1032 76 10000 1.03 0 06:57 21.03.2022
2479 Clouds 7 1031 73 10000 2.57 200 03:29 21.03.2022
2480 Clouds 8 1033 77 10000 3.6 180 00:35 21.03.2022
2481 Clouds 10 1031 63 10000 4.63 120 22:55 20.03.2022
2482 Clouds 10 1031 60 10000 1.54 210 21:57 20.03.2022
2483 Clouds 10 1030 60 10000 1.54 230 21:29 20.03.2022
2484 Clouds 11 1030 53 10000 1.54 260 20:45 20.03.2022
2485 Clouds 11 1032 53 10000 2.06 220 20:24 20.03.2022
2486 Rain 11 1032 50 10000 2.06 220 19:38 20.03.2022
2487 Clouds 12 1032 46 10000 2.57 240 18:44 20.03.2022
2488 Clear 13 1030 41 10000 5.66 240 17:37 20.03.2022
2489 Clouds 14 1031 41 10000 4.12 250 16:58 20.03.2022
2490 Clouds 15 1029 35 10000 4.63 250 15:52 20.03.2022
2491 Clear 16 1030 29 10000 3.09 300 14:36 20.03.2022
2492 Clear 15 1031 30 10000 3.09 310 13:18 20.03.2022
2493 Clear 14 1032 31 10000 2.06 0 11:37 20.03.2022
2494 Clouds 12 1031 39 10000 2.57 40 09:57 20.03.2022
2495 Clear 9 1030 45 10000 0.89 52 07:51 20.03.2022
2496 Clouds 7 1029 57 10000 1.03 0 05:49 20.03.2022
2497 Clouds 9 1029 52 10000 1.03 0 02:53 20.03.2022
2498 Clouds 10 1029 57 10000 2.06 90 00:48 20.03.2022
2499 Clouds 10 1029 68 10000 3.09 70 23:21 19.03.2022
2500 Clouds 12 1028 64 10000 4.12 90 21:41 19.03.2022
2501 Clouds 12 1028 61 10000 3.6 70 21:18 19.03.2022
2502 Clouds 13 1026 56 10000 2.06 210 19:21 19.03.2022
2503 Clouds 14 1026 58 10000 2.57 230 18:25 19.03.2022
2504 Clear 14 1025 59 10000 3.6 230 17:41 19.03.2022
2505 Clear 15 1026 57 10000 5.14 220 16:40 19.03.2022
2506 Clear 16 1025 49 10000 2.57 240 15:21 19.03.2022
2507 Clear 16 1026 49 10000 1.54 0 13:39 19.03.2022
2508 Clear 16 1027 51 10000 2.06 260 12:42 19.03.2022
2509 Clear 16 1027 49 10000 2.06 290 12:19 19.03.2022
2510 Clouds 15 1027 51 10000 1.54 280 11:42 19.03.2022
2511 Clouds 12 1027 59 10000 2.57 70 08:34 19.03.2022
2512 Clear 12 1027 62 10000 3.09 60 04:24 19.03.2022
2513 Rain 13 1026 55 10000 2.06 30 02:31 19.03.2022
2514 Clear 13 1027 55 10000 2.57 30 23:46 18.03.2022
2515 Clear 13 1026 56 10000 0.89 93 22:36 18.03.2022
2516 Clear 13 1027 58 10000 1.54 70 21:56 18.03.2022
2517 Clear 13 1026 66 10000 1.03 0 20:25 18.03.2022
2518 Clouds 15 1026 62 10000 1.54 170 19:23 18.03.2022
2519 Clouds 15 1026 64 10000 2.06 210 18:34 18.03.2022
2520 Clear 17 1023 47 10000 3.6 360 16:52 18.03.2022
2521 Rain 17 1023 43 8000 3.09 360 15:52 18.03.2022
2522 Clouds 17 1024 43 8000 5.14 70 14:25 18.03.2022
2523 Clouds 18 1024 43 8000 3.09 320 13:18 18.03.2022
2524 Clear 16 1025 54 8000 3.09 120 11:28 18.03.2022
2525 Clear 14 1024 60 8000 1.54 350 09:41 18.03.2022
2526 Clear 12 1023 62 10000 1.03 0 08:45 18.03.2022
2527 Clear 11 1023 68 10000 1.34 26 06:42 18.03.2022
2528 Clouds 11 1021 68 10000 2.57 60 04:38 18.03.2022
2529 Clouds 11 1021 68 10000 2.57 60 04:38 18.03.2022
2530 Clear 13 1022 67 10000 1.03 190 00:54 18.03.2022
2531 Clear 13 1021 66 10000 1.54 200 23:52 17.03.2022
2532 Clear 13 1021 66 10000 1.54 200 23:52 17.03.2022
2533 Clear 13 1021 66 10000 1.54 200 23:52 17.03.2022
2534 Clear 13 1021 65 10000 1.54 190 22:43 17.03.2022
2535 Clear 14 1020 65 10000 1.54 170 22:18 17.03.2022
2536 Clear 14 1020 62 10000 1.54 220 21:27 17.03.2022
2537 Clear 14 1021 63 10000 0.51 0 20:52 17.03.2022
2538 Clear 14 1021 64 10000 0.51 0 20:18 17.03.2022
2539 Clear 15 1021 62 10000 1.03 260 19:37 17.03.2022
2540 Clear 15 1021 63 10000 2.06 260 18:51 17.03.2022
2541 Clear 18 1019 53 10000 2.57 40 17:27 17.03.2022
2542 Clear 20 1019 46 10000 3.09 260 15:57 17.03.2022
2543 Clear 20 1020 45 10000 3.09 260 15:36 17.03.2022
2544 Clear 20 1019 44 10000 2.68 229 14:55 17.03.2022
2545 Clear 19 1021 51 10000 2.06 350 13:28 17.03.2022
2546 Clear 18 1021 51 10000 3.09 10 12:38 17.03.2022
2547 Clear 17 1021 60 10000 3.6 40 11:31 17.03.2022
2548 Clear 15 1021 64 10000 2.57 30 10:38 17.03.2022
2549 Clouds 10 1021 83 8000 2.57 350 08:42 17.03.2022
2550 Clouds 10 1021 84 8000 2.57 350 08:18 17.03.2022
2551 Clear 9 1020 82 10000 1.03 70 05:49 17.03.2022
2552 Clear 9 1020 79 10000 0.51 50 04:24 17.03.2022
2553 Clear 10 1022 77 10000 0.51 0 00:24 17.03.2022
2554 Clear 11 1022 76 10000 1.54 60 22:52 16.03.2022
2555 Clear 11 1023 81 10000 1.54 60 22:33 16.03.2022
2556 Clear 11 1022 80 10000 2.06 80 21:55 16.03.2022
2557 Clear 12 1023 79 10000 0.51 0 20:32 16.03.2022
2558 Clouds 13 1022 75 10000 1.79 301 19:22 16.03.2022
2559 Clouds 13 1023 72 10000 1.54 220 18:40 16.03.2022
2560 Clear 14 1023 70 10000 4.63 260 17:45 16.03.2022
2561 Clear 15 1022 66 10000 4.63 260 17:27 16.03.2022
2562 Clouds 18 1022 56 10000 3.6 260 15:56 16.03.2022
2563 Clear 18 1024 51 10000 1.54 0 14:35 16.03.2022
2564 Clear 17 1025 52 10000 2.57 260 13:34 16.03.2022
2565 Clear 16 1026 55 10000 1.54 0 11:59 16.03.2022
2566 Clear 15 1027 54 10000 1.03 0 11:22 16.03.2022
2567 Clear 14 1027 55 10000 1.03 0 10:28 16.03.2022
2568 Clear 13 1027 67 10000 1.54 40 09:55 16.03.2022
2569 Clear 7 1028 83 10000 1.54 50 06:47 16.03.2022
2570 Clear 8 1028 74 10000 1.54 150 02:29 16.03.2022
2571 Clear 10 1030 73 10000 1.54 140 22:54 15.03.2022
2572 Clear 10 1030 72 10000 1.54 140 22:33 15.03.2022
2573 Clear 10 1030 72 10000 1.54 140 22:33 15.03.2022
2574 Clear 11 1031 77 10000 2.57 190 20:51 15.03.2022
2575 Clear 12 1031 77 10000 3.09 210 19:34 15.03.2022
2576 Clear 15 1031 55 10000 5.14 220 17:41 15.03.2022
2577 Clear 16 1031 48 10000 5.14 230 16:34 15.03.2022
2578 Clear 17 1031 46 10000 5.66 210 15:28 15.03.2022
2579 Clear 17 1032 46 10000 5.66 190 14:47 15.03.2022
2580 Clear 17 1032 47 10000 5.66 200 13:55 15.03.2022
2581 Clear 17 1032 47 10000 5.66 200 13:55 15.03.2022
2582 Clear 17 1033 48 10000 5.14 190 13:20 15.03.2022
2583 Clear 16 1034 53 10000 5.66 200 11:32 15.03.2022
2584 Clear 14 1034 50 10000 3.13 176 10:21 15.03.2022
2585 Clear 10 1034 61 10000 1.03 0 08:53 15.03.2022
2586 Clear 8 1033 66 10000 1.54 40 07:53 15.03.2022
2587 Clear 8 1033 67 10000 1.54 40 07:35 15.03.2022
2588 Clear 6 1032 71 10000 1.54 50 05:45 15.03.2022
2589 Clouds 9 1032 61 10000 1.54 130 00:25 15.03.2022
2590 Clouds 9 1033 71 10000 1.54 60 23:26 14.03.2022
2591 Clouds 9 1032 70 10000 2.06 80 22:37 14.03.2022
2592 Clouds 10 1033 67 10000 1.54 80 21:49 14.03.2022
2593 Clouds 11 1033 68 10000 0.51 0 20:55 14.03.2022
2594 Clouds 11 1032 66 10000 1.54 240 20:24 14.03.2022
2595 Clouds 12 1032 64 10000 1.54 230 19:22 14.03.2022
2596 Clouds 14 1032 51 10000 3.6 230 17:55 14.03.2022
2597 Clear 15 1031 47 10000 4.12 230 17:25 14.03.2022
2598 Clear 17 1029 42 10000 4.12 230 16:26 14.03.2022
2599 Clear 18 1029 33 10000 3.6 220 14:41 14.03.2022
2600 Clear 16 1030 37 10000 1.54 290 12:54 14.03.2022
2601 Clear 14 1030 39 10000 1.03 0 10:54 14.03.2022
2602 Clear 11 1029 50 10000 2.06 60 09:56 14.03.2022
2603 Clear 10 1029 54 10000 2.06 40 09:22 14.03.2022
2604 Clouds 9 1028 51 10000 0.45 30 08:57 14.03.2022
2605 Clear 7 1028 60 10000 1.03 0 07:43 14.03.2022
2606 Clear 5 1028 65 10000 1.79 348 05:46 14.03.2022
2607 Clouds 7 1026 55 10000 1.62 40 02:51 14.03.2022
2608 Clear 7 1026 60 10000 0.51 0 01:29 14.03.2022
2609 Clear 7 1026 62 10000 1.03 0 22:56 13.03.2022
2610 Clear 9 1025 61 10000 3.09 140 21:31 13.03.2022
2611 Clear 9 1025 54 10000 3.6 150 20:59 13.03.2022
2612 Clear 9 1026 61 10000 3.6 150 20:37 13.03.2022
2613 Clear 10 1026 60 10000 4.63 170 20:19 13.03.2022
2614 Clear 10 1025 60 10000 4.63 180 19:39 13.03.2022
2615 Clouds 10 1024 57 10000 5.14 190 19:18 13.03.2022
2616 Clouds 11 1025 55 10000 4.63 200 18:39 13.03.2022
2617 Clear 13 1023 45 10000 6.17 200 17:47 13.03.2022
2618 Clear 14 1023 43 10000 5.66 200 17:21 13.03.2022
2619 Clear 14 1023 37 10000 5.66 200 16:33 13.03.2022
2620 Clear 15 1023 37 10000 4.12 190 15:49 13.03.2022
2621 Clear 15 1023 38 10000 2.57 0 14:58 13.03.2022
2622 Clear 14 1023 37 10000 1.54 0 13:53 13.03.2022
2623 Clear 14 1023 39 10000 2.06 100 13:19 13.03.2022
2624 Clear 13 1025 43 10000 1.54 0 12:19 13.03.2022
2625 Clear 12 1026 45 10000 2.06 60 11:36 13.03.2022
2626 Clear 11 1024 45 10000 2.06 340 10:48 13.03.2022
2627 Clear 10 1024 46 10000 2.06 50 10:25 13.03.2022
2628 Clear 9 1024 48 10000 2.24 67 09:41 13.03.2022
2629 Clear 9 1024 48 10000 2.24 67 09:41 13.03.2022
2630 Clear 9 1024 48 10000 2.24 67 09:41 13.03.2022
2631 Clouds 7 1024 54 10000 2.06 40 08:47 13.03.2022
2632 Clouds 5 1024 59 10000 1.79 45 07:47 13.03.2022
2633 Clouds 5 1022 60 10000 0.89 23 05:48 13.03.2022
2634 Clear 6 1023 55 10000 5.14 120 02:50 13.03.2022
2635 Clear 7 1024 52 10000 5.66 130 00:20 13.03.2022
2636 Clear 8 1024 56 10000 1.54 80 22:37 12.03.2022
2637 Clouds 9 1023 51 10000 2.06 150 20:58 12.03.2022
2638 Clouds 10 1023 50 10000 3.6 190 19:56 12.03.2022
2639 Clouds 10 1023 50 10000 3.6 190 19:38 12.03.2022
2640 Clouds 10 1023 50 10000 3.6 230 18:27 12.03.2022
2641 Clear 11 1022 47 10000 5.14 210 17:34 12.03.2022
2642 Clear 13 1022 48 10000 4.63 200 16:24 12.03.2022
2643 Clear 14 1022 45 10000 5.14 220 15:24 12.03.2022
2644 Clouds 14 1022 47 10000 2.68 173 14:50 12.03.2022
2645 Clear 13 1024 49 10000 3.09 330 13:47 12.03.2022
2646 Clouds 12 1024 51 10000 1.54 20 11:57 12.03.2022
2647 Clear 12 1026 55 10000 1.54 20 11:38 12.03.2022
2648 Clouds 11 1024 54 10000 1.03 0 10:58 12.03.2022
2649 Clear 9 1025 58 10000 2.57 350 09:46 12.03.2022
2650 Clear 9 1025 58 10000 2.57 350 09:46 12.03.2022
2651 Clouds 7 1024 63 10000 1.54 20 08:56 12.03.2022
2652 Clear 6 1024 69 10000 2.06 30 07:27 12.03.2022
2653 Clear 8 1023 70 10000 1.54 80 03:54 12.03.2022
2654 Clouds 9 1024 65 10000 2.06 160 23:56 11.03.2022
2655 Clouds 9 1024 65 10000 2.06 160 23:56 11.03.2022
2656 Clouds 9 1024 65 10000 2.06 160 23:56 11.03.2022
2657 Clouds 9 1024 65 10000 2.06 160 23:56 11.03.2022
2658 Clouds 9 1024 65 10000 2.06 160 23:56 11.03.2022
2659 Clouds 9 1024 65 10000 2.57 130 23:18 11.03.2022
2660 Clouds 10 1023 62 10000 2.57 180 21:41 11.03.2022
2661 Clouds 10 1023 62 10000 3.09 170 20:56 11.03.2022
2662 Clouds 10 1023 62 10000 3.09 170 20:34 11.03.2022
2663 Clear 10 1023 65 10000 2.57 180 19:49 11.03.2022
2664 Clear 10 1023 65 10000 3.6 190 19:22 11.03.2022
2665 Clouds 12 1022 59 10000 4.12 220 17:30 11.03.2022
2666 Clouds 14 1022 55 10000 5.14 220 16:36 11.03.2022
2667 Clouds 14 1021 53 10000 5.14 230 15:53 11.03.2022
2668 Clouds 14 1023 50 10000 3.09 280 14:19 11.03.2022
2669 Clouds 13 1025 55 10000 0.45 172 12:45 11.03.2022
2670 Clouds 13 1024 54 10000 3.6 230 12:21 11.03.2022
2671 Clouds 13 1024 54 10000 3.09 210 11:51 11.03.2022
2672 Clouds 10 1024 57 10000 1.54 350 09:51 11.03.2022
2673 Clouds 9 1024 61 10000 1.54 20 08:56 11.03.2022
2674 Clouds 7 1024 66 10000 1.54 20 08:24 11.03.2022
2675 Clouds 6 1023 69 10000 1.54 20 07:45 11.03.2022
2676 Clear 5 1023 66 10000 1.03 40 05:44 11.03.2022
2677 Clear 5 1022 70 10000 1.54 30 03:48 11.03.2022
2678 Clear 7 1022 62 10000 1.54 180 23:36 10.03.2022
2679 Clear 8 1022 63 10000 2.06 180 22:30 10.03.2022
2680 Clear 9 1021 62 10000 2.06 170 21:40 10.03.2022
2681 Clear 9 1022 65 10000 1.54 170 21:18 10.03.2022
2682 Clear 11 1022 59 10000 3.09 180 19:43 10.03.2022
2683 Clear 12 1022 54 10000 2.57 220 18:40 10.03.2022
2684 Clear 14 1022 43 10000 4.63 260 17:19 10.03.2022
2685 Clear 16 1021 37 10000 5.14 270 15:50 10.03.2022
2686 Clear 16 1022 35 10000 3.6 280 14:44 10.03.2022
2687 Clear 15 1022 34 10000 2.06 10 13:19 10.03.2022
2688 Clear 14 1023 46 10000 1.54 280 11:57 10.03.2022
2689 Clear 12 1024 46 10000 1.54 40 10:50 10.03.2022
2690 Clear 7 1024 53 10000 2.06 30 08:56 10.03.2022
2691 Clear 4 1023 60 10000 2.06 80 06:58 10.03.2022
2692 Clear 4 1024 61 10000 1.54 60 04:18 10.03.2022
2693 Clear 5 1023 63 10000 4.12 50 01:40 10.03.2022
2694 Clear 7 1023 53 10000 1.03 0 22:46 09.03.2022
2695 Clear 8 1021 50 10000 0.51 0 21:49 09.03.2022
2696 Clear 8 1022 50 10000 1.03 220 21:24 09.03.2022
2697 Clear 10 1021 40 10000 0.51 0 19:43 09.03.2022
2698 Clear 12 1021 41 10000 2.68 307 18:29 09.03.2022
2699 Clear 13 1019 34 10000 4.63 320 17:26 09.03.2022
2700 Clear 13 1019 34 10000 4.63 320 17:26 09.03.2022
2701 Clear 14 1019 31 10000 4.12 350 16:30 09.03.2022
2702 Clear 14 1019 33 10000 3.09 350 14:56 09.03.2022
2703 Clear 13 1020 32 10000 2.06 0 13:52 09.03.2022
2704 Clear 12 1020 34 10000 4.63 350 12:39 09.03.2022
2705 Clouds 11 1021 37 10000 4.12 50 11:52 09.03.2022
2706 Clear 10 1021 38 10000 5.66 10 11:32 09.03.2022
2707 Clear 7 1021 48 10000 4.63 70 09:45 09.03.2022
2708 Clear 5 1020 58 10000 4.12 60 08:47 09.03.2022
2709 Clear 2 1020 64 10000 0.45 78 06:51 09.03.2022
2710 Clear 3 1019 56 10000 3.09 50 01:54 09.03.2022
2711 Clear 3 1020 51 10000 2.57 80 00:27 09.03.2022
2712 Clear 3 1018 45 10000 3.09 50 22:47 08.03.2022
2713 Clear 4 1019 46 10000 3.6 30 21:52 08.03.2022
2714 Clear 4 1019 45 10000 3.6 40 21:22 08.03.2022
2715 Clear 5 1019 43 10000 5.14 20 20:24 08.03.2022
2716 Clear 6 1018 40 10000 5.66 30 19:24 08.03.2022
2717 Clear 7 1017 34 10000 6.17 40 18:23 08.03.2022
2718 Clear 10 1016 29 10000 7.72 30 16:56 08.03.2022
2719 Clouds 10 1016 32 10000 8.75 10 14:58 08.03.2022
2720 Clear 10 1015 30 10000 7.72 30 13:54 08.03.2022
2721 Clear 9 1017 36 10000 7.72 10 12:28 08.03.2022
2722 Clear 9 1015 37 10000 7.2 10 11:43 08.03.2022
2723 Clear 7 1016 42 10000 8.75 30 10:29 08.03.2022
2724 Clear 5 1016 48 10000 5.14 30 08:57 08.03.2022
2725 Clear 5 1016 48 10000 5.14 30 08:57 08.03.2022
2726 Clear 2 1016 66 10000 3.6 70 06:30 08.03.2022
2727 Clear 3 1015 67 10000 4.12 30 03:48 08.03.2022
2728 Clear 5 1016 62 10000 2.06 70 22:53 07.03.2022
2729 Clear 5 1015 59 10000 4.12 50 21:45 07.03.2022
2730 Clear 5 1015 58 10000 4.12 50 21:23 07.03.2022
2731 Clear 6 1016 56 10000 3.09 40 20:34 07.03.2022
2732 Clear 7 1013 55 10000 3.09 350 19:50 07.03.2022
2733 Clear 8 1013 54 10000 4.12 350 19:24 07.03.2022
2734 Clear 9 1013 49 10000 2.57 10 18:33 07.03.2022
2735 Clouds 10 1013 43 10000 3.6 40 17:31 07.03.2022
2736 Clear 11 1012 42 10000 2.57 10 16:54 07.03.2022
2737 Clouds 11 1013 41 10000 2.57 30 14:51 07.03.2022
2738 Clouds 11 1014 46 10000 0.45 302 12:34 07.03.2022
2739 Clear 10 1014 51 10000 4.12 40 11:36 07.03.2022
2740 Clear 9 1014 54 10000 3.6 20 10:34 07.03.2022
2741 Clouds 4 1013 71 10000 2.57 70 08:35 07.03.2022
2742 Clear 3 1014 67 10000 1.54 80 02:50 07.03.2022
2743 Clear 4 1013 57 10000 1.54 70 00:20 07.03.2022
2744 Clouds 5 1014 55 10000 1.03 80 23:26 06.03.2022
2745 Clouds 5 1013 55 10000 2.06 10 22:29 06.03.2022
2746 Clouds 6 1014 53 10000 3.09 60 21:44 06.03.2022
2747 Clouds 7 1012 49 10000 4.12 20 20:29 06.03.2022
2748 Clouds 8 1012 48 10000 6.17 20 19:43 06.03.2022
2749 Clear 8 1012 46 10000 2.57 180 18:50 06.03.2022
2750 Clouds 10 1010 45 10000 4.63 200 17:49 06.03.2022
2751 Clouds 11 1011 43 10000 4.63 190 17:20 06.03.2022
2752 Clouds 11 1011 42 10000 5.14 210 16:39 06.03.2022
2753 Clouds 12 1010 37 10000 3.09 230 15:31 06.03.2022
2754 Clouds 12 1011 38 10000 2.06 0 14:42 06.03.2022
2755 Clouds 12 1011 40 10000 2.57 330 13:49 06.03.2022
2756 Clear 11 1012 43 10000 3.09 10 12:40 06.03.2022
2757 Clear 11 1013 47 10000 3.09 40 11:46 06.03.2022
2758 Clear 9 1012 50 10000 4.63 10 10:43 06.03.2022
2759 Clear 6 1012 59 10000 4.12 40 09:21 06.03.2022
2760 Clear 4 1012 63 10000 3.6 70 08:28 06.03.2022
2761 Clear 3 1011 67 10000 3.09 70 07:26 06.03.2022
2762 Clear 3 1011 62 10000 3.09 50 02:45 06.03.2022
2763 Clear 4 1010 56 10000 2.57 50 00:36 06.03.2022
2764 Clear 5 1010 55 10000 3.6 50 00:18 06.03.2022
2765 Clear 5 1011 57 10000 3.09 40 23:19 05.03.2022
2766 Clear 6 1010 54 10000 4.12 30 22:34 05.03.2022
2767 Clear 6 1009 52 10000 3.6 30 21:29 05.03.2022
2768 Clear 7 1010 51 10000 3.6 20 20:32 05.03.2022
2769 Clear 8 1008 47 10000 2.68 54 19:19 05.03.2022
2770 Clouds 9 1009 45 10000 4.12 60 18:37 05.03.2022
2771 Clear 11 1007 39 10000 5.14 30 17:34 05.03.2022
2772 Clouds 12 1006 35 10000 8.23 20 16:18 05.03.2022
2773 Clouds 13 1007 35 10000 7.72 10 15:20 05.03.2022
2774 Clear 13 1008 35 10000 7.2 10 14:36 05.03.2022
2775 Clear 13 1007 35 10000 5.66 10 13:42 05.03.2022
2776 Clear 12 1009 38 10000 5.66 10 12:40 05.03.2022
2777 Clear 11 1008 39 10000 6.17 360 11:20 05.03.2022
2778 Clear 10 1009 45 10000 6.17 20 10:52 05.03.2022
2779 Clear 8 1009 57 10000 5.66 30 09:31 05.03.2022
2780 Clear 6 1009 70 10000 3.6 360 08:24 05.03.2022
2781 Clear 4 1008 78 10000 2.06 70 06:33 05.03.2022
2782 Clear 4 1008 77 10000 3.6 60 05:22 05.03.2022
2783 Clear 5 1010 81 10000 3.09 30 00:30 05.03.2022
2784 Clouds 6 1010 82 10000 2.06 60 22:45 04.03.2022
2785 Clouds 6 1010 83 10000 2.57 80 22:25 04.03.2022
2786 Clouds 7 1010 80 10000 3.09 70 21:43 04.03.2022
2787 Clouds 7 1011 80 10000 2.57 50 20:39 04.03.2022
2788 Rain 8 1010 77 10000 4.12 90 19:37 04.03.2022
2789 Rain 8 1010 77 10000 3.6 50 18:54 04.03.2022
2790 Rain 8 1010 77 10000 3.6 50 18:33 04.03.2022
2791 Rain 9 1010 75 10000 4.12 300 17:29 04.03.2022
2792 Thunderstorm 12 1010 60 5000 5.66 320 15:48 04.03.2022
2793 Thunderstorm 12 1010 55 5000 5.66 320 15:24 04.03.2022
2794 Clouds 14 1011 46 10000 1.79 244 13:35 04.03.2022
2795 Clear 13 1011 48 10000 2.06 280 12:38 04.03.2022
2796 Clear 12 1012 52 10000 2.06 320 11:37 04.03.2022
2797 Clear 11 1012 63 10000 2.06 350 10:24 04.03.2022
2798 Clear 8 1012 70 10000 1.54 20 09:27 04.03.2022
2799 Clear 5 1012 79 10000 1.54 50 07:48 04.03.2022
2800 Clear 4 1012 78 10000 1.54 50 05:49 04.03.2022
2801 Clear 6 1013 76 10000 2.06 130 01:23 04.03.2022
2802 Clear 7 1013 74 10000 2.57 130 23:31 03.03.2022
2803 Clear 7 1015 75 10000 2.06 140 22:18 03.03.2022
2804 Clear 8 1014 71 10000 1.03 0 21:36 03.03.2022
2805 Clear 9 1014 64 10000 1.54 220 20:32 03.03.2022
2806 Clear 10 1014 64 10000 2.06 210 19:22 03.03.2022
2807 Clear 11 1014 62 10000 2.57 240 18:25 03.03.2022
2808 Clear 12 1015 55 10000 4.12 240 17:31 03.03.2022
2809 Clear 12 1014 45 10000 3.6 230 16:41 03.03.2022
2810 Clear 13 1016 38 10000 4.12 230 15:44 03.03.2022
2811 Clear 13 1015 38 10000 3.6 260 14:44 03.03.2022
2812 Clear 13 1016 39 10000 1.54 270 14:25 03.03.2022
2813 Clear 12 1017 40 10000 2.06 240 12:33 03.03.2022
2814 Clear 10 1017 55 10000 1.03 0 11:23 03.03.2022
2815 Clear 8 1018 56 10000 1.03 0 10:21 03.03.2022
2816 Clear 5 1017 64 10000 1.54 80 08:42 03.03.2022
2817 Clear 3 1018 73 10000 0.51 0 06:55 03.03.2022
2818 Clear 3 1017 67 10000 1.03 0 05:37 03.03.2022
2819 Clear 4 1019 70 10000 1.03 0 23:57 02.03.2022
2820 Clear 5 1019 67 10000 2.06 190 23:00 02.03.2022
2821 Clear 5 1019 64 10000 2.06 190 22:40 02.03.2022
2822 Clear 7 1019 61 10000 2.57 170 21:22 02.03.2022
2823 Clear 7 1019 61 10000 2.57 170 20:30 02.03.2022
2824 Clear 8 1019 62 10000 2.57 170 19:43 02.03.2022
2825 Clear 8 1019 60 10000 2.06 190 19:24 02.03.2022
2826 Clear 9 1020 58 10000 2.06 220 18:37 02.03.2022
2827 Clear 11 1019 52 10000 4.12 250 17:45 02.03.2022
2828 Clear 12 1019 45 10000 4.63 270 16:54 02.03.2022
2829 Clear 13 1019 42 10000 4.12 260 16:25 02.03.2022
2830 Clear 13 1020 35 10000 3.13 233 14:39 02.03.2022
2831 Clear 12 1021 35 10000 3.09 320 13:18 02.03.2022
2832 Clear 11 1022 36 10000 0.89 34 12:39 02.03.2022
2833 Clear 10 1022 39 10000 2.57 50 11:28 02.03.2022
2834 Clear 9 1022 45 10000 3.09 30 10:58 02.03.2022
2835 Clear 6 1023 56 10000 3.6 30 09:40 02.03.2022
2836 Clear 4 1023 59 10000 3.09 50 08:50 02.03.2022
2837 Clear 2 1023 66 10000 3.09 60 07:25 02.03.2022
2838 Clear 1 1023 67 10000 4.12 50 05:43 02.03.2022
2839 Clear 3 1023 57 10000 1.79 356 00:51 02.03.2022
2840 Clear 4 1024 56 10000 2.57 40 23:45 01.03.2022
2841 Clear 4 1023 53 10000 3.09 50 22:42 01.03.2022
2842 Clouds 4 1024 52 10000 3.6 40 21:56 01.03.2022
2843 Clear 5 1023 49 10000 5.14 30 20:56 01.03.2022
2844 Clear 5 1023 48 10000 5.14 20 20:24 01.03.2022
2845 Clear 6 1022 41 10000 6.17 10 19:21 01.03.2022
2846 Clear 7 1022 40 10000 6.69 10 18:32 01.03.2022
2847 Clear 8 1022 39 10000 8.75 10 17:55 01.03.2022
2848 Clear 10 1022 39 10000 8.23 360 16:54 01.03.2022
2849 Clouds 11 1021 40 10000 8.23 10 15:59 01.03.2022
2850 Clouds 11 1023 35 10000 5.81 315 14:55 01.03.2022
2851 Clouds 11 1024 36 10000 5.14 10 14:34 01.03.2022
2852 Clear 11 1023 36 10000 7.2 30 13:27 01.03.2022
2853 Clear 10 1025 35 10000 7.72 30 12:39 01.03.2022
2854 Clouds 10 1023 33 10000 7.2 60 11:58 01.03.2022
2855 Clear 8 1024 43 10000 7.72 10 10:26 01.03.2022
2856 Clear 4 1024 55 10000 6.69 360 08:36 01.03.2022
2857 Clear 3 1023 59 10000 7.2 40 07:36 01.03.2022
2858 Clear 5 1022 46 10000 4.63 20 04:28 01.03.2022
2859 Clear 6 1024 54 10000 3.13 11 00:59 01.03.2022
2860 Clear 6 1022 50 10000 3.6 50 23:48 28.02.2022
2861 Clear 7 1023 50 10000 3.6 50 22:52 28.02.2022
2862 Clear 8 1021 45 10000 5.14 40 21:48 28.02.2022
2863 Clear 8 1021 44 10000 3.09 30 21:24 28.02.2022
2864 Clear 9 1020 46 10000 2.68 11 19:52 28.02.2022
2865 Clear 9 1020 45 10000 2.68 25 19:22 28.02.2022
2866 Clear 10 1020 45 10000 3.6 360 18:36 28.02.2022
2867 Clear 13 1020 38 10000 6.69 350 17:23 28.02.2022
2868 Clear 13 1020 37 10000 4.63 310 16:32 28.02.2022
2869 Clouds 14 1021 39 10000 4.02 333 15:23 28.02.2022
2870 Clouds 14 1020 37 10000 1.54 0 14:30 28.02.2022
2871 Clear 14 1021 39 10000 1.34 247 13:34 28.02.2022
2872 Clear 13 1022 43 10000 3.6 10 12:37 28.02.2022
2873 Clear 13 1021 43 10000 5.14 20 11:40 28.02.2022
2874 Clear 11 1021 50 10000 4.12 20 10:44 28.02.2022
2875 Clear 10 1021 52 10000 4.63 50 10:19 28.02.2022
2876 Clear 8 1022 65 10000 3.09 40 09:31 28.02.2022
2877 Clear 5 1021 73 10000 4.12 60 08:29 28.02.2022
2878 Clear 4 1020 72 10000 0.89 64 07:20 28.02.2022
2879 Clear 5 1020 69 10000 3.09 70 04:32 28.02.2022
2880 Clear 5 1021 70 10000 0.89 51 03:58 28.02.2022
2881 Clear 6 1020 70 10000 3.6 70 23:27 27.02.2022
2882 Clear 6 1020 68 10000 4.12 60 22:33 27.02.2022
2883 Clouds 6 1020 67 10000 4.12 50 21:49 27.02.2022
2884 Clear 6 1019 67 10000 5.66 40 20:55 27.02.2022
2885 Clear 6 1019 66 10000 5.14 40 20:27 27.02.2022
2886 Clear 6 1020 65 10000 5.14 40 19:57 27.02.2022
2887 Clear 7 1019 64 10000 5.66 40 19:26 27.02.2022
2888 Clear 8 1018 62 10000 3.58 1 18:40 27.02.2022
2889 Clear 8 1018 59 10000 7.2 10 17:54 27.02.2022
2890 Clear 10 1017 57 10000 8.23 360 16:38 27.02.2022
2891 Clear 10 1017 54 10000 7.2 10 15:59 27.02.2022
2892 Clear 11 1017 49 10000 7.72 360 13:25 27.02.2022
2893 Clear 11 1017 47 10000 4.47 277 12:32 27.02.2022
2894 Clear 10 1016 52 10000 5.66 30 10:56 27.02.2022
2895 Clear 9 1016 54 10000 7.2 10 10:18 27.02.2022
2896 Clear 9 1016 56 10000 6.69 10 09:44 27.02.2022
2897 Clear 8 1016 58 10000 6.69 10 09:19 27.02.2022
2898 Clear 6 1015 63 10000 4.63 60 07:34 27.02.2022
2899 Clear 6 1014 64 10000 5.14 30 05:38 27.02.2022
2900 Clear 7 1014 56 10000 7.72 20 00:53 27.02.2022
2901 Clear 7 1014 59 10000 8.75 20 23:22 26.02.2022
2902 Clear 7 1014 60 10000 7.2 10 21:49 26.02.2022
2903 Clear 7 1013 60 10000 8.23 10 20:58 26.02.2022
2904 Clear 7 1013 60 10000 9.26 10 20:20 26.02.2022
2905 Clear 7 1013 59 10000 7.72 360 19:46 26.02.2022
2906 Rain 7 1013 58 10000 7.72 360 19:22 26.02.2022
2907 Rain 8 1013 57 10000 8.23 360 17:46 26.02.2022
2908 Rain 9 1012 51 10000 6.17 50 16:52 26.02.2022
2909 Rain 9 1013 50 10000 7.72 60 15:57 26.02.2022
2910 Rain 9 1013 51 10000 8.23 60 15:23 26.02.2022
2911 Rain 10 1011 51 10000 8.75 70 14:55 26.02.2022
2912 Clouds 10 1012 52 10000 8.75 70 14:36 26.02.2022
2913 Clouds 9 1013 58 10000 9.26 10 13:24 26.02.2022
2914 Clouds 9 1013 63 10000 11.32 60 12:31 26.02.2022
2915 Clouds 8 1013 67 10000 8.75 10 11:29 26.02.2022
2916 Clouds 8 1013 68 10000 6.69 20 10:51 26.02.2022
2917 Clouds 6 1014 78 10000 4.12 50 08:59 26.02.2022
2918 Clouds 5 1014 84 10000 4.63 40 07:43 26.02.2022
2919 Clouds 10 1016 87 8000 2.06 210 01:53 26.02.2022
2920 Rain 10 1016 80 10000 2.06 180 22:57 25.02.2022
2921 Clouds 11 1017 80 10000 2.06 180 21:48 25.02.2022
2922 Clouds 11 1017 79 10000 2.06 190 21:29 25.02.2022
2923 Clouds 11 1016 77 10000 2.06 200 20:33 25.02.2022
2924 Clouds 12 1016 71 10000 2.57 200 19:39 25.02.2022
2925 Clouds 13 1017 72 10000 3.6 220 17:33 25.02.2022
2926 Clouds 14 1016 68 10000 4.12 210 16:45 25.02.2022
2927 Clouds 15 1016 63 10000 5.14 210 15:48 25.02.2022
2928 Clouds 15 1016 61 10000 4.63 220 15:23 25.02.2022
2929 Clouds 15 1017 60 10000 5.66 220 14:45 25.02.2022
2930 Clouds 15 1017 57 10000 5.66 240 14:18 25.02.2022
2931 Clouds 16 1018 56 10000 4.12 200 13:20 25.02.2022
2932 Clouds 16 1018 56 10000 4.12 200 13:20 25.02.2022
2933 Clear 15 1018 62 10000 3.6 200 11:39 25.02.2022
2934 Clear 14 1018 65 10000 3.6 200 11:18 25.02.2022
2935 Clouds 12 1019 68 10000 3.09 200 10:23 25.02.2022
2936 Clouds 11 1020 71 10000 2.06 180 09:36 25.02.2022
2937 Clouds 7 1018 73 10000 2.06 80 07:47 25.02.2022
2938 Clear 7 1018 75 10000 0.51 0 06:45 25.02.2022
2939 Clear 7 1018 69 10000 1.54 170 05:37 25.02.2022
2940 Clear 8 1020 67 10000 1.54 170 00:31 25.02.2022
2941 Clear 9 1020 74 10000 1.54 120 22:30 24.02.2022
2942 Clear 10 1020 71 10000 1.54 160 21:43 24.02.2022
2943 Clear 10 1020 69 10000 1.03 180 21:21 24.02.2022
2944 Clear 11 1020 67 10000 2.06 160 20:42 24.02.2022
2945 Clear 12 1021 70 10000 2.06 180 19:29 24.02.2022
2946 Clear 13 1021 63 10000 2.57 220 18:20 24.02.2022
2947 Clear 14 1020 54 10000 2.57 240 17:51 24.02.2022
2948 Clear 15 1021 50 10000 3.6 230 17:18 24.02.2022
2949 Clear 16 1020 49 10000 5.14 250 16:25 24.02.2022
2950 Clear 17 1021 49 10000 4.63 240 15:41 24.02.2022
2951 Clear 17 1022 46 10000 4.12 240 14:44 24.02.2022
2952 Clear 17 1022 46 10000 4.12 230 13:56 24.02.2022
2953 Clear 18 1022 45 10000 4.12 230 13:35 24.02.2022
2954 Clear 16 1024 46 10000 4.12 220 11:32 24.02.2022
2955 Clear 13 1025 54 10000 2.06 360 10:31 24.02.2022
2956 Clear 9 1024 60 10000 0.51 0 08:43 24.02.2022
2957 Clear 7 1024 61 10000 1.03 70 06:28 24.02.2022
2958 Clear 7 1024 59 10000 0.51 0 05:40 24.02.2022
2959 Clear 10 1024 51 10000 0.51 0 00:30 24.02.2022
2960 Clear 11 1024 58 10000 2.06 150 22:19 23.02.2022
2961 Clear 12 1024 62 10000 2.57 160 20:44 23.02.2022
2962 Clear 12 1024 62 10000 2.06 160 20:23 23.02.2022
2963 Clear 13 1023 60 10000 2.06 170 19:34 23.02.2022
2964 Clear 14 1024 53 10000 2.57 250 18:22 23.02.2022
2965 Clear 19 1022 32 10000 2.57 350 16:27 23.02.2022
2966 Clear 18 1022 31 10000 2.06 50 13:58 23.02.2022
2967 Clear 16 1022 36 10000 2.57 40 12:31 23.02.2022
2968 Clear 13 1023 40 10000 4.12 30 10:58 23.02.2022
2969 Clear 10 1022 49 10000 3.09 60 09:49 23.02.2022
2970 Clear 9 1021 48 10000 3.09 70 08:54 23.02.2022
2971 Clear 6 1021 55 10000 2.06 80 07:53 23.02.2022
2972 Clear 7 1019 50 10000 2.57 60 02:58 23.02.2022
2973 Clear 8 1019 45 10000 2.57 60 00:18 23.02.2022
2974 Clear 8 1020 40 10000 2.57 110 23:33 22.02.2022
2975 Clear 9 1019 39 10000 2.06 80 22:28 22.02.2022
2976 Clear 9 1019 39 10000 2.06 80 22:28 22.02.2022
2977 Clear 10 1018 38 10000 4.12 30 21:44 22.02.2022
2978 Clear 10 1017 39 10000 5.14 20 21:21 22.02.2022
2979 Clear 10 1018 31 10000 5.66 10 20:41 22.02.2022
2980 Clear 11 1018 31 10000 4.12 10 20:22 22.02.2022
2981 Clear 11 1016 34 10000 3.6 360 19:34 22.02.2022
2982 Clear 13 1016 31 10000 6.17 10 18:35 22.02.2022
2983 Clear 15 1013 25 10000 8.23 10 17:34 22.02.2022
2984 Clear 15 1014 25 10000 8.23 20 16:56 22.02.2022
2985 Clear 16 1014 25 10000 7.72 20 16:21 22.02.2022
2986 Clear 16 1012 23 10000 9.26 30 15:30 22.02.2022
2987 Clear 16 1012 25 10000 8.75 360 14:28 22.02.2022
2988 Clear 14 1011 40 10000 10.29 20 11:39 22.02.2022
2989 Clear 11 1010 60 10000 7.72 10 09:45 22.02.2022
2990 Clear 7 1009 74 10000 3.13 348 07:38 22.02.2022
2991 Clear 7 1008 73 10000 4.02 1 07:19 22.02.2022
2992 Clouds 8 1006 73 10000 2.57 360 02:51 22.02.2022
2993 Rain 8 1005 79 10000 7.72 10 23:42 21.02.2022
2994 Clouds 9 1004 83 10000 6.17 10 22:37 21.02.2022
2995 Rain 9 1003 81 10000 4.12 330 21:21 21.02.2022
2996 Clouds 13 1005 78 10000 3.6 250 18:58 21.02.2022
2997 Clouds 13 1004 74 10000 3.6 250 18:39 21.02.2022
2998 Clouds 15 1006 59 10000 5.14 280 16:30 21.02.2022
2999 Clouds 15 1008 71 10000 5.66 230 14:23 21.02.2022
3000 Clouds 14 1009 72 10000 6.17 210 13:31 21.02.2022
3001 Clouds 14 1010 73 10000 1.79 296 12:46 21.02.2022
3002 Clouds 14 1011 71 10000 5.66 230 12:21 21.02.2022
3003 Clouds 13 1013 84 6000 5.66 190 10:29 21.02.2022
3004 Clouds 11 1014 80 10000 3.6 180 07:48 21.02.2022
3005 Clouds 12 1018 83 10000 2.06 170 00:36 21.02.2022
3006 Clouds 12 1019 83 10000 2.06 240 22:32 20.02.2022
3007 Clouds 12 1018 79 10000 2.57 150 21:44 20.02.2022
3008 Clouds 12 1018 79 10000 2.57 170 21:25 20.02.2022
3009 Clouds 12 1019 80 10000 3.09 200 20:43 20.02.2022
3010 Clouds 13 1018 77 10000 3.09 220 19:51 20.02.2022
3011 Clear 13 1018 73 10000 3.09 210 18:56 20.02.2022
3012 Clear 14 1018 72 10000 3.09 210 18:36 20.02.2022
3013 Clouds 15 1018 72 10000 3.09 230 17:55 20.02.2022
3014 Clear 15 1017 68 10000 3.6 200 17:23 20.02.2022
3015 Clouds 17 1018 62 10000 4.12 220 15:27 20.02.2022
3016 Clouds 16 1017 71 10000 2.24 224 13:59 20.02.2022
3017 Mist 15 1018 81 5000 1.03 0 12:45 20.02.2022
3018 Clouds 14 1019 85 10000 0.89 319 11:50 20.02.2022
3019 Drizzle 13 1018 88 2000 2.06 280 10:21 20.02.2022
3020 Mist 13 1018 85 3500 1.54 240 09:24 20.02.2022
3021 Clouds 12 1017 89 10000 1.03 160 06:28 20.02.2022
3022 Clear 12 1017 82 10000 2.57 110 00:32 20.02.2022
3023 Clear 12 1017 82 10000 0.51 0 23:32 19.02.2022
3024 Clouds 12 1017 84 10000 3.09 160 22:24 19.02.2022
3025 Clouds 13 1017 81 10000 3.13 167 21:45 19.02.2022
3026 Clouds 13 1016 81 10000 4.12 200 20:26 19.02.2022
3027 Clouds 13 1016 82 10000 4.63 180 19:34 19.02.2022
3028 Clouds 13 1015 79 10000 5.14 200 18:39 19.02.2022
3029 Clouds 14 1015 77 10000 3.09 200 17:57 19.02.2022
3030 Clouds 15 1016 76 10000 5.14 180 16:47 19.02.2022
3031 Clouds 15 1016 73 10000 7.2 200 15:59 19.02.2022
3032 Clouds 16 1016 71 10000 6.17 190 14:53 19.02.2022
3033 Clouds 16 1015 71 10000 5.66 190 13:55 19.02.2022
3034 Clouds 15 1017 73 10000 6.17 180 11:47 19.02.2022
3035 Clear 14 1017 77 8000 4.63 170 10:48 19.02.2022
3036 Clear 11 1017 86 10000 1.54 10 08:56 19.02.2022
3037 Clear 9 1016 87 10000 1.54 120 06:45 19.02.2022
3038 Clear 11 1018 84 10000 1.79 132 00:23 19.02.2022
3039 Clear 12 1017 82 10000 3.09 170 22:24 18.02.2022
3040 Clear 12 1017 78 10000 3.13 151 21:18 18.02.2022
3041 Clouds 13 1017 74 10000 3.09 150 19:56 18.02.2022
3042 Clouds 14 1018 77 10000 3.09 200 18:51 18.02.2022
3043 Clouds 14 1018 77 10000 3.09 220 18:28 18.02.2022
3044 Clouds 14 1018 76 10000 3.09 220 17:56 18.02.2022
3045 Clouds 16 1017 69 10000 3.09 180 15:57 18.02.2022
3046 Clouds 15 1018 69 10000 3.6 210 13:56 18.02.2022
3047 Clouds 15 1018 69 10000 3.6 210 13:32 18.02.2022
3048 Clouds 15 1018 74 10000 3.09 190 12:48 18.02.2022
3049 Clouds 14 1018 73 10000 0.51 0 11:56 18.02.2022
3050 Clouds 12 1018 80 10000 2.06 330 10:42 18.02.2022
3051 Clouds 9 1016 82 10000 1.54 40 07:20 18.02.2022
3052 Clouds 9 1016 82 10000 0.51 0 05:43 18.02.2022
3053 Clouds 10 1015 79 10000 1.03 0 03:47 18.02.2022
3054 Clouds 12 1016 85 10000 2.57 160 21:56 17.02.2022
3055 Clouds 12 1015 81 10000 2.06 180 21:27 17.02.2022
3056 Clouds 12 1014 79 10000 2.06 180 20:40 17.02.2022
3057 Clouds 12 1014 79 10000 2.57 190 19:54 17.02.2022
3058 Clouds 13 1014 79 10000 3.09 210 18:57 17.02.2022
3059 Clouds 13 1014 77 10000 3.09 210 17:59 17.02.2022
3060 Clouds 14 1013 69 10000 3.6 230 16:43 17.02.2022
3061 Clouds 15 1014 59 10000 4.12 230 15:44 17.02.2022
3062 Clear 16 1015 51 10000 1.54 0 14:29 17.02.2022
3063 Clear 15 1015 51 10000 2.57 230 12:51 17.02.2022
3064 Clear 12 1016 66 10000 2.57 350 11:30 17.02.2022
3065 Clear 8 1015 77 10000 0.51 0 09:30 17.02.2022
3066 Clear 5 1014 82 10000 1.03 0 04:41 17.02.2022
3067 Clear 7 1015 75 10000 1.03 0 23:21 16.02.2022
3068 Clear 8 1015 72 10000 1.03 0 22:20 16.02.2022
3069 Clear 9 1015 74 10000 1.03 0 20:19 16.02.2022
3070 Clear 10 1015 70 10000 1.03 0 18:43 16.02.2022
3071 Clouds 12 1014 64 10000 3.09 290 17:53 16.02.2022
3072 Clouds 13 1014 57 10000 3.09 300 15:55 16.02.2022
3073 Clouds 13 1014 59 10000 4.12 290 15:19 16.02.2022
3074 Clouds 13 1015 60 10000 2.57 270 13:31 16.02.2022
3075 Clouds 13 1016 63 10000 2.06 310 12:20 16.02.2022
3076 Clouds 12 1016 70 10000 2.06 340 11:31 16.02.2022
3077 Clear 11 1016 75 10000 2.06 340 10:34 16.02.2022
3078 Clouds 7 1016 84 10000 2.57 150 08:24 16.02.2022
3079 Clouds 7 1015 85 10000 2.06 150 06:43 16.02.2022
3080 Clouds 9 1015 77 10000 2.57 180 23:45 15.02.2022
3081 Clouds 10 1016 75 10000 2.57 190 22:33 15.02.2022
3082 Clouds 10 1015 75 10000 2.57 190 21:48 15.02.2022
3083 Clouds 10 1015 73 10000 3.6 200 21:29 15.02.2022
3084 Clouds 10 1015 73 10000 3.09 200 20:56 15.02.2022
3085 Clouds 11 1015 73 10000 3.09 210 19:59 15.02.2022
3086 Clouds 11 1015 73 10000 3.09 230 19:21 15.02.2022
3087 Clouds 11 1014 72 10000 4.63 220 18:23 15.02.2022
3088 Clouds 12 1014 73 10000 5.14 240 17:50 15.02.2022
3089 Clouds 12 1014 73 10000 4.63 230 17:19 15.02.2022
3090 Clouds 12 1014 76 10000 5.14 240 15:30 15.02.2022
3091 Clouds 13 1014 72 5000 6.69 210 13:28 15.02.2022
3092 Clouds 13 1014 73 10000 6.17 230 12:37 15.02.2022
3093 Clouds 13 1014 76 10000 5.66 230 11:40 15.02.2022
3094 Clouds 12 1013 86 8000 4.12 240 09:47 15.02.2022
3095 Clouds 12 1011 82 10000 3.58 193 06:59 15.02.2022
3096 Clouds 12 1013 87 8000 6.69 200 05:32 15.02.2022
3097 Clouds 11 1016 82 10000 6.17 180 23:34 14.02.2022
3098 Clouds 11 1016 80 10000 6.69 170 21:54 14.02.2022
3099 Clouds 11 1017 82 10000 5.14 170 20:40 14.02.2022
3100 Rain 12 1016 78 10000 5.66 170 19:45 14.02.2022
3101 Rain 12 1017 78 10000 4.63 170 19:26 14.02.2022
3102 Clouds 12 1017 73 10000 4.12 190 18:23 14.02.2022
3103 Clouds 13 1017 69 10000 6.17 180 17:27 14.02.2022
3104 Clouds 14 1017 70 10000 5.66 190 16:25 14.02.2022
3105 Clouds 14 1017 74 10000 5.14 170 14:39 14.02.2022
3106 Clouds 13 1019 75 10000 5.66 180 13:34 14.02.2022
3107 Clouds 13 1019 72 10000 5.66 180 12:55 14.02.2022
3108 Clouds 13 1020 71 10000 4.63 180 11:55 14.02.2022
3109 Clouds 13 1020 70 10000 5.14 180 11:18 14.02.2022
3110 Clouds 11 1020 80 8000 3.6 170 09:19 14.02.2022
3111 Clouds 9 1020 81 10000 2.57 170 07:33 14.02.2022
3112 Clouds 10 1020 79 10000 2.57 180 06:32 14.02.2022
3113 Clouds 10 1022 78 8000 2.57 180 22:43 13.02.2022
3114 Clouds 10 1022 76 8000 2.06 200 22:25 13.02.2022
3115 Clouds 11 1022 78 8000 2.57 180 21:36 13.02.2022
3116 Clouds 11 1022 79 8000 4.63 180 20:42 13.02.2022
3117 Clouds 12 1022 76 8000 2.57 190 19:51 13.02.2022
3118 Clouds 12 1022 72 10000 4.12 210 18:54 13.02.2022
3119 Clouds 12 1022 72 10000 4.12 210 18:35 13.02.2022
3120 Clouds 14 1022 59 10000 4.63 220 16:38 13.02.2022
3121 Clouds 15 1022 57 10000 4.63 210 15:27 13.02.2022
3122 Clouds 15 1022 55 10000 4.12 210 14:37 13.02.2022
3123 Clouds 15 1024 53 10000 3.09 190 12:52 13.02.2022
3124 Clear 14 1024 57 10000 1.54 20 11:59 13.02.2022
3125 Clouds 11 1025 66 10000 2.57 10 10:35 13.02.2022
3126 Clouds 9 1025 69 10000 2.06 350 09:49 13.02.2022
3127 Clouds 8 1025 68 10000 2.06 50 07:52 13.02.2022
3128 Clear 9 1025 66 10000 1.54 40 00:36 13.02.2022
3129 Clear 10 1025 62 10000 1.03 0 23:54 12.02.2022
3130 Clouds 10 1024 61 10000 1.54 70 22:33 12.02.2022
3131 Clear 10 1024 63 10000 0.89 11 21:36 12.02.2022
3132 Clear 11 1024 60 10000 1.03 210 20:52 12.02.2022
3133 Clouds 11 1023 57 10000 1.54 190 19:48 12.02.2022
3134 Clouds 12 1025 63 10000 1.54 180 18:53 12.02.2022
3135 Clouds 13 1025 63 10000 1.54 180 18:35 12.02.2022
3136 Clear 14 1023 55 10000 4.12 260 17:37 12.02.2022
3137 Clear 15 1022 52 10000 3.6 280 16:43 12.02.2022
3138 Clear 16 1023 48 10000 2.24 270 15:52 12.02.2022
3139 Clear 16 1023 45 10000 2.06 0 14:55 12.02.2022
3140 Clear 16 1023 47 10000 2.06 350 14:25 12.02.2022
3141 Clear 13 1025 65 10000 1.03 0 11:20 12.02.2022
3142 Clear 11 1024 73 10000 2.06 40 10:28 12.02.2022
3143 Clear 9 1023 77 10000 2.06 60 09:33 12.02.2022
3144 Clear 7 1022 81 10000 1.54 50 08:46 12.02.2022
3145 Clear 6 1021 85 10000 1.54 60 06:46 12.02.2022
3146 Clear 6 1021 84 10000 2.06 60 04:38 12.02.2022
3147 Clear 7 1022 83 10000 1.54 30 02:19 12.02.2022
3148 Clear 9 1022 80 10000 1.03 140 23:20 11.02.2022
3149 Clear 8 1023 82 10000 1.54 160 22:20 11.02.2022
3150 Clear 9 1023 76 10000 1.03 0 21:18 11.02.2022
3151 Clear 10 1022 77 10000 2.06 170 20:21 11.02.2022
3152 Clear 11 1022 67 10000 1.03 0 19:27 11.02.2022
3153 Clear 12 1021 67 10000 2.06 230 18:29 11.02.2022
3154 Clear 14 1021 57 10000 2.57 240 17:26 11.02.2022
3155 Clear 15 1021 53 10000 2.57 240 16:37 11.02.2022
3156 Clear 16 1021 52 10000 3.09 230 15:18 11.02.2022
3157 Clouds 15 1023 56 10000 3.6 260 14:37 11.02.2022
3158 Clouds 15 1022 57 10000 3.6 260 14:19 11.02.2022
3159 Clear 15 1022 59 10000 2.57 260 13:40 11.02.2022
3160 Clear 14 1022 61 10000 1.03 0 12:37 11.02.2022
3161 Clear 12 1025 56 10000 1.54 30 10:30 11.02.2022
3162 Fog 8 1026 83 50 2.06 360 09:22 11.02.2022
3163 Fog 5 1024 72 50 1.54 80 08:28 11.02.2022
3164 Clear 5 1023 61 10000 1.54 70 07:39 11.02.2022
3165 Clear 7 1024 57 10000 0.51 0 02:40 11.02.2022
3166 Clear 7 1024 57 10000 1.03 0 02:20 11.02.2022
3167 Clear 8 1025 60 10000 2.06 150 23:40 10.02.2022
3168 Clear 9 1026 66 10000 1.54 150 21:55 10.02.2022
3169 Clear 9 1026 65 10000 2.06 150 21:26 10.02.2022
3170 Clear 10 1026 62 10000 2.06 170 20:48 10.02.2022
3171 Clear 10 1026 56 10000 1.54 190 19:49 10.02.2022
3172 Clear 11 1026 56 10000 1.54 200 19:20 10.02.2022
3173 Clear 14 1026 47 10000 3.09 240 17:43 10.02.2022
3174 Clear 15 1027 38 10000 3.09 240 17:20 10.02.2022
3175 Clear 17 1026 31 10000 3.6 250 16:23 10.02.2022
3176 Clear 17 1026 32 10000 3.6 270 15:37 10.02.2022
3177 Clear 17 1026 32 10000 2.57 240 15:18 10.02.2022
3178 Clear 17 1027 30 10000 2.57 270 14:33 10.02.2022
3179 Clear 17 1027 33 10000 2.06 260 13:33 10.02.2022
3180 Clear 16 1029 37 10000 1.54 320 12:53 10.02.2022
3181 Clear 14 1029 54 10000 1.54 20 11:48 10.02.2022
3182 Clear 13 1028 55 10000 1.54 20 11:28 10.02.2022
3183 Clear 10 1028 69 10000 2.57 20 10:21 10.02.2022
3184 Clear 8 1028 73 10000 1.54 50 09:27 10.02.2022
3185 Clear 7 1028 73 10000 2.57 90 07:57 10.02.2022
3186 Clouds 6 1028 73 10000 0.51 0 05:53 10.02.2022
3187 Clear 7 1029 70 10000 1.03 0 01:58 10.02.2022
3188 Clear 8 1029 68 10000 1.03 0 00:51 10.02.2022
3189 Clear 8 1029 69 10000 1.54 170 00:29 10.02.2022
3190 Clear 8 1030 74 10000 1.54 170 23:49 09.02.2022
3191 Clear 9 1030 71 10000 1.54 170 22:45 09.02.2022
3192 Clear 9 1030 70 10000 1.54 200 22:25 09.02.2022
3193 Clear 10 1030 65 10000 1.03 180 21:38 09.02.2022
3194 Clear 10 1030 68 10000 2.06 190 21:18 09.02.2022
3195 Clear 10 1030 70 10000 1.03 0 20:41 09.02.2022
3196 Clear 11 1031 69 10000 1.03 0 20:20 09.02.2022
3197 Clear 11 1031 72 10000 1.03 0 19:38 09.02.2022
3198 Clear 14 1030 54 10000 3.09 10 17:43 09.02.2022
3199 Clear 16 1031 45 10000 3.09 340 16:53 09.02.2022
3200 Clear 17 1030 38 10000 3.6 360 15:54 09.02.2022
3201 Clear 17 1031 40 10000 4.63 20 14:43 09.02.2022
3202 Clear 15 1032 39 10000 2.06 360 12:41 09.02.2022
3203 Clear 12 1033 41 10000 2.57 40 11:20 09.02.2022
3204 Clear 10 1032 50 10000 2.06 60 10:31 09.02.2022
3205 Clear 8 1033 54 10000 2.06 60 09:42 09.02.2022
3206 Clear 7 1033 56 10000 2.57 70 09:19 09.02.2022
3207 Clear 5 1032 55 10000 3.6 100 07:56 09.02.2022
3208 Clear 5 1031 46 10000 0.51 0 05:30 09.02.2022
3209 Clear 5 1031 47 10000 2.57 50 03:50 09.02.2022
3210 Clear 6 1031 50 10000 1.54 340 01:27 09.02.2022
3211 Clear 7 1032 55 10000 3.6 40 23:34 08.02.2022
3212 Clear 8 1031 50 10000 3.09 70 22:50 08.02.2022
3213 Clear 8 1031 53 10000 3.09 60 22:22 08.02.2022
3214 Clear 7 1032 51 10000 2.06 80 21:50 08.02.2022
3215 Clear 8 1032 49 10000 1.03 0 21:21 08.02.2022
3216 Clear 9 1031 50 10000 1.03 0 20:45 08.02.2022
3217 Clear 9 1032 46 10000 2.57 160 19:47 08.02.2022
3218 Clear 11 1030 37 10000 3.13 315 18:48 08.02.2022
3219 Clear 12 1029 27 10000 3.09 340 17:50 08.02.2022
3220 Clear 14 1030 17 10000 4.63 10 16:34 08.02.2022
3221 Clear 15 1029 21 10000 5.14 350 15:30 08.02.2022
3222 Clear 14 1029 21 10000 4.63 360 14:44 08.02.2022
3223 Clear 14 1030 22 10000 3.13 325 13:29 08.02.2022
3224 Clear 12 1030 30 10000 3.09 360 11:55 08.02.2022
3225 Clear 9 1029 46 10000 2.06 10 10:23 08.02.2022
3226 Clear 9 1029 46 10000 2.06 10 10:23 08.02.2022
3227 Clear 8 1029 45 10000 2.57 10 09:45 08.02.2022
3228 Clear 5 1027 49 10000 2.06 80 07:55 08.02.2022
3229 Clear 4 1027 47 10000 0.89 75 05:41 08.02.2022
3230 Clear 5 1025 43 10000 1.03 110 04:39 08.02.2022
3231 Clear 6 1025 43 10000 0.89 73 04:21 08.02.2022
3232 Clear 6 1025 43 10000 1.79 23 03:36 08.02.2022
3233 Clear 6 1025 43 10000 1.79 1 03:18 08.02.2022
3234 Clear 6 1025 40 10000 2.57 60 02:59 08.02.2022
3235 Clear 6 1025 43 10000 2.57 60 02:36 08.02.2022
3236 Clear 6 1025 43 10000 2.57 60 02:18 08.02.2022
3237 Clear 6 1025 44 10000 2.57 60 02:18 08.02.2022
3238 Clear 6 1024 45 10000 1.54 100 01:44 08.02.2022
3239 Clear 7 1024 44 10000 2.68 21 01:24 08.02.2022
3240 Clear 7 1025 43 10000 2.24 6 00:54 08.02.2022
3241 Clear 7 1023 47 10000 2.68 354 23:57 07.02.2022
3242 Clear 8 1023 47 10000 2.24 348 23:39 07.02.2022
3243 Clear 8 1022 44 10000 3.13 33 23:18 07.02.2022
3244 Clear 9 1022 41 10000 3.09 350 22:42 07.02.2022
3245 Clear 9 1021 36 10000 4.63 360 22:18 07.02.2022
3246 Clear 9 1021 43 10000 4.63 360 21:43 07.02.2022
3247 Clear 9 1020 41 10000 4.63 10 21:25 07.02.2022
3248 Clear 10 1019 36 10000 5.14 10 20:41 07.02.2022
3249 Clear 11 1018 35 10000 5.14 20 19:54 07.02.2022
3250 Clear 11 1017 34 10000 5.14 20 19:36 07.02.2022
3251 Clear 12 1015 30 10000 4.02 304 18:18 07.02.2022
3252 Clouds 14 1013 51 10000 7.2 10 16:53 07.02.2022
3253 Clouds 15 1012 53 10000 7.2 360 15:49 07.02.2022
3254 Clouds 16 1011 54 10000 6.17 20 14:56 07.02.2022
3255 Clouds 16 1012 68 10000 4.12 60 13:28 07.02.2022
3256 Clouds 15 1011 70 10000 1.34 42 12:52 07.02.2022
3257 Clouds 14 1011 70 10000 0.89 285 11:58 07.02.2022
3258 Clouds 14 1011 70 8000 3.09 120 11:36 07.02.2022
3259 Clouds 13 1010 76 9000 0.89 160 10:51 07.02.2022
3260 Clouds 13 1010 82 8000 1.79 152 10:31 07.02.2022
3261 Clouds 12 1011 88 9000 1.79 221 09:53 07.02.2022
3262 Clouds 11 1011 89 9000 0.89 146 09:18 07.02.2022
3263 Mist 10 1011 86 5000 0.89 181 08:38 07.02.2022
3264 Clouds 10 1012 81 10000 2.68 188 06:58 07.02.2022
3265 Clouds 10 1012 79 10000 2.24 198 06:34 07.02.2022
3266 Clouds 11 1016 84 10000 3.13 237 03:27 07.02.2022
3267 Clouds 10 1018 81 10000 0.45 194 00:45 07.02.2022
3268 Clouds 10 1019 85 10000 3.09 180 23:48 06.02.2022
3269 Clouds 10 1019 80 10000 1.79 150 22:48 06.02.2022
3270 Clouds 11 1020 85 10000 2.57 170 21:55 06.02.2022
3271 Clouds 11 1020 78 10000 0.45 160 21:35 06.02.2022
3272 Clear 11 1020 77 10000 1.79 170 20:54 06.02.2022
3273 Clear 11 1020 77 10000 0.89 148 20:31 06.02.2022
3274 Clear 12 1020 78 10000 1.79 181 19:38 06.02.2022
3275 Clear 12 1020 77 10000 2.06 220 18:40 06.02.2022
3276 Clear 13 1020 69 10000 0.45 234 17:56 06.02.2022
3277 Clear 14 1020 64 10000 1.34 223 17:19 06.02.2022
3278 Clear 15 1020 62 10000 0.45 235 16:38 06.02.2022
3279 Clear 15 1020 62 10000 0.89 190 15:49 06.02.2022
3280 Clear 16 1021 59 10000 0.89 240 15:26 06.02.2022
3281 Clouds 16 1022 53 10000 1.79 208 14:36 06.02.2022
3282 Clear 15 1022 64 10000 0.51 0 13:26 06.02.2022
3283 Clear 16 1022 60 10000 0.89 315 12:52 06.02.2022
3284 Clear 13 1023 74 10000 2.06 340 11:32 06.02.2022
3285 Clear 12 1022 79 10000 0.89 54 10:30 06.02.2022
3286 Clear 10 1021 74 10000 1.54 50 08:59 06.02.2022
3287 Clear 8 1022 82 10000 0.45 73 08:30 06.02.2022
3288 Clear 8 1021 77 10000 1.03 70 05:31 06.02.2022
3289 Clear 8 1021 77 10000 1.03 70 05:31 06.02.2022
3290 Clouds 9 1021 80 10000 0.45 32 02:49 06.02.2022
3291 Clouds 10 1020 78 10000 0.45 34 02:24 06.02.2022
3292 Clouds 11 1020 84 10000 0.89 22 00:27 06.02.2022
3293 Clouds 11 1020 86 10000 0.51 80 22:31 05.02.2022
3294 Clouds 11 1020 81 10000 1.03 0 21:32 05.02.2022
3295 Clouds 12 1020 79 10000 1.03 0 20:24 05.02.2022
3296 Clouds 12 1018 78 10000 1.54 280 19:46 05.02.2022
3297 Clouds 12 1018 73 10000 1.54 360 18:58 05.02.2022
3298 Clouds 14 1018 68 10000 2.06 350 17:39 05.02.2022
3299 Clouds 14 1018 68 10000 2.06 350 17:39 05.02.2022
3300 Clouds 14 1018 68 10000 2.06 350 17:39 05.02.2022
3301 Clouds 14 1017 62 10000 2.06 360 16:58 05.02.2022
3302 Clouds 15 1016 66 10000 4.63 20 15:34 05.02.2022
3303 Clouds 15 1016 66 10000 0.45 293 14:55 05.02.2022
3304 Clouds 15 1017 70 8000 0.45 195 12:47 05.02.2022
3305 Clouds 14 1017 73 8000 1.54 360 12:22 05.02.2022
3306 Clouds 13 1017 75 7000 0.45 212 10:48 05.02.2022
3307 Clouds 12 1017 83 10000 2.57 170 09:53 05.02.2022
3308 Clouds 11 1016 83 7000 1.54 360 09:30 05.02.2022
3309 Clouds 10 1016 82 10000 1.34 146 07:51 05.02.2022
3310 Clouds 10 1016 87 10000 2.57 150 06:57 05.02.2022
3311 Clouds 10 1016 82 10000 1.79 164 04:29 05.02.2022
3312 Clear 10 1016 80 10000 0.51 0 01:19 05.02.2022
3313 Clear 10 1016 77 10000 1.54 70 00:52 05.02.2022
3314 Clear 10 1016 77 10000 1.03 0 23:41 04.02.2022
3315 Clouds 10 1016 74 7000 1.03 0 23:23 04.02.2022
3316 Clear 11 1016 69 10000 1.54 160 21:54 04.02.2022
3317 Clear 11 1016 72 10000 1.54 160 21:36 04.02.2022
3318 Clear 11 1016 77 10000 1.54 150 21:18 04.02.2022
3319 Clear 11 1016 77 10000 0.89 133 19:39 04.02.2022
3320 Clouds 13 1017 73 10000 3.13 171 17:40 04.02.2022
3321 Clouds 14 1016 67 10000 5.36 163 15:39 04.02.2022
3322 Clouds 14 1017 65 10000 4.92 146 14:54 04.02.2022
3323 Clouds 14 1018 67 9000 4.02 214 13:31 04.02.2022
3324 Clouds 13 1018 69 9000 3.13 187 12:43 04.02.2022
3325 Clouds 13 1019 68 10000 5.36 132 11:41 04.02.2022
3326 Clouds 12 1019 70 10000 4.02 92 10:36 04.02.2022
3327 Clouds 10 1019 74 10000 1.79 91 08:34 04.02.2022
3328 Clear 9 1019 71 10000 1.79 159 06:18 04.02.2022
3329 Clear 8 1021 68 10000 1.03 0 02:42 04.02.2022
3330 Clear 8 1021 67 10000 2.57 160 01:22 04.02.2022
3331 Clear 8 1022 66 10000 1.03 0 23:29 03.02.2022
3332 Clear 9 1022 64 10000 3.09 150 22:33 03.02.2022
3333 Clear 8 1023 70 10000 0.45 92 21:49 03.02.2022
3334 Clear 9 1023 67 10000 0.89 105 20:36 03.02.2022
3335 Clear 9 1023 67 10000 3.6 170 20:18 03.02.2022
3336 Clear 10 1022 65 10000 1.79 144 19:26 03.02.2022
3337 Clear 11 1022 60 10000 0.45 179 18:28 03.02.2022
3338 Clear 12 1024 58 10000 0.45 182 17:32 03.02.2022
3339 Clear 14 1022 52 10000 1.79 229 16:24 03.02.2022
3340 Clear 15 1023 51 10000 1.79 215 14:28 03.02.2022
3341 Clear 15 1022 51 10000 2.24 206 12:40 03.02.2022
3342 Clear 13 1023 54 10000 1.54 30 10:36 03.02.2022
3343 Clear 6 1021 65 10000 0.45 34 08:35 03.02.2022
3344 Clear 7 1017 65 10000 1.34 6 03:57 03.02.2022
3345 Clear 9 1016 58 10000 2.06 70 00:30 03.02.2022
3346 Clear 8 1016 71 10000 0.45 54 22:55 02.02.2022
3347 Clear 9 1016 59 10000 3.6 70 21:53 02.02.2022
3348 Clear 9 1016 59 10000 0.45 31 21:30 02.02.2022
3349 Clear 10 1015 67 10000 3.6 70 20:33 02.02.2022
3350 Clear 10 1014 64 10000 3.09 60 19:51 02.02.2022
3351 Clear 11 1014 63 10000 0.45 11 19:26 02.02.2022
3352 Clear 12 1013 56 10000 0.45 292 18:34 02.02.2022
3353 Clear 13 1012 58 10000 3.09 350 17:38 02.02.2022
3354 Clear 14 1012 47 10000 3.09 350 17:19 02.02.2022
3355 Clear 15 1010 40 10000 1.79 250 16:30 02.02.2022
3356 Clear 14 1011 46 10000 1.79 37 12:54 02.02.2022
3357 Clear 11 1012 48 10000 0.45 30 11:51 02.02.2022
3358 Clear 10 1012 49 10000 0.45 53 11:31 02.02.2022
3359 Clear 9 1012 45 10000 3.6 60 09:46 02.02.2022
3360 Clear 4 1011 50 10000 0.45 17 06:18 02.02.2022
3361 Clear 7 1014 48 10000 0.89 11 22:46 01.02.2022
3362 Clear 7 1014 36 10000 0.89 328 21:36 01.02.2022
3363 Clear 9 1012 37 10000 1.79 50 19:57 01.02.2022
3364 Clear 11 1011 31 10000 3.13 24 17:38 01.02.2022
3365 Clear 13 1009 25 10000 4.47 41 16:33 01.02.2022
3366 Clear 13 1008 30 10000 3.58 11 13:32 01.02.2022
3367 Clear 13 1007 33 10000 5.36 287 12:30 01.02.2022
3368 Clear 12 1007 38 10000 4.02 140 11:19 01.02.2022
3369 Clear 7 1001 74 10000 4.02 351 02:32 01.02.2022
3370 Mist 8 1001 88 5000 2.68 1 23:40 31.01.2022
3371 Mist 8 1001 87 5000 2.68 6 22:48 31.01.2022
3372 Mist 9 1001 92 5000 1.34 350 21:38 31.01.2022
3373 Clouds 9 1001 92 9000 1.34 30 20:45 31.01.2022
3374 Clouds 9 1001 92 10000 0.45 126 20:26 31.01.2022
3375 Clouds 9 1002 92 10000 0.89 134 19:20 31.01.2022
3376 Clouds 9 1003 92 9000 1.79 124 18:20 31.01.2022
3377 Mist 9 1004 91 5000 2.68 156 17:25 31.01.2022
3378 Mist 9 1005 92 3000 3.13 173 16:25 31.01.2022
3379 Mist 10 1008 85 2000 2.68 175 14:54 31.01.2022
3380 Drizzle 10 1009 80 9000 2.24 176 13:51 31.01.2022
3381 Clouds 10 1010 79 9000 4.02 173 12:38 31.01.2022
3382 Clouds 9 1012 82 10000 0.45 154 11:42 31.01.2022
3383 Clouds 9 1013 82 10000 3.6 180 10:49 31.01.2022
3384 Clouds 8 1014 76 10000 2.06 180 09:45 31.01.2022
3385 Clouds 9 1016 71 10000 2.57 150 08:58 31.01.2022
3386 Clouds 8 1016 71 10000 2.57 150 08:38 31.01.2022
3387 Clouds 7 1014 77 10000 0.51 0 08:19 31.01.2022
3388 Clouds 6 1014 75 10000 0.51 0 06:18 31.01.2022
3389 Clouds 6 1018 76 10000 1.54 170 00:44 31.01.2022
3390 Clear 7 1018 75 10000 1.03 140 22:34 30.01.2022
3391 Clear 7 1019 73 10000 0.51 0 21:56 30.01.2022
3392 Clear 8 1019 72 10000 0.51 0 21:37 30.01.2022
3393 Clear 8 1018 71 10000 1.54 50 21:18 30.01.2022
3394 Clear 9 1018 69 10000 1.54 170 20:43 30.01.2022
3395 Clear 9 1018 70 10000 1.54 150 20:25 30.01.2022
3396 Clear 9 1018 67 10000 2.06 170 19:23 30.01.2022
3397 Clear 10 1018 68 10000 2.06 180 18:35 30.01.2022
3398 Clear 11 1018 61 10000 1.34 167 17:40 30.01.2022
3399 Clear 12 1018 61 10000 2.57 220 17:19 30.01.2022
3400 Clear 13 1019 56 10000 0.45 165 16:36 30.01.2022
3401 Clear 13 1019 55 10000 0.45 176 16:18 30.01.2022
3402 Clear 13 1019 53 10000 3.6 220 15:45 30.01.2022
3403 Clear 13 1019 55 10000 3.6 220 15:25 30.01.2022
3404 Clear 13 1020 56 10000 1.54 200 14:44 30.01.2022
3405 Clear 12 1022 56 10000 0.51 0 12:46 30.01.2022
3406 Clouds 11 1022 54 10000 2.57 60 11:52 30.01.2022
3407 Clear 8 1022 59 10000 0 0 10:26 30.01.2022
3408 Clear 8 1021 46 10000 1.03 0 09:41 30.01.2022
3409 Clear 5 1022 55 10000 1.03 60 08:44 30.01.2022
3410 Clear 5 1025 47 10000 2.06 90 02:58 30.01.2022
3411 Clear 5 1025 50 10000 1.03 0 01:55 30.01.2022
3412 Clear 6 1025 47 10000 3.09 80 23:50 29.01.2022
3413 Clear 6 1027 54 10000 1.54 90 22:58 29.01.2022
3414 Clear 7 1027 49 10000 0.89 302 21:44 29.01.2022
3415 Clear 8 1026 43 10000 0.89 322 21:20 29.01.2022
3416 Clear 8 1026 42 10000 1.34 299 20:21 29.01.2022
3417 Clear 8 1028 41 10000 0.89 336 19:33 29.01.2022
3418 Clear 9 1028 39 10000 0.45 1 18:51 29.01.2022
3419 Clear 10 1028 43 10000 1.54 300 18:18 29.01.2022
3420 Clear 12 1028 33 10000 1.79 294 17:27 29.01.2022
3421 Clear 13 1028 26 10000 2.68 331 15:44 29.01.2022
3422 Clear 13 1029 29 10000 3.09 30 13:58 29.01.2022
3423 Clear 13 1029 30 10000 0.89 50 13:38 29.01.2022
3424 Clear 13 1029 33 10000 0.89 79 13:20 29.01.2022
3425 Clear 10 1029 47 10000 0.89 11 11:40 29.01.2022
3426 Clear 9 1028 51 10000 0.89 25 10:38 29.01.2022
3427 Clear 5 1028 61 10000 0.89 65 08:36 29.01.2022
3428 Clear 5 1026 54 10000 1.34 19 03:53 29.01.2022
3429 Clear 7 1026 50 10000 1.79 22 00:32 29.01.2022
3430 Clear 7 1026 58 10000 1.79 315 23:43 28.01.2022
3431 Clear 8 1026 68 10000 0.45 337 22:48 28.01.2022
3432 Clear 8 1026 69 10000 1.79 333 22:20 28.01.2022
3433 Clear 8 1025 80 10000 1.03 0 20:41 28.01.2022
3434 Clear 9 1024 82 10000 1.03 0 19:59 28.01.2022
3435 Clear 10 1024 74 10000 2.24 313 19:18 28.01.2022
3436 Clear 11 1023 68 10000 1.34 325 18:35 28.01.2022
3437 Clouds 13 1023 66 10000 0.89 230 16:37 28.01.2022
3438 Clouds 14 1023 63 10000 2.68 245 14:58 28.01.2022
3439 Clouds 13 1025 60 10000 0.51 0 13:21 28.01.2022
3440 Mist 11 1025 70 5000 0.51 0 11:52 28.01.2022
3441 Clouds 9 1025 78 10000 1.54 10 10:27 28.01.2022
3442 Clouds 9 1025 81 10000 1.03 0 09:47 28.01.2022
3443 Clouds 7 1025 82 10000 0.51 0 07:42 28.01.2022
3444 Clouds 6 1026 82 9000 0.45 20 06:29 28.01.2022
3445 Clouds 6 1025 76 10000 1.03 0 03:51 28.01.2022
3446 Clouds 7 1025 75 10000 1.54 100 02:27 28.01.2022
3447 Clouds 7 1026 77 10000 1.54 80 01:37 28.01.2022
3448 Clear 7 1026 75 10000 0.51 0 00:46 28.01.2022
3449 Clouds 8 1026 72 10000 1.03 160 22:20 27.01.2022
3450 Clear 8 1026 72 10000 1.03 0 21:37 27.01.2022
3451 Clear 8 1026 71 10000 1.03 170 20:59 27.01.2022
3452 Clear 8 1026 71 10000 1.03 170 20:59 27.01.2022
3453 Clear 9 1026 68 10000 1.03 180 19:38 27.01.2022
3454 Clear 10 1027 67 10000 1.03 250 18:20 27.01.2022
3455 Clear 12 1026 68 10000 2.06 30 16:55 27.01.2022
3456 Clear 13 1026 58 10000 0.45 11 13:58 27.01.2022
3457 Clear 12 1027 58 7000 0.45 94 12:49 27.01.2022
3458 Clear 12 1027 58 7000 0.45 94 12:49 27.01.2022
3459 Clear 10 1027 63 10000 3.09 60 11:54 27.01.2022
3460 Clear 7 1027 70 10000 0.45 44 09:48 27.01.2022
3461 Clear 5 1027 76 8000 0.45 30 08:40 27.01.2022
3462 Clear 5 1026 72 10000 0.45 1 07:52 27.01.2022
3463 Clouds 6 1026 80 10000 0.45 350 03:34 27.01.2022
3464 Clouds 8 1028 74 10000 2.06 70 00:24 27.01.2022
3465 Clouds 8 1027 76 10000 1.54 60 22:28 26.01.2022
3466 Clouds 9 1028 76 10000 2.06 60 21:44 26.01.2022
3467 Clouds 9 1027 72 10000 0.89 307 20:49 26.01.2022
3468 Clouds 9 1027 71 10000 0.51 0 20:31 26.01.2022
3469 Clouds 9 1026 69 10000 1.03 30 19:38 26.01.2022
3470 Clouds 10 1027 67 10000 2.06 30 18:47 26.01.2022
3471 Clouds 10 1027 69 10000 0.89 288 18:18 26.01.2022
3472 Clouds 10 1027 62 10000 0.89 286 17:33 26.01.2022
3473 Clouds 11 1027 62 10000 0.45 312 16:47 26.01.2022
3474 Clouds 11 1027 62 10000 1.54 320 16:22 26.01.2022
3475 Clear 12 1027 57 10000 0.89 321 14:32 26.01.2022
3476 Clear 10 1029 58 10000 1.03 0 12:20 26.01.2022
3477 Clear 8 1029 54 10000 0.45 25 10:50 26.01.2022
3478 Clear 5 1028 61 10000 1.79 35 09:52 26.01.2022
3479 Clear 3 1027 59 10000 2.57 60 08:49 26.01.2022
3480 Clear 2 1028 64 10000 2.06 70 06:36 26.01.2022
3481 Clear 4 1029 59 10000 1.03 0 00:21 26.01.2022
3482 Clear 4 1029 57 10000 1.03 140 23:37 25.01.2022
3483 Clear 5 1030 57 10000 1.03 160 22:48 25.01.2022
3484 Clear 5 1030 58 10000 1.54 170 22:18 25.01.2022
3485 Clear 5 1030 59 10000 1.54 160 21:27 25.01.2022
3486 Clear 5 1030 61 10000 1.54 160 20:45 25.01.2022
3487 Clear 6 1030 58 10000 2.06 150 19:54 25.01.2022
3488 Clear 6 1030 55 10000 1.54 180 19:23 25.01.2022
3489 Clear 8 1031 43 10000 0.45 244 17:56 25.01.2022
3490 Clear 9 1030 40 10000 0.89 242 17:18 25.01.2022
3491 Clear 10 1030 33 10000 0.51 0 16:34 25.01.2022
3492 Clear 11 1030 34 10000 0.89 296 15:39 25.01.2022
3493 Clear 11 1030 36 10000 0.45 354 15:18 25.01.2022
3494 Clear 11 1030 35 10000 0.45 188 14:43 25.01.2022
3495 Clear 9 1031 42 10000 0.45 26 11:52 25.01.2022
3496 Clear 4 1031 60 10000 1.79 37 09:21 25.01.2022
3497 Clear 2 1029 62 10000 3.6 50 07:47 25.01.2022
3498 Clear 3 1029 58 10000 1.34 1 06:54 25.01.2022
3499 Clear 3 1030 66 10000 0.45 309 05:23 25.01.2022
3500 Clear 6 1029 62 10000 1.34 6 00:28 25.01.2022
3501 Clear 6 1029 60 10000 2.24 73 23:36 24.01.2022
3502 Clear 6 1029 60 10000 1.79 89 23:18 24.01.2022
3503 Clear 6 1029 60 10000 1.79 89 23:18 24.01.2022
3504 Clear 7 1029 58 10000 1.79 35 22:42 24.01.2022
3505 Clear 7 1029 55 10000 3.13 77 21:57 24.01.2022
3506 Clear 7 1029 56 10000 1.79 87 21:32 24.01.2022
3507 Clear 8 1029 53 10000 2.68 29 20:38 24.01.2022
3508 Clear 8 1029 53 10000 0.89 51 20:20 24.01.2022
3509 Clear 9 1029 48 10000 1.79 1 19:38 24.01.2022
3510 Clear 9 1028 49 10000 2.24 20 18:47 24.01.2022
3511 Clear 12 1027 43 10000 1.34 78 17:25 24.01.2022
3512 Clear 12 1027 44 10000 1.34 42 16:58 24.01.2022
3513 Clouds 13 1026 38 10000 0.89 17 16:30 24.01.2022
3514 Clear 14 1027 42 10000 3.13 23 14:56 24.01.2022
3515 Clear 13 1027 42 10000 2.68 43 13:39 24.01.2022
3516 Clear 12 1027 50 10000 0.89 97 12:33 24.01.2022
3517 Clear 9 1027 57 10000 1.34 1 11:21 24.01.2022
3518 Clear 7 1027 65 10000 0.89 62 10:18 24.01.2022
3519 Clear 6 1026 67 10000 0.45 23 09:44 24.01.2022
3520 Clear 3 1026 76 10000 0.89 54 07:40 24.01.2022
3521 Clear 5 1027 73 10000 1.54 50 01:38 24.01.2022
3522 Clear 5 1027 72 10000 0.45 57 00:47 24.01.2022
3523 Clear 5 1027 74 10000 2.06 60 00:28 24.01.2022
3524 Clear 5 1027 81 10000 1.03 120 22:46 23.01.2022
3525 Clear 6 1027 74 10000 1.03 0 21:51 23.01.2022
3526 Clear 6 1027 73 10000 1.03 170 21:27 23.01.2022
3527 Clear 6 1027 73 10000 1.03 160 20:54 23.01.2022
3528 Clear 7 1027 72 10000 1.03 140 19:55 23.01.2022
3529 Clear 8 1027 64 10000 1.03 280 18:52 23.01.2022
3530 Clear 10 1027 60 10000 1.03 280 17:56 23.01.2022
3531 Clear 12 1028 58 10000 0.89 285 16:54 23.01.2022
3532 Clear 13 1028 51 10000 0.89 240 15:45 23.01.2022
3533 Clear 12 1029 51 10000 0.51 0 14:34 23.01.2022
3534 Clear 12 1030 57 10000 0.45 277 13:43 23.01.2022
3535 Clear 11 1029 55 10000 1.03 0 12:40 23.01.2022
3536 Clear 11 1029 55 10000 0.89 170 12:18 23.01.2022
3537 Clear 9 1030 58 10000 2.06 330 11:25 23.01.2022
3538 Clear 9 1031 59 10000 2.57 40 10:57 23.01.2022
3539 Clear 6 1029 62 10000 1.54 340 10:23 23.01.2022
3540 Clear 4 1029 68 10000 1.54 20 09:25 23.01.2022
3541 Clear 2 1027 68 10000 1.79 66 05:59 23.01.2022
3542 Clear 3 1027 70 10000 1.34 11 03:20 23.01.2022
3543 Clear 3 1026 66 10000 2.06 40 01:36 23.01.2022
3544 Clear 4 1026 67 10000 0.45 29 00:42 23.01.2022
3545 Clear 4 1026 68 10000 1.54 70 23:57 22.01.2022
3546 Clear 5 1026 65 10000 0.45 11 22:48 22.01.2022
3547 Clear 5 1026 66 10000 0.51 0 22:19 22.01.2022
3548 Clear 6 1026 61 10000 1.03 0 20:29 22.01.2022
3549 Clear 7 1025 57 10000 0.51 0 19:37 22.01.2022
3550 Clear 8 1025 54 10000 0.45 343 18:37 22.01.2022
3551 Clear 8 1025 54 10000 0.45 343 18:37 22.01.2022
3552 Clear 9 1026 51 10000 2.24 304 17:45 22.01.2022
3553 Clear 9 1025 50 10000 1.34 292 17:18 22.01.2022
3554 Clear 10 1026 55 10000 3.13 298 16:54 22.01.2022
3555 Clear 11 1025 45 10000 3.58 235 15:45 22.01.2022
3556 Clear 11 1026 46 10000 4.02 235 14:42 22.01.2022
3557 Clear 11 1025 41 10000 2.24 312 13:28 22.01.2022
3558 Clear 10 1025 41 10000 0.89 22 12:37 22.01.2022
3559 Clear 10 1025 43 10000 0.45 317 12:18 22.01.2022
3560 Clear 7 1025 51 10000 0.51 0 10:39 22.01.2022
3561 Clear 7 1025 53 10000 0.45 80 10:20 22.01.2022
3562 Clear 5 1025 54 10000 1.34 6 08:56 22.01.2022
3563 Clear 4 1025 55 10000 1.34 28 08:38 22.01.2022
3564 Clouds 4 1023 59 10000 1.79 19 06:46 22.01.2022
3565 Clouds 5 1022 61 10000 1.79 308 02:39 22.01.2022
3566 Clear 6 1022 66 10000 2.24 39 23:50 21.01.2022
3567 Clear 6 1021 66 10000 2.24 95 22:59 21.01.2022
3568 Clear 7 1021 68 10000 1.79 46 21:18 21.01.2022
3569 Clear 9 1019 64 10000 1.34 47 19:30 21.01.2022
3570 Clear 10 1018 61 10000 2.68 1 17:51 21.01.2022
3571 Clouds 12 1017 59 10000 0.89 48 15:56 21.01.2022
3572 Clouds 12 1018 68 10000 1.34 1 14:58 21.01.2022
3573 Clouds 12 1018 72 10000 0.89 328 12:48 21.01.2022
3574 Clear 10 1019 84 10000 0.45 41 11:29 21.01.2022
3575 Clear 9 1019 90 10000 0.89 38 10:47 21.01.2022
3576 Clouds 7 1018 91 10000 0.89 32 08:59 21.01.2022
3577 Clouds 7 1017 90 10000 0.45 67 07:58 21.01.2022
3578 Clouds 8 1017 89 10000 3.6 180 01:55 21.01.2022
3579 Clouds 9 1018 86 10000 3.09 160 22:51 20.01.2022
3580 Clouds 9 1018 86 10000 3.6 160 21:49 20.01.2022
3581 Clouds 9 1018 85 10000 0.89 142 21:25 20.01.2022
3582 Clouds 10 1018 85 10000 1.34 165 19:55 20.01.2022
3583 Clouds 10 1018 85 10000 3.09 200 19:18 20.01.2022
3584 Clouds 10 1018 82 10000 1.54 220 17:37 20.01.2022
3585 Clouds 11 1018 84 10000 2.06 170 16:24 20.01.2022
3586 Clouds 11 1019 90 10000 3.09 160 15:31 20.01.2022
3587 Clouds 10 1019 90 10000 2.06 180 14:37 20.01.2022
3588 Clouds 10 1020 86 10000 3.6 190 12:53 20.01.2022
3589 Mist 10 1021 87 4000 4.12 160 12:29 20.01.2022
3590 Mist 10 1021 85 4000 0.45 180 11:19 20.01.2022
3591 Mist 10 1021 85 4000 1.54 0 10:19 20.01.2022
3592 Clouds 9 1021 85 7000 1.54 240 09:18 20.01.2022
3593 Clouds 8 1022 88 10000 2.57 200 07:23 20.01.2022
3594 Clouds 9 1025 74 10000 2.57 180 00:41 20.01.2022
3595 Clouds 9 1026 70 10000 3.09 180 22:40 19.01.2022
3596 Clouds 9 1026 71 10000 2.57 180 21:40 19.01.2022
3597 Clouds 9 1026 72 10000 2.57 180 21:21 19.01.2022
3598 Clouds 9 1026 71 10000 3.09 170 20:45 19.01.2022
3599 Clear 9 1027 70 10000 3.6 170 19:18 19.01.2022
3600 Clouds 11 1028 65 10000 0.45 180 17:51 19.01.2022
3601 Clouds 11 1027 61 10000 0.51 330 17:28 19.01.2022
3602 Clouds 13 1028 55 10000 1.03 0 15:36 19.01.2022
3603 Clouds 13 1030 59 10000 1.54 350 13:38 19.01.2022
3604 Clouds 12 1030 64 10000 2.57 340 12:20 19.01.2022
3605 Clouds 11 1029 62 10000 1.54 40 11:38 19.01.2022
3606 Clear 8 1031 74 10000 1.03 40 09:52 19.01.2022
3607 Mist 6 1030 81 5000 2.06 360 09:33 19.01.2022
3608 Clear 4 1030 82 10000 0.89 38 06:34 19.01.2022
3609 Clear 5 1031 78 10000 0.45 50 00:33 19.01.2022
3610 Clear 6 1031 76 10000 0.51 0 23:18 18.01.2022
3611 Clear 7 1031 79 10000 1.03 0 21:55 18.01.2022
3612 Clear 8 1031 74 8000 1.03 160 20:44 18.01.2022
3613 Clear 8 1031 74 10000 2.06 160 19:52 18.01.2022
3614 Clear 8 1031 73 10000 2.06 160 19:33 18.01.2022
3615 Clear 9 1031 69 10000 1.03 0 18:26 18.01.2022
3616 Clear 11 1031 67 10000 0.45 235 17:48 18.01.2022
3617 Clear 13 1029 55 10000 0.51 0 16:33 18.01.2022
3618 Clear 14 1030 53 10000 0.51 0 15:26 18.01.2022
3619 Clear 14 1030 53 10000 0.51 0 14:34 18.01.2022
3620 Clear 12 1030 55 10000 0.47 29 11:52 18.01.2022
3621 Clear 9 1028 72 10000 2.57 20 10:40 18.01.2022
3622 Clear 4 1028 86 6000 1.03 340 08:49 18.01.2022
3623 Clear 4 1027 84 10000 0.89 43 07:45 18.01.2022
3624 Clear 5 1026 83 9000 1.54 40 02:20 18.01.2022
3625 Clear 7 1025 73 10000 0.51 0 23:22 17.01.2022
3626 Clear 7 1026 75 10000 2.57 100 21:58 17.01.2022
3627 Clear 7 1025 74 10000 3.09 100 21:31 17.01.2022
3628 Clear 9 1024 75 10000 1.03 0 19:42 17.01.2022
3629 Clear 10 1024 64 10000 1.54 120 18:27 17.01.2022
3630 Clear 12 1025 59 10000 1.54 30 17:24 17.01.2022
3631 Clear 13 1024 57 10000 1.34 340 16:24 17.01.2022
3632 Clear 14 1024 55 10000 0.89 41 14:58 17.01.2022
3633 Clear 13 1025 56 10000 0.89 6 14:33 17.01.2022
3634 Clear 13 1025 63 10000 2.24 320 13:19 17.01.2022
3635 Clear 12 1025 66 10000 1.34 1 12:52 17.01.2022
3636 Clear 10 1026 73 10000 2.68 31 11:47 17.01.2022
3637 Clear 8 1025 80 10000 0.89 56 10:21 17.01.2022
3638 Clear 5 1025 88 10000 0.89 69 08:44 17.01.2022
3639 Clear 4 1024 87 10000 1.54 50 07:22 17.01.2022
3640 Clouds 6 1025 83 10000 1.03 50 02:20 17.01.2022
3641 Clouds 7 1025 83 10000 0.89 24 00:43 17.01.2022
3642 Clear 8 1025 81 10000 2.57 170 21:22 16.01.2022
3643 Clear 8 1025 79 10000 1.54 180 20:30 16.01.2022
3644 Clear 10 1024 74 10000 2.06 170 18:48 16.01.2022
3645 Clear 11 1025 70 10000 1.54 270 17:51 16.01.2022
3646 Clear 12 1025 70 10000 2.57 290 16:55 16.01.2022
3647 Clear 14 1024 57 10000 1.34 251 15:43 16.01.2022
3648 Clear 14 1025 56 10000 1.03 0 14:29 16.01.2022
3649 Clear 14 1024 61 10000 1.03 0 13:33 16.01.2022
3650 Clear 12 1025 65 10000 2.06 10 12:21 16.01.2022
3651 Clear 11 1026 69 10000 1.54 350 11:29 16.01.2022
3652 Clear 9 1026 77 10000 0.45 37 10:28 16.01.2022
3653 Clear 9 1025 77 10000 2.57 40 09:58 16.01.2022
3654 Clear 7 1025 83 10000 1.03 30 09:37 16.01.2022
3655 Clear 6 1024 84 10000 0.89 61 09:19 16.01.2022
3656 Clear 4 1022 83 10000 1.34 6 06:35 16.01.2022
3657 Clear 6 1022 78 8000 0.89 37 00:19 16.01.2022
3658 Clear 7 1023 79 10000 0.45 75 22:50 15.01.2022
3659 Clear 8 1023 71 10000 1.03 180 21:21 15.01.2022
3660 Clear 8 1022 70 10000 0.51 0 20:44 15.01.2022
3661 Clear 9 1022 67 10000 0.51 180 20:21 15.01.2022
3662 Clear 8 1022 69 10000 0.89 257 19:26 15.01.2022
3663 Clear 10 1023 67 10000 0.51 0 17:58 15.01.2022
3664 Clear 13 1023 50 10000 0.89 252 16:49 15.01.2022
3665 Clear 14 1023 48 10000 0.51 0 14:36 15.01.2022
3666 Clear 12 1023 51 10000 2.06 40 12:39 15.01.2022
3667 Clear 10 1025 58 10000 0.89 11 11:21 15.01.2022
3668 Clear 6 1023 77 10000 0.51 0 09:46 15.01.2022
3669 Clear 4 1025 65 10000 1.54 80 01:27 15.01.2022
3670 Clear 5 1025 66 10000 0.45 23 22:40 14.01.2022
3671 Clear 6 1026 71 10000 1.54 160 20:57 14.01.2022
3672 Clear 6 1026 68 10000 1.54 170 20:24 14.01.2022
3673 Clear 6 1026 69 10000 2.06 140 19:49 14.01.2022
3674 Clear 8 1028 61 10000 0.51 150 18:33 14.01.2022
3675 Clear 10 1028 54 10000 0.89 280 16:57 14.01.2022
3676 Clear 11 1028 49 10000 1.34 229 16:38 14.01.2022
3677 Clear 12 1029 40 10000 1.03 0 14:50 14.01.2022
3678 Clear 12 1029 39 10000 0.45 293 14:20 14.01.2022
3679 Clear 10 1029 43 10000 1.03 0 12:37 14.01.2022
3680 Clear 8 1030 54 10000 0.45 1 11:34 14.01.2022
3681 Clear 6 1031 64 10000 1.34 48 10:22 14.01.2022
3682 Clear 3 1030 67 10000 0.89 94 08:52 14.01.2022
3683 Clear 2 1030 59 10000 0.45 21 07:29 14.01.2022
3684 Clear 3 1032 69 10000 2.06 90 01:43 14.01.2022
3685 Clear 4 1033 62 10000 1.34 21 23:39 13.01.2022
3686 Clear 5 1032 60 10000 1.34 71 21:45 13.01.2022
3687 Clear 5 1032 62 10000 1.79 16 21:27 13.01.2022
3688 Clear 7 1032 55 10000 1.54 180 19:44 13.01.2022
3689 Clear 7 1032 53 10000 1.03 0 19:22 13.01.2022
3690 Clear 8 1031 54 10000 1.34 338 18:33 13.01.2022
3691 Clear 12 1029 42 10000 3.6 10 16:43 13.01.2022
3692 Clear 12 1030 38 10000 0.45 199 15:38 13.01.2022
3693 Clear 13 1030 42 10000 0.45 144 14:50 13.01.2022
3694 Clear 13 1030 42 10000 0.45 144 14:50 13.01.2022
3695 Clear 12 1029 36 10000 0.45 77 12:54 13.01.2022
3696 Clear 7 1029 47 10000 1.79 53 10:29 13.01.2022
3697 Clear 5 1028 55 10000 1.79 21 09:22 13.01.2022
3698 Clear 3 1029 55 10000 2.68 23 08:28 13.01.2022
3699 Clear 2 1028 57 10000 0.89 11 07:25 13.01.2022
3700 Clear 2 1028 57 10000 3.13 33 06:41 13.01.2022
3701 Clear 4 1028 64 10000 2.24 35 05:20 13.01.2022
3702 Clear 4 1028 64 10000 1.79 64 03:24 13.01.2022
3703 Clear 5 1027 62 10000 2.24 6 00:56 13.01.2022
3704 Clear 5 1027 60 10000 2.24 87 23:53 12.01.2022
3705 Clear 5 1027 58 10000 2.24 11 23:32 12.01.2022
3706 Clear 6 1026 57 10000 1.34 49 21:58 12.01.2022
3707 Clear 6 1026 56 10000 2.24 31 21:23 12.01.2022
3708 Clear 7 1025 59 10000 0.89 47 20:57 12.01.2022
3709 Clear 7 1025 59 10000 2.24 356 20:19 12.01.2022
3710 Clear 8 1024 52 10000 1.79 345 18:48 12.01.2022
3711 Clear 9 1023 54 10000 3.58 88 17:53 12.01.2022
3712 Clear 11 1022 46 10000 6.17 20 16:42 12.01.2022
3713 Clear 13 1021 43 10000 2.68 28 14:49 12.01.2022
3714 Clear 12 1021 46 10000 3.58 23 13:37 12.01.2022
3715 Clear 12 1020 47 10000 4.47 319 12:35 12.01.2022
3716 Clouds 5 1016 73 10000 4.12 60 08:55 12.01.2022
3717 Clouds 5 1017 78 10000 3.13 58 07:55 12.01.2022
3718 Rain 4 1016 80 10000 3.09 30 07:32 12.01.2022
3719 Clear 5 1016 48 10000 5.36 331 01:34 12.01.2022
3720 Clear 6 1017 50 10000 4.02 20 23:25 11.01.2022
3721 Clear 7 1016 54 10000 3.13 61 22:24 11.01.2022
3722 Clear 7 1016 57 10000 3.58 6 21:28 11.01.2022
3723 Clear 7 1016 59 10000 3.13 350 20:36 11.01.2022
3724 Clear 8 1014 56 10000 3.13 65 19:23 11.01.2022
3725 Clear 9 1013 58 10000 2.68 6 17:46 11.01.2022
3726 Clear 10 1012 56 10000 1.79 65 16:39 11.01.2022
3727 Clear 10 1012 55 10000 2.24 312 16:18 11.01.2022
3728 Clear 12 1011 51 10000 2.68 355 14:48 11.01.2022
3729 Clear 12 1012 51 10000 2.24 322 14:30 11.01.2022
3730 Clear 12 1011 50 10000 4.47 321 13:46 11.01.2022
3731 Clear 12 1011 50 10000 3.13 66 13:25 11.01.2022
3732 Clouds 11 1011 49 10000 3.13 15 12:24 11.01.2022
3733 Clear 9 1012 51 10000 4.92 16 10:31 11.01.2022
3734 Clouds 7 1009 57 10000 5.81 352 07:50 11.01.2022
3735 Clear 8 1007 57 10000 3.13 109 03:47 11.01.2022
3736 Clear 8 1005 61 10000 3.58 1 00:25 11.01.2022
3737 Clear 8 1005 58 10000 2.68 11 23:38 10.01.2022
3738 Clear 8 1005 61 10000 3.58 356 22:20 10.01.2022
3739 Clouds 7 1004 57 10000 4.02 21 21:57 10.01.2022
3740 Clear 8 1004 61 10000 3.58 27 21:33 10.01.2022
3741 Clear 8 1004 61 10000 3.58 329 20:58 10.01.2022
3742 Clear 8 1004 60 10000 4.47 39 20:36 10.01.2022
3743 Clear 8 1003 59 10000 4.02 38 20:18 10.01.2022
3744 Clear 8 1003 58 10000 4.02 350 19:37 10.01.2022
3745 Clear 8 1003 58 10000 3.13 20 19:18 10.01.2022
3746 Clear 8 1003 60 10000 3.58 6 18:46 10.01.2022
3747 Clear 9 1001 58 10000 4.02 44 16:48 10.01.2022
3748 Clear 9 1001 53 10000 3.13 15 16:20 10.01.2022
3749 Clear 11 1000 54 10000 4.02 24 14:42 10.01.2022
3750 Clear 9 999 63 10000 4.92 11 12:50 10.01.2022
3751 Clear 8 999 68 10000 4.47 37 11:55 10.01.2022
3752 Clear 7 1000 69 10000 4.92 6 10:46 10.01.2022
3753 Clear 6 999 73 10000 3.58 325 09:33 10.01.2022
3754 Clear 5 998 79 10000 3.13 346 05:51 10.01.2022
3755 Clouds 4 998 81 10000 3.13 22 02:30 10.01.2022
3756 Rain 4 998 82 10000 4.47 42 01:20 10.01.2022
3757 Clouds 4 998 85 10000 2.68 31 00:19 10.01.2022
3758 Clouds 4 998 86 10000 3.13 1 22:44 09.01.2022
3759 Clouds 4 998 86 10000 2.68 17 21:57 09.01.2022
3760 Clouds 4 998 86 10000 2.24 318 21:37 09.01.2022
3761 Clouds 4 998 86 10000 2.24 318 21:37 09.01.2022
3762 Clouds 4 998 87 10000 4.02 317 21:18 09.01.2022
3763 Clouds 4 998 89 10000 1.79 331 20:45 09.01.2022
3764 Clouds 4 998 88 10000 2.68 1 20:26 09.01.2022
3765 Clouds 5 998 89 10000 2.68 26 19:38 09.01.2022
3766 Clouds 5 998 89 10000 2.24 11 19:20 09.01.2022
3767 Clouds 5 998 89 10000 2.24 348 18:37 09.01.2022
3768 Clouds 6 997 90 10000 0.89 327 17:48 09.01.2022
3769 Clouds 6 998 89 10000 0.45 321 17:29 09.01.2022
3770 Clouds 6 998 89 8000 5.14 120 16:43 09.01.2022
3771 Clouds 6 998 89 5000 3.6 120 15:42 09.01.2022
3772 Clouds 6 998 89 5000 3.6 120 15:42 09.01.2022
3773 Rain 5 998 87 5000 4.12 360 14:58 09.01.2022
3774 Rain 6 999 85 3500 4.12 360 14:24 09.01.2022
3775 Clouds 6 999 84 3500 4.92 345 13:48 09.01.2022
3776 Rain 7 1000 80 10000 4.47 188 11:56 09.01.2022
3777 Rain 7 1001 77 10000 3.13 160 11:28 09.01.2022
3778 Clouds 6 1003 69 10000 1.03 0 09:55 09.01.2022
3779 Clouds 5 1004 72 10000 1.03 0 09:20 09.01.2022
3780 Clear 4 1005 72 10000 1.03 0 06:57 09.01.2022
3781 Clear 3 1009 66 10000 1.54 340 01:30 09.01.2022
3782 Clear 3 1010 67 10000 1.54 330 00:38 09.01.2022
3783 Clear 4 1010 64 10000 0.45 78 23:34 08.01.2022
3784 Clear 4 1010 60 10000 0.45 6 22:48 08.01.2022
3785 Clear 5 1011 56 10000 2.06 80 21:28 08.01.2022
3786 Clear 5 1011 54 10000 1.54 70 20:44 08.01.2022
3787 Clear 5 1011 54 10000 1.54 70 20:44 08.01.2022
3788 Clear 6 1011 54 10000 1.03 0 20:22 08.01.2022
3789 Clear 6 1010 50 10000 1.34 330 19:22 08.01.2022
3790 Clear 8 1010 47 10000 1.34 11 17:38 08.01.2022
3791 Clear 9 1010 45 10000 0.45 334 16:57 08.01.2022
3792 Clear 10 1010 46 10000 2.68 325 15:34 08.01.2022
3793 Clear 10 1011 49 10000 1.34 6 14:25 08.01.2022
3794 Clear 7 1012 64 10000 1.54 30 11:43 08.01.2022
3795 Clear 5 1012 74 10000 0.89 85 10:40 08.01.2022
3796 Clear 5 1012 76 10000 0.45 48 10:22 08.01.2022
3797 Clear 4 1011 78 10000 0.45 6 09:34 08.01.2022
3798 Clear 4 1010 77 10000 0.45 346 06:22 08.01.2022
3799 Clear 5 1012 74 10000 2.57 50 01:46 08.01.2022
3800 Clear 7 1012 73 10000 2.06 50 23:36 07.01.2022
3801 Clouds 8 1014 72 10000 2.57 30 21:49 07.01.2022
3802 Clouds 10 1014 66 10000 1.34 53 20:35 07.01.2022
3803 Clear 10 1014 62 10000 1.54 60 19:27 07.01.2022
3804 Clear 11 1014 58 10000 1.03 40 18:49 07.01.2022
3805 Clear 11 1014 58 10000 1.03 0 18:24 07.01.2022
3806 Clear 11 1013 61 10000 0.89 322 17:24 07.01.2022
3807 Clear 14 1014 56 10000 0.45 339 14:56 07.01.2022
3808 Clear 13 1014 58 10000 0.45 30 13:52 07.01.2022
3809 Clear 13 1014 58 10000 0.45 30 13:52 07.01.2022
3810 Clear 12 1014 56 10000 3.09 20 12:51 07.01.2022
3811 Clear 11 1014 62 10000 0.45 42 11:58 07.01.2022
3812 Clouds 6 1013 76 10000 0.45 56 04:56 07.01.2022
3813 Clear 6 1012 75 10000 0.45 36 02:53 07.01.2022
3814 Clear 6 1012 76 10000 1.34 24 01:50 07.01.2022
3815 Clear 7 1012 74 10000 1.79 53 01:26 07.01.2022
3816 Clear 7 1012 74 10000 2.24 58 00:34 07.01.2022
3817 Clear 7 1011 72 10000 0.89 19 22:42 06.01.2022
3818 Clouds 9 1010 70 10000 0.89 35 20:54 06.01.2022
3819 Clouds 9 1010 69 10000 0.89 57 20:18 06.01.2022
3820 Clouds 9 1010 68 10000 2.24 6 19:39 06.01.2022
3821 Clouds 10 1008 64 10000 1.54 310 17:52 06.01.2022
3822 Clouds 11 1008 64 10000 1.54 320 17:28 06.01.2022
3823 Clouds 12 1008 60 10000 1.03 0 16:38 06.01.2022
3824 Clouds 13 1008 58 10000 2.06 230 15:44 06.01.2022
3825 Clouds 13 1008 58 10000 2.06 230 15:23 06.01.2022
3826 Clouds 13 1007 56 10000 0.45 245 14:20 06.01.2022
3827 Clouds 12 1008 60 9000 3.09 220 13:44 06.01.2022
3828 Clouds 12 1007 61 10000 2.24 182 12:32 06.01.2022
3829 Clouds 11 1007 58 8000 4.02 142 11:41 06.01.2022
3830 Clouds 11 1007 60 10000 2.24 187 11:19 06.01.2022
3831 Clear 9 1005 65 10000 0.89 188 06:59 06.01.2022
3832 Clouds 11 1005 67 10000 1.79 229 00:35 06.01.2022
3833 Clouds 11 1006 68 10000 3.58 315 23:35 05.01.2022
3834 Clouds 11 1006 68 10000 3.58 315 23:35 05.01.2022
3835 Clouds 11 1005 68 10000 4.02 188 22:50 05.01.2022
3836 Clouds 11 1004 68 10000 3.13 227 22:29 05.01.2022
3837 Clouds 11 1003 72 10000 2.68 253 21:44 05.01.2022
3838 Clouds 12 1003 79 10000 3.58 213 20:44 05.01.2022
3839 Rain 13 1002 78 10000 4.92 217 19:53 05.01.2022
3840 Clouds 14 1000 84 7000 4.92 238 18:27 05.01.2022
3841 Clouds 15 999 75 7000 9.26 170 16:59 05.01.2022
3842 Clouds 15 1001 73 10000 6.69 160 16:22 05.01.2022
3843 Clouds 15 1001 67 10000 6.17 170 15:20 05.01.2022
3844 Clouds 16 1002 71 10000 8.75 170 13:37 05.01.2022
3845 Clouds 16 1004 68 10000 6.17 170 12:49 05.01.2022
3846 Clouds 13 1004 84 10000 8.75 180 08:57 05.01.2022
3847 Clouds 12 1006 85 10000 5.14 170 07:31 05.01.2022
3848 Clear 12 1008 81 10000 5.14 170 01:59 05.01.2022
3849 Clouds 12 1009 81 10000 6.69 180 23:50 04.01.2022
3850 Clouds 12 1010 81 10000 5.66 180 23:26 04.01.2022
3851 Clouds 12 1010 80 10000 5.66 170 22:21 04.01.2022
3852 Clouds 13 1011 77 10000 4.63 190 20:50 04.01.2022
3853 Clouds 13 1011 74 10000 6.17 180 18:46 04.01.2022
3854 Clouds 14 1013 71 8000 3.09 190 17:37 04.01.2022
3855 Clouds 14 1013 73 8000 5.14 200 16:40 04.01.2022
3856 Clouds 14 1013 71 8000 5.14 200 16:21 04.01.2022
3857 Clouds 15 1012 68 10000 6.17 200 14:51 04.01.2022
3858 Clouds 15 1013 69 8000 3.09 170 14:33 04.01.2022
3859 Clouds 15 1014 66 8000 1.54 70 13:26 04.01.2022
3860 Clouds 13 1017 84 8000 0.51 350 10:29 04.01.2022
3861 Clouds 12 1015 82 10000 2.57 180 08:59 04.01.2022
3862 Clouds 12 1016 84 10000 2.06 170 06:46 04.01.2022
3863 Clouds 12 1018 87 10000 2.06 160 00:50 04.01.2022
3864 Clouds 12 1018 84 10000 1.54 160 00:31 04.01.2022
3865 Clouds 12 1018 84 10000 1.54 170 22:30 03.01.2022
3866 Clouds 12 1019 83 10000 1.03 170 21:41 03.01.2022
3867 Clouds 12 1019 83 10000 1.03 0 20:51 03.01.2022
3868 Clouds 12 1019 86 10000 1.03 170 19:44 03.01.2022
3869 Clouds 13 1019 81 10000 1.54 170 18:32 03.01.2022
3870 Clouds 13 1020 79 10000 1.54 210 17:40 03.01.2022
3871 Clouds 14 1019 77 10000 2.57 260 16:56 03.01.2022
3872 Clouds 14 1020 78 8000 2.06 300 14:54 03.01.2022
3873 Drizzle 14 1022 81 8000 0.51 0 13:25 03.01.2022
3874 Clouds 14 1022 75 10000 0.51 0 12:28 03.01.2022
3875 Clear 13 1023 77 10000 1.03 0 11:30 03.01.2022
3876 Clouds 10 1022 89 6000 0.51 0 09:42 03.01.2022
3877 Mist 9 1022 87 5000 1.03 0 08:18 03.01.2022
3878 Clouds 9 1022 86 9000 1.03 0 06:31 03.01.2022
3879 Mist 10 1024 85 5000 0.51 0 23:45 02.01.2022
3880 Mist 10 1024 87 5000 2.06 110 22:57 02.01.2022
3881 Mist 10 1024 85 5000 2.06 110 22:38 02.01.2022
3882 Mist 10 1025 88 5000 1.54 340 21:26 02.01.2022
3883 Mist 10 1024 82 5000 1.03 0 20:30 02.01.2022
3884 Mist 10 1024 81 5000 1.54 20 19:49 02.01.2022
3885 Mist 10 1024 86 5000 2.06 330 19:25 02.01.2022
3886 Mist 10 1024 82 5000 2.06 90 18:31 02.01.2022
3887 Mist 10 1026 85 9000 1.03 350 17:43 02.01.2022
3888 Clouds 10 1026 85 9000 1.03 350 17:21 02.01.2022
3889 Clouds 10 1025 81 10000 3.6 60 16:33 02.01.2022
3890 Clouds 11 1026 83 10000 2.57 40 15:49 02.01.2022
3891 Clouds 10 1025 92 8000 2.57 10 13:58 02.01.2022
3892 Mist 10 1029 90 4000 1.54 60 12:34 02.01.2022
3893 Clouds 10 1028 93 7000 2.57 30 11:56 02.01.2022
3894 Mist 9 1027 98 3000 2.06 80 10:56 02.01.2022
3895 Mist 9 1027 87 2000 2.06 80 10:22 02.01.2022
3896 Mist 8 1027 86 1000 1.03 0 08:22 02.01.2022
3897 Mist 8 1026 87 4000 3.09 40 02:58 02.01.2022
3898 Clear 9 1025 84 10000 1.45 20 23:55 01.01.2022
3899 Clear 9 1025 80 10000 1.45 20 23:36 01.01.2022
3900 Mist 9 1026 85 4000 1.54 80 22:41 01.01.2022
3901 Mist 9 1026 85 4000 2.06 90 22:18 01.01.2022
3902 Mist 9 1025 87 4000 1.03 0 21:42 01.01.2022
3903 Mist 9 1025 87 5000 2.57 160 20:50 01.01.2022
3904 Clear 10 1025 79 6000 2.06 170 19:47 01.01.2022
3905 Clear 10 1024 83 6000 1.54 180 18:53 01.01.2022
3906 Clear 12 1025 74 10000 1.03 280 17:45 01.01.2022
3907 Clear 14 1025 68 10000 0.51 0 16:35 01.01.2022
3908 Clear 14 1024 66 10000 1.54 350 15:45 01.01.2022
3909 Clear 15 1025 67 10000 1.54 350 14:40 01.01.2022
3910 Clear 14 1025 73 10000 1.54 350 13:42 01.01.2022
3911 Clear 14 1025 73 10000 1.54 350 13:42 01.01.2022
3912 Clouds 14 1026 70 7000 0.51 0 12:26 01.01.2022
3913 Mist 11 1027 86 1500 1.03 0 11:30 01.01.2022
3914 Fog 12 1026 100 200 2.57 60 10:59 01.01.2022
3915 Fog 11 1026 100 100 2.57 20 09:48 01.01.2022
3916 Fog 9 1024 86 150 1.54 30 08:49 01.01.2022
3917 Fog 9 1024 86 100 1.54 50 08:21 01.01.2022
3918 Fog 9 1023 84 150 1.54 70 07:40 01.01.2022
3919 Fog 10 1023 86 50 2.06 80 06:44 01.01.2022
3920 Fog 10 1023 85 50 1.54 360 05:25 01.01.2022
3921 Fog 10 1023 85 50 1.03 10 04:36 01.01.2022
3922 Fog 12 1023 83 100 1.03 0 00:37 01.01.2022
3923 Fog 12 1024 82 200 1.03 0 22:40 31.12.2021
3924 Fog 13 1024 88 150 0.51 0 21:49 31.12.2021
3925 Fog 12 1024 77 150 2.06 260 19:56 31.12.2021
3926 Clouds 12 1024 75 7000 1.54 250 19:28 31.12.2021
3927 Clear 12 1025 67 10000 1.03 0 18:24 31.12.2021
3928 Clear 14 1025 65 10000 0.51 10 17:37 31.12.2021
3929 Clear 14 1025 65 10000 0.51 10 17:18 31.12.2021
3930 Clear 18 1023 54 10000 0.51 0 16:19 31.12.2021
3931 Clear 19 1022 44 10000 2.06 30 15:51 31.12.2021
3932 Clear 19 1023 50 10000 0.51 0 15:28 31.12.2021
3933 Clear 18 1025 50 10000 1.03 0 14:41 31.12.2021
3934 Clear 18 1023 50 10000 2.06 10 13:56 31.12.2021
3935 Clear 17 1024 61 10000 1.54 10 13:23 31.12.2021
3936 Clear 16 1023 59 10000 2.06 30 12:33 31.12.2021
3937 Clear 15 1026 63 10000 1.03 0 11:42 31.12.2021
3938 Clear 15 1025 69 10000 2.57 40 10:58 31.12.2021
3939 Clear 12 1026 79 10000 0.51 0 10:29 31.12.2021
3940 Clear 9 1024 89 10000 0.51 0 09:35 31.12.2021
3941 Fog 9 1023 90 10000 1.03 310 08:54 31.12.2021
3942 Fog 8 1023 87 200 0.51 0 08:25 31.12.2021
3943 Clear 8 1022 90 10000 1.54 60 06:39 31.12.2021
3944 Clouds 10 1021 86 6000 2.06 30 23:23 30.12.2021
3945 Clear 11 1020 85 10000 1.54 120 22:32 30.12.2021
3946 Clear 11 1020 85 10000 0.51 0 21:41 30.12.2021
3947 Clear 11 1020 86 10000 0.51 0 21:22 30.12.2021
3948 Clear 11 1019 82 10000 1.54 170 20:43 30.12.2021
3949 Clouds 11 1019 82 7000 1.03 0 20:23 30.12.2021
3950 Clear 12 1019 82 10000 0.51 0 19:36 30.12.2021
3951 Clear 12 1018 77 10000 1.03 0 18:29 30.12.2021
3952 Clear 14 1018 72 10000 1.54 20 17:34 30.12.2021
3953 Clear 16 1016 66 10000 1.54 70 15:54 30.12.2021
3954 Clear 16 1017 66 10000 1.03 0 15:22 30.12.2021
3955 Clear 16 1017 67 10000 1.03 0 14:36 30.12.2021
3956 Clear 16 1016 67 10000 2.06 50 13:31 30.12.2021
3957 Clear 14 1015 76 10000 1.54 20 11:58 30.12.2021
3958 Clear 13 1015 87 10000 1.03 0 10:40 30.12.2021
3959 Clear 11 1015 93 10000 1.03 0 09:50 30.12.2021
3960 Clear 11 1015 93 10000 1.03 0 09:50 30.12.2021
3961 Clouds 9 1013 90 10000 1.03 80 07:25 30.12.2021
3962 Clouds 9 1012 86 10000 1.54 120 06:32 30.12.2021
3963 Clear 10 1012 87 10000 1.03 0 03:41 30.12.2021
3964 Clear 10 1012 88 9000 1.03 0 02:35 30.12.2021
3965 Clear 11 1011 87 10000 2.06 50 23:40 29.12.2021
3966 Clear 12 1011 86 10000 1.34 64 22:59 29.12.2021
3967 Clear 12 1011 88 10000 0.45 79 22:18 29.12.2021
3968 Clear 12 1011 86 10000 1.34 83 21:19 29.12.2021
3969 Clear 13 1010 87 10000 0.45 19 20:31 29.12.2021
3970 Clear 13 1010 86 10000 0.89 335 19:43 29.12.2021
3971 Clear 14 1010 86 10000 2.24 333 18:44 29.12.2021
3972 Clear 14 1009 88 10000 2.24 272 17:53 29.12.2021
3973 Clouds 14 1009 85 10000 2.24 34 17:27 29.12.2021
3974 Clouds 16 1008 76 10000 1.79 280 16:23 29.12.2021
3975 Clouds 16 1009 72 10000 0.89 235 15:42 29.12.2021
3976 Clouds 17 1009 72 10000 2.24 316 13:53 29.12.2021
3977 Clouds 16 1009 76 10000 1.34 321 12:36 29.12.2021
3978 Clouds 14 1011 82 10000 1.54 10 11:26 29.12.2021
3979 Clouds 13 1010 86 10000 0.89 33 09:56 29.12.2021
3980 Clouds 11 1009 88 10000 0.89 69 07:51 29.12.2021
3981 Clouds 11 1009 88 10000 1.54 20 06:38 29.12.2021
3982 Clouds 11 1009 88 10000 0.89 40 05:58 29.12.2021
3983 Clouds 11 1008 88 10000 1.03 0 05:36 29.12.2021
3984 Clear 11 1007 90 10000 1.34 45 02:22 29.12.2021
3985 Clouds 11 1008 86 10000 0.89 38 00:19 29.12.2021
3986 Clouds 11 1009 86 10000 0.89 80 23:31 28.12.2021
3987 Clear 11 1008 84 10000 0.89 117 22:42 28.12.2021
3988 Clear 11 1008 86 10000 0.89 129 22:23 28.12.2021
3989 Clear 11 1008 84 10000 0.45 150 21:36 28.12.2021
3990 Clouds 11 1009 87 10000 1.03 180 20:36 28.12.2021
3991 Clouds 12 1009 87 10000 1.03 170 19:22 28.12.2021
3992 Clouds 13 1009 87 10000 0.45 87 18:35 28.12.2021
3993 Clouds 13 1009 88 10000 0.89 86 17:57 28.12.2021
3994 Clouds 14 1009 77 10000 0.51 0 16:34 28.12.2021
3995 Clouds 14 1008 80 10000 2.06 300 15:49 28.12.2021
3996 Clouds 14 1008 80 10000 0.45 300 15:20 28.12.2021
3997 Clouds 14 1008 84 10000 1.34 1 14:46 28.12.2021
3998 Clouds 14 1008 86 10000 1.34 279 14:20 28.12.2021
3999 Clouds 14 1009 84 10000 1.34 268 13:42 28.12.2021
4000 Clouds 14 1009 85 10000 0.45 268 13:24 28.12.2021
4001 Clouds 14 1009 85 10000 1.34 261 12:48 28.12.2021
4002 Clouds 13 1009 87 10000 0.51 0 11:33 28.12.2021
4003 Clouds 11 1008 89 6000 2.57 50 07:41 28.12.2021
4004 Rain 11 1007 89 10000 0.89 11 06:41 28.12.2021
4005 Clouds 12 1005 87 10000 0.45 78 23:43 27.12.2021
4006 Rain 12 1006 87 10000 1.79 78 22:59 27.12.2021
4007 Clouds 12 1006 85 10000 2.24 157 21:38 27.12.2021
4008 Clouds 12 1007 88 10000 3.13 150 20:57 27.12.2021
4009 Rain 12 1007 88 10000 0.45 153 19:58 27.12.2021
4010 Clouds 12 1007 88 10000 0.45 165 19:39 27.12.2021
4011 Rain 13 1008 90 10000 1.34 152 18:23 27.12.2021
4012 Clouds 13 1008 89 10000 0.45 175 17:46 27.12.2021
4013 Clouds 13 1008 90 10000 1.34 168 16:38 27.12.2021
4014 Clouds 14 1008 89 10000 2.06 220 15:51 27.12.2021
4015 Clouds 14 1008 86 10000 0.45 185 14:32 27.12.2021
4016 Clouds 14 1009 89 10000 1.54 10 13:39 27.12.2021
4017 Clouds 13 1009 92 10000 1.03 0 12:19 27.12.2021
4018 Clouds 12 1011 88 9000 1.03 0 10:31 27.12.2021
4019 Fog 10 1009 83 8000 0.45 107 09:47 27.12.2021
4020 Clear 8 1008 88 10000 3.09 160 07:35 27.12.2021
4021 Fog 8 1008 90 5000 1.03 0 06:56 27.12.2021
4022 Fog 10 1007 86 3000 1.54 60 02:18 27.12.2021
4023 Clouds 11 1007 85 10000 0.45 23 23:58 26.12.2021
4024 Clouds 11 1007 87 10000 0.45 23 23:36 26.12.2021
4025 Clouds 11 1007 88 10000 0.89 17 22:23 26.12.2021
4026 Rain 12 1007 89 8000 3.09 60 20:54 26.12.2021
4027 Rain 12 1007 89 8000 0.45 355 19:47 26.12.2021
4028 Clouds 12 1006 89 8000 1.79 169 18:24 26.12.2021
4029 Clouds 13 1006 90 8000 1.03 210 16:55 26.12.2021
4030 Rain 14 1007 88 6000 1.34 233 14:28 26.12.2021
4031 Rain 14 1007 87 9000 3.6 200 13:40 26.12.2021
4032 Rain 14 1007 89 9000 2.24 142 13:19 26.12.2021
4033 Clouds 14 1007 87 8000 1.79 198 12:33 26.12.2021
4034 Clouds 14 1008 87 8000 1.54 180 10:34 26.12.2021
4035 Clouds 13 1008 86 8000 2.68 198 09:21 26.12.2021
4036 Clouds 13 1008 85 7000 1.34 123 08:44 26.12.2021
4037 Clouds 12 1008 86 10000 2.24 172 07:49 26.12.2021
4038 Clouds 14 1007 86 10000 1.34 195 01:29 26.12.2021
4039 Clouds 14 1007 87 10000 2.24 159 23:56 25.12.2021
4040 Clouds 14 1008 85 10000 1.79 164 23:27 25.12.2021
4041 Clouds 13 1007 84 10000 4.47 138 22:26 25.12.2021
4042 Rain 14 1008 81 10000 4.02 166 20:59 25.12.2021
4043 Clouds 14 1008 82 10000 4.92 168 19:26 25.12.2021
4044 Clouds 14 1008 85 10000 3.13 181 18:56 25.12.2021
4045 Clouds 14 1008 84 6000 3.58 142 17:38 25.12.2021
4046 Clouds 14 1008 87 5000 4.12 170 16:41 25.12.2021
4047 Clouds 14 1009 87 5000 3.13 169 15:24 25.12.2021
4048 Rain 14 1009 84 5000 4.02 193 13:41 25.12.2021
4049 Rain 14 1011 84 5000 3.58 155 11:54 25.12.2021
4050 Clouds 14 1011 84 6000 5.36 187 10:18 25.12.2021
4051 Clouds 14 1011 85 5000 5.81 165 09:42 25.12.2021
4052 Clear 13 1012 88 10000 4.47 156 04:36 25.12.2021
4053 Clear 13 1014 86 10000 4.47 175 01:27 25.12.2021
4054 Clouds 13 1015 86 10000 3.13 155 23:48 24.12.2021
4055 Clouds 13 1016 86 10000 2.68 147 19:50 24.12.2021
4056 Clouds 13 1016 88 10000 1.79 167 19:24 24.12.2021
4057 Clouds 13 1016 87 10000 2.24 185 18:23 24.12.2021
4058 Clouds 13 1016 90 6000 1.79 170 16:29 24.12.2021
4059 Clouds 13 1016 90 8000 1.34 200 15:49 24.12.2021
4060 Clouds 13 1016 90 8000 1.34 200 15:20 24.12.2021
4061 Clouds 13 1017 88 8000 1.34 206 14:31 24.12.2021
4062 Clouds 13 1017 88 2000 2.68 156 13:44 24.12.2021
4063 Clouds 12 1018 90 1000 2.68 143 12:49 24.12.2021
4064 Rain 12 1018 87 5000 2.68 192 12:23 24.12.2021
4065 Clouds 12 1018 83 10000 3.13 155 11:40 24.12.2021
4066 Clouds 12 1019 83 10000 3.58 172 11:18 24.12.2021
4067 Clouds 12 1019 84 10000 2.68 196 10:33 24.12.2021
4068 Clouds 11 1019 88 10000 2.68 156 08:36 24.12.2021
4069 Drizzle 11 1019 88 10000 3.13 153 07:58 24.12.2021
4070 Rain 10 1019 86 10000 2.24 142 06:18 24.12.2021
4071 Clouds 10 1021 85 10000 0.89 159 00:20 24.12.2021
4072 Clouds 10 1021 85 10000 1.34 161 23:33 23.12.2021
4073 Clouds 10 1021 86 10000 2.57 180 22:44 23.12.2021
4074 Clouds 10 1021 87 10000 1.79 191 22:22 23.12.2021
4075 Clouds 10 1021 87 10000 0.89 180 21:39 23.12.2021
4076 Clouds 10 1021 88 10000 2.24 171 20:22 23.12.2021
4077 Clouds 10 1021 86 10000 2.24 170 19:28 23.12.2021
4078 Clouds 11 1021 82 10000 0.89 171 17:58 23.12.2021
4079 Clouds 11 1021 80 10000 0.51 0 17:18 23.12.2021
4080 Clouds 12 1021 81 10000 2.57 160 16:26 23.12.2021
4081 Clouds 12 1021 78 10000 1.03 0 15:32 23.12.2021
4082 Drizzle 12 1021 77 7000 4.12 190 14:58 23.12.2021
4083 Drizzle 12 1021 79 7000 4.12 190 14:38 23.12.2021
4084 Clouds 12 1022 72 10000 1.79 161 13:25 23.12.2021
4085 Clouds 10 1023 79 10000 2.06 10 11:20 23.12.2021
4086 Clouds 9 1024 89 10000 2.57 50 09:53 23.12.2021
4087 Clouds 7 1023 82 10000 0.89 32 09:33 23.12.2021
4088 Clouds 6 1023 85 10000 1.34 21 08:25 23.12.2021
4089 Clear 6 1022 86 10000 0.89 36 05:23 23.12.2021
4090 Clear 6 1023 83 10000 0.45 29 00:34 23.12.2021
4091 Clear 7 1022 82 10000 1.03 0 22:50 22.12.2021
4092 Clear 8 1022 81 10000 1.03 130 21:59 22.12.2021
4093 Clear 8 1022 81 10000 1.54 80 21:30 22.12.2021
4094 Clear 8 1022 82 10000 1.54 120 20:58 22.12.2021
4095 Clear 8 1022 80 10000 1.54 120 20:40 22.12.2021
4096 Clear 8 1022 79 10000 2.06 140 19:42 22.12.2021
4097 Clear 9 1021 79 10000 3.09 140 18:25 22.12.2021
4098 Clear 10 1021 71 10000 1.54 90 17:38 22.12.2021
4099 Clear 12 1021 70 10000 2.06 340 15:56 22.12.2021
4100 Clear 11 1021 77 10000 0.45 34 14:23 22.12.2021
4101 Drizzle 10 1022 80 10000 0.89 21 12:53 22.12.2021
4102 Rain 9 1022 85 10000 1.03 0 11:39 22.12.2021
4103 Clouds 9 1021 84 8000 0.89 11 09:52 22.12.2021
4104 Clouds 8 1020 86 8000 1.54 90 07:56 22.12.2021
4105 Clouds 8 1020 83 10000 1.03 0 05:51 22.12.2021
4106 Clouds 8 1020 84 10000 1.03 0 05:33 22.12.2021
4107 Rain 8 1020 84 10000 1.03 0 04:55 22.12.2021
4108 Rain 8 1020 83 10000 1.03 0 04:35 22.12.2021
4109 Rain 8 1020 77 10000 1.78 112 03:37 22.12.2021
4110 Rain 8 1020 75 10000 1.03 0 03:18 22.12.2021
4111 Clear 8 1021 70 10000 2.57 150 23:47 21.12.2021
4112 Clouds 8 1022 75 10000 0.51 0 22:36 21.12.2021
4113 Clouds 9 1022 68 10000 0.51 0 21:55 21.12.2021
4114 Clouds 9 1022 67 10000 0.45 49 21:31 21.12.2021
4115 Clouds 9 1021 61 10000 2.57 170 20:24 21.12.2021
4116 Clouds 9 1020 64 10000 2.57 170 19:52 21.12.2021
4117 Clouds 9 1020 64 10000 2.57 160 19:31 21.12.2021
4118 Clouds 10 1020 65 10000 1.54 130 18:23 21.12.2021
4119 Clouds 10 1020 62 10000 1.54 130 17:53 21.12.2021
4120 Clear 11 1020 62 10000 1.54 350 16:47 21.12.2021
4121 Clear 12 1020 60 10000 0.89 149 15:34 21.12.2021
4122 Clouds 12 1021 60 10000 1.34 136 13:55 21.12.2021
4123 Clear 12 1021 59 10000 0.89 144 13:36 21.12.2021
4124 Clear 11 1021 66 10000 2.57 360 12:25 21.12.2021
4125 Clouds 9 1021 79 10000 0.45 120 10:38 21.12.2021
4126 Clouds 7 1022 88 10000 1.03 0 09:41 21.12.2021
4127 Clouds 6 1021 83 10000 0.45 15 08:39 21.12.2021
4128 Clouds 6 1020 82 10000 1.54 80 07:42 21.12.2021
4129 Clear 5 1020 81 10000 0.45 38 07:19 21.12.2021
4130 Clear 6 1019 79 10000 0.45 1 03:24 21.12.2021
4131 Clear 7 1019 81 10000 0.45 123 01:19 21.12.2021
4132 Clouds 8 1019 75 10000 0.51 0 23:54 20.12.2021
4133 Clouds 9 1018 75 10000 1.03 0 22:35 20.12.2021
4134 Clouds 8 1018 76 10000 1.54 80 21:48 20.12.2021
4135 Clouds 9 1018 71 10000 1.54 80 21:24 20.12.2021
4136 Clouds 8 1018 71 10000 1.03 0 20:50 20.12.2021
4137 Clouds 9 1017 69 10000 1.54 40 19:55 20.12.2021
4138 Clouds 9 1017 69 10000 1.54 40 19:36 20.12.2021
4139 Clouds 9 1017 70 10000 0.45 323 19:18 20.12.2021
4140 Clouds 10 1017 67 10000 0.89 306 18:28 20.12.2021
4141 Clouds 10 1017 71 10000 0.51 0 17:49 20.12.2021
4142 Clouds 11 1017 65 10000 0.51 0 16:45 20.12.2021
4143 Clouds 12 1016 62 10000 2.06 10 15:55 20.12.2021
4144 Clouds 12 1017 62 9000 0.51 0 15:31 20.12.2021
4145 Clouds 12 1017 67 10000 0.45 1 13:31 20.12.2021
4146 Clear 10 1017 65 10000 2.06 50 11:36 20.12.2021
4147 Clear 8 1018 72 10000 2.06 50 09:56 20.12.2021
4148 Clear 6 1017 73 10000 2.06 50 09:32 20.12.2021
4149 Clear 5 1017 77 10000 2.06 60 08:43 20.12.2021
4150 Clear 4 1017 76 10000 3.09 70 07:59 20.12.2021
4151 Clear 4 1017 76 10000 2.57 60 07:31 20.12.2021
4152 Clear 4 1017 75 10000 2.57 60 05:25 20.12.2021
4153 Clear 5 1018 75 7000 0.45 17 00:19 20.12.2021
4154 Clear 6 1019 73 10000 1.54 350 22:55 19.12.2021
4155 Clear 7 1019 65 10000 0.51 130 21:55 19.12.2021
4156 Clear 7 1019 64 10000 1.03 0 21:31 19.12.2021
4157 Clear 7 1020 64 10000 1.03 170 20:34 19.12.2021
4158 Clear 8 1020 61 10000 2.06 130 19:52 19.12.2021
4159 Clear 8 1020 62 10000 2.06 130 19:32 19.12.2021
4160 Clear 9 1020 56 10000 1.54 160 18:30 19.12.2021
4161 Clear 10 1022 54 10000 0.51 0 17:53 19.12.2021
4162 Clear 10 1022 53 10000 0 0 17:21 19.12.2021
4163 Clear 12 1022 47 10000 0.89 302 16:27 19.12.2021
4164 Clear 12 1022 54 10000 0.89 254 15:50 19.12.2021
4165 Clear 13 1021 37 10000 0.51 0 15:23 19.12.2021
4166 Clear 13 1023 36 10000 1.03 0 14:44 19.12.2021
4167 Clear 12 1022 42 10000 1.03 0 13:26 19.12.2021
4168 Clear 11 1023 42 10000 1.54 50 12:47 19.12.2021
4169 Clear 11 1023 43 10000 1.54 50 12:28 19.12.2021
4170 Clear 9 1024 49 10000 0.89 54 11:26 19.12.2021
4171 Clear 8 1025 57 10000 0.45 57 10:28 19.12.2021
4172 Clear 6 1024 57 10000 0.89 19 09:48 19.12.2021
4173 Clear 5 1025 60 10000 1.34 17 08:45 19.12.2021
4174 Clear 5 1025 58 10000 1.34 36 04:45 19.12.2021
4175 Clear 6 1026 50 10000 0.89 33 01:34 19.12.2021
4176 Clear 5 1027 51 10000 1.34 44 00:53 19.12.2021
4177 Clear 7 1027 43 10000 1.34 28 22:42 18.12.2021
4178 Clear 7 1026 42 10000 2.24 52 22:20 18.12.2021
4179 Clear 7 1026 40 10000 1.79 6 21:41 18.12.2021
4180 Clear 7 1026 40 10000 1.79 357 21:22 18.12.2021
4181 Clear 8 1027 39 10000 2.68 11 20:20 18.12.2021
4182 Clear 9 1026 38 10000 1.34 21 19:25 18.12.2021
4183 Clear 10 1026 36 10000 3.13 26 18:22 18.12.2021
4184 Clear 11 1027 37 10000 1.34 21 17:48 18.12.2021
4185 Clear 13 1027 33 10000 2.68 28 16:26 18.12.2021
4186 Clear 15 1025 31 10000 2.24 298 15:28 18.12.2021
4187 Clear 14 1027 33 10000 1.34 348 14:51 18.12.2021
4188 Clear 15 1026 37 10000 2.24 327 13:28 18.12.2021
4189 Clear 12 1028 53 10000 1.79 28 11:23 18.12.2021
4190 Clear 8 1026 64 10000 1.34 68 09:40 18.12.2021
4191 Clear 6 1026 72 10000 0.45 69 08:47 18.12.2021
4192 Clear 6 1025 71 10000 0.45 6 08:27 18.12.2021
4193 Clear 5 1024 77 10000 1.34 61 05:56 18.12.2021
4194 Clear 7 1025 82 10000 0.89 50 00:34 18.12.2021
4195 Clear 7 1025 81 10000 1.03 0 23:46 17.12.2021
4196 Clear 8 1025 78 10000 1.03 0 21:58 17.12.2021
4197 Clear 9 1025 76 10000 1.03 160 21:20 17.12.2021
4198 Clear 9 1025 74 10000 1.54 170 20:41 17.12.2021
4199 Clear 9 1025 73 10000 0.45 306 19:45 17.12.2021
4200 Clear 10 1027 74 10000 0.45 302 18:39 17.12.2021
4201 Clear 12 1027 66 10000 1.54 300 17:40 17.12.2021
4202 Clear 13 1027 63 10000 2.06 290 16:50 17.12.2021
4203 Clear 14 1027 62 10000 2.06 290 16:25 17.12.2021
4204 Clear 15 1027 57 10000 1.03 0 15:25 17.12.2021
4205 Clear 15 1028 56 10000 2.06 330 14:41 17.12.2021
4206 Clear 14 1027 52 10000 0.89 1 13:22 17.12.2021
4207 Clear 13 1028 60 10000 1.34 342 12:21 17.12.2021
4208 Clear 11 1028 66 10000 1.79 142 10:38 17.12.2021
4209 Clear 9 1027 71 10000 0.45 102 09:34 17.12.2021
4210 Clear 9 1027 71 10000 0.45 102 09:34 17.12.2021
4211 Clouds 7 1027 75 10000 1.79 21 08:30 17.12.2021
4212 Clouds 6 1027 77 10000 1.34 32 07:18 17.12.2021
4213 Clouds 5 1026 79 10000 0.45 48 04:39 17.12.2021
4214 Clear 7 1027 74 10000 0.45 62 23:47 16.12.2021
4215 Clear 8 1026 73 10000 1.54 60 22:24 16.12.2021
4216 Clear 9 1025 70 10000 2.06 100 21:51 16.12.2021
4217 Clear 9 1025 71 10000 1.54 40 21:30 16.12.2021
4218 Clear 9 1024 68 10000 1.03 0 20:31 16.12.2021
4219 Clouds 9 1024 67 10000 3.09 130 19:49 16.12.2021
4220 Clear 10 1024 69 10000 2.06 100 18:41 16.12.2021
4221 Clear 11 1024 65 10000 1.03 90 17:57 16.12.2021
4222 Clear 12 1025 62 10000 1.03 340 17:31 16.12.2021
4223 Clear 14 1026 57 10000 0.51 0 16:22 16.12.2021
4224 Clear 15 1025 53 10000 1.03 0 14:51 16.12.2021
4225 Clear 14 1026 54 10000 2.06 20 13:43 16.12.2021
4226 Clear 11 1025 69 10000 2.06 350 11:21 16.12.2021
4227 Clouds 11 1024 68 10000 2.06 70 10:59 16.12.2021
4228 Clouds 9 1024 72 10000 2.57 50 10:22 16.12.2021
4229 Clear 6 1024 78 10000 2.06 60 08:25 16.12.2021
4230 Clouds 6 1022 74 10000 2.32 25 06:22 16.12.2021
4231 Clear 7 1024 77 10000 2.57 60 01:25 16.12.2021
4232 Clear 8 1025 74 10000 0.45 21 23:33 15.12.2021
4233 Clear 8 1024 70 10000 1.03 0 22:44 15.12.2021
4234 Clear 9 1025 70 10000 0.51 0 21:56 15.12.2021
4235 Clear 9 1025 70 10000 0.51 0 21:27 15.12.2021
4236 Clear 9 1024 71 10000 1.03 160 20:18 15.12.2021
4237 Clear 10 1024 70 10000 1.54 150 19:50 15.12.2021
4238 Clear 10 1024 69 10000 1.54 80 18:38 15.12.2021
4239 Clear 12 1025 63 10000 1.03 20 17:54 15.12.2021
4240 Clear 12 1025 64 10000 1.03 340 17:36 15.12.2021
4241 Clear 14 1025 63 10000 2.06 350 16:28 15.12.2021
4242 Clear 14 1025 63 10000 1.54 360 15:47 15.12.2021
4243 Clear 15 1025 62 10000 1.54 360 15:27 15.12.2021
4244 Clear 15 1025 61 10000 0.45 11 14:29 15.12.2021
4245 Clear 13 1024 61 10000 0.89 46 12:46 15.12.2021
4246 Clear 12 1025 64 10000 2.06 40 10:42 15.12.2021
4247 Clear 7 1023 73 10000 1.54 50 08:55 15.12.2021
4248 Clouds 6 1022 73 10000 0.89 44 07:25 15.12.2021
4249 Clear 8 1021 67 10000 0.45 104 01:35 15.12.2021
4250 Clear 9 1021 66 10000 0.45 35 23:42 14.12.2021
4251 Clear 10 1021 63 10000 0.89 107 22:49 14.12.2021
4252 Clear 10 1021 64 10000 2.06 110 22:24 14.12.2021
4253 Clear 11 1021 62 10000 1.34 36 20:29 14.12.2021
4254 Clear 11 1021 61 10000 0.45 19 19:44 14.12.2021
4255 Clear 12 1022 61 10000 0.89 47 19:19 14.12.2021
4256 Clear 12 1022 59 10000 1.79 42 18:28 14.12.2021
4257 Clear 13 1021 53 10000 0.89 29 17:33 14.12.2021
4258 Clear 15 1021 47 10000 4.12 10 16:40 14.12.2021
4259 Clear 16 1021 50 10000 0.89 333 15:36 14.12.2021
4260 Clear 15 1021 55 10000 2.57 360 13:31 14.12.2021
4261 Clear 13 1022 57 10000 0.89 21 12:21 14.12.2021
4262 Clear 11 1022 66 10000 0.45 59 11:24 14.12.2021
4263 Clear 9 1023 71 10000 1.79 55 10:24 14.12.2021
4264 Clear 9 1022 68 10000 0.89 44 09:51 14.12.2021
4265 Clear 6 1022 71 10000 2.24 86 08:28 14.12.2021
4266 Clear 6 1022 73 10000 2.24 82 07:43 14.12.2021
4267 Clear 6 1021 73 10000 1.34 60 05:35 14.12.2021
4268 Clear 8 1023 65 10000 1.34 85 22:56 13.12.2021
4269 Clear 8 1023 62 10000 0.89 65 21:53 13.12.2021
4270 Clear 9 1023 63 10000 0.89 16 21:33 13.12.2021
4271 Clear 9 1023 64 10000 0.45 46 20:43 13.12.2021
4272 Clear 9 1022 59 10000 1.34 19 19:53 13.12.2021
4273 Clear 10 1022 52 10000 3.09 70 18:33 13.12.2021
4274 Clear 11 1023 49 10000 0.45 110 17:26 13.12.2021
4275 Clear 13 1023 45 10000 0.45 88 15:54 13.12.2021
4276 Clear 13 1022 38 10000 0.45 57 15:32 13.12.2021
4277 Clear 13 1022 38 10000 2.57 70 13:45 13.12.2021
4278 Clear 11 1023 42 10000 0.89 300 12:49 13.12.2021
4279 Clear 11 1023 45 10000 1.34 306 11:59 13.12.2021
4280 Clear 10 1023 49 10000 0.89 1 11:35 13.12.2021
4281 Clear 8 1024 54 10000 1.34 42 10:47 13.12.2021
4282 Clear 6 1023 60 10000 0.45 85 09:32 13.12.2021
4283 Clear 3 1023 69 10000 0.45 86 07:53 13.12.2021
4284 Clear 3 1022 70 10000 4.12 70 05:36 13.12.2021
4285 Clear 4 1022 64 10000 0.89 1 03:28 13.12.2021
4286 Clear 6 1022 59 10000 1.34 60 23:22 12.12.2021
4287 Clear 6 1022 55 10000 0.89 52 21:40 12.12.2021
4288 Clear 7 1021 53 10000 1.34 66 20:18 12.12.2021
4289 Clear 8 1020 52 10000 1.79 46 18:43 12.12.2021
4290 Clear 9 1019 51 10000 3.13 44 17:38 12.12.2021
4291 Clear 11 1019 46 10000 2.68 356 16:28 12.12.2021
4292 Clear 12 1018 44 10000 3.58 309 15:46 12.12.2021
4293 Clear 12 1018 43 10000 2.24 312 15:25 12.12.2021
4294 Clear 12 1018 43 10000 4.47 42 14:36 12.12.2021
4295 Clear 12 1017 45 10000 4.47 82 13:26 12.12.2021
4296 Clear 11 1017 50 10000 4.92 18 12:30 12.12.2021
4297 Clear 11 1017 53 10000 4.47 57 11:44 12.12.2021
4298 Clear 10 1017 55 10000 4.47 57 11:22 12.12.2021
4299 Clear 9 1017 60 10000 4.02 343 10:28 12.12.2021
4300 Clear 8 1016 64 10000 4.02 19 09:38 12.12.2021
4301 Clear 7 1015 67 10000 3.58 19 08:33 12.12.2021
4302 Clear 7 1013 66 10000 4.02 22 06:19 12.12.2021
4303 Clear 7 1011 64 10000 3.58 320 04:56 12.12.2021
4304 Clear 7 1011 64 10000 1.34 42 03:57 12.12.2021
4305 Clear 8 1008 61 10000 3.58 20 23:47 11.12.2021
4306 Clear 8 1007 61 10000 3.58 21 22:23 11.12.2021
4307 Clear 8 1006 62 10000 4.92 1 21:52 11.12.2021
4308 Clear 8 1005 65 10000 3.13 344 20:51 11.12.2021
4309 Clear 8 1004 67 10000 3.58 340 19:27 11.12.2021
4310 Clouds 8 1004 67 10000 4.92 77 18:52 11.12.2021
4311 Rain 8 1003 67 10000 4.92 292 18:25 11.12.2021
4312 Clear 8 1002 68 10000 4.02 26 17:21 11.12.2021
4313 Clouds 9 1000 67 10000 4.02 25 15:55 11.12.2021
4314 Clouds 9 1000 66 10000 5.36 292 15:30 11.12.2021
4315 Clouds 9 997 69 10000 4.02 303 12:59 11.12.2021
4316 Clouds 9 998 74 10000 4.02 23 11:26 11.12.2021
4317 Clear 7 995 84 10000 2.68 94 09:47 11.12.2021
4318 Clouds 6 994 89 9000 1.79 31 08:28 11.12.2021
4319 Clouds 7 990 90 10000 2.06 100 02:40 11.12.2021
4320 Clouds 7 991 90 10000 1.54 90 00:40 11.12.2021
4321 Rain 7 992 89 10000 2.06 160 23:23 10.12.2021
4322 Rain 7 992 90 10000 0.89 73 21:57 10.12.2021
4323 Rain 8 993 89 10000 1.34 355 21:31 10.12.2021
4324 Rain 8 993 89 10000 1.34 142 19:22 10.12.2021
4325 Rain 7 994 89 10000 4.02 109 18:39 10.12.2021
4326 Rain 7 998 89 8000 1.34 123 16:57 10.12.2021
4327 Rain 8 998 90 8000 1.79 87 16:29 10.12.2021
4328 Mist 8 1000 85 2000 1.34 130 15:41 10.12.2021
4329 Mist 8 1000 83 2000 1.34 130 15:21 10.12.2021
4330 Clouds 8 1001 81 10000 4.92 167 13:52 10.12.2021
4331 Clouds 9 1002 79 7000 4.02 155 13:26 10.12.2021
4332 Clouds 9 1002 77 10000 3.13 172 12:45 10.12.2021
4333 Clear 8 1004 84 10000 0.45 129 11:30 10.12.2021
4334 Clear 7 1004 86 10000 1.03 0 10:38 10.12.2021
4335 Clear 5 1006 86 10000 0.45 89 08:58 10.12.2021
4336 Clear 3 1005 90 10000 1.03 0 06:59 10.12.2021
4337 Clear 5 1005 89 10000 1.03 0 02:50 10.12.2021
4338 Clear 6 1004 86 10000 1.03 0 00:55 10.12.2021
4339 Clear 6 1004 84 10000 2.57 150 23:37 09.12.2021
4340 Clear 7 1003 85 10000 3.09 170 22:32 09.12.2021
4341 Clouds 7 1004 83 10000 1.79 146 21:59 09.12.2021
4342 Clouds 7 1004 82 10000 2.57 10 21:19 09.12.2021
4343 Clouds 7 1003 80 10000 2.06 330 20:29 09.12.2021
4344 Clouds 8 1002 82 10000 3.6 100 19:22 09.12.2021
4345 Drizzle 8 1002 82 10000 0.45 44 18:49 09.12.2021
4346 Rain 8 1001 78 10000 0.45 19 17:57 09.12.2021
4347 Clouds 8 1001 76 10000 0.89 55 17:27 09.12.2021
4348 Clouds 9 1002 77 10000 2.24 30 16:56 09.12.2021
4349 Clouds 10 1000 71 10000 1.79 319 15:57 09.12.2021
4350 Clouds 11 1001 71 10000 0.89 246 14:51 09.12.2021
4351 Clouds 12 1000 67 10000 3.58 229 13:39 09.12.2021
4352 Clouds 11 1000 76 10000 4.47 236 12:47 09.12.2021
4353 Clouds 11 1001 84 10000 0.89 213 11:24 09.12.2021
4354 Clouds 9 1002 82 10000 1.54 90 09:44 09.12.2021
4355 Clouds 8 1000 91 10000 1.79 92 06:51 09.12.2021
4356 Clouds 10 1000 80 10000 0.89 246 03:46 09.12.2021
4357 Clouds 12 1001 89 10000 1.79 229 23:46 08.12.2021
4358 Clouds 12 1001 89 10000 1.34 251 23:26 08.12.2021
4359 Clouds 12 1000 90 10000 0.89 221 22:50 08.12.2021
4360 Clouds 12 1001 92 10000 1.79 242 21:46 08.12.2021
4361 Clouds 12 1000 91 9000 0.89 237 21:28 08.12.2021
4362 Clouds 12 1000 87 7000 1.79 235 20:18 08.12.2021
4363 Clouds 12 1000 89 7000 1.79 241 19:37 08.12.2021
4364 Rain 13 999 87 7000 2.68 279 18:53 08.12.2021
4365 Rain 13 999 87 7000 2.68 279 18:53 08.12.2021
4366 Rain 12 1000 87 7000 4.47 145 17:52 08.12.2021
4367 Clouds 10 1002 87 10000 6.26 136 15:59 08.12.2021
4368 Clouds 10 1003 85 8000 5.36 171 15:29 08.12.2021
4369 Clouds 10 1003 83 8000 4.02 132 14:52 08.12.2021
4370 Clouds 11 1005 62 10000 5.36 161 12:39 08.12.2021
4371 Clouds 10 1008 57 10000 4.92 120 10:32 08.12.2021
4372 Clear 9 1009 53 10000 3.58 173 09:31 08.12.2021
4373 Clouds 8 1009 56 10000 0.89 156 07:34 08.12.2021
4374 Clear 5 1011 64 10000 0.51 0 04:58 08.12.2021
4375 Clear 5 1012 66 10000 1.34 89 23:48 07.12.2021
4376 Clear 5 1012 66 10000 1.54 180 22:37 07.12.2021
4377 Clear 5 1012 61 10000 0.45 82 21:24 07.12.2021
4378 Clear 6 1012 56 10000 2.57 80 20:24 07.12.2021
4379 Clear 7 1012 51 10000 0.89 332 18:56 07.12.2021
4380 Clear 8 1012 49 10000 2.06 100 18:18 07.12.2021
4381 Clear 8 1013 46 10000 0.45 357 17:20 07.12.2021
4382 Clear 11 1011 40 10000 0.45 354 16:36 07.12.2021
4383 Clear 11 1011 37 10000 1.34 67 15:35 07.12.2021
4384 Clear 11 1011 42 10000 1.79 350 14:36 07.12.2021
4385 Clear 11 1011 44 10000 4.02 311 13:18 07.12.2021
4386 Clear 10 1011 51 10000 0.45 319 12:21 07.12.2021
4387 Clear 8 1011 63 10000 1.34 11 10:44 07.12.2021
4388 Clear 4 1011 73 10000 0.45 63 08:46 07.12.2021
4389 Clear 4 1009 71 10000 0.45 19 06:22 07.12.2021
4390 Clear 4 1008 71 10000 0.45 21 05:42 07.12.2021
4391 Clear 6 1007 68 10000 1.79 340 23:58 06.12.2021
4392 Clear 6 1007 73 10000 4.02 24 22:58 06.12.2021
4393 Clear 6 1007 73 10000 3.58 310 22:38 06.12.2021
4394 Clear 6 1006 73 10000 4.02 324 21:54 06.12.2021
4395 Clear 7 1005 72 10000 2.24 356 20:44 06.12.2021
4396 Clear 7 1005 67 10000 2.24 19 20:26 06.12.2021
4397 Clouds 7 1004 71 10000 2.68 276 19:23 06.12.2021
4398 Clouds 8 1004 66 10000 2.24 352 18:29 06.12.2021
4399 Clouds 8 1003 69 10000 4.47 41 17:51 06.12.2021
4400 Clear 9 1003 65 10000 3.13 288 16:49 06.12.2021
4401 Drizzle 9 1002 71 10000 1.79 243 15:45 06.12.2021
4402 Clear 9 1002 70 10000 0.45 326 13:46 06.12.2021
4403 Rain 8 1002 77 10000 0.89 41 12:40 06.12.2021
4404 Clear 8 1002 80 10000 0.89 23 11:48 06.12.2021
4405 Clouds 7 1001 82 10000 0.45 34 09:20 06.12.2021
4406 Clouds 6 999 84 10000 1.79 21 06:43 06.12.2021
4407 Clear 8 1000 79 10000 0.89 47 23:52 05.12.2021
4408 Clouds 9 1000 82 10000 0.89 46 21:52 05.12.2021
4409 Clouds 9 1001 81 10000 5.14 130 21:24 05.12.2021
4410 Clouds 9 1001 79 10000 1.79 88 20:19 05.12.2021
4411 Clouds 9 1001 79 10000 1.34 79 19:36 05.12.2021
4412 Clouds 10 1001 80 10000 0.89 83 19:18 05.12.2021
4413 Clouds 10 1001 74 10000 0.45 109 18:20 05.12.2021
4414 Clouds 11 1001 74 10000 0.45 158 17:49 05.12.2021
4415 Clouds 12 1001 70 10000 0.89 149 16:50 05.12.2021
4416 Clouds 12 1001 66 10000 0.89 213 16:27 05.12.2021
4417 Clouds 13 1001 65 10000 0.89 201 15:58 05.12.2021
4418 Clouds 14 1001 62 10000 0.89 225 14:45 05.12.2021
4419 Clouds 14 1001 61 10000 3.58 241 14:26 05.12.2021
4420 Clouds 14 1002 68 10000 4.02 238 13:27 05.12.2021
4421 Clouds 14 1002 69 10000 3.58 200 12:40 05.12.2021
4422 Clouds 14 1002 67 10000 4.02 238 12:18 05.12.2021
4423 Clouds 14 1003 70 9000 4.47 233 11:34 05.12.2021
4424 Clouds 14 1004 73 9000 4.02 279 10:19 05.12.2021
4425 Clouds 13 1003 83 8000 0.45 181 08:45 05.12.2021
4426 Clear 13 1004 84 10000 2.24 211 04:56 05.12.2021
4427 Clouds 13 1006 84 10000 2.24 242 01:22 05.12.2021
4428 Clouds 13 1008 82 10000 3.13 227 22:24 04.12.2021
4429 Clouds 12 1008 83 10000 2.68 224 21:20 04.12.2021
4430 Clouds 12 1009 84 8000 1.79 192 20:27 04.12.2021
4431 Clouds 11 1010 85 8000 1.34 175 19:32 04.12.2021
4432 Clouds 10 1010 83 7000 2.24 188 18:22 04.12.2021
4433 Clouds 11 1010 72 10000 4.02 153 17:42 04.12.2021
4434 Rain 11 1010 71 10000 1.79 101 17:19 04.12.2021
4435 Clouds 12 1010 63 10000 1.79 160 16:42 04.12.2021
4436 Clouds 12 1011 61 10000 0.89 150 16:23 04.12.2021
4437 Clear 10 1013 74 10000 1.03 0 11:56 04.12.2021
4438 Clear 10 1013 78 10000 1.03 0 11:33 04.12.2021
4439 Clear 9 1013 80 10000 1.54 80 10:56 04.12.2021
4440 Clear 5 1013 88 10000 0.89 49 08:52 04.12.2021
4441 Clear 4 1013 90 10000 0.51 0 08:27 04.12.2021
4442 Clear 5 1011 85 10000 2.57 70 04:42 04.12.2021
4443 Clear 6 1010 81 10000 3.6 80 00:49 04.12.2021
4444 Clear 7 1010 80 10000 0.45 42 23:29 03.12.2021
4445 Clear 7 1010 82 10000 0.89 20 22:50 03.12.2021
4446 Clear 8 1009 81 10000 0.45 56 21:50 03.12.2021
4447 Clear 9 1008 80 10000 0.89 6 20:56 03.12.2021
4448 Clear 9 1008 80 10000 0.45 84 20:26 03.12.2021
4449 Clear 10 1007 76 10000 2.24 1 18:49 03.12.2021
4450 Clear 10 1006 76 10000 1.79 18 18:20 03.12.2021
4451 Clear 11 1006 74 10000 2.68 319 17:29 03.12.2021
4452 Clouds 13 1005 80 10000 3.6 60 13:35 03.12.2021
4453 Clear 12 1004 84 10000 3.09 20 12:20 03.12.2021
4454 Clouds 11 1003 87 10000 1.79 71 10:58 03.12.2021
4455 Clouds 9 1001 85 10000 3.09 140 08:31 03.12.2021
4456 Clouds 9 1001 84 10000 0.45 143 07:43 03.12.2021
4457 Clear 9 1000 87 10000 3.6 160 06:40 03.12.2021
4458 Clouds 11 999 86 10000 2.06 180 00:49 03.12.2021
4459 Clouds 11 999 84 10000 0.89 270 23:48 02.12.2021
4460 Clear 11 998 82 10000 1.79 235 22:48 02.12.2021
4461 Clouds 12 998 88 10000 2.24 240 21:41 02.12.2021
4462 Clouds 12 998 86 10000 3.09 200 20:45 02.12.2021
4463 Clouds 12 998 87 10000 3.09 210 20:22 02.12.2021
4464 Clouds 12 999 88 10000 1.79 200 18:47 02.12.2021
4465 Rain 12 998 85 8000 1.79 232 16:43 02.12.2021
4466 Rain 12 998 89 5000 1.79 215 15:41 02.12.2021
4467 Thunderstorm 12 997 89 7000 6.69 220 14:52 02.12.2021
4468 Thunderstorm 13 999 91 4000 3.58 258 13:39 02.12.2021
4469 Rain 13 1000 89 5000 3.58 161 12:25 02.12.2021
4470 Rain 13 1002 90 4500 1.79 179 10:42 02.12.2021
4471 Clouds 13 1002 90 10000 2.24 150 09:26 02.12.2021
4472 Rain 12 1003 92 10000 1.79 183 07:19 02.12.2021
4473 Clouds 12 1007 90 10000 1.79 154 01:26 02.12.2021
4474 Clouds 12 1008 90 10000 2.24 161 00:26 02.12.2021
4475 Clouds 12 1010 89 8000 1.34 161 22:31 01.12.2021
4476 Rain 12 1010 90 8000 0.89 144 21:44 01.12.2021
4477 Rain 11 1011 86 10000 0.89 191 20:24 01.12.2021
4478 Rain 11 1011 86 10000 4.02 150 19:43 01.12.2021
4479 Rain 11 1011 85 10000 1.79 154 18:47 01.12.2021
4480 Clouds 11 1012 87 4000 3.09 150 17:24 01.12.2021
4481 Rain 12 1013 87 6000 3.09 150 16:21 01.12.2021
4482 Clouds 11 1014 86 9000 5.14 160 14:30 01.12.2021
4483 Clouds 11 1015 81 10000 3.09 120 13:37 01.12.2021
4484 Clouds 10 1017 83 10000 1.54 120 10:44 01.12.2021
4485 Clouds 9 1017 81 10000 1.54 120 10:22 01.12.2021
4486 Clouds 9 1014 75 10000 5.33 145 08:52 01.12.2021
4487 Clouds 9 1016 73 10000 6.69 140 07:59 01.12.2021
4488 Clouds 8 1016 72 10000 6.17 150 07:31 01.12.2021
4489 Clouds 7 1018 63 10000 3.09 140 03:57 01.12.2021
4490 Clouds 7 1018 58 10000 3.09 150 03:27 01.12.2021
4491 Clear 5 1019 73 10000 2.57 100 00:34 01.12.2021
4492 Clear 5 1019 71 10000 2.57 90 23:29 30.11.2021
4493 Clear 5 1019 70 10000 3.09 90 22:32 30.11.2021
4494 Clear 5 1021 75 10000 2.06 100 20:47 30.11.2021
4495 Clear 6 1019 66 10000 2.57 90 20:26 30.11.2021
4496 Clear 6 1019 68 10000 2.57 110 19:39 30.11.2021
4497 Clear 7 1019 65 10000 2.57 110 18:54 30.11.2021
4498 Clear 8 1019 59 10000 1.03 0 17:46 30.11.2021
4499 Clear 11 1018 39 10000 2.06 340 16:19 30.11.2021
4500 Clear 11 1019 34 10000 1.54 10 14:35 30.11.2021
4501 Clear 11 1020 46 10000 1.54 100 13:41 30.11.2021
4502 Clear 10 1017 58 10000 3.09 10 12:54 30.11.2021
4503 Clear 10 1019 63 10000 3.09 360 12:21 30.11.2021
4504 Clear 9 1019 64 10000 3.6 30 11:26 30.11.2021
4505 Clear 7 1018 70 10000 3.6 30 10:36 30.11.2021
4506 Clear 4 1016 77 10000 2.57 60 08:58 30.11.2021
4507 Clear 4 1016 80 10000 0.51 0 08:32 30.11.2021
4508 Clear 3 1015 80 10000 3.09 20 07:59 30.11.2021
4509 Clear 3 1013 80 10000 3.6 40 06:38 30.11.2021
4510 Clear 5 1011 75 10000 1.34 346 01:50 30.11.2021
4511 Clear 5 1010 75 10000 1.34 341 01:28 30.11.2021
4512 Clouds 5 1008 78 10000 2.24 11 23:40 29.11.2021
4513 Clouds 5 1007 78 10000 1.79 325 23:19 29.11.2021
4514 Clear 5 1006 80 10000 2.68 350 22:38 29.11.2021
4515 Clear 5 1005 80 10000 1.79 1 21:56 29.11.2021
4516 Clear 5 1005 76 10000 3.13 350 21:20 29.11.2021
4517 Clouds 5 1004 76 10000 2.24 316 20:48 29.11.2021
4518 Clouds 6 1002 82 10000 1.34 11 19:59 29.11.2021
4519 Clouds 5 1002 82 10000 1.34 297 19:41 29.11.2021
4520 Clouds 6 1001 82 10000 0.89 342 19:21 29.11.2021
4521 Clouds 6 1001 80 10000 5.53 344 18:42 29.11.2021
4522 Clouds 6 998 85 10000 5.52 347 17:22 29.11.2021
4523 Clouds 6 998 85 10000 5.52 347 16:50 29.11.2021
4524 Clouds 8 997 84 10000 4.8 353 16:24 29.11.2021
4525 Clouds 9 995 74 10000 3.18 35 14:47 29.11.2021
4526 Clouds 10 995 71 10000 2.55 84 14:23 29.11.2021
4527 Clouds 10 994 69 10000 2.33 120 12:59 29.11.2021
4528 Clouds 11 994 65 10000 2.33 180 12:19 29.11.2021
4529 Clouds 11 995 64 8965 3.18 200 11:28 29.11.2021
4530 Rain 10 995 68 8356 3.84 206 09:59 29.11.2021
4531 Clouds 8 995 81 10000 2.57 140 07:47 29.11.2021
4532 Rain 10 995 61 10000 2.57 240 05:51 29.11.2021
4533 Clouds 10 996 71 10000 2.57 210 01:24 29.11.2021
4534 Rain 9 997 71 10000 2.57 190 23:59 28.11.2021
4535 Clouds 11 997 66 10000 2.57 200 23:40 28.11.2021
4536 Clouds 10 997 66 10000 2.57 210 22:20 28.11.2021
4537 Clouds 11 997 66 10000 2.06 220 21:39 28.11.2021
4538 Clouds 11 997 66 10000 2.57 220 20:44 28.11.2021
4539 Clouds 11 997 66 10000 2.57 180 19:51 28.11.2021
4540 Clouds 11 997 66 10000 2.57 170 18:40 28.11.2021
4541 Clouds 11 997 62 10000 2.06 200 18:22 28.11.2021
4542 Clouds 11 996 58 10000 3.09 250 17:45 28.11.2021
4543 Clouds 12 996 56 10000 4.63 230 16:48 28.11.2021
4544 Clouds 12 996 56 10000 4.63 230 16:28 28.11.2021
4545 Clouds 13 996 56 10000 5.14 250 15:50 28.11.2021
4546 Clouds 13 996 60 10000 5.14 240 14:55 28.11.2021
4547 Clouds 13 996 60 10000 5.14 240 14:28 28.11.2021
4548 Clouds 13 996 60 10000 5.14 240 14:28 28.11.2021
4549 Clouds 13 997 66 10000 2.57 240 12:54 28.11.2021
4550 Clouds 13 997 71 10000 1.54 190 11:51 28.11.2021
4551 Clouds 13 997 74 10000 1.54 210 10:37 28.11.2021
4552 Drizzle 12 997 82 8000 2.06 230 09:56 28.11.2021
4553 Drizzle 12 997 82 8000 2.06 230 09:36 28.11.2021
4554 Clouds 11 998 82 10000 3.6 180 00:53 28.11.2021
4555 Clouds 12 998 71 10000 4.63 170 22:58 27.11.2021
4556 Clouds 12 999 81 10000 2.57 170 19:51 27.11.2021
4557 Clouds 13 999 71 10000 2.57 200 18:44 27.11.2021
4558 Clouds 15 998 60 10000 3.6 230 16:19 27.11.2021
4559 Clouds 15 998 58 10000 4.12 240 15:32 27.11.2021
4560 Clouds 15 998 63 10000 3.6 220 13:40 27.11.2021
4561 Clouds 15 998 63 10000 4.12 240 12:19 27.11.2021
4562 Clouds 14 999 77 10000 2.06 250 10:30 27.11.2021
4563 Clouds 13 999 77 10000 1.54 190 09:25 27.11.2021
4564 Clouds 14 999 71 10000 3.6 210 07:43 27.11.2021
4565 Clouds 12 1000 76 10000 3.09 200 04:53 27.11.2021
4566 Clouds 13 1000 82 10000 4.12 250 00:26 27.11.2021
4567 Clouds 12 999 87 10000 3.6 220 22:51 26.11.2021
4568 Clouds 12 999 87 10000 2.57 170 22:24 26.11.2021
4569 Drizzle 11 999 87 7000 3.6 210 21:33 26.11.2021
4570 Clouds 10 999 87 10000 1.03 0 20:42 26.11.2021
4571 Clouds 10 998 87 10000 2.06 190 19:56 26.11.2021
4572 Rain 12 998 93 10000 2.57 170 19:27 26.11.2021
4573 Rain 12 996 87 6000 3.6 0 17:54 26.11.2021
4574 Rain 12 996 87 6000 3.6 0 17:21 26.11.2021
4575 Clouds 12 997 87 7000 2.06 170 15:29 26.11.2021
4576 Rain 13 998 85 8000 0.89 154 13:35 26.11.2021
4577 Mist 12 998 89 1200 0.89 145 11:58 26.11.2021
4578 Rain 13 999 87 9000 1.34 171 10:37 26.11.2021
4579 Clouds 11 998 84 10000 0.89 150 08:57 26.11.2021
4580 Clouds 11 999 83 10000 1.34 152 08:21 26.11.2021
4581 Clouds 10 999 82 10000 2.24 156 07:25 26.11.2021
4582 Clouds 11 999 80 10000 2.24 183 06:26 26.11.2021
4583 Fog 10 1000 86 5000 0.89 125 03:56 26.11.2021
4584 Fog 11 1001 82 1200 0.51 0 01:53 26.11.2021
4585 Clouds 11 1003 85 6000 0.51 0 22:46 25.11.2021
4586 Rain 12 1004 87 4000 2.57 60 21:26 25.11.2021
4587 Rain 12 1005 88 3000 0.89 72 20:27 25.11.2021
4588 Rain 12 1004 89 6000 1.54 310 18:46 25.11.2021
4589 Rain 12 1005 90 4000 3.09 110 17:47 25.11.2021
4590 Rain 13 1005 88 4000 3.09 110 17:25 25.11.2021
4591 Rain 13 1005 83 6000 4.63 110 16:32 25.11.2021
4592 Clouds 14 1005 80 10000 3.6 150 14:59 25.11.2021
4593 Clouds 14 1007 83 10000 6.69 120 13:26 25.11.2021
4594 Clouds 14 1008 86 10000 5.14 110 12:23 25.11.2021
4595 Rain 13 1007 89 10000 4.12 100 11:48 25.11.2021
4596 Clouds 12 1010 86 3000 0.51 0 09:26 25.11.2021
4597 Clear 13 1008 76 10000 5.66 140 05:48 25.11.2021
4598 Clear 14 1010 62 10000 6.69 150 02:48 25.11.2021
4599 Clouds 14 1013 63 10000 2.68 63 22:55 24.11.2021
4600 Clouds 14 1013 63 10000 3.58 36 22:23 24.11.2021
4601 Clouds 14 1013 66 10000 1.34 97 21:29 24.11.2021
4602 Clouds 14 1014 66 10000 6.17 130 20:50 24.11.2021
4603 Clouds 14 1014 68 10000 0.89 72 20:19 24.11.2021
4604 Clear 14 1014 66 10000 0.89 97 18:30 24.11.2021
4605 Clear 15 1014 61 10000 0.45 31 17:53 24.11.2021
4606 Clear 18 1015 53 10000 0.45 11 15:23 24.11.2021
4607 Clear 18 1016 54 10000 1.54 40 14:47 24.11.2021
4608 Clear 18 1017 54 10000 0.89 57 14:20 24.11.2021
4609 Clear 17 1017 57 10000 0.89 30 12:34 24.11.2021
4610 Clear 15 1017 64 10000 0.45 36 11:21 24.11.2021
4611 Clear 14 1018 67 10000 0.45 37 10:48 24.11.2021
4612 Clear 14 1018 68 10000 0.45 44 10:22 24.11.2021
4613 Clear 10 1017 80 10000 0.45 64 07:54 24.11.2021
4614 Clear 10 1017 77 10000 0.89 11 06:54 24.11.2021
4615 Clear 11 1018 78 10000 1.34 19 03:51 24.11.2021
4616 Clear 13 1018 73 10000 0.89 27 00:43 24.11.2021
4617 Clouds 13 1018 74 10000 0.89 1 22:40 23.11.2021
4618 Clouds 13 1018 75 10000 1.34 346 22:18 23.11.2021
4619 Clear 13 1018 69 10000 1.34 57 21:44 23.11.2021
4620 Clouds 14 1015 69 10000 1.79 39 19:37 23.11.2021
4621 Clouds 14 1015 69 10000 0.89 11 18:42 23.11.2021
4622 Clouds 14 1015 69 10000 1.34 353 18:20 23.11.2021
4623 Clouds 15 1016 70 10000 1.79 52 16:58 23.11.2021
4624 Clouds 16 1015 65 10000 0.89 327 15:59 23.11.2021
4625 Clouds 16 1015 65 10000 1.79 52 15:22 23.11.2021
4626 Clouds 16 1015 71 10000 3.6 340 14:22 23.11.2021
4627 Clear 15 1015 78 10000 1.34 36 11:42 23.11.2021
4628 Clouds 14 1013 85 10000 0.89 59 09:59 23.11.2021
4629 Clear 13 1013 88 10000 0.89 11 09:18 23.11.2021
4630 Drizzle 13 1011 87 10000 1.79 66 06:41 23.11.2021
4631 Clear 13 1011 88 10000 2.24 52 03:51 23.11.2021
4632 Clear 13 1011 87 10000 1.54 50 00:58 23.11.2021
4633 Clear 13 1011 88 10000 1.03 0 23:21 22.11.2021
4634 Clouds 13 1010 86 10000 2.06 100 22:34 22.11.2021
4635 Clouds 13 1010 86 10000 2.06 80 21:49 22.11.2021
4636 Clouds 13 1010 86 10000 2.57 110 21:31 22.11.2021
4637 Clouds 14 1010 85 10000 2.06 90 20:52 22.11.2021
4638 Clouds 14 1009 82 10000 2.06 90 19:55 22.11.2021
4639 Clouds 14 1009 84 10000 0.45 45 19:19 22.11.2021
4640 Clouds 14 1010 82 10000 0.89 78 18:39 22.11.2021
4641 Clouds 15 1008 79 10000 6.69 110 17:20 22.11.2021
4642 Clouds 16 1007 76 10000 3.09 100 15:47 22.11.2021
4643 Clouds 16 1007 73 10000 0.45 65 13:58 22.11.2021
4644 Clouds 16 1008 75 10000 2.57 90 11:59 22.11.2021
4645 Clouds 15 1008 87 10000 0.45 117 10:41 22.11.2021
4646 Clouds 13 1008 87 6000 0.45 64 09:26 22.11.2021
4647 Mist 13 1008 87 4000 0.45 75 08:40 22.11.2021
4648 Clouds 13 1007 86 10000 3.09 180 04:36 22.11.2021
4649 Clouds 13 1010 82 10000 1.54 130 23:26 21.11.2021
4650 Clouds 13 1010 82 10000 2.06 130 22:48 21.11.2021
4651 Clouds 13 1010 82 10000 2.06 150 21:53 21.11.2021
4652 Clouds 13 1011 81 8000 1.54 170 20:42 21.11.2021
4653 Clouds 13 1011 83 10000 1.03 0 19:48 21.11.2021
4654 Clouds 14 1011 76 10000 0.51 170 18:24 21.11.2021
4655 Clear 15 1011 76 10000 0.51 0 17:38 21.11.2021
4656 Clear 17 1012 67 10000 2.06 210 15:49 21.11.2021
4657 Clear 17 1012 72 10000 1.03 0 14:45 21.11.2021
4658 Clear 17 1014 75 10000 0.45 259 13:46 21.11.2021
4659 Clear 17 1014 77 10000 2.06 340 12:37 21.11.2021
4660 Clear 16 1014 77 10000 1.54 350 11:43 21.11.2021
4661 Clear 15 1014 80 10000 1.54 350 11:24 21.11.2021
4662 Clear 14 1016 81 10000 1.54 40 10:18 21.11.2021
4663 Fog 10 1016 100 100 1.03 0 08:42 21.11.2021
4664 Fog 9 1015 93 100 1.03 0 08:23 21.11.2021
4665 Clear 9 1015 90 7000 1.54 60 07:47 21.11.2021
4666 Fog 9 1015 89 7000 0.89 67 05:53 21.11.2021
4667 Fog 9 1015 91 7000 0.45 50 05:25 21.11.2021
4668 Clear 10 1017 88 7000 0.45 11 03:19 21.11.2021
4669 Clear 10 1016 83 10000 1.52 30 02:51 21.11.2021
4670 Clear 11 1018 87 7000 2.06 360 00:59 21.11.2021
4671 Clear 11 1018 88 8000 0.51 0 23:47 20.11.2021
4672 Clear 12 1019 87 10000 1.03 140 21:41 20.11.2021
4673 Clear 12 1019 87 10000 0.45 101 21:23 20.11.2021
4674 Clear 14 1019 78 10000 1.54 170 18:46 20.11.2021
4675 Clear 14 1020 76 10000 1.54 210 18:26 20.11.2021
4676 Clear 16 1020 68 10000 0.89 273 17:26 20.11.2021
4677 Clear 17 1020 61 10000 0.45 255 16:46 20.11.2021
4678 Clear 19 1021 59 10000 0.89 306 14:46 20.11.2021
4679 Clear 19 1021 59 10000 1.03 0 14:23 20.11.2021
4680 Clear 17 1023 67 10000 0.45 11 12:22 20.11.2021
4681 Clear 15 1025 77 10000 2.57 10 10:35 20.11.2021
4682 Clear 14 1024 83 10000 1.03 0 09:39 20.11.2021
4683 Clear 9 1023 85 10000 1.03 80 07:28 20.11.2021
4684 Clear 10 1023 85 10000 1.34 24 05:27 20.11.2021
4685 Clear 10 1023 84 10000 0.45 67 04:50 20.11.2021
4686 Clear 11 1024 81 10000 0.51 0 01:55 20.11.2021
4687 Clear 12 1025 80 10000 0.45 36 00:40 20.11.2021
4688 Clear 12 1025 83 10000 1.03 0 22:58 19.11.2021
4689 Clear 13 1025 83 10000 1.54 100 21:58 19.11.2021
4690 Clear 13 1024 84 10000 1.03 180 20:58 19.11.2021
4691 Clear 13 1024 84 10000 1.03 180 20:36 19.11.2021
4692 Clear 13 1025 84 10000 1.03 0 19:55 19.11.2021
4693 Clear 14 1025 82 10000 1.03 150 18:54 19.11.2021
4694 Clear 15 1025 81 10000 1.03 180 18:23 19.11.2021
4695 Clear 16 1024 73 10000 1.03 0 17:31 19.11.2021
4696 Clear 18 1024 62 10000 1.34 304 15:51 19.11.2021
4697 Clear 18 1026 62 10000 1.54 360 13:28 19.11.2021
4698 Clear 14 1026 84 10000 0.89 331 10:27 19.11.2021
4699 Clear 13 1026 89 10000 0.51 0 09:37 19.11.2021
4700 Clear 11 1026 88 10000 0.45 22 08:20 19.11.2021
4701 Clear 11 1024 83 10000 0.45 75 04:52 19.11.2021
4702 Clear 11 1024 84 10000 0.45 23 02:35 19.11.2021
4703 Clear 12 1024 82 10000 0.89 46 23:51 18.11.2021
4704 Clear 13 1024 82 10000 0.45 29 21:56 18.11.2021
4705 Clear 14 1023 81 10000 0.45 15 20:49 18.11.2021
4706 Clear 14 1023 82 10000 0.51 0 20:31 18.11.2021
4707 Clear 14 1023 81 10000 2.06 160 19:52 18.11.2021
4708 Clear 14 1022 81 10000 2.06 160 19:33 18.11.2021
4709 Clear 15 1022 77 10000 1.54 220 18:33 18.11.2021
4710 Clear 15 1021 76 10000 2.06 260 17:51 18.11.2021
4711 Clear 18 1021 63 10000 0.45 250 16:44 18.11.2021
4712 Clear 19 1020 57 10000 2.06 320 15:46 18.11.2021
4713 Clear 19 1021 61 10000 0.45 317 13:40 18.11.2021
4714 Clear 18 1021 65 10000 0.89 67 12:34 18.11.2021
4715 Clear 17 1021 70 10000 0.45 40 11:43 18.11.2021
4716 Clear 16 1021 75 10000 1.79 87 11:24 18.11.2021
4717 Clear 14 1021 83 10000 0.51 0 09:44 18.11.2021
4718 Clear 11 1019 88 10000 0.45 39 07:35 18.11.2021
4719 Clouds 12 1018 86 10000 3.09 70 05:57 18.11.2021
4720 Clouds 12 1018 86 10000 0.45 44 05:38 18.11.2021
4721 Clear 13 1017 88 10000 2.24 58 01:24 18.11.2021
4722 Clear 13 1017 88 10000 2.24 34 01:24 18.11.2021
4723 Clouds 14 1017 85 10000 1.03 80 23:19 17.11.2021
4724 Clouds 14 1017 86 10000 0.51 0 22:34 17.11.2021
4725 Clouds 14 1017 85 10000 1.54 80 21:54 17.11.2021
4726 Clouds 14 1017 85 10000 1.54 80 21:34 17.11.2021
4727 Clouds 15 1015 85 10000 0.45 67 19:22 17.11.2021
4728 Clear 15 1014 82 10000 1.54 350 17:31 17.11.2021
4729 Clouds 17 1014 75 10000 0.89 59 14:53 17.11.2021
4730 Clear 17 1014 80 10000 1.34 53 12:42 17.11.2021
4731 Clouds 16 1014 84 10000 3.6 50 11:52 17.11.2021
4732 Clouds 14 1014 95 10000 1.03 0 10:50 17.11.2021
4733 Clouds 12 1015 86 10000 0.89 59 09:27 17.11.2021
4734 Clouds 12 1013 87 10000 1.34 1 07:46 17.11.2021
4735 Clear 12 1013 88 10000 0.89 17 06:20 17.11.2021
4736 Clear 11 1013 87 10000 1.79 16 02:43 17.11.2021
4737 Clear 12 1013 89 10000 0.89 65 23:27 16.11.2021
4738 Clear 13 1013 87 10000 1.79 11 21:51 16.11.2021
4739 Clouds 13 1013 87 10000 2.68 48 20:19 16.11.2021
4740 Clouds 13 1013 89 10000 0.45 85 19:23 16.11.2021
4741 Clouds 13 1013 90 10000 1.34 1 18:38 16.11.2021
4742 Clouds 14 1013 88 9000 1.54 10 17:44 16.11.2021
4743 Clouds 14 1013 89 8000 0.45 44 16:59 16.11.2021
4744 Clouds 14 1013 89 9000 0.45 37 16:19 16.11.2021
4745 Clouds 15 1013 90 8000 3.6 20 15:41 16.11.2021
4746 Rain 14 1013 86 2000 0.45 32 12:43 16.11.2021
4747 Drizzle 14 1013 89 10000 0.51 0 10:21 16.11.2021
4748 Rain 13 1013 88 10000 1.03 0 09:38 16.11.2021
4749 Rain 13 1012 87 7000 0.89 77 07:41 16.11.2021
4750 Rain 13 1012 89 8000 0.89 88 06:43 16.11.2021
4751 Clear 13 1014 85 10000 0.51 0 23:26 15.11.2021
4752 Clear 13 1014 85 10000 0.51 0 22:40 15.11.2021
4753 Clear 13 1014 83 10000 0.51 0 21:56 15.11.2021
4754 Clear 14 1014 84 10000 0.51 0 21:30 15.11.2021
4755 Clear 14 1014 83 10000 0.51 0 20:32 15.11.2021
4756 Clear 15 1013 79 10000 0.51 0 19:18 15.11.2021
4757 Clear 17 1013 70 10000 1.03 0 17:31 15.11.2021
4758 Clear 19 1012 59 10000 0.45 220 15:50 15.11.2021
4759 Clear 19 1012 54 10000 0.45 240 15:32 15.11.2021
4760 Clear 20 1014 50 10000 0.45 179 14:18 15.11.2021
4761 Clouds 19 1013 61 10000 0.89 135 12:21 15.11.2021
4762 Clouds 15 1013 86 10000 1.54 50 09:59 15.11.2021
4763 Clouds 14 1014 87 10000 0.89 55 09:19 15.11.2021
4764 Clouds 14 1012 84 10000 1.74 113 06:54 15.11.2021
4765 Clear 13 1012 86 10000 3.13 63 00:37 15.11.2021
4766 Clouds 13 1012 86 8000 2.24 52 22:44 14.11.2021
4767 Rain 13 1013 85 7000 0.45 27 21:18 14.11.2021
4768 Thunderstorm 13 1013 88 4000 0.89 92 19:18 14.11.2021
4769 Thunderstorm 14 1013 88 5000 1.34 77 18:54 14.11.2021
4770 Thunderstorm 14 1013 90 5000 2.06 80 18:36 14.11.2021
4771 Rain 14 1012 90 5000 1.03 0 18:18 14.11.2021
4772 Rain 14 1012 88 8000 0.45 98 17:58 14.11.2021
4773 Rain 14 1012 87 10000 1.34 96 17:39 14.11.2021
4774 Rain 14 1012 89 10000 0.89 112 17:21 14.11.2021
4775 Rain 14 1011 88 8000 2.68 59 16:57 14.11.2021
4776 Rain 14 1012 86 10000 3.58 106 16:39 14.11.2021
4777 Rain 14 1011 84 10000 5.66 120 16:18 14.11.2021
4778 Rain 15 1013 86 10000 4.63 110 15:19 14.11.2021
4779 Rain 16 1013 75 10000 3.6 110 14:43 14.11.2021
4780 Rain 16 1012 78 10000 3.6 110 14:20 14.11.2021
4781 Rain 17 1012 74 10000 2.68 147 13:51 14.11.2021
4782 Clouds 17 1012 72 10000 4.02 126 13:26 14.11.2021
4783 Clear 17 1012 76 10000 3.58 153 12:22 14.11.2021
4784 Clouds 16 1012 79 10000 2.68 38 10:58 14.11.2021
4785 Clouds 16 1012 82 10000 0.89 77 10:36 14.11.2021
4786 Clear 14 1012 87 10000 0.89 56 09:26 14.11.2021
4787 Clear 13 1012 84 10000 3.6 100 08:51 14.11.2021
4788 Clear 12 1013 89 10000 0.51 0 04:46 14.11.2021
4789 Clouds 13 1015 85 8000 2.06 140 22:31 13.11.2021
4790 Clouds 14 1015 83 8000 2.06 130 21:59 13.11.2021
4791 Clouds 14 1015 83 8000 2.06 130 21:32 13.11.2021
4792 Clouds 14 1015 86 6000 2.06 120 20:43 13.11.2021
4793 Clouds 15 1015 83 10000 1.54 180 18:54 13.11.2021
4794 Clouds 15 1015 80 10000 1.54 180 18:32 13.11.2021
4795 Clear 16 1015 74 10000 0.45 233 17:34 13.11.2021
4796 Clouds 19 1015 61 10000 0.89 257 15:45 13.11.2021
4797 Clear 19 1015 65 10000 0.45 142 14:43 13.11.2021
4798 Clear 19 1017 71 10000 1.34 248 13:47 13.11.2021
4799 Clear 19 1017 77 10000 1.54 340 12:43 13.11.2021
4800 Clouds 17 1018 84 8000 0.45 282 11:46 13.11.2021
4801 Clouds 17 1017 86 8000 1.54 350 11:18 13.11.2021
4802 Clear 17 1019 82 10000 1.54 20 10:32 13.11.2021
4803 Clear 15 1016 89 10000 1.54 30 09:45 13.11.2021
4804 Fog 14 1017 91 400 2.06 350 09:22 13.11.2021
4805 Clear 13 1018 82 10000 1.54 70 08:42 13.11.2021
4806 Clear 11 1017 86 10000 1.03 0 07:26 13.11.2021
4807 Clear 12 1017 89 10000 0.89 25 04:40 13.11.2021
4808 Clear 12 1017 88 10000 1.34 51 02:59 13.11.2021
4809 Clear 14 1018 89 10000 0.45 34 23:35 12.11.2021
4810 Clouds 14 1018 87 10000 1.54 130 21:54 12.11.2021
4811 Clouds 15 1017 85 10000 3.09 130 20:46 12.11.2021
4812 Clouds 15 1017 85 10000 2.06 170 19:32 12.11.2021
4813 Clouds 16 1017 82 10000 2.57 220 18:57 12.11.2021
4814 Clouds 16 1017 81 10000 1.54 230 18:18 12.11.2021
4815 Clouds 16 1017 81 10000 1.54 230 18:18 12.11.2021
4816 Clouds 19 1016 70 10000 1.79 191 15:54 12.11.2021
4817 Clouds 19 1016 78 10000 0.89 163 13:27 12.11.2021
4818 Clouds 17 1017 82 10000 0.45 22 11:24 12.11.2021
4819 Clouds 17 1017 82 10000 0.45 22 11:24 12.11.2021
4820 Clouds 16 1017 87 10000 1.54 360 10:20 12.11.2021
4821 Clouds 16 1017 87 10000 1.54 360 10:20 12.11.2021
4822 Clouds 14 1016 83 10000 0.45 78 08:55 12.11.2021
4823 Rain 14 1016 86 10000 0.89 78 06:37 12.11.2021
4824 Clouds 16 1016 87 10000 1.79 11 00:21 12.11.2021
4825 Clouds 16 1017 88 8000 1.79 22 23:27 11.11.2021
4826 Drizzle 17 1017 87 8000 1.34 87 21:57 11.11.2021
4827 Rain 16 1018 88 8000 0.45 40 21:26 11.11.2021
4828 Clouds 17 1018 86 8000 1.54 200 19:56 11.11.2021
4829 Rain 17 1018 89 10000 2.06 70 18:27 11.11.2021
4830 Rain 17 1018 89 10000 2.06 70 18:27 11.11.2021
4831 Clear 17 1018 88 10000 0.89 26 17:41 11.11.2021
4832 Clear 19 1018 86 10000 1.34 75 15:41 11.11.2021
4833 Clear 19 1018 86 10000 0.45 57 14:39 11.11.2021
4834 Rain 19 1018 86 10000 0.89 59 14:21 11.11.2021
4835 Clear 18 1019 88 10000 0.45 102 13:35 11.11.2021
4836 Clear 18 1019 82 10000 0.45 156 12:27 11.11.2021
4837 Clouds 16 1020 82 7000 1.34 53 09:58 11.11.2021
4838 Clouds 16 1020 86 3000 1.79 40 09:22 11.11.2021
4839 Rain 15 1021 84 1500 1.79 36 07:33 11.11.2021
4840 Rain 16 1021 85 10000 3.6 90 00:40 11.11.2021
4841 Clouds 16 1021 87 10000 2.68 63 22:46 10.11.2021
4842 Clouds 16 1021 88 6000 2.68 77 21:54 10.11.2021
4843 Rain 16 1021 85 9000 1.79 83 20:56 10.11.2021
4844 Rain 16 1020 89 9000 4.12 110 20:25 10.11.2021
4845 Rain 16 1023 84 8000 4.12 90 19:45 10.11.2021
4846 Rain 18 1021 82 2000 8.23 200 17:28 10.11.2021
4847 Clouds 22 1020 55 10000 4.92 171 15:47 10.11.2021
4848 Clouds 22 1019 55 10000 4.92 152 14:25 10.11.2021
4849 Clear 23 1019 50 10000 4.02 144 13:37 10.11.2021
4850 Clear 23 1020 50 10000 5.81 175 12:24 10.11.2021
4851 Clouds 19 1020 69 10000 2.57 350 09:21 10.11.2021
4852 Clouds 18 1020 74 10000 2.68 179 08:41 10.11.2021
4853 Clear 15 1019 83 10000 4.02 69 06:45 10.11.2021
4854 Clear 15 1019 85 10000 2.68 57 05:58 10.11.2021
4855 Clear 15 1019 84 10000 2.24 54 01:57 10.11.2021
4856 Clouds 17 1020 82 10000 0.45 24 22:29 09.11.2021
4857 Clouds 17 1020 83 10000 0.45 6 20:43 09.11.2021
4858 Rain 17 1020 81 10000 0.89 81 19:33 09.11.2021
4859 Rain 17 1020 81 8000 1.34 45 18:49 09.11.2021
4860 Clouds 18 1019 80 10000 0.89 67 16:54 09.11.2021
4861 Clouds 19 1018 76 10000 1.79 57 15:36 09.11.2021
4862 Clouds 20 1017 78 10000 0.89 44 13:50 09.11.2021
4863 Clear 19 1017 80 10000 0.89 47 12:47 09.11.2021
4864 Clouds 17 1017 86 10000 0.89 1 11:18 09.11.2021
4865 Clouds 16 1016 87 10000 1.34 11 09:59 09.11.2021
4866 Clouds 15 1016 89 10000 1.79 11 09:21 09.11.2021
4867 Clouds 13 1015 85 10000 1.34 80 07:52 09.11.2021
4868 Clouds 14 1012 86 10000 2.24 59 02:50 09.11.2021
4869 Clouds 14 1012 83 10000 0.89 64 01:55 09.11.2021
4870 Clouds 14 1012 83 10000 1.79 333 01:36 09.11.2021
4871 Clouds 15 1012 85 10000 0.89 57 23:31 08.11.2021
4872 Clouds 15 1011 83 10000 1.34 1 22:45 08.11.2021
4873 Clouds 15 1011 85 10000 0.89 6 21:45 08.11.2021
4874 Clouds 15 1010 85 10000 0.89 357 20:36 08.11.2021
4875 Clouds 15 1010 85 10000 1.34 11 19:40 08.11.2021
4876 Mist 16 1010 87 4000 1.79 51 17:44 08.11.2021
4877 Rain 16 1010 86 3000 2.06 10 15:56 08.11.2021
4878 Clouds 16 1010 87 1400 2.06 150 14:56 08.11.2021
4879 Rain 16 1010 87 1400 2.06 150 14:33 08.11.2021
4880 Thunderstorm 18 1010 78 6000 1.34 238 13:18 08.11.2021
4881 Clouds 19 1010 77 10000 2.06 30 11:55 08.11.2021
4882 Clouds 18 1011 82 10000 1.34 92 10:50 08.11.2021
4883 Clouds 17 1011 85 10000 1.34 135 09:26 08.11.2021
4884 Mist 16 1011 88 4000 1.54 320 08:42 08.11.2021
4885 Clouds 16 1011 87 10000 0.51 0 06:56 08.11.2021
4886 Clear 16 1012 83 10000 1.54 190 03:35 08.11.2021
4887 Clear 17 1012 82 10000 0.45 155 01:35 08.11.2021
4888 Clouds 18 1012 79 10000 0.45 187 23:25 07.11.2021
4889 Clouds 19 1012 71 10000 2.24 134 21:26 07.11.2021
4890 Clouds 20 1011 67 10000 1.79 108 20:28 07.11.2021
4891 Clouds 21 1011 59 10000 3.58 177 18:47 07.11.2021
4892 Clouds 22 1012 57 10000 1.79 119 17:44 07.11.2021
4893 Clear 23 1012 53 10000 1.79 144 16:42 07.11.2021
4894 Clear 24 1011 47 10000 2.68 80 15:41 07.11.2021
4895 Clear 25 1011 45 10000 4.02 147 14:27 07.11.2021
4896 Clear 24 1011 47 10000 5.36 132 12:50 07.11.2021
4897 Clear 23 1013 60 10000 3.13 178 11:42 07.11.2021
4898 Clouds 17 1014 79 10000 2.24 55 09:21 07.11.2021
4899 Clear 15 1013 84 10000 3.13 138 03:40 07.11.2021
4900 Clouds 15 1013 85 10000 3.13 17 02:25 07.11.2021
4901 Clouds 15 1015 86 10000 3.58 41 22:56 06.11.2021
4902 Clouds 15 1015 86 8000 3.13 1 21:59 06.11.2021
4903 Clouds 15 1015 87 8000 4.02 42 21:27 06.11.2021
4904 Rain 15 1015 86 10000 3.13 43 20:30 06.11.2021
4905 Rain 16 1016 77 8000 0.89 71 17:50 06.11.2021
4906 Rain 17 1016 71 9000 2.68 73 16:38 06.11.2021
4907 Clear 19 1017 62 10000 1.34 85 14:31 06.11.2021
4908 Clear 18 1017 64 10000 2.24 40 13:37 06.11.2021
4909 Clouds 16 1018 75 10000 1.79 21 11:24 06.11.2021
4910 Clear 13 1017 82 10000 1.34 40 09:20 06.11.2021
4911 Clouds 11 1016 85 10000 0.45 27 04:55 06.11.2021
4912 Clouds 13 1016 82 10000 1.34 1 00:58 06.11.2021
4913 Clouds 13 1016 84 10000 1.34 27 23:33 05.11.2021
4914 Clouds 13 1015 85 10000 0.89 56 22:33 05.11.2021
4915 Clear 13 1015 82 10000 1.34 354 20:41 05.11.2021
4916 Clouds 13 1015 81 10000 1.79 32 20:18 05.11.2021
4917 Clouds 14 1015 78 10000 0.45 99 18:59 05.11.2021
4918 Clouds 14 1015 78 10000 0.45 61 18:38 05.11.2021
4919 Clouds 15 1015 69 10000 0.45 332 16:50 05.11.2021
4920 Clouds 16 1015 67 10000 2.06 30 14:41 05.11.2021
4921 Clouds 15 1014 73 10000 1.76 113 12:50 05.11.2021
4922 Rain 13 1014 83 10000 1.54 10 09:51 05.11.2021
4923 Clouds 12 1013 83 10000 2.57 30 08:38 05.11.2021
4924 Clear 10 1012 82 10000 0.45 61 06:50 05.11.2021
4925 Clear 11 1012 83 10000 0.45 52 04:42 05.11.2021
4926 Clear 11 1012 81 10000 0.45 20 02:22 05.11.2021
4927 Clear 11 1012 84 10000 0.45 75 00:30 05.11.2021
4928 Clouds 11 1012 83 10000 1.54 130 22:37 04.11.2021
4929 Clouds 12 1012 79 10000 1.54 0 22:18 04.11.2021
4930 Clouds 12 1012 79 10000 1.54 0 22:18 04.11.2021
4931 Clouds 12 1012 85 10000 2.57 150 21:29 04.11.2021
4932 Clouds 13 1012 84 10000 2.06 150 20:29 04.11.2021
4933 Clouds 13 1012 83 10000 2.57 150 19:50 04.11.2021
4934 Clouds 13 1012 83 10000 2.57 140 19:28 04.11.2021
4935 Clouds 14 1011 79 10000 2.57 150 18:30 04.11.2021
4936 Clouds 15 1010 77 10000 0.45 165 17:27 04.11.2021
4937 Clouds 17 1010 69 10000 2.06 210 16:23 04.11.2021
4938 Clouds 17 1010 72 10000 0.45 180 14:19 04.11.2021
4939 Clouds 16 1010 84 10000 1.34 170 10:52 04.11.2021
4940 Rain 15 1009 83 10000 1.34 150 08:48 04.11.2021
4941 Rain 15 1009 80 10000 0.45 156 08:26 04.11.2021
4942 Clouds 14 1008 86 10000 0.45 161 07:33 04.11.2021
4943 Thunderstorm 16 1003 85 2000 3.13 206 23:23 03.11.2021
4944 Thunderstorm 17 1002 85 8000 4.02 234 22:29 03.11.2021
4945 Rain 18 1001 87 6000 1.79 179 21:37 03.11.2021
4946 Clouds 18 1001 86 10000 4.02 149 20:45 03.11.2021
4947 Clouds 18 1002 86 10000 4.47 141 20:26 03.11.2021
4948 Clouds 18 1002 83 10000 2.68 162 19:37 03.11.2021
4949 Clouds 18 1002 85 10000 4.92 129 18:27 03.11.2021
4950 Clouds 18 1002 85 8000 3.58 140 17:48 03.11.2021
4951 Clouds 18 1002 85 4000 4.92 165 16:49 03.11.2021
4952 Clouds 17 1002 85 900 5.36 162 15:51 03.11.2021
4953 Rain 17 1002 86 6000 4.47 169 15:30 03.11.2021
4954 Rain 17 1002 86 6000 4.47 169 15:30 03.11.2021
4955 Rain 17 1002 84 10000 3.13 178 13:42 03.11.2021
4956 Clouds 16 1004 87 8000 5.81 154 11:37 03.11.2021
4957 Rain 16 1004 87 8000 4.02 161 10:50 03.11.2021
4958 Drizzle 17 1005 84 8000 2.68 163 09:47 03.11.2021
4959 Rain 17 1005 84 10000 2.24 223 08:53 03.11.2021
4960 Rain 17 1005 81 8000 4.02 166 07:59 03.11.2021
4961 Rain 17 1005 81 8000 3.58 154 07:34 03.11.2021
4962 Clouds 16 1006 74 8000 3.6 160 04:23 03.11.2021
4963 Clouds 15 1008 75 10000 3.09 170 00:58 03.11.2021
4964 Clear 15 1010 76 10000 0.45 152 23:24 02.11.2021
4965 Clouds 16 1010 75 10000 1.34 163 21:59 02.11.2021
4966 Clouds 15 1010 80 10000 3.6 170 20:43 02.11.2021
4967 Clouds 16 1010 78 10000 0.89 156 19:58 02.11.2021
4968 Clouds 16 1009 78 10000 1.34 144 19:31 02.11.2021
4969 Clouds 16 1009 75 10000 0.89 184 18:36 02.11.2021
4970 Clear 17 1008 65 10000 0.89 193 17:46 02.11.2021
4971 Clear 18 1007 62 10000 1.34 202 17:21 02.11.2021
4972 Clouds 20 1007 60 10000 2.24 250 15:58 02.11.2021
4973 Clouds 20 1006 58 10000 2.24 280 14:57 02.11.2021
4974 Clouds 21 1007 63 10000 1.79 231 13:30 02.11.2021
4975 Clouds 21 1007 69 10000 1.34 246 12:59 02.11.2021
4976 Clear 20 1006 75 10000 0.89 132 11:40 02.11.2021
4977 Clear 19 1007 75 10000 1.34 186 10:59 02.11.2021
4978 Clear 19 1007 71 10000 0.89 88 10:32 02.11.2021
4979 Clouds 17 1007 75 10000 1.54 330 09:45 02.11.2021
4980 Clouds 13 1004 96 10000 1.54 150 07:47 02.11.2021
4981 Clear 13 1004 80 10000 0.45 223 05:55 02.11.2021
4982 Fog 14 1002 86 10000 0.45 285 03:24 02.11.2021
4983 Drizzle 17 1001 90 9000 0.89 339 23:58 01.11.2021
4984 Rain 17 1000 84 10000 3.58 184 21:57 01.11.2021
4985 Rain 17 1001 83 9000 2.68 113 20:45 01.11.2021
4986 Rain 17 1001 83 10000 3.13 150 20:19 01.11.2021
4987 Rain 17 1001 85 9000 3.13 134 19:41 01.11.2021
4988 Rain 18 1002 83 10000 1.34 195 18:34 01.11.2021
4989 Clouds 18 1002 83 3000 2.68 177 17:49 01.11.2021
4990 Rain 18 1002 82 6000 4.92 151 16:57 01.11.2021
4991 Rain 18 1002 80 6000 4.92 155 16:25 01.11.2021
4992 Clouds 18 1003 80 10000 4.92 150 15:37 01.11.2021
4993 Clouds 18 1003 79 10000 4.92 132 15:18 01.11.2021
4994 Clouds 18 1004 78 10000 5.36 159 14:37 01.11.2021
4995 Clouds 18 1004 79 10000 5.36 179 14:18 01.11.2021
4996 Clouds 18 1005 79 10000 2.68 133 12:38 01.11.2021
4997 Drizzle 18 1006 74 10000 4.47 130 11:34 01.11.2021
4998 Clouds 18 1007 73 10000 3.58 123 10:20 01.11.2021
4999 Drizzle 17 1008 77 8000 0.45 92 08:18 01.11.2021
5000 Drizzle 17 1008 78 8000 2.06 0 07:46 01.11.2021
5001 Clouds 16 1009 81 10000 0.45 103 03:51 01.11.2021
5002 Clouds 17 1010 80 10000 0.45 128 01:44 01.11.2021
5003 Drizzle 17 1011 75 10000 1.79 179 23:18 31.10.2021
5004 Clouds 17 1011 70 10000 1.54 360 20:51 31.10.2021
5005 Clouds 18 1012 72 10000 0.45 126 19:24 31.10.2021
5006 Drizzle 18 1012 72 10000 0.89 98 18:42 31.10.2021
5007 Drizzle 18 1012 71 10000 1.79 149 17:54 31.10.2021
5008 Clear 19 1013 63 10000 0.89 144 16:25 31.10.2021
5009 Clear 20 1013 59 10000 1.79 174 14:41 31.10.2021
5010 Clouds 20 1014 55 10000 2.68 137 12:54 31.10.2021
5011 Clear 19 1015 62 10000 0.45 40 11:42 31.10.2021
5012 Clear 17 1016 64 10000 2.06 350 10:48 31.10.2021
5013 Clear 15 1016 71 10000 1.54 10 09:23 31.10.2021
5014 Clear 13 1016 77 10000 1.54 340 08:41 31.10.2021
5015 Clear 13 1017 73 10000 1.54 80 02:19 31.10.2021
5016 Clear 14 1017 73 10000 0.51 0 23:42 30.10.2021
5017 Clear 14 1017 77 10000 2.06 110 21:36 30.10.2021
5018 Clear 15 1017 77 10000 1.54 110 21:18 30.10.2021
5019 Clear 17 1016 69 10000 1.54 230 19:23 30.10.2021
5020 Clear 19 1016 60 10000 0.45 158 17:42 30.10.2021
5021 Clear 21 1015 51 10000 1.03 0 15:30 30.10.2021
5022 Clear 21 1016 55 10000 1.54 70 13:56 30.10.2021
5023 Clear 20 1016 57 10000 0.51 0 13:22 30.10.2021
5024 Clear 20 1016 62 10000 1.03 0 12:57 30.10.2021
5025 Clear 18 1018 60 10000 2.06 340 11:49 30.10.2021
5026 Clear 16 1018 72 10000 1.03 0 10:34 30.10.2021
5027 Clear 12 1016 76 10000 2.06 30 08:55 30.10.2021
5028 Clear 12 1015 77 10000 1.34 21 07:55 30.10.2021
5029 Rain 13 1015 76 10000 1.03 20 05:45 30.10.2021
5030 Clouds 13 1016 75 10000 1.03 160 01:57 30.10.2021
5031 Clear 14 1016 77 10000 1.54 160 22:54 29.10.2021
5032 Clear 14 1016 72 10000 2.06 140 22:32 29.10.2021
5033 Clear 15 1015 78 10000 2.06 160 20:55 29.10.2021
5034 Clear 15 1015 77 10000 2.06 170 20:31 29.10.2021
5035 Clear 17 1014 67 10000 1.54 250 18:49 29.10.2021
5036 Clear 19 1014 59 10000 0.89 263 17:28 29.10.2021
5037 Clear 20 1015 54 10000 1.54 0 15:22 29.10.2021
5038 Clear 17 1016 64 10000 1.54 340 12:29 29.10.2021
5039 Clear 15 1017 87 10000 2.06 50 10:46 29.10.2021
5040 Clear 11 1015 78 10000 1.03 0 08:47 29.10.2021
5041 Clear 13 1017 76 10000 1.03 130 00:55 29.10.2021
5042 Clear 14 1017 76 10000 1.54 160 23:46 28.10.2021
5043 Clear 14 1017 76 10000 1.54 140 22:20 28.10.2021
5044 Clear 15 1018 80 10000 1.54 140 20:57 28.10.2021
5045 Clear 16 1017 76 10000 0.51 0 19:52 28.10.2021
5046 Clear 18 1017 68 10000 1.54 260 18:30 28.10.2021
5047 Clear 20 1017 59 10000 1.34 248 17:20 28.10.2021
5048 Clear 21 1017 53 10000 3.13 283 16:24 28.10.2021
5049 Clear 21 1018 50 10000 0.45 158 14:40 28.10.2021
5050 Clear 20 1019 53 10000 0.45 153 13:32 28.10.2021
5051 Clear 19 1020 56 10000 2.06 10 12:49 28.10.2021
5052 Clear 16 1020 64 10000 0.45 42 11:26 28.10.2021
5053 Clouds 15 1017 63 10000 1.7 23 09:55 28.10.2021
5054 Clear 13 1019 75 10000 0.51 0 09:35 28.10.2021
5055 Clear 12 1019 73 10000 0.45 57 08:36 28.10.2021
5056 Clear 11 1019 75 10000 0.45 48 07:40 28.10.2021
5057 Clear 14 1020 75 10000 0.89 6 00:41 28.10.2021
5058 Clear 14 1021 76 10000 1.79 19 22:47 27.10.2021
5059 Clear 15 1020 74 10000 0.89 32 21:52 27.10.2021
5060 Clear 15 1020 75 10000 2.06 170 21:18 27.10.2021
5061 Clear 16 1020 73 10000 2.06 170 20:40 27.10.2021
5062 Clear 17 1019 71 10000 1.03 0 19:45 27.10.2021
5063 Clear 18 1019 65 10000 0.89 293 18:55 27.10.2021
5064 Clear 21 1020 57 10000 0.45 305 16:55 27.10.2021
5065 Clear 21 1019 50 10000 0.89 286 16:24 27.10.2021
5066 Clear 21 1020 54 10000 0.89 303 15:24 27.10.2021
5067 Clear 21 1020 57 10000 0.45 281 14:19 27.10.2021
5068 Clear 17 1021 78 10000 0.89 52 11:18 27.10.2021
5069 Clear 16 1021 81 10000 1.03 0 10:36 27.10.2021
5070 Clear 13 1020 88 10000 0.89 22 08:58 27.10.2021
5071 Clouds 13 1019 84 6000 0.89 11 07:39 27.10.2021
5072 Clouds 13 1019 84 6000 0.45 57 07:39 27.10.2021
5073 Clouds 13 1019 85 8000 1.34 32 05:37 27.10.2021
5074 Clouds 15 1019 83 10000 0.89 30 01:21 27.10.2021
5075 Clouds 15 1019 84 10000 0.45 1 00:54 27.10.2021
5076 Clouds 15 1019 84 8000 1.03 0 23:52 26.10.2021
5077 Clouds 15 1019 85 8000 1.03 0 22:44 26.10.2021
5078 Drizzle 15 1019 87 7000 1.03 0 22:21 26.10.2021
5079 Drizzle 15 1019 87 8000 1.03 80 21:32 26.10.2021
5080 Rain 15 1018 86 6000 0.45 77 19:34 26.10.2021
5081 Rain 16 1018 84 4000 0.89 85 18:54 26.10.2021
5082 Rain 16 1017 77 10000 2.06 30 17:45 26.10.2021
5083 Rain 18 1017 74 7000 3.09 330 15:46 26.10.2021
5084 Clear 18 1018 67 10000 1.03 0 12:33 26.10.2021
5085 Clear 17 1018 68 10000 1.54 360 10:48 26.10.2021
5086 Clear 15 1018 77 10000 1.54 350 08:24 26.10.2021
5087 Clouds 15 1017 73 10000 2.06 30 07:22 26.10.2021
5088 Rain 16 1018 68 10000 0.89 1 00:19 26.10.2021
5089 Rain 16 1018 68 10000 0.89 1 00:19 26.10.2021
5090 Clouds 17 1018 67 10000 0.89 1 23:28 25.10.2021
5091 Clear 17 1018 68 10000 0.51 0 22:29 25.10.2021
5092 Clear 17 1018 66 10000 0.51 0 21:42 25.10.2021
5093 Clear 18 1017 62 10000 0.51 0 20:28 25.10.2021
5094 Clear 18 1017 62 10000 0.51 0 19:43 25.10.2021
5095 Clear 18 1017 61 10000 0.51 0 19:22 25.10.2021
5096 Clear 19 1017 59 10000 0.51 270 18:38 25.10.2021
5097 Clear 20 1017 51 10000 1.03 0 17:26 25.10.2021
5098 Clear 21 1017 47 10000 0.45 78 14:48 25.10.2021
5099 Clear 19 1018 49 10000 0.45 18 12:33 25.10.2021
5100 Clear 16 1018 59 10000 1.03 0 10:47 25.10.2021
5101 Clear 13 1018 67 10000 1.03 0 08:58 25.10.2021
5102 Clear 13 1017 66 10000 0.45 11 06:28 25.10.2021
5103 Clear 13 1017 66 10000 0.45 11 06:28 25.10.2021
5104 Clear 13 1017 66 10000 0.45 11 06:28 25.10.2021
5105 Clear 14 1017 65 10000 3.13 11 04:35 25.10.2021
5106 Clear 16 1018 58 10000 3.13 6 00:52 25.10.2021
5107 Clear 16 1018 58 10000 2.24 39 00:33 25.10.2021
5108 Clear 17 1018 56 10000 2.24 17 23:41 24.10.2021
5109 Clear 17 1018 56 10000 1.79 54 22:38 24.10.2021
5110 Clear 17 1018 55 10000 1.34 44 22:19 24.10.2021
5111 Clear 18 1018 55 10000 0.45 36 21:18 24.10.2021
5112 Clear 19 1018 61 10000 0.45 329 20:34 24.10.2021
5113 Clear 20 1018 56 10000 0.45 91 19:39 24.10.2021
5114 Clear 21 1017 50 10000 0.45 107 18:29 24.10.2021
5115 Clear 23 1017 43 10000 1.34 335 17:44 24.10.2021
5116 Clear 24 1018 45 10000 2.68 339 15:56 24.10.2021
5117 Clear 24 1019 47 10000 1.34 69 14:41 24.10.2021
5118 Clouds 23 1019 49 10000 2.24 57 12:58 24.10.2021
5119 Clear 21 1020 61 10000 1.79 327 11:45 24.10.2021
5120 Clear 21 1020 62 10000 2.24 36 11:25 24.10.2021
5121 Clouds 18 1020 71 10000 3.13 19 10:27 24.10.2021
5122 Clouds 15 1019 86 10000 3.13 52 07:51 24.10.2021
5123 Clear 17 1020 84 10000 2.68 32 01:22 24.10.2021
5124 Clouds 17 1020 81 8000 2.24 356 23:48 23.10.2021
5125 Clouds 17 1020 81 7000 0.45 42 22:18 23.10.2021
5126 Clear 18 1019 80 10000 2.06 50 20:37 23.10.2021
5127 Clear 19 1019 76 10000 2.06 40 18:59 23.10.2021
5128 Clear 19 1019 76 10000 1.54 20 18:30 23.10.2021
5129 Clear 20 1019 74 10000 2.06 20 17:43 23.10.2021
5130 Clear 21 1018 72 10000 0.89 21 16:24 23.10.2021
5131 Clouds 21 1019 75 10000 2.57 360 14:32 23.10.2021
5132 Clouds 17 1016 82 8000 1.54 170 03:34 23.10.2021
5133 Clouds 18 1017 81 10000 1.03 0 00:19 23.10.2021
5134 Clouds 18 1016 81 10000 1.03 170 22:53 22.10.2021
5135 Clouds 19 1016 79 10000 2.06 220 20:50 22.10.2021
5136 Clouds 20 1015 76 10000 4.12 200 18:45 22.10.2021
5137 Clouds 21 1014 73 10000 1.34 167 17:43 22.10.2021
5138 Clouds 23 1014 64 10000 1.79 154 15:26 22.10.2021
5139 Clouds 23 1015 58 10000 2.68 200 13:52 22.10.2021
5140 Clouds 21 1015 69 10000 4.02 140 11:26 22.10.2021
5141 Clouds 20 1015 77 10000 2.24 174 10:41 22.10.2021
5142 Clear 19 1015 78 10000 1.34 115 09:56 22.10.2021
5143 Clear 17 1014 81 10000 1.79 132 08:36 22.10.2021
5144 Clear 17 1014 83 10000 0.45 121 07:22 22.10.2021
5145 Clear 17 1015 82 10000 1.34 147 02:57 22.10.2021
5146 Clear 18 1016 80 10000 2.24 142 23:55 21.10.2021
5147 Clear 18 1016 80 10000 2.24 144 23:35 21.10.2021
5148 Clear 18 1016 79 10000 3.13 158 21:52 21.10.2021
5149 Clear 19 1016 78 10000 2.24 171 20:40 21.10.2021
5150 Clouds 19 1016 77 10000 1.79 186 20:18 21.10.2021
5151 Clouds 19 1016 80 10000 1.34 159 19:29 21.10.2021
5152 Clouds 20 1015 78 10000 1.34 146 18:45 21.10.2021
5153 Clouds 20 1016 74 10000 1.34 204 17:56 21.10.2021
5154 Clouds 21 1016 72 10000 2.24 176 17:37 21.10.2021
5155 Clouds 21 1016 67 10000 4.92 138 15:49 21.10.2021
5156 Clouds 21 1016 67 10000 2.68 160 15:20 21.10.2021
5157 Clouds 21 1017 66 10000 5.36 154 14:38 21.10.2021
5158 Clouds 21 1018 64 10000 5.36 166 13:19 21.10.2021
5159 -273 0 0 0 0 0 10:44 21.10.2021
5160 -273 0 0 0 0 0 10:43 21.10.2021
5161 -273 0 0 0 0 0 10:43 21.10.2021
5162 -273 0 0 0 0 0 10:43 21.10.2021
5163 Clouds 14 1019 76 10000 0.45 148 08:34 21.10.2021
5164 Clear 14 1020 77 10000 0.89 119 07:28 21.10.2021
5165 Clear 13 1022 72 10000 3.6 160 03:29 21.10.2021
5166 Clear 14 1024 74 10000 2.57 160 23:25 20.10.2021
5167 Clear 14 1024 77 10000 2.57 170 21:51 20.10.2021
5168 Clear 15 1024 76 10000 3.09 160 21:29 20.10.2021
5169 Clear 16 1024 74 10000 0.89 140 20:49 20.10.2021
5170 Clear 16 1024 73 10000 2.06 190 20:28 20.10.2021
5171 Clear 17 1024 72 10000 2.06 210 19:51 20.10.2021
5172 Clear 18 1024 69 10000 0.45 203 18:54 20.10.2021
5173 Clear 19 1024 62 10000 0.45 204 17:45 20.10.2021
5174 Clear 21 1025 56 10000 1.79 252 15:26 20.10.2021
5175 Clear 17 1028 69 10000 1.03 0 10:25 20.10.2021
5176 Clear 12 1025 76 10000 1.54 30 08:37 20.10.2021
5177 Clear 12 1027 66 10000 2.06 150 02:58 20.10.2021
5178 Clear 14 1027 63 10000 2.57 150 00:43 20.10.2021
5179 Clear 14 1028 65 10000 1.54 160 23:45 19.10.2021
5180 Clouds 15 1027 68 10000 2.57 160 21:41 19.10.2021
5181 Clouds 16 1027 66 10000 1.54 160 20:48 19.10.2021
5182 Clouds 16 1027 63 10000 1.03 0 20:22 19.10.2021
5183 Clouds 17 1027 60 10000 1.54 210 19:40 19.10.2021
5184 Clouds 18 1026 56 10000 0.45 254 18:52 19.10.2021
5185 Clouds 20 1026 50 10000 1.79 241 17:58 19.10.2021
5186 Clear 22 1026 39 10000 2.24 306 15:38 19.10.2021
5187 Clear 22 1026 35 10000 2.24 231 15:19 19.10.2021
5188 Clear 22 1027 43 10000 1.79 248 14:23 19.10.2021
5189 Clear 20 1027 47 10000 1.03 0 12:38 19.10.2021
5190 Clear 18 1029 59 10000 2.57 340 11:31 19.10.2021
5191 Clouds 17 1028 67 10000 1.82 15 09:56 19.10.2021
5192 Clear 13 1025 68 10000 2.06 80 08:57 19.10.2021
5193 Clear 11 1025 69 10000 0.45 11 05:23 19.10.2021
5194 Clear 14 1025 58 10000 1.03 90 00:24 19.10.2021
5195 Clear 14 1025 58 10000 0.45 22 23:49 18.10.2021
5196 Clear 15 1024 62 10000 1.54 80 23:19 18.10.2021
5197 Clear 14 1024 64 10000 2.06 80 22:51 18.10.2021
5198 Clear 15 1024 66 10000 1.03 170 21:18 18.10.2021
5199 Clear 16 1023 67 10000 0.51 120 20:41 18.10.2021
5200 Clear 17 1023 64 10000 2.06 310 19:50 18.10.2021
5201 Clear 17 1023 63 10000 2.06 310 19:50 18.10.2021
5202 Clear 18 1023 59 10000 0.45 302 19:28 18.10.2021
5203 Clear 19 1022 56 10000 1.34 298 18:50 18.10.2021
5204 Clouds 22 1022 40 10000 3.09 10 15:25 18.10.2021
5205 Clear 21 1022 43 10000 0.89 77 12:55 18.10.2021
5206 Clear 17 1023 62 10000 0.51 0 10:36 18.10.2021
5207 Clear 12 1022 73 10000 2.24 30 09:27 18.10.2021
5208 Clear 12 1020 72 10000 0.45 23 02:30 18.10.2021
5209 Clear 14 1020 73 10000 1.54 170 23:30 17.10.2021
5210 Clear 15 1019 69 10000 2.06 160 21:52 17.10.2021
5211 Clear 16 1019 65 10000 1.03 0 21:00 17.10.2021
5212 Clear 16 1019 64 10000 0.45 274 20:36 17.10.2021
5213 Clear 17 1018 59 10000 1.54 240 19:39 17.10.2021
5214 Clouds 18 1018 55 10000 0.89 249 18:58 17.10.2021
5215 Clear 20 1017 51 10000 1.34 242 17:32 17.10.2021
5216 Clouds 21 1017 45 10000 0.89 271 15:41 17.10.2021
5217 Clouds 21 1018 45 10000 2.68 248 14:24 17.10.2021
5218 Clear 21 1018 47 10000 0.89 257 13:42 17.10.2021
5219 Clouds 18 1018 57 10000 2.06 30 11:57 17.10.2021
5220 Clouds 15 1018 66 10000 1.03 0 10:34 17.10.2021
5221 Clouds 14 1018 70 10000 0.89 21 09:41 17.10.2021
5222 Clouds 11 1017 74 10000 2.06 50 07:19 17.10.2021
5223 Clear 13 1016 74 10000 1.03 150 00:53 17.10.2021
5224 Clear 13 1016 71 10000 1.03 160 00:22 17.10.2021
5225 Clear 15 1016 71 10000 0.51 190 21:49 16.10.2021
5226 Clear 16 1015 65 10000 1.54 230 20:32 16.10.2021
5227 Clear 17 1015 63 10000 1.54 220 19:46 16.10.2021
5228 Clear 17 1015 61 10000 1.54 250 19:23 16.10.2021
5229 Clouds 18 1016 63 10000 2.06 240 18:56 16.10.2021
5230 Clear 18 1015 58 10000 0.45 203 18:38 16.10.2021
5231 Clear 18 1015 58 10000 0.45 203 18:38 16.10.2021
5232 Clear 19 1014 53 10000 0.89 209 18:18 16.10.2021
5233 Clear 20 1014 49 10000 0.89 176 17:25 16.10.2021
5234 Clouds 20 1014 43 10000 1.54 0 15:33 16.10.2021
5235 Clouds 18 1015 46 10000 1.34 17 12:26 16.10.2021
5236 Clear 15 1016 54 10000 2.24 340 10:47 16.10.2021
5237 Clear 10 1013 66 10000 2.24 70 08:23 16.10.2021
5238 Clear 11 1013 58 10000 0.89 41 01:25 16.10.2021
5239 Clear 12 1013 50 10000 2.24 1 23:57 15.10.2021
5240 Clear 12 1014 54 10000 1.34 11 23:24 15.10.2021
5241 Clear 13 1013 49 10000 2.68 19 22:19 15.10.2021
5242 Clear 14 1013 46 10000 2.24 319 21:29 15.10.2021
5243 Clear 15 1012 48 10000 2.24 17 20:49 15.10.2021
5244 Clear 16 1012 44 10000 2.24 334 19:37 15.10.2021
5245 Clear 17 1011 41 10000 3.13 356 18:40 15.10.2021
5246 Clear 19 1011 32 10000 3.58 315 16:43 15.10.2021
5247 Clear 20 1011 30 10000 4.92 337 15:36 15.10.2021
5248 Clear 19 1012 32 10000 3.13 11 13:31 15.10.2021
5249 Clear 16 1013 38 10000 2.68 1 11:37 15.10.2021
5250 Clear 15 1013 43 10000 1.34 314 10:57 15.10.2021
5251 Clear 14 1014 54 10000 1.34 11 09:59 15.10.2021
5252 Clear 10 1015 57 10000 0.45 51 05:44 15.10.2021
5253 Clear 10 1018 50 10000 2.68 344 01:47 15.10.2021
5254 Clear 11 1017 41 10000 1.34 18 00:22 15.10.2021
5255 Clear 12 1018 43 10000 4.02 350 22:52 14.10.2021
5256 Clear 13 1018 42 10000 3.58 44 21:45 14.10.2021
5257 Clear 13 1017 40 10000 2.68 11 20:49 14.10.2021
5258 Clear 13 1017 39 10000 3.58 6 20:19 14.10.2021
5259 Clear 15 1017 35 10000 4.02 11 19:38 14.10.2021
5260 Clear 18 1016 30 10000 5.81 50 17:37 14.10.2021
5261 Clear 18 1016 30 10000 4.02 59 16:51 14.10.2021
5262 Clear 19 1016 28 10000 3.13 355 16:20 14.10.2021
5263 Clear 19 1017 28 10000 2.68 11 14:43 14.10.2021
5264 Clear 19 1017 28 10000 3.58 27 14:21 14.10.2021
5265 Clear 17 1017 32 10000 3.58 15 11:44 14.10.2021
5266 Clear 14 1017 42 10000 3.13 46 09:55 14.10.2021
5267 Clear 14 1017 42 10000 3.13 46 09:55 14.10.2021
5268 Clear 11 1016 44 10000 3.58 40 07:32 14.10.2021
5269 Clouds 13 1014 53 10000 2.24 53 01:29 14.10.2021
5270 Clouds 13 1015 54 10000 3.58 11 00:28 14.10.2021
5271 Clouds 15 1016 51 10000 1.34 23 21:58 13.10.2021
5272 Clouds 15 1016 51 10000 2.68 71 21:32 13.10.2021
5273 Clouds 16 1015 45 10000 1.79 20 20:21 13.10.2021
5274 Clouds 18 1013 50 10000 0.45 135 18:57 13.10.2021
5275 Clear 19 1012 41 10000 0.45 135 18:35 13.10.2021
5276 Clear 21 1012 33 10000 3.6 30 15:32 13.10.2021
5277 Clear 21 1012 36 10000 3.13 6 14:45 13.10.2021
5278 Clear 21 1012 39 10000 0.45 33 14:21 13.10.2021
5279 Clear 19 1012 49 10000 1.34 49 12:22 13.10.2021
5280 Clear 18 1012 57 10000 1.79 30 11:35 13.10.2021
5281 Clear 12 1011 75 10000 2.06 30 08:42 13.10.2021
5282 Clear 11 1011 76 10000 0.45 50 07:36 13.10.2021
5283 Clear 13 1012 75 10000 1.03 0 02:29 13.10.2021
5284 Clear 13 1012 77 10000 1.54 50 01:45 13.10.2021
5285 Clear 13 1012 78 10000 1.54 150 23:30 12.10.2021
5286 Clear 14 1012 76 10000 2.06 140 22:47 12.10.2021
5287 Clouds 15 1012 69 10000 0.51 0 21:52 12.10.2021
5288 Clouds 15 1012 69 10000 0.51 230 20:46 12.10.2021
5289 Clouds 16 1012 66 10000 1.03 0 20:18 12.10.2021
5290 Clouds 18 1012 61 10000 1.79 238 18:45 12.10.2021
5291 Clouds 19 1011 56 10000 0.89 231 17:57 12.10.2021
5292 Clear 21 1011 47 10000 0.45 211 16:39 12.10.2021
5293 Clouds 21 1011 43 10000 0.45 205 15:58 12.10.2021
5294 Clear 20 1012 49 10000 1.03 0 14:46 12.10.2021
5295 Clear 20 1013 50 10000 3.09 350 13:44 12.10.2021
5296 Clear 18 1014 54 10000 0.45 356 12:40 12.10.2021
5297 Clouds 13 1013 72 10000 0.45 343 09:59 12.10.2021
5298 Clear 11 1014 74 10000 0.89 34 08:44 12.10.2021
5299 Clear 11 1014 76 10000 1.34 60 07:54 12.10.2021
5300 Clear 10 1014 79 10000 0.45 56 05:31 12.10.2021
5301 Clear 11 1014 76 10000 1.34 6 04:33 12.10.2021
5302 Clear 12 1015 71 10000 0.45 40 00:28 12.10.2021
5303 Clear 12 1015 70 10000 0.89 22 23:41 11.10.2021
5304 Clear 13 1015 67 10000 0.89 29 22:57 11.10.2021
5305 Clear 13 1015 65 10000 3.6 30 21:46 11.10.2021
5306 Clear 13 1016 67 10000 3.09 40 21:18 11.10.2021
5307 Clear 14 1014 61 10000 0.45 315 19:46 11.10.2021
5308 Clear 15 1014 57 10000 0.89 315 18:43 11.10.2021
5309 Clear 17 1014 53 10000 0.45 315 17:49 11.10.2021
5310 Clouds 18 1014 51 10000 1.34 338 16:39 11.10.2021
5311 Clouds 18 1014 53 10000 1.34 315 15:51 11.10.2021
5312 Clouds 17 1014 60 10000 0.89 315 14:55 11.10.2021
5313 Clouds 17 1014 62 10000 0.45 315 14:33 11.10.2021
5314 Clouds 16 1015 68 10000 0.45 45 13:36 11.10.2021
5315 Clouds 12 1016 86 10000 1.03 0 11:39 11.10.2021
5316 Rain 11 1015 86 8000 2.06 350 10:34 11.10.2021
5317 Rain 11 1015 81 6000 4.63 330 09:22 11.10.2021
5318 Clouds 11 1014 67 10000 3.58 21 06:30 11.10.2021
5319 Clear 12 1014 63 10000 1.79 1 01:38 11.10.2021
5320 Clear 12 1014 61 10000 2.24 348 00:46 11.10.2021
5321 Clear 12 1014 63 10000 2.68 19 00:23 11.10.2021
5322 Clear 13 1014 59 10000 2.68 27 21:52 10.10.2021
5323 Clear 13 1014 57 10000 2.68 352 21:31 10.10.2021
5324 Clear 13 1014 55 10000 3.13 60 20:43 10.10.2021
5325 Clouds 14 1013 53 10000 3.13 6 20:21 10.10.2021
5326 Clouds 14 1013 52 10000 3.13 6 19:59 10.10.2021
5327 Clear 14 1013 50 10000 0.89 338 19:35 10.10.2021
5328 Clear 16 1013 49 10000 4.47 11 18:35 10.10.2021
5329 Clear 18 1013 45 10000 4.02 107 16:46 10.10.2021
5330 Clear 18 1014 43 10000 3.58 333 15:44 10.10.2021
5331 Clear 19 1014 44 10000 0.89 338 13:53 10.10.2021
5332 Clear 19 1014 44 10000 0.89 293 13:32 10.10.2021
5333 Clear 19 1014 44 10000 1.79 25 12:33 10.10.2021
5334 Clear 16 1014 56 10000 1.79 54 10:43 10.10.2021
5335 Clear 14 1014 63 10000 4.63 10 09:29 10.10.2021
5336 Clouds 13 1013 67 10000 0.45 68 08:53 10.10.2021
5337 Clouds 13 1013 71 10000 3.6 30 07:27 10.10.2021
5338 Clouds 15 1015 66 10000 1.34 1 02:42 10.10.2021
5339 Clouds 15 1015 79 10000 0.45 42 00:55 10.10.2021
5340 Clouds 15 1015 79 10000 0.45 54 23:57 09.10.2021
5341 Clouds 16 1015 79 10000 1.79 70 22:45 09.10.2021
5342 Clouds 17 1015 71 10000 1.34 31 21:39 09.10.2021
5343 Clouds 17 1015 69 10000 0.89 51 21:20 09.10.2021
5344 Clear 19 1014 56 10000 4.12 10 19:44 09.10.2021
5345 Clouds 19 1014 52 10000 2.24 357 18:59 09.10.2021
5346 Clouds 20 1014 50 10000 3.13 323 18:32 09.10.2021
5347 Clouds 22 1015 42 10000 0.89 30 16:37 09.10.2021
5348 Clear 23 1015 42 10000 0.89 65 15:32 09.10.2021
5349 Clear 22 1016 45 10000 4.12 350 13:44 09.10.2021
5350 Clear 22 1015 46 10000 0.45 332 12:40 09.10.2021
5351 Clear 22 1015 46 10000 0.45 332 12:40 09.10.2021
5352 Clear 21 1015 48 10000 5.14 20 11:48 09.10.2021
5353 Clear 19 1015 55 10000 1.34 11 10:42 09.10.2021
5354 Clear 19 1015 55 10000 1.34 11 10:42 09.10.2021
5355 Clear 17 1015 66 10000 1.34 341 09:36 09.10.2021
5356 Clear 15 1014 71 10000 3.09 70 08:30 09.10.2021
5357 Clear 14 1014 74 10000 3.6 70 07:47 09.10.2021
5358 Clouds 14 1014 72 10000 0.45 42 05:29 09.10.2021
5359 Clear 14 1014 72 10000 3.6 50 02:57 09.10.2021
5360 Clear 15 1014 72 10000 0.45 75 02:38 09.10.2021
5361 Clear 16 1014 65 10000 2.24 89 23:41 08.10.2021
5362 Clouds 17 1013 66 10000 0.89 47 22:54 08.10.2021
5363 Clouds 17 1013 66 10000 1.79 48 22:23 08.10.2021
5364 Clouds 18 1013 64 10000 2.68 1 20:53 08.10.2021
5365 Clouds 20 1012 54 10000 1.79 11 18:53 08.10.2021
5366 Clear 21 1011 53 10000 2.24 11 17:28 08.10.2021
5367 Clouds 21 1011 49 10000 1.79 19 16:50 08.10.2021
5368 Clear 22 1011 49 10000 0.89 29 16:23 08.10.2021
5369 Clouds 21 1011 53 10000 0.89 26 13:57 08.10.2021
5370 Clouds 19 1011 61 10000 1.79 285 12:48 08.10.2021
5371 Rain 18 1011 64 10000 3.58 311 11:31 08.10.2021
5372 Clouds 17 1011 71 10000 2.68 69 10:40 08.10.2021
5373 Clouds 15 1010 80 10000 3.58 37 08:27 08.10.2021
5374 Clear 15 1008 79 10000 2.24 1 23:38 07.10.2021
5375 Clear 15 1008 78 10000 3.13 42 22:59 07.10.2021
5376 Rain 15 1007 76 10000 1.79 38 21:36 07.10.2021
5377 Clouds 16 1007 75 10000 4.47 11 20:58 07.10.2021
5378 Rain 16 1007 71 10000 1.79 94 19:57 07.10.2021
5379 Clouds 17 1007 69 10000 4.92 50 19:28 07.10.2021
5380 Clouds 18 1007 68 10000 4.02 329 18:22 07.10.2021
5381 Clouds 18 1007 65 10000 4.47 350 17:18 07.10.2021
5382 Clouds 20 1007 61 10000 1.79 15 15:24 07.10.2021
5383 Clouds 20 1007 63 10000 2.68 11 13:45 07.10.2021
5384 Clouds 19 1007 64 10000 1.79 1 13:27 07.10.2021
5385 Clouds 19 1006 63 10000 4.47 11 12:39 07.10.2021
5386 Clear 16 1007 71 10000 1.79 11 10:49 07.10.2021
5387 Clear 16 1007 74 10000 0.89 301 10:19 07.10.2021
5388 Clear 13 1007 82 10000 0.89 329 08:56 07.10.2021
5389 Clear 13 1007 83 10000 1.03 0 08:35 07.10.2021
5390 Clouds 13 1007 82 10000 0.89 21 07:42 07.10.2021
5391 Clouds 13 1007 81 10000 0.45 107 06:57 07.10.2021
5392 Clouds 14 1008 81 10000 2.06 70 02:23 07.10.2021
5393 Rain 16 1009 71 10000 0.45 252 23:39 06.10.2021
5394 Clouds 17 1009 67 10000 3.6 150 22:45 06.10.2021
5395 Clouds 17 1009 66 10000 1.34 144 21:49 06.10.2021
5396 Clouds 18 1010 62 10000 0.89 224 20:35 06.10.2021
5397 Clouds 18 1010 59 10000 1.34 196 19:46 06.10.2021
5398 Clouds 19 1011 57 10000 5.36 203 18:34 06.10.2021
5399 Clouds 20 1011 66 10000 3.13 258 16:54 06.10.2021
5400 Clouds 21 1012 69 10000 1.34 229 15:26 06.10.2021
5401 Clouds 20 1012 82 10000 1.34 180 13:51 06.10.2021
5402 Clouds 19 1013 89 10000 2.24 148 12:55 06.10.2021
5403 Clouds 19 1014 88 10000 3.58 146 12:31 06.10.2021
5404 Clouds 18 1014 86 9000 2.24 142 11:49 06.10.2021
5405 Rain 18 1015 83 4000 2.68 141 09:57 06.10.2021
5406 Rain 19 1015 81 10000 3.6 130 09:38 06.10.2021
5407 Rain 18 1015 80 10000 2.68 165 08:40 06.10.2021
5408 Clouds 18 1015 79 10000 2.06 180 06:48 06.10.2021
5409 Clear 18 1015 80 10000 0.45 169 05:19 06.10.2021
5410 Clear 17 1017 78 10000 3.09 170 00:26 06.10.2021
5411 Clear 18 1017 76 10000 1.34 164 23:52 05.10.2021
5412 Clear 18 1017 76 10000 1.34 164 23:52 05.10.2021
5413 Clear 18 1017 76 10000 0.89 152 23:32 05.10.2021
5414 Clouds 18 1017 74 10000 0.89 165 22:44 05.10.2021
5415 Clear 18 1017 74 10000 3.6 160 21:58 05.10.2021
5416 Clear 18 1017 74 10000 3.6 160 21:58 05.10.2021
5417 Clear 18 1017 73 10000 3.6 160 21:35 05.10.2021
5418 Clouds 19 1017 74 10000 0.51 0 20:38 05.10.2021
5419 Clouds 19 1017 71 10000 0.45 140 20:19 05.10.2021
5420 Clouds 20 1016 65 10000 1.54 220 19:26 05.10.2021
5421 Clear 21 1016 61 10000 3.6 230 18:45 05.10.2021
5422 Clouds 23 1017 61 10000 1.34 245 16:35 05.10.2021
5423 Clouds 22 1017 80 10000 0.45 254 14:29 05.10.2021
5424 Clouds 21 1018 88 10000 3.09 180 13:29 05.10.2021
5425 Clouds 19 1018 92 1500 2.24 149 12:36 05.10.2021
5426 Clouds 19 1019 94 3000 2.57 220 11:58 05.10.2021
5427 Rain 19 1017 86 5000 1.03 0 10:39 05.10.2021
5428 Clouds 18 1016 83 10000 1.54 240 08:39 05.10.2021
5429 Rain 17 1016 77 10000 5.14 180 03:38 05.10.2021
5430 Clouds 23 1016 65 10000 4.02 164 23:52 04.10.2021
5431 Clouds 23 1016 66 10000 2.68 146 21:54 04.10.2021
5432 Clouds 24 1016 64 10000 3.13 144 18:54 04.10.2021
5433 Clouds 25 1016 61 10000 3.58 177 17:58 04.10.2021
5434 Clouds 26 1017 54 10000 3.13 182 16:20 04.10.2021
5435 Clouds 27 1017 51 10000 4.02 161 15:30 04.10.2021
5436 Clouds 27 1017 50 10000 3.13 182 14:39 04.10.2021
5437 Clouds 27 1018 53 10000 2.24 196 13:48 04.10.2021
5438 Clouds 27 1018 51 10000 4.92 165 13:23 04.10.2021
5439 Clouds 26 1018 54 10000 4.02 163 11:34 04.10.2021
5440 Clear 24 1018 57 10000 2.68 173 10:47 04.10.2021
5441 Clear 22 1018 66 10000 2.68 142 09:47 04.10.2021
5442 Clear 19 1018 75 10000 1.03 0 08:30 04.10.2021
5443 Clear 19 1018 76 10000 0.89 85 06:51 04.10.2021
5444 Clear 20 1018 76 10000 2.06 160 23:41 03.10.2021
5445 Clear 21 1018 74 10000 0.45 152 22:32 03.10.2021
5446 Clear 21 1017 71 10000 3.6 170 21:35 03.10.2021
5447 Clouds 21 1017 71 10000 0.45 150 20:50 03.10.2021
5448 Clouds 22 1017 69 10000 1.79 162 19:50 03.10.2021
5449 Clouds 24 1017 59 10000 1.79 145 18:30 03.10.2021
5450 Clouds 25 1016 55 10000 3.13 197 17:39 03.10.2021
5451 Clouds 25 1016 55 10000 2.68 134 15:30 03.10.2021
5452 Clouds 26 1017 52 10000 2.24 177 14:35 03.10.2021
5453 Clouds 26 1017 48 10000 4.47 154 13:36 03.10.2021
5454 Clouds 25 1017 57 10000 4.02 147 12:50 03.10.2021
5455 Clouds 23 1018 61 10000 2.24 148 11:40 03.10.2021
5456 Clouds 23 1018 61 10000 3.13 173 10:21 03.10.2021
5457 Clear 17 1017 71 10000 1.03 0 06:42 03.10.2021
5458 Clear 19 1018 68 10000 0.51 0 22:59 02.10.2021
5459 Clear 20 1018 62 10000 3.6 210 22:18 02.10.2021
5460 Clouds 22 1017 59 10000 2.24 144 20:34 02.10.2021
5461 Clouds 23 1017 59 10000 1.79 145 18:57 02.10.2021
5462 Clear 24 1017 53 10000 1.34 161 18:20 02.10.2021
5463 Clear 24 1016 56 10000 3.09 170 17:38 02.10.2021
5464 Clear 24 1016 47 10000 1.03 0 16:39 02.10.2021
5465 Clear 24 1017 54 10000 1.03 0 14:35 02.10.2021
5466 Clouds 29 1018 46 10000 3.13 245 15:37 30.09.2021
5467 Clear 29 1018 39 10000 3.13 321 14:22 30.09.2021
5468 Clear 26 1019 52 10000 1.03 0 11:58 30.09.2021
5469 Clear 25 1019 57 10000 2.57 0 11:23 30.09.2021
5470 Clear 22 1019 67 10000 0.89 1 10:25 30.09.2021
5471 Clear 22 1019 67 10000 0.89 1 10:25 30.09.2021
5472 Clear 19 1018 79 6000 1.34 356 08:32 30.09.2021
5473 Clear 18 1018 76 10000 0.89 42 07:45 30.09.2021
5474 Clear 18 1017 76 10000 0.89 6 05:25 30.09.2021
5475 Clear 19 1017 85 10000 2.06 200 02:33 30.09.2021
5476 Clear 21 1017 82 10000 1.54 210 00:31 30.09.2021
5477 Clear 21 1018 80 10000 0.89 237 22:41 29.09.2021
5478 Clear 22 1017 76 10000 1.34 243 21:28 29.09.2021
5479 Clear 23 1017 71 10000 1.34 238 20:30 29.09.2021
5480 Clear 23 1016 67 10000 0.45 229 19:56 29.09.2021
5481 Clear 25 1017 62 10000 2.68 244 18:54 29.09.2021
5482 Clear 26 1016 53 10000 1.34 292 17:55 29.09.2021
5483 Clouds 27 1016 49 10000 1.79 229 16:55 29.09.2021
5484 Clouds 28 1016 48 10000 2.68 246 16:22 29.09.2021
5485 Clear 28 1016 49 10000 2.68 175 14:42 29.09.2021
5486 Clear 28 1016 50 10000 3.13 265 14:18 29.09.2021
5487 Clouds 27 1017 58 10000 0.89 279 13:27 29.09.2021
5488 Clear 27 1017 61 10000 0.89 248 12:36 29.09.2021
5489 Clouds 24 1017 68 9000 1.54 200 10:50 29.09.2021
5490 Clouds 23 1017 71 9000 1.03 0 09:58 29.09.2021
5491 Clouds 22 1017 76 8000 0.51 0 09:36 29.09.2021
5492 Clear 20 1016 73 10000 1.03 300 07:39 29.09.2021
5493 Clouds 20 1015 71 10000 0.74 342 05:50 29.09.2021
5494 Clear 22 1016 71 10000 1.54 160 23:36 28.09.2021
5495 Clear 23 1016 68 10000 0.45 188 22:24 28.09.2021
5496 Clear 23 1016 68 10000 1.54 210 21:45 28.09.2021
5497 Clear 24 1016 63 10000 0.45 257 20:44 28.09.2021
5498 Clear 24 1016 62 10000 0.45 277 19:47 28.09.2021
5499 Clear 26 1016 60 10000 0.89 243 18:51 28.09.2021
5500 Clear 27 1015 56 10000 1.79 237 18:18 28.09.2021
5501 Clear 29 1015 48 10000 2.24 323 16:41 28.09.2021
5502 Clouds 29 1015 49 10000 0.89 300 14:37 28.09.2021
5503 Clear 28 1016 51 10000 2.24 304 13:19 28.09.2021
5504 Clear 27 1016 59 10000 0.45 109 12:21 28.09.2021
5505 Clear 26 1016 59 10000 0.45 183 11:47 28.09.2021
5506 Clear 25 1017 66 10000 0.45 321 11:23 28.09.2021
5507 Clear 23 1016 72 10000 1.34 1 10:21 28.09.2021
5508 Clear 23 1016 72 10000 1.34 1 10:21 28.09.2021
5509 Clear 23 1016 71 10000 1.34 1 10:21 28.09.2021
5510 Clear 21 1016 80 10000 1.34 87 09:18 28.09.2021
5511 Clouds 21 1016 81 6000 0.89 66 08:39 28.09.2021
5512 Mist 20 1015 81 5000 0.89 46 07:48 28.09.2021
5513 Fog 20 1015 85 3000 0.89 28 05:31 28.09.2021
5514 Clouds 22 1016 82 10000 1.03 0 01:25 28.09.2021
5515 Clouds 22 1016 83 10000 1.54 200 00:26 28.09.2021
5516 Clouds 22 1016 82 9000 1.03 0 23:42 27.09.2021
5517 Clouds 22 1016 81 10000 1.03 170 23:22 27.09.2021
5518 Clear 23 1016 79 10000 1.03 0 22:19 27.09.2021
5519 Clouds 24 1015 76 10000 1.54 250 20:45 27.09.2021
5520 Clouds 25 1015 74 10000 2.06 250 19:57 27.09.2021
5521 Clouds 25 1015 71 10000 2.06 250 19:29 27.09.2021
5522 Clouds 26 1015 71 10000 1.79 247 18:51 27.09.2021
5523 Clouds 27 1015 62 10000 1.79 251 17:30 27.09.2021
5524 Clouds 27 1015 64 10000 1.34 206 16:51 27.09.2021
5525 Clouds 27 1016 63 10000 1.34 224 15:45 27.09.2021
5526 Clouds 27 1016 66 10000 0.89 215 15:19 27.09.2021
5527 Clouds 25 1016 73 10000 2.24 134 13:34 27.09.2021
5528 Rain 24 1018 83 10000 2.57 180 11:59 27.09.2021
5529 Rain 23 1017 74 10000 1.03 0 10:38 27.09.2021
5530 Rain 23 1017 76 10000 1.34 150 09:28 27.09.2021
5531 Clear 22 1016 79 10000 2.68 193 06:30 27.09.2021
5532 Clear 23 1017 76 10000 0.89 153 03:29 27.09.2021
5533 Clouds 23 1019 82 10000 1.79 161 22:39 26.09.2021
5534 Clear 24 1019 80 10000 2.06 200 21:53 26.09.2021
5535 Clear 24 1019 79 10000 3.6 190 21:26 26.09.2021
5536 Clear 25 1018 74 10000 1.34 144 20:24 26.09.2021
5537 Clear 25 1018 69 10000 1.79 250 19:52 26.09.2021
5538 Clouds 26 1017 63 10000 2.24 148 18:48 26.09.2021
5539 Clouds 27 1017 57 10000 1.79 188 17:59 26.09.2021
5540 Clouds 27 1018 56 10000 1.79 151 17:36 26.09.2021
5541 Clouds 28 1018 58 10000 2.68 190 17:18 26.09.2021
5542 Clouds 28 1018 55 10000 1.79 225 16:21 26.09.2021
5543 Clouds 28 1019 61 10000 1.34 140 15:22 26.09.2021
5544 Clouds 27 1021 61 10000 0.45 173 13:59 26.09.2021
5545 Clouds 27 1021 58 10000 1.54 290 13:31 26.09.2021
5546 Clouds 26 1021 57 10000 2.24 244 12:25 26.09.2021
5547 Clouds 26 1021 51 10000 0.45 260 11:52 26.09.2021
5548 Clouds 25 1022 58 10000 1.03 0 10:52 26.09.2021
5549 Clouds 22 1020 65 10000 1.03 20 09:37 26.09.2021
5550 Clouds 20 1020 73 10000 1.03 50 08:20 26.09.2021
5551 Clear 21 1021 78 10000 2.57 90 00:28 26.09.2021
5552 Clear 21 1020 79 10000 1.54 100 23:41 25.09.2021
5553 Clear 22 1020 76 10000 2.57 190 22:39 25.09.2021
5554 Clear 22 1020 77 10000 2.06 210 22:18 25.09.2021
5555 Clear 23 1020 73 10000 2.06 230 21:33 25.09.2021
5556 Clear 23 1020 70 10000 0.45 203 20:51 25.09.2021
5557 Clear 24 1019 62 10000 0.45 214 19:33 25.09.2021
5558 Clear 26 1020 53 10000 0.45 196 18:27 25.09.2021
5559 Clear 28 1019 49 10000 1.79 242 17:18 25.09.2021
5560 Clear 28 1020 42 10000 0.89 204 14:25 25.09.2021
5561 Clear 29 1020 40 10000 2.24 233 13:54 25.09.2021
5562 Clear 27 1020 46 10000 1.03 0 12:36 25.09.2021
5563 Clear 23 1020 64 10000 1.54 350 10:36 25.09.2021
5564 Clear 22 1020 66 10000 1.54 20 09:56 25.09.2021
5565 Clear 20 1020 72 10000 1.03 40 08:52 25.09.2021
5566 Clear 18 1019 73 10000 1.54 70 07:46 25.09.2021
5567 Clear 19 1019 77 10000 2.57 120 00:50 25.09.2021
5568 Clear 19 1019 77 10000 2.57 120 00:50 25.09.2021
5569 Clear 21 1019 71 10000 1.54 210 21:58 24.09.2021
5570 Clear 21 1019 70 10000 1.03 220 21:25 24.09.2021
5571 Clear 22 1019 67 10000 1.54 230 20:31 24.09.2021
5572 Clear 25 1018 59 10000 0.45 180 18:36 24.09.2021
5573 Clouds 25 1018 57 10000 1.79 248 17:56 24.09.2021
5574 Clear 26 1018 56 10000 1.79 240 17:38 24.09.2021
5575 Clear 26 1018 56 10000 2.24 159 17:19 24.09.2021
5576 Clouds 27 1018 53 10000 2.68 218 15:38 24.09.2021
5577 Clouds 26 1020 52 10000 2.06 170 13:20 24.09.2021
5578 Clear 26 1020 55 10000 1.03 0 12:42 24.09.2021
5579 Clear 25 1020 57 10000 0.89 258 12:24 24.09.2021
5580 Clear 23 1020 64 10000 1.54 50 10:49 24.09.2021
5581 Clear 19 1019 75 10000 1.03 0 08:59 24.09.2021
5582 Clear 17 1019 79 10000 0.45 104 07:55 24.09.2021
5583 Clear 16 1019 80 10000 0.45 26 06:57 24.09.2021
5584 Clear 17 1019 82 10000 0.51 0 05:22 24.09.2021
5585 Clear 18 1019 79 10000 2.57 120 02:29 24.09.2021
5586 Clear 20 1020 73 10000 2.06 160 22:37 23.09.2021
5587 Clear 20 1019 72 10000 1.19 290 21:58 23.09.2021
5588 Clear 21 1019 68 10000 2.06 200 20:52 23.09.2021
5589 Clear 21 1019 68 10000 1.54 230 20:27 23.09.2021
5590 Clear 24 1019 59 10000 1.34 276 18:27 23.09.2021
5591 Clouds 26 1019 48 10000 2.68 318 15:37 23.09.2021
5592 Clouds 26 1019 48 10000 1.79 250 15:18 23.09.2021
5593 Clouds 26 1020 40 10000 1.79 234 13:57 23.09.2021
5594 Clouds 25 1021 40 10000 1.79 298 13:23 23.09.2021
5595 Clouds 25 1021 45 10000 0.45 78 12:54 23.09.2021
5596 Clouds 24 1021 45 10000 2.06 10 12:24 23.09.2021
5597 Clouds 24 1021 48 10000 1.34 279 11:56 23.09.2021
5598 Clouds 22 1020 47 10000 1.34 40 10:29 23.09.2021
5599 Clouds 21 1020 49 10000 1.34 29 09:53 23.09.2021
5600 Clear 19 1020 54 10000 2.24 150 08:55 23.09.2021
5601 Clouds 17 1019 62 10000 1.79 68 05:29 23.09.2021
5602 Clear 20 1019 60 10000 0.45 18 23:48 22.09.2021
5603 Clear 20 1019 64 10000 0.45 56 22:49 22.09.2021
5604 Clear 21 1018 69 10000 1.03 0 22:18 22.09.2021
5605 Clear 21 1017 66 10000 2.06 160 21:41 22.09.2021
5606 Clear 22 1017 65 10000 2.06 240 20:57 22.09.2021
5607 Clear 23 1017 58 10000 0.89 245 19:34 22.09.2021
5608 Clear 25 1017 53 10000 1.79 306 18:47 22.09.2021
5609 Clear 25 1017 52 10000 2.24 306 18:25 22.09.2021
5610 Clear 28 1016 46 10000 2.68 260 16:57 22.09.2021
5611 Clouds 28 1017 38 10000 4.02 269 15:38 22.09.2021
5612 Clear 28 1019 39 10000 0.45 270 14:25 22.09.2021
5613 Clear 26 1020 49 10000 0.45 47 12:55 22.09.2021
5614 Clear 24 1019 56 10000 2.57 40 10:59 22.09.2021
5615 Clear 20 1020 64 10000 0.45 57 09:30 22.09.2021
5616 Clear 19 1019 65 10000 1.34 43 08:36 22.09.2021
5617 Clear 17 1019 70 10000 0.89 11 07:31 22.09.2021
5618 Clear 17 1019 69 10000 1.34 40 06:23 22.09.2021
5619 Clear 18 1019 70 10000 0.89 75 05:45 22.09.2021
5620 Clear 19 1020 70 10000 1.54 50 03:58 22.09.2021
5621 Clear 19 1020 72 10000 0.45 84 02:55 22.09.2021
5622 Clear 21 1020 77 10000 1.54 130 23:31 21.09.2021
5623 Clear 22 1020 74 10000 1.54 210 21:49 21.09.2021
5624 Clouds 23 1019 70 10000 0.45 225 20:28 21.09.2021
5625 Clouds 24 1018 62 10000 1.34 238 19:24 21.09.2021
5626 Clouds 26 1019 55 10000 0.45 238 18:35 21.09.2021
5627 Clouds 27 1019 53 10000 0.89 221 16:47 21.09.2021
5628 Clouds 26 1019 56 10000 2.24 235 15:56 21.09.2021
5629 Clouds 26 1019 57 10000 1.34 177 14:59 21.09.2021
5630 Clouds 27 1020 49 10000 1.79 219 13:58 21.09.2021
5631 Clouds 27 1020 47 10000 1.79 190 13:39 21.09.2021
5632 Clouds 26 1020 49 10000 0.45 293 12:44 21.09.2021
5633 Clear 22 1019 68 10000 1.54 10 10:42 21.09.2021
5634 Clouds 18 1019 79 10000 1.03 350 08:57 21.09.2021
5635 Clear 18 1019 77 10000 1.54 160 07:37 21.09.2021
5636 Clear 18 1018 82 10000 1.54 110 05:18 21.09.2021
5637 Clouds 22 1017 73 10000 2.57 190 22:54 20.09.2021
5638 Clouds 23 1017 73 10000 3.09 190 21:43 20.09.2021
5639 Clouds 23 1017 73 10000 3.09 190 21:25 20.09.2021
5640 Clouds 23 1014 67 10000 0.45 180 19:48 20.09.2021
5641 Clouds 24 1013 59 10000 2.24 235 17:55 20.09.2021
5642 Clouds 24 1013 59 10000 2.24 235 17:55 20.09.2021
5643 Clear 25 1013 57 10000 1.34 189 17:19 20.09.2021
5644 Clouds 26 1013 53 10000 0.89 206 16:23 20.09.2021
5645 Clouds 26 1013 52 10000 2.24 209 15:36 20.09.2021
5646 Clouds 27 1013 52 10000 3.13 195 14:38 20.09.2021
5647 Clouds 26 1013 49 10000 1.79 179 12:44 20.09.2021
5648 Clouds 26 1013 51 10000 0.89 200 12:24 20.09.2021
5649 Clouds 24 1013 57 10000 2.68 152 10:52 20.09.2021
5650 Clear 23 1013 64 10000 2.06 190 09:51 20.09.2021
5651 Clear 22 1013 67 10000 2.06 190 09:32 20.09.2021
5652 Clear 20 1014 76 10000 0.51 0 08:48 20.09.2021
5653 Clear 19 1012 74 10000 3.09 170 06:22 20.09.2021
5654 Clouds 22 1013 63 10000 3.13 235 22:58 19.09.2021
5655 Clouds 23 1013 62 10000 2.24 261 21:50 19.09.2021
5656 Clouds 23 1012 67 10000 0.89 231 21:19 19.09.2021
5657 Clouds 24 1012 72 10000 0.45 206 20:19 19.09.2021
5658 Clouds 25 1012 66 10000 1.79 149 18:54 19.09.2021
5659 Clouds 26 1012 60 10000 2.68 191 17:49 19.09.2021
5660 Clouds 27 1012 58 10000 1.79 252 16:51 19.09.2021
5661 Clouds 27 1012 57 10000 2.68 229 15:32 19.09.2021
5662 Clouds 27 1013 56 10000 4.47 217 14:49 19.09.2021
5663 Clouds 28 1013 56 10000 3.58 242 13:58 19.09.2021
5664 Clouds 27 1014 60 10000 3.13 197 12:56 19.09.2021
5665 Clouds 27 1014 60 10000 1.79 238 12:18 19.09.2021
5666 Rain 26 1013 64 10000 1.79 226 11:23 19.09.2021
5667 Clouds 24 1013 75 10000 1.54 130 09:52 19.09.2021
5668 Clouds 23 1013 75 10000 0.51 0 09:26 19.09.2021
5669 Clouds 19 1012 82 10000 0.51 0 06:49 19.09.2021
5670 Clear 21 1013 81 10000 1.54 160 01:38 19.09.2021
5671 Clear 22 1012 79 10000 1.54 200 23:25 18.09.2021
5672 Clear 23 1013 77 10000 1.34 191 21:56 18.09.2021
5673 Clouds 23 1012 77 10000 0.45 180 20:47 18.09.2021
5674 Clouds 24 1012 75 10000 1.79 167 19:58 18.09.2021
5675 Clouds 24 1012 73 10000 0.45 180 19:37 18.09.2021
5676 Clouds 25 1012 71 10000 0.45 192 19:19 18.09.2021
5677 Clear 26 1012 60 10000 2.24 206 18:30 18.09.2021
5678 Clear 29 1011 45 10000 0.89 180 16:35 18.09.2021
5679 Clouds 29 1013 47 10000 1.34 206 14:32 18.09.2021
5680 Clouds 28 1013 49 10000 2.06 240 13:45 18.09.2021
5681 Clouds 29 1013 49 10000 1.34 233 13:21 18.09.2021
5682 Clouds 28 1013 54 10000 0.89 192 12:18 18.09.2021
5683 Clouds 27 1013 61 10000 0.89 152 11:30 18.09.2021
5684 Clear 25 1013 70 10000 0.89 121 10:30 18.09.2021
5685 Clouds 23 1013 79 10000 0.45 15 09:24 18.09.2021
5686 Clouds 21 1012 85 10000 0.45 356 08:28 18.09.2021
5687 Clouds 22 1012 86 10000 1.79 146 00:53 18.09.2021
5688 Clouds 22 1012 85 10000 1.17 134 23:56 17.09.2021
5689 Clear 22 1012 83 10000 0.78 142 22:54 17.09.2021
5690 Clear 23 1012 82 10000 1.32 160 22:25 17.09.2021
5691 Clear 23 1012 81 10000 0.51 0 21:33 17.09.2021
5692 Clouds 25 1012 75 10000 3.09 280 19:34 17.09.2021
5693 Clouds 26 1011 65 10000 0.89 250 18:42 17.09.2021
5694 Clouds 27 1011 63 10000 1.34 144 16:42 17.09.2021
5695 Clouds 28 1012 60 10000 4.47 155 15:21 17.09.2021
5696 Clouds 25 1013 73 10000 4.47 204 11:51 17.09.2021
5697 Clouds 23 1013 85 10000 1.03 0 10:21 17.09.2021
5698 Rain 22 1012 85 10000 2.16 140 07:48 17.09.2021
5699 Rain 23 1012 80 10000 2.68 124 05:45 17.09.2021
5700 Clear 25 1015 68 10000 0.89 150 00:32 17.09.2021
5701 Clear 25 1015 62 10000 4.92 136 22:42 16.09.2021
5702 Clear 25 1015 59 10000 4.47 156 22:23 16.09.2021
5703 Clear 25 1015 59 10000 2.24 161 21:35 16.09.2021
5704 Clear 26 1015 54 10000 5.36 152 20:29 16.09.2021
5705 Clouds 27 1016 49 10000 4.02 177 18:52 16.09.2021
5706 Clouds 27 1016 46 10000 2.68 197 18:18 16.09.2021
5707 Clear 30 1017 39 10000 2.68 146 16:37 16.09.2021
5708 Clear 30 1016 40 10000 0.45 113 14:49 16.09.2021
5709 Clear 29 1017 45 10000 1.79 136 13:33 16.09.2021
5710 Clear 29 1018 47 10000 1.79 154 12:42 16.09.2021
5711 Clear 28 1018 49 10000 2.24 177 11:49 16.09.2021
5712 Clear 27 1018 50 10000 2.24 92 10:54 16.09.2021
5713 Clear 26 1018 58 10000 2.68 177 10:21 16.09.2021
5714 Clear 23 1018 70 10000 1.79 215 09:18 16.09.2021
5715 Clear 21 1018 74 10000 1.03 0 07:48 16.09.2021
5716 Clear 21 1018 72 10000 0.51 0 06:56 16.09.2021
5717 Clear 21 1017 72 10000 0.51 0 06:37 16.09.2021
5718 Clear 22 1018 68 10000 0.51 0 03:22 16.09.2021
5719 Clear 22 1017 69 10000 0.51 0 00:49 16.09.2021
5720 Clouds 23 1018 81 10000 2.24 104 23:24 15.09.2021
5721 Rain 23 1020 75 10000 1.54 280 22:26 15.09.2021
5722 Clear 24 1019 72 10000 1.54 190 21:31 15.09.2021
5723 Clear 24 1018 67 10000 0.45 166 20:34 15.09.2021
5724 Clear 25 1019 60 10000 0.89 245 19:33 15.09.2021
5725 Clear 27 1019 52 10000 1.34 248 18:41 15.09.2021
5726 Clear 28 1018 45 10000 3.13 194 17:39 15.09.2021
5727 Clear 29 1018 37 10000 2.24 254 16:29 15.09.2021
5728 Clear 30 1018 41 10000 1.79 252 14:59 15.09.2021
5729 Clear 30 1019 40 10000 1.79 280 14:40 15.09.2021
5730 Clear 30 1019 39 10000 1.34 293 13:45 15.09.2021
5731 Clear 30 1019 37 10000 1.79 306 13:26 15.09.2021
5732 Clear 28 1019 40 10000 1.34 226 12:29 15.09.2021
5733 Clear 27 1018 43 10000 0.45 325 11:50 15.09.2021
5734 Clear 26 1018 51 10000 0.45 6 10:57 15.09.2021
5735 Clear 24 1018 60 10000 1.54 20 09:59 15.09.2021
5736 Clear 20 1018 67 10000 0.45 20 08:46 15.09.2021
5737 Clear 19 1019 68 10000 0.51 0 07:25 15.09.2021
5738 Clear 21 1018 73 10000 1.54 170 00:41 15.09.2021
5739 Clear 22 1018 71 10000 1.54 230 22:22 14.09.2021
5740 Clear 23 1018 66 10000 1.54 260 21:19 14.09.2021
5741 Clear 24 1018 60 10000 0.89 260 20:18 14.09.2021
5742 Clear 26 1017 52 10000 0.89 244 18:44 14.09.2021
5743 Clear 27 1017 45 10000 2.68 288 17:32 14.09.2021
5744 Clear 29 1017 37 10000 4.02 272 15:59 14.09.2021
5745 Clear 30 1017 33 10000 1.79 278 14:32 14.09.2021
5746 Clear 30 1017 35 10000 2.68 202 13:33 14.09.2021
5747 Clear 27 1017 49 10000 0.89 26 10:57 14.09.2021
5748 Clear 24 1017 58 10000 0.45 32 09:52 14.09.2021
5749 Clear 22 1017 66 10000 0.45 80 09:18 14.09.2021
5750 Clouds 18 1016 72 10000 1.03 0 07:28 14.09.2021
5751 Clear 22 1016 79 10000 2.06 170 00:57 14.09.2021
5752 Clear 23 1016 79 10000 0.45 203 23:18 13.09.2021
5753 Clear 23 1016 78 10000 2.57 200 22:27 13.09.2021
5754 Clear 23 1016 76 10000 0.45 203 21:54 13.09.2021
5755 Clear 24 1015 73 10000 0.45 180 21:19 13.09.2021
5756 Clear 24 1015 73 10000 0.45 180 21:19 13.09.2021
5757 Clear 26 1014 61 10000 2.24 293 19:34 13.09.2021
5758 Clear 28 1014 48 10000 3.13 285 18:43 13.09.2021
5759 Clear 30 1015 36 10000 3.58 281 17:18 13.09.2021
5760 Clouds 30 1014 38 10000 3.13 233 15:55 13.09.2021
5761 Clear 31 1015 35 10000 2.24 258 14:19 13.09.2021
5762 Clear 27 1016 44 10000 1.34 354 11:21 13.09.2021
5763 Clear 24 1015 51 10000 0.89 83 09:54 13.09.2021
5764 Clear 20 1014 66 10000 0.89 38 07:46 13.09.2021
5765 Clear 22 1014 75 10000 2.06 170 23:50 12.09.2021
5766 Clear 23 1014 68 10000 0.45 180 22:27 12.09.2021
5767 Clear 23 1014 67 10000 2.57 210 21:51 12.09.2021
5768 Clear 24 1013 59 10000 1.03 210 20:41 12.09.2021
5769 Clouds 25 1013 57 10000 1.34 252 19:54 12.09.2021
5770 Clear 26 1013 46 10000 1.34 204 19:28 12.09.2021
5771 Clear 28 1013 42 10000 2.24 234 18:32 12.09.2021
5772 Clouds 29 1012 35 10000 2.68 279 16:42 12.09.2021
5773 Clouds 30 1013 30 10000 3.58 259 15:29 12.09.2021
5774 Clear 29 1014 32 10000 0.89 203 13:55 12.09.2021
5775 Clear 28 1014 44 10000 0.45 310 11:49 12.09.2021
5776 Clear 25 1014 52 10000 0.89 84 10:18 12.09.2021
5777 Clear 22 1014 61 10000 0.89 11 08:38 12.09.2021
5778 Clear 20 1013 71 10000 0.45 65 02:56 12.09.2021
5779 Clear 21 1014 71 10000 1.54 170 00:44 12.09.2021
5780 Clear 22 1014 63 10000 1.03 210 22:29 11.09.2021
5781 Clear 23 1014 60 10000 0.51 0 21:37 11.09.2021
5782 Rain 25 1013 56 10000 1.03 0 19:33 11.09.2021
5783 Clouds 28 1012 39 10000 4.63 260 17:56 11.09.2021
5784 Clouds 29 1012 39 10000 3.58 249 16:24 11.09.2021
5785 Clouds 30 1013 33 10000 3.13 225 14:27 11.09.2021
5786 Clear 30 1014 35 10000 0.45 225 13:20 11.09.2021
5787 Clear 28 1014 45 10000 0.89 346 11:34 11.09.2021
5788 Clear 23 1014 61 10000 1.34 44 09:41 11.09.2021
5789 Clear 20 1014 72 10000 0.45 17 07:53 11.09.2021
5790 Clear 20 1014 73 10000 0.45 21 07:34 11.09.2021
5791 Clear 22 1016 73 10000 0.51 0 01:20 11.09.2021
5792 Clear 23 1015 66 10000 1.54 120 22:27 10.09.2021
5793 Clear 23 1015 63 10000 1.54 60 21:56 10.09.2021
5794 Clear 24 1015 59 10000 1.54 240 20:41 10.09.2021
5795 Clear 26 1015 51 10000 0.45 248 18:34 10.09.2021
5796 Clouds 26 1015 45 10000 1.34 254 17:27 10.09.2021
5797 Clear 28 1015 45 10000 1.79 156 15:37 10.09.2021
5798 Clouds 28 1015 41 10000 0.45 203 13:18 10.09.2021
5799 Clear 25 1016 57 10000 3.09 360 10:21 10.09.2021
5800 Clear 20 1015 68 10000 1.54 30 07:51 10.09.2021
5801 Clear 19 1016 68 10000 1.03 0 04:21 10.09.2021
5802 Clear 22 1016 64 10000 1.54 130 22:33 09.09.2021
5803 Clear 23 1017 68 10000 1.54 220 21:46 09.09.2021
5804 Clear 24 1015 59 10000 0.45 203 20:47 09.09.2021
5805 Clear 24 1015 58 10000 0.45 180 20:22 09.09.2021
5806 Clear 27 1014 43 10000 0.89 248 18:35 09.09.2021
5807 Clouds 29 1014 34 10000 1.34 203 16:41 09.09.2021
5808 Clouds 29 1014 36 10000 2.68 242 16:21 09.09.2021
5809 Clouds 28 1016 39 10000 1.34 140 13:22 09.09.2021
5810 Clear 27 1016 44 10000 1.54 0 11:49 09.09.2021
5811 Clear 24 1016 54 10000 1.03 0 10:31 09.09.2021
5812 Clear 22 1017 64 10000 1.31 55 08:58 09.09.2021
5813 Clear 18 1016 69 10000 0.45 57 06:39 09.09.2021
5814 Clear 18 1016 70 10000 1.54 60 03:44 09.09.2021
5815 Clear 21 1017 66 10000 2.06 60 22:53 08.09.2021
5816 Clear 21 1016 65 10000 2.24 23 21:36 08.09.2021
5817 Drizzle 22 1016 65 10000 1.34 114 20:19 08.09.2021
5818 Rain 24 1017 59 10000 4.12 0 19:23 08.09.2021
5819 Clear 24 1015 53 10000 3.09 220 18:31 08.09.2021
5820 Clear 24 1015 53 10000 3.09 220 18:30 08.09.2021
5821 Clouds 25 1015 50 10000 4.12 240 17:57 08.09.2021
5822 Clear 26 1016 51 10000 1.79 235 16:38 08.09.2021
5823 Clouds 29 1017 40 10000 2.68 144 14:30 08.09.2021
5824 Clouds 29 1017 40 10000 2.68 144 14:30 08.09.2021
5825 Clouds 29 1017 40 10000 2.68 144 14:30 08.09.2021
5826 Clear 29 1018 41 10000 0.45 253 12:57 08.09.2021
5827 Clear 28 1018 40 10000 1.79 235 12:28 08.09.2021
5828 Clear 27 1018 44 10000 1.79 149 11:38 08.09.2021
5829 Clear 26 1018 50 10000 1.34 144 10:50 08.09.2021
5830 Clear 25 1018 55 10000 1.54 0 10:25 08.09.2021
5831 Clear 22 1018 64 10000 0.45 43 09:21 08.09.2021
5832 Clear 20 1017 68 10000 2.06 60 07:38 08.09.2021
5833 Clear 21 1017 65 10000 1.54 30 05:35 08.09.2021
5834 Clear 23 1018 65 10000 0.51 0 22:50 07.09.2021
5835 Clear 23 1018 65 10000 1.03 0 22:18 07.09.2021
5836 Clear 25 1017 60 10000 0.45 248 20:23 07.09.2021
5837 Clear 26 1017 48 10000 0.89 310 18:45 07.09.2021
5838 Clear 27 1017 41 10000 1.34 246 18:18 07.09.2021
5839 Clear 29 1017 36 10000 2.68 224 16:47 07.09.2021
5840 Clear 29 1018 33 10000 2.68 279 15:40 07.09.2021
5841 Clouds 29 1018 33 10000 2.24 265 14:44 07.09.2021
5842 Clear 28 1020 39 10000 1.79 323 12:44 07.09.2021
5843 Clear 28 1019 40 10000 1.79 93 11:51 07.09.2021
5844 Clear 26 1019 47 10000 0.89 340 10:41 07.09.2021
5845 Clear 22 1019 61 10000 0.89 62 08:39 07.09.2021
5846 Clear 20 1019 62 10000 0.89 58 07:44 07.09.2021
5847 Clear 20 1018 68 10000 1.34 36 05:41 07.09.2021
5848 Clear 21 1019 65 10000 1.03 0 02:38 07.09.2021
5849 Clear 22 1019 63 10000 1.54 140 00:52 07.09.2021
5850 Clear 22 1019 62 10000 2.57 170 23:35 06.09.2021
5851 Clear 23 1018 60 10000 2.06 180 22:54 06.09.2021
5852 Clouds 24 1018 60 10000 2.06 180 22:35 06.09.2021
5853 Clouds 24 1018 57 10000 2.06 240 21:25 06.09.2021
5854 Clouds 26 1018 48 10000 0.45 275 19:31 06.09.2021
5855 Clear 27 1017 46 10000 1.79 231 18:50 06.09.2021
5856 Clear 28 1017 46 10000 2.24 254 18:24 06.09.2021
5857 Clouds 29 1017 44 10000 2.24 269 17:36 06.09.2021
5858 Clouds 29 1017 42 10000 3.13 240 15:52 06.09.2021
5859 Clouds 29 1018 42 10000 2.68 252 14:25 06.09.2021
5860 Clear 28 1019 44 10000 1.34 275 12:48 06.09.2021
5861 Clear 26 1018 46 10000 2.06 40 10:54 06.09.2021
5862 Clear 21 1017 66 10000 1.79 85 08:35 06.09.2021
5863 Clear 18 1016 73 10000 0.89 40 06:47 06.09.2021
5864 Clear 21 1017 67 10000 0.45 81 23:37 05.09.2021
5865 Clear 21 1017 68 10000 0.45 82 22:50 05.09.2021
5866 Clear 22 1017 68 10000 1.34 92 22:28 05.09.2021
5867 Clear 22 1016 67 10000 2.57 180 21:49 05.09.2021
5868 Clear 24 1015 56 10000 1.34 171 20:33 05.09.2021
5869 Clouds 26 1014 49 10000 0.45 152 18:56 05.09.2021
5870 Clouds 28 1014 39 10000 3.13 232 17:34 05.09.2021
5871 Clear 30 1014 37 10000 4.02 311 15:28 05.09.2021
5872 Clouds 30 1014 37 10000 1.34 221 14:19 05.09.2021
5873 Clear 28 1015 49 10000 1.34 17 12:29 05.09.2021
5874 Clear 26 1015 54 10000 0.89 32 10:53 05.09.2021
5875 Clear 25 1015 57 10000 0.45 19 10:23 05.09.2021
5876 Clear 23 1015 66 10000 0.89 334 09:22 05.09.2021
5877 Clear 20 1014 75 10000 1.03 70 07:51 05.09.2021
5878 Clear 22 1014 73 10000 2.57 170 01:22 05.09.2021
5879 Clear 22 1013 70 10000 1.54 170 00:27 05.09.2021
5880 Clear 22 1014 73 10000 2.57 190 23:39 04.09.2021
5881 Clear 23 1014 69 10000 2.06 170 22:36 04.09.2021
5882 Clear 24 1014 69 10000 2.06 200 21:56 04.09.2021
5883 Clear 25 1012 57 10000 4.12 260 19:42 04.09.2021
5884 Clear 27 1012 54 10000 4.63 250 18:43 04.09.2021
5885 Clouds 29 1012 44 10000 3.58 269 16:23 04.09.2021
5886 Clear 29 1014 47 10000 2.57 70 13:22 04.09.2021
5887 Clouds 27 1014 53 10000 1.34 63 11:19 04.09.2021
5888 Clouds 23 1013 67 10000 2.06 330 09:19 04.09.2021
5889 Clear 20 1012 77 10000 1.03 10 05:53 04.09.2021
5890 Clear 21 1014 74 10000 1.54 210 00:27 04.09.2021
5891 Clear 22 1014 74 10000 1.03 0 23:32 03.09.2021
5892 Clear 23 1014 71 10000 0.45 1 22:35 03.09.2021
5893 Clear 24 1014 67 10000 2.57 200 21:35 03.09.2021
5894 Clear 24 1014 67 10000 2.57 200 21:35 03.09.2021
5895 Clear 25 1014 63 10000 1.54 260 20:42 03.09.2021
5896 Clear 26 1014 60 10000 0.45 180 19:50 03.09.2021
5897 Clear 26 1014 59 10000 0.45 180 19:18 03.09.2021
5898 Clouds 28 1015 46 10000 1.79 222 17:47 03.09.2021
5899 Clouds 29 1016 39 10000 3.09 220 16:34 03.09.2021
5900 Clouds 28 1016 45 10000 0.45 180 14:53 03.09.2021
5901 Clouds 26 1018 56 10000 0.89 6 11:59 03.09.2021
5902 Clouds 23 1018 62 10000 1.34 6 10:27 03.09.2021
5903 Clear 22 1018 64 10000 0.45 91 08:46 03.09.2021
5904 Clear 21 1018 66 10000 0.45 48 07:43 03.09.2021
5905 Clouds 22 1018 76 10000 1.03 90 01:39 03.09.2021
5906 Clear 23 1019 77 10000 1.54 160 22:57 02.09.2021
5907 Clouds 24 1019 75 10000 2.06 210 21:31 02.09.2021
5908 Clear 25 1019 67 10000 0.45 225 19:55 02.09.2021
5909 Clear 28 1019 51 10000 2.68 226 17:32 02.09.2021
5910 Clear 30 1019 40 10000 1.79 319 15:50 02.09.2021
5911 Clear 30 1019 37 10000 2.68 23 13:57 02.09.2021
5912 Clear 29 1021 44 10000 0.89 284 12:42 02.09.2021
5913 Clear 27 1021 48 10000 0.45 18 11:34 02.09.2021
5914 Clear 24 1020 58 10000 0.45 65 09:40 02.09.2021
5915 Clear 20 1020 65 10000 0.45 48 07:47 02.09.2021
5916 Clear 19 1020 70 10000 0.45 74 07:18 02.09.2021
5917 Clear 19 1020 70 10000 0.45 74 07:18 02.09.2021
5918 Clear 20 1018 66 10000 0.45 21 02:54 02.09.2021
5919 Clear 21 1018 69 10000 0.51 160 01:55 02.09.2021
5920 Clear 21 1019 68 10000 1.54 190 01:23 02.09.2021
5921 Clear 22 1019 66 10000 1.54 170 23:37 01.09.2021
5922 Clear 23 1018 64 10000 0.45 180 22:34 01.09.2021
5923 Clear 24 1018 60 10000 0.45 180 21:35 01.09.2021
5924 Clear 25 1018 53 10000 0.45 220 20:28 01.09.2021
5925 Clouds 28 1017 45 10000 1.79 262 18:29 01.09.2021
5926 Clouds 29 1017 41 10000 2.24 182 17:37 01.09.2021
5927 Clear 30 1017 38 10000 4.02 199 16:46 01.09.2021
5928 Clouds 30 1017 32 10000 3.13 264 15:25 01.09.2021
5929 Clouds 27 1018 49 10000 2.24 306 11:50 01.09.2021
5930 Clouds 26 1018 54 10000 0.45 300 10:59 01.09.2021
5931 Clear 21 1017 71 10000 2.06 20 08:46 01.09.2021
5932 Clear 18 1017 75 10000 3.09 80 07:51 01.09.2021
5933 Clear 20 1016 73 10000 1.03 150 01:48 01.09.2021
5934 Clear 22 1017 73 10000 0.51 0 22:33 31.08.2021
5935 Clouds 23 1016 65 10000 2.06 210 21:22 31.08.2021
5936 Clear 25 1015 60 10000 1.34 304 19:45 31.08.2021
5937 Clouds 27 1014 53 10000 3.13 244 18:27 31.08.2021
5938 Clouds 27 1014 49 10000 1.79 180 17:36 31.08.2021
5939 Clouds 28 1014 48 10000 5.14 250 16:52 31.08.2021
5940 Clouds 28 1014 46 10000 2.24 200 16:23 31.08.2021
5941 Clear 29 1015 36 10000 3.13 157 12:56 31.08.2021
5942 Clear 27 1015 34 10000 2.06 300 11:26 31.08.2021
5943 Clear 26 1015 37 10000 2.06 60 10:52 31.08.2021
5944 Clear 24 1015 47 10000 0.89 50 09:43 31.08.2021
5945 Clear 19 1015 61 10000 1.54 350 08:37 31.08.2021
5946 Clear 18 1014 59 10000 0.51 0 05:58 31.08.2021
5947 Clear 19 1015 65 10000 1.54 140 01:36 31.08.2021
5948 Clear 21 1014 63 10000 2.06 160 23:35 30.08.2021
5949 Clear 22 1014 59 10000 2.06 210 21:43 30.08.2021
5950 Clear 24 1013 53 10000 2.06 230 20:42 30.08.2021
5951 Clear 24 1013 49 10000 0.89 259 20:18 30.08.2021
5952 Clear 26 1013 41 10000 1.34 250 19:29 30.08.2021
5953 Clear 27 1012 37 10000 2.24 186 18:29 30.08.2021
5954 Clear 28 1012 32 10000 2.24 308 17:44 30.08.2021
5955 Clear 28 1013 29 10000 2.24 238 16:19 30.08.2021
5956 Clouds 28 1013 36 10000 1.79 44 14:51 30.08.2021
5957 Clear 28 1013 35 10000 2.24 262 13:27 30.08.2021
5958 Clear 27 1014 37 10000 0.89 150 11:57 30.08.2021
5959 Clear 19 1012 61 10000 1.54 360 08:27 30.08.2021
5960 Clear 21 1011 49 10000 0.89 312 22:20 29.08.2021
5961 Clear 22 1011 50 10000 1.34 286 21:31 29.08.2021
5962 Clear 26 1009 33 10000 1.34 275 19:33 29.08.2021
5963 Clear 27 1009 32 10000 3.13 307 18:30 29.08.2021
5964 Clear 29 1008 27 10000 2.24 321 16:33 29.08.2021
5965 Clear 29 1009 26 10000 2.24 59 15:25 29.08.2021
5966 Clear 28 1010 30 10000 2.24 18 13:57 29.08.2021
5967 Clear 27 1010 34 10000 3.13 328 12:58 29.08.2021
5968 Clear 26 1010 38 10000 1.79 318 12:21 29.08.2021
5969 Clear 25 1009 41 10000 2.24 15 11:41 29.08.2021
5970 Clear 24 1009 45 10000 1.34 69 10:49 29.08.2021
5971 Clear 23 1010 50 10000 0.89 352 10:30 29.08.2021
5972 Clear 21 1009 54 10000 1.34 68 09:44 29.08.2021
5973 Clear 18 1008 64 10000 1.34 32 04:39 29.08.2021
5974 Clear 20 1010 69 10000 0.45 62 23:33 28.08.2021
5975 Clear 23 1008 61 10000 2.57 10 20:46 28.08.2021
5976 Clear 25 1008 58 10000 3.09 20 19:36 28.08.2021
5977 Clouds 26 1008 58 10000 3.6 20 18:27 28.08.2021
5978 Clouds 26 1008 60 10000 1.79 51 17:47 28.08.2021
5979 Clouds 27 1008 56 10000 0.89 1 16:56 28.08.2021
5980 Clouds 27 1007 54 10000 3.58 238 15:20 28.08.2021
5981 Clouds 27 1007 62 10000 1.79 238 13:59 28.08.2021
5982 Clouds 26 1007 63 10000 2.68 269 13:41 28.08.2021
5983 Rain 27 1007 62 10000 4.47 254 12:35 28.08.2021
5984 Clouds 27 1006 58 10000 0.89 203 11:40 28.08.2021
5985 Clouds 26 1007 61 10000 3.13 163 10:18 28.08.2021
5986 Clouds 22 1007 69 10000 1.79 113 07:57 28.08.2021
5987 Clouds 23 1009 71 10000 0.89 148 00:59 28.08.2021
5988 Clouds 24 1009 69 10000 0.45 208 21:45 27.08.2021
5989 Clouds 25 1009 66 10000 0.89 203 20:53 27.08.2021
5990 Clouds 26 1008 59 10000 1.34 180 19:43 27.08.2021
5991 Clouds 27 1008 55 10000 0.89 203 18:39 27.08.2021
5992 Clouds 28 1009 54 10000 2.24 212 17:54 27.08.2021
5993 Clouds 28 1008 52 10000 1.79 180 16:41 27.08.2021
5994 Clouds 28 1008 55 10000 1.79 180 14:50 27.08.2021
5995 Clouds 28 1008 55 10000 1.79 180 14:31 27.08.2021
5996 Clouds 27 1008 59 10000 1.79 180 12:27 27.08.2021
5997 Clouds 26 1009 62 10000 0.89 180 10:58 27.08.2021
5998 Clouds 26 1008 65 10000 1.34 180 10:36 27.08.2021
5999 Clouds 24 1009 75 10000 0.45 180 09:19 27.08.2021
6000 Clouds 23 1008 80 10000 0.51 0 08:35 27.08.2021
6001 Clouds 21 1007 80 10000 1.48 174 05:38 27.08.2021
6002 Clear 22 1009 78 10000 1.54 200 00:48 27.08.2021
6003 Clear 22 1009 77 10000 1.54 160 00:28 27.08.2021
6004 Clear 22 1009 77 10000 1.54 160 00:28 27.08.2021
6005 Clouds 23 1009 73 10000 2.06 200 22:27 26.08.2021
6006 Clouds 24 1009 73 10000 2.06 230 21:48 26.08.2021
6007 Clear 26 1008 60 10000 0.89 180 19:43 26.08.2021
6008 Clear 27 1008 56 10000 0.89 158 18:34 26.08.2021
6009 Clouds 28 1008 51 10000 1.34 248 17:25 26.08.2021
6010 Clouds 28 1008 51 10000 1.34 248 17:25 26.08.2021
6011 Clear 29 1008 49 10000 1.79 248 16:29 26.08.2021
6012 Clouds 29 1010 47 10000 1.34 248 14:47 26.08.2021
6013 Clouds 30 1010 42 10000 0.45 135 13:21 26.08.2021
6014 Clouds 29 1010 46 10000 0.45 225 12:33 26.08.2021
6015 Clear 28 1010 52 10000 2.06 250 11:38 26.08.2021
6016 Clear 24 1010 77 10000 1.54 40 08:51 26.08.2021
6017 Clouds 23 1010 80 10000 1.54 50 08:19 26.08.2021
6018 Clear 23 1010 72 10000 1.03 130 23:43 25.08.2021
6019 Clear 24 1010 71 10000 1.54 10 22:41 25.08.2021
6020 Clear 24 1010 70 10000 0.51 0 22:23 25.08.2021
6021 Clear 25 1010 67 10000 2.06 220 20:57 25.08.2021
6022 Clouds 25 1011 68 10000 2.57 260 20:30 25.08.2021
6023 Clouds 26 1010 66 10000 0.45 180 19:24 25.08.2021
6024 Clouds 27 1010 58 10000 1.34 180 17:53 25.08.2021
6025 Rain 29 1010 53 10000 0.89 225 15:59 25.08.2021
6026 Rain 29 1010 53 10000 0.89 225 15:59 25.08.2021
6027 Clouds 30 1010 51 10000 0.89 270 15:32 25.08.2021
6028 Clouds 30 1010 50 10000 0.89 180 14:46 25.08.2021
6029 Clouds 30 1010 50 10000 0.45 203 13:53 25.08.2021
6030 Clear 27 1011 58 10000 2.06 10 11:42 25.08.2021
6031 Clear 27 1011 59 10000 2.06 10 11:19 25.08.2021
6032 Clouds 25 1011 67 10000 3.09 40 09:59 25.08.2021
6033 Clouds 24 1011 69 10000 2.57 40 09:35 25.08.2021
6034 Clouds 22 1011 79 10000 1.54 340 08:35 25.08.2021
6035 Clouds 20 1010 81 10000 2.06 70 06:37 25.08.2021
6036 Clear 21 1012 76 10000 1.03 10 01:20 25.08.2021
6037 Clear 21 1010 79 10000 1.54 70 23:23 24.08.2021
6038 Clear 22 1012 76 10000 3.09 50 21:18 24.08.2021
6039 Clouds 24 1012 73 10000 3.09 100 19:55 24.08.2021
6040 Clouds 24 1012 78 10000 5.66 70 19:31 24.08.2021
6041 Clouds 27 1011 54 10000 4.42 216 17:54 24.08.2021
6042 Clouds 28 1011 73 10000 1.54 50 17:21 24.08.2021
6043 Rain 29 1012 57 10000 3.6 100 15:56 24.08.2021
6044 Thunderstorm 30 1010 52 10000 5.14 150 13:46 24.08.2021
6045 Clouds 30 1011 47 10000 0.45 180 12:44 24.08.2021
6046 Clouds 28 1011 51 10000 0.45 113 11:19 24.08.2021
6047 Clear 28 1011 55 10000 0.45 45 10:46 24.08.2021
6048 Clouds 26 1011 65 10000 0.45 68 09:46 24.08.2021
6049 Clouds 22 1011 72 10000 1.03 140 07:41 24.08.2021
6050 Clear 22 1011 74 10000 1.54 100 05:39 24.08.2021
6051 Clear 22 1013 78 10000 2.06 150 02:44 24.08.2021
6052 Clear 24 1013 79 10000 0.45 180 23:32 23.08.2021
6053 Clear 25 1013 77 10000 2.57 210 22:43 23.08.2021
6054 Clear 25 1012 69 10000 0.89 248 21:18 23.08.2021
6055 Clouds 28 1012 59 10000 0.89 180 19:39 23.08.2021
6056 Clouds 30 1012 49 10000 1.34 225 17:45 23.08.2021
6057 Clouds 30 1013 53 10000 1.34 225 15:37 23.08.2021
6058 Clouds 30 1013 50 10000 0.89 248 13:53 23.08.2021
6059 Clouds 29 1014 56 10000 0.45 270 12:31 23.08.2021
6060 Clouds 28 1014 60 10000 0.89 180 10:47 23.08.2021
6061 Clouds 27 1014 62 10000 0.45 158 09:54 23.08.2021
6062 Clouds 25 1014 61 10000 2.06 190 08:35 23.08.2021
6063 Clear 22 1013 66 10000 2.06 150 06:59 23.08.2021
6064 Clear 22 1013 66 10000 2.06 150 06:39 23.08.2021
6065 Clear 24 1016 72 10000 2.06 170 00:59 23.08.2021
6066 Clear 24 1016 71 10000 0.45 225 23:39 22.08.2021
6067 Clear 25 1016 63 10000 0.89 180 22:42 22.08.2021
6068 Clear 27 1015 55 10000 0.45 180 20:58 22.08.2021
6069 Clear 27 1015 51 10000 0.45 203 20:19 22.08.2021
6070 Clear 27 1015 51 10000 0.45 203 20:19 22.08.2021
6071 Clear 31 1015 36 10000 1.34 203 18:29 22.08.2021
6072 Clear 34 1015 28 10000 1.79 248 15:49 22.08.2021
6073 Clear 34 1015 31 10000 0.89 158 14:53 22.08.2021
6074 Clear 33 1016 34 10000 0.89 248 13:40 22.08.2021
6075 Clear 33 1016 35 10000 0.89 180 13:19 22.08.2021
6076 Clear 33 1017 38 10000 0.45 248 12:40 22.08.2021
6077 Clear 31 1017 43 10000 0.45 225 11:44 22.08.2021
6078 Clear 31 1017 45 10000 2.06 0 11:19 22.08.2021
6079 Clear 25 1016 63 10000 3.09 50 08:41 22.08.2021
6080 Clear 21 1015 73 10000 1.54 90 06:59 22.08.2021
6081 Clear 23 1016 80 10000 1.54 190 02:30 22.08.2021
6082 Clear 26 1016 66 10000 2.57 200 22:36 21.08.2021
6083 Clear 27 1016 55 10000 0.45 180 21:34 21.08.2021
6084 Clear 30 1015 45 10000 0.89 248 18:47 21.08.2021
6085 Clear 31 1015 45 10000 1.34 203 18:25 21.08.2021
6086 Clouds 32 1015 44 10000 1.34 293 16:58 21.08.2021
6087 Clouds 32 1015 42 10000 1.34 248 16:30 21.08.2021
6088 Clouds 33 1015 40 10000 2.24 248 15:38 21.08.2021
6089 Clouds 33 1015 40 10000 2.24 248 15:38 21.08.2021
6090 Clouds 32 1015 41 10000 1.79 203 15:20 21.08.2021
6091 Clear 32 1017 37 10000 2.06 0 13:35 21.08.2021
6092 Clear 31 1017 40 10000 0.45 203 12:39 21.08.2021
6093 Clear 28 1016 50 10000 2.06 360 10:39 21.08.2021
6094 Clear 22 1015 66 10000 2.57 40 07:50 21.08.2021
6095 Clear 22 1015 66 10000 2.57 40 07:50 21.08.2021
6096 Clear 23 1016 77 10000 1.03 0 23:51 20.08.2021
6097 Clear 24 1016 72 10000 1.03 320 21:54 20.08.2021
6098 Clouds 28 1013 48 10000 3.6 100 18:43 20.08.2021
6099 Clear 30 1013 47 10000 1.34 158 16:29 20.08.2021
6100 Clouds 31 1013 46 10000 1.34 225 13:54 20.08.2021
6101 Clear 30 1014 51 10000 0.45 180 11:51 20.08.2021
6102 Clear 29 1014 53 10000 0.45 203 11:25 20.08.2021
6103 Clear 27 1013 61 10000 1.03 0 09:45 20.08.2021
6104 Clear 24 1013 71 10000 2.06 340 08:54 20.08.2021
6105 Clear 24 1013 72 10000 2.06 340 08:35 20.08.2021
6106 Clear 22 1012 76 10000 1.03 0 04:36 20.08.2021
6107 Clear 22 1012 76 10000 1.54 90 04:18 20.08.2021
6108 Clear 24 1013 76 10000 1.54 190 23:26 19.08.2021
6109 Clear 25 1013 73 10000 1.54 220 22:36 19.08.2021
6110 Clear 26 1011 63 10000 2.06 240 20:55 19.08.2021
6111 Clear 27 1011 58 10000 3.09 220 19:53 19.08.2021
6112 Clear 29 1011 51 10000 1.34 225 17:28 19.08.2021
6113 Clouds 30 1010 51 10000 1.34 180 16:32 19.08.2021
6114 Clouds 31 1011 46 10000 0.89 180 14:23 19.08.2021
6115 Clouds 30 1012 52 10000 0.45 225 12:39 19.08.2021
6116 Clear 29 1013 57 10000 0.45 203 11:37 19.08.2021
6117 Clear 27 1012 61 10000 1.54 10 10:24 19.08.2021
6118 Clear 26 1012 67 10000 1.54 360 09:48 19.08.2021
6119 Clear 26 1012 69 10000 1.54 360 09:22 19.08.2021
6120 Clear 23 1012 76 10000 1.54 30 07:41 19.08.2021
6121 Clear 24 1012 80 10000 0.51 0 02:53 19.08.2021
6122 Clear 24 1012 79 10000 1.03 0 01:55 19.08.2021
6123 Clear 25 1011 75 10000 1.03 220 22:56 18.08.2021
6124 Clear 25 1011 71 10000 1.54 260 21:42 18.08.2021
6125 Clear 26 1011 64 10000 0.45 252 20:35 18.08.2021
6126 Clear 27 1010 64 10000 0.89 265 19:59 18.08.2021
6127 Clear 28 1010 59 10000 0.89 180 18:57 18.08.2021
6128 Clouds 28 1010 58 10000 0.45 248 18:32 18.08.2021
6129 Clouds 30 1009 50 10000 1.34 203 16:33 18.08.2021
6130 Clouds 31 1009 49 10000 1.79 203 15:39 18.08.2021
6131 Clouds 31 1009 50 10000 1.34 180 15:20 18.08.2021
6132 Clouds 30 1010 52 9000 0.89 225 12:44 18.08.2021
6133 Clouds 30 1011 52 9000 0.89 240 12:25 18.08.2021
6134 Clouds 28 1011 61 10000 0.45 203 10:50 18.08.2021
6135 Clear 24 1010 78 10000 2.06 160 07:49 18.08.2021
6136 Clear 24 1010 74 10000 2.06 190 00:45 18.08.2021
6137 Clouds 26 1010 71 10000 0.45 180 22:31 17.08.2021
6138 Clear 26 1010 68 10000 0.89 180 21:29 17.08.2021
6139 Clear 27 1010 65 10000 0.89 203 20:45 17.08.2021
6140 Clear 29 1009 60 10000 0.89 180 19:19 17.08.2021
6141 Clear 30 1009 53 10000 0.89 180 17:33 17.08.2021
6142 Clear 31 1009 50 10000 1.79 180 16:40 17.08.2021
6143 Clear 31 1009 48 10000 1.34 212 15:38 17.08.2021
6144 Clear 32 1009 46 10000 0.89 245 14:29 17.08.2021
6145 Clear 30 1010 49 10000 0.89 180 12:23 17.08.2021
6146 Clouds 26 1009 63 10000 1.79 201 09:22 17.08.2021
6147 Clouds 25 1009 73 10000 0.89 140 07:48 17.08.2021
6148 Clouds 25 1009 74 10000 0.89 187 05:48 17.08.2021
6149 Clear 26 1010 69 10000 0.45 180 23:18 16.08.2021
6150 Clear 27 1011 74 10000 1.79 125 22:46 16.08.2021
6151 Clear 27 1010 72 10000 4.92 190 22:27 16.08.2021
6152 Clear 27 1010 73 10000 4.92 145 21:36 16.08.2021
6153 Clear 28 1010 69 10000 4.02 163 20:49 16.08.2021
6154 Clear 30 1010 58 10000 2.24 196 19:24 16.08.2021
6155 Clear 32 1011 47 10000 3.58 143 18:24 16.08.2021
6156 Clear 32 1011 44 10000 2.68 183 17:51 16.08.2021
6157 Clear 34 1011 37 10000 1.34 180 15:49 16.08.2021
6158 Clear 34 1012 39 10000 2.68 167 14:56 16.08.2021
6159 Clear 34 1013 41 10000 2.68 220 13:38 16.08.2021
6160 Clear 34 1013 42 10000 2.68 192 12:55 16.08.2021
6161 Clear 32 1013 47 10000 2.24 235 11:29 16.08.2021
6162 Clear 26 1014 64 10000 1.34 169 08:53 16.08.2021
6163 Clear 26 1014 64 10000 1.34 169 08:53 16.08.2021
6164 Clear 25 1013 48 10000 2.06 180 07:45 16.08.2021
6165 Clouds 23 1013 54 10000 1.03 0 07:25 16.08.2021
6166 Clear 25 1013 59 10000 1.03 0 02:23 16.08.2021
6167 Clear 28 1014 54 10000 1.03 0 23:00 15.08.2021
6168 Clear 30 1015 47 10000 0.89 207 20:51 15.08.2021
6169 Clear 34 1013 29 10000 0.45 203 18:47 15.08.2021
6170 Clear 35 1013 30 10000 1.34 180 17:56 15.08.2021
6171 Clear 35 1013 30 10000 0.89 158 17:34 15.08.2021
6172 Clear 36 1014 30 10000 2.24 256 16:26 15.08.2021
6173 Clear 37 1014 28 10000 0.89 225 14:48 15.08.2021
6174 Clear 37 1014 28 10000 1.79 209 14:26 15.08.2021
6175 Clear 35 1016 29 10000 1.34 164 11:30 15.08.2021
6176 Clear 31 1016 40 10000 1.54 20 09:31 15.08.2021
6177 Clear 26 1015 51 10000 0.45 21 03:59 15.08.2021
6178 Clear 27 1017 54 10000 1.03 160 00:42 15.08.2021
6179 Clear 29 1017 50 10000 0.51 240 22:29 14.08.2021
6180 Clear 31 1017 44 10000 0.45 250 20:58 14.08.2021
6181 Clear 32 1017 35 10000 0.45 203 19:44 14.08.2021
6182 Clear 34 1016 33 10000 1.34 229 19:23 14.08.2021
6183 Clear 36 1016 25 10000 0.89 203 17:21 14.08.2021
6184 Clear 37 1016 22 10000 0.89 180 15:52 14.08.2021
6185 Clear 37 1018 25 10000 3.13 246 14:25 14.08.2021
6186 Clear 36 1018 27 10000 1.79 299 12:22 14.08.2021
6187 Clear 34 1018 36 10000 0.45 11 10:53 14.08.2021
6188 Clear 26 1018 54 10000 1.34 53 07:48 14.08.2021
6189 Clear 27 1020 63 10000 0 0 23:54 13.08.2021
6190 Clear 28 1019 59 10000 1.54 240 22:30 13.08.2021
6191 Clear 28 1020 60 10000 1.03 0 21:40 13.08.2021
6192 Clear 34 1017 31 10000 0.45 180 18:49 13.08.2021
6193 Clear 36 1017 28 10000 0.89 203 17:56 13.08.2021
6194 Clear 36 1017 29 10000 0.89 248 16:32 13.08.2021
6195 Clear 37 1018 29 10000 3.13 230 15:32 13.08.2021
6196 Clear 34 1019 36 10000 1.34 206 11:20 13.08.2021
6197 Clear 31 1019 44 10000 1.54 30 09:49 13.08.2021
6198 Clear 28 1018 53 10000 0.89 11 08:36 13.08.2021
6199 Clear 26 1018 62 10000 0.89 72 07:22 13.08.2021
6200 Clear 25 1017 67 10000 0.51 0 04:59 13.08.2021
6201 Clear 27 1018 64 10000 2.06 180 23:52 12.08.2021
6202 Clear 29 1017 54 10000 0.45 190 21:33 12.08.2021
6203 Clear 31 1016 45 10000 0.45 203 20:24 12.08.2021
6204 Clear 32 1016 40 10000 1.79 230 19:48 12.08.2021
6205 Clear 36 1016 34 10000 2.68 249 17:54 12.08.2021
6206 Clear 37 1015 28 10000 1.79 180 16:48 12.08.2021
6207 Clear 38 1016 28 10000 3.13 258 15:23 12.08.2021
6208 Clear 37 1017 23 10000 0.89 226 13:20 12.08.2021
6209 Clear 34 1017 36 10000 1.54 10 11:30 12.08.2021
6210 Clear 27 1016 54 10000 0.89 59 07:59 12.08.2021
6211 Clouds 25 1015 59 10000 1.34 56 05:19 12.08.2021
6212 Clear 28 1014 61 10000 2.06 210 22:55 11.08.2021
6213 Clear 30 1014 55 10000 0.89 223 21:29 11.08.2021
6214 Clear 35 1013 42 10000 1.79 243 18:33 11.08.2021
6215 Clear 35 1013 41 10000 1.34 258 17:40 11.08.2021
6216 Clear 37 1014 31 10000 3.58 205 15:21 11.08.2021
6217 Clear 37 1013 30 10000 2.68 250 14:23 11.08.2021
6218 Clear 34 1014 34 10000 0.89 245 12:36 11.08.2021
6219 Clear 32 1015 36 10000 3.09 0 11:47 11.08.2021
6220 Clear 32 1015 39 10000 1.34 317 11:22 11.08.2021
6221 Clear 29 1017 46 10000 0.89 107 10:25 11.08.2021
6222 Clear 27 1015 48 10000 0.89 90 08:32 11.08.2021
6223 Rain 27 1016 43 10000 2.06 270 00:39 11.08.2021
6224 Clear 28 1014 39 10000 2.06 200 22:32 10.08.2021
6225 Clear 29 1014 40 10000 2.06 180 21:37 10.08.2021
6226 Clouds 30 1014 37 10000 2.24 184 20:38 10.08.2021
6227 Rain 32 1014 32 10000 2.24 199 18:59 10.08.2021
6228 Clear 33 1014 27 10000 2.24 161 16:49 10.08.2021
6229 Clear 35 1015 26 10000 4.02 103 15:22 10.08.2021
6230 Clear 34 1015 37 10000 1.34 231 13:29 10.08.2021
6231 Clear 30 1016 55 10000 3.58 138 10:47 10.08.2021
6232 Clear 24 1017 85 10000 0.45 52 07:42 10.08.2021
6233 Clear 24 1017 85 10000 2.06 180 04:59 10.08.2021
6234 Clear 24 1017 85 10000 2.06 180 04:59 10.08.2021
6235 Clear 25 1018 82 10000 0.51 0 23:59 09.08.2021
6236 Clear 26 1018 82 10000 1.03 240 23:23 09.08.2021
6237 Clear 27 1017 76 10000 0.45 197 21:38 09.08.2021
6238 Clear 28 1017 72 10000 0.45 260 20:19 09.08.2021
6239 Clouds 29 1017 69 10000 1.34 242 17:57 09.08.2021
6240 Clear 31 1017 64 10000 3.58 215 15:35 09.08.2021
6241 Clouds 32 1017 60 10000 2.24 216 14:26 09.08.2021
6242 Clear 32 1017 54 10000 2.68 238 13:28 09.08.2021
6243 Clouds 31 1017 59 10000 2.24 180 11:47 09.08.2021
6244 Clouds 27 1016 75 9000 0.45 169 09:21 09.08.2021
6245 Clear 25 1016 81 10000 0.45 93 07:52 09.08.2021
6246 Clouds 28 1014 74 10000 1.34 178 21:30 08.08.2021
6247 Clear 29 1012 68 10000 2.24 252 20:24 08.08.2021
6248 Clear 32 1012 56 10000 1.34 158 16:59 08.08.2021
6249 Clear 33 1012 53 10000 1.79 208 15:43 08.08.2021
6250 Clear 33 1013 52 10000 2.68 178 14:29 08.08.2021
6251 Clear 32 1012 52 10000 5.36 168 12:19 08.08.2021
6252 Clear 31 1012 48 10000 3.58 220 10:34 08.08.2021
6253 Clear 25 1009 46 10000 1.79 173 06:41 08.08.2021
6254 Clear 25 1010 58 10000 0.45 164 00:44 08.08.2021
6255 Clear 25 1010 54 10000 0.89 132 00:24 08.08.2021
6256 Clear 27 1009 59 10000 2.68 158 21:43 07.08.2021
6257 Clear 28 1009 50 10000 3.13 150 20:59 07.08.2021
6258 Clear 32 1009 31 10000 1.34 180 18:18 07.08.2021
6259 Clear 32 1009 36 10000 1.34 180 16:50 07.08.2021
6260 Clear 33 1009 35 10000 1.34 180 15:36 07.08.2021
6261 Clear 32 1011 47 10000 1.79 134 13:34 07.08.2021
6262 Clear 28 1010 55 10000 4.02 154 10:28 07.08.2021
6263 Clouds 21 1010 72 10000 0.45 152 06:32 07.08.2021
6264 Clear 22 1010 76 10000 1.54 170 02:18 07.08.2021
6265 Clear 24 1010 75 10000 3.09 200 22:23 06.08.2021
6266 Clear 26 1009 65 10000 1.34 247 20:35 06.08.2021
6267 Clear 27 1009 59 10000 2.68 244 19:57 06.08.2021
6268 Clear 29 1009 52 10000 2.68 273 19:18 06.08.2021
6269 Clear 30 1009 46 10000 3.58 249 17:34 06.08.2021
6270 Clouds 27 1009 54 10000 0.45 180 11:22 06.08.2021
6271 Clouds 26 1009 58 10000 1.03 0 09:56 06.08.2021
6272 Clear 22 1009 76 10000 1.03 150 07:54 06.08.2021
6273 Clear 23 1010 76 10000 0.89 220 23:34 05.08.2021
6274 Clear 24 1010 67 10000 0.45 203 22:28 05.08.2021
6275 Clear 25 1010 61 10000 1.79 308 20:47 05.08.2021
6276 Clear 27 1009 50 10000 2.68 202 19:29 05.08.2021
6277 Clouds 28 1009 51 10000 3.58 232 16:53 05.08.2021
6278 Clouds 27 1010 54 10000 2.24 190 14:49 05.08.2021
6279 Clouds 28 1010 51 10000 0.89 247 11:34 05.08.2021
6280 Clouds 25 1010 69 10000 0.89 284 08:51 05.08.2021
6281 Clear 24 1010 87 10000 1.34 296 04:51 05.08.2021
6282 Clouds 26 1011 85 10000 0.89 200 23:36 04.08.2021
6283 Clouds 27 1010 70 10000 1.34 190 21:44 04.08.2021
6284 Clouds 27 1009 74 10000 1.34 223 21:21 04.08.2021
6285 Clear 30 1008 55 10000 0.89 203 18:54 04.08.2021
6286 Clear 33 1009 32 10000 0.89 180 16:42 04.08.2021
6287 Clear 33 1010 30 10000 1.34 158 14:43 04.08.2021
6288 Clear 30 1013 35 10000 1.79 205 11:34 04.08.2021
6289 Clear 21 1013 71 10000 1.54 50 04:55 04.08.2021
6290 Clear 25 1014 58 10000 0.45 203 20:35 03.08.2021
6291 Clear 26 1014 55 10000 0.89 248 19:59 03.08.2021
6292 Clear 29 1013 42 10000 0.89 225 17:50 03.08.2021
6293 Clear 30 1014 38 10000 1.34 180 16:23 03.08.2021
6294 Clear 29 1015 40 10000 1.79 263 12:20 03.08.2021
6295 Clear 27 1015 39 10000 0.45 227 10:39 03.08.2021
6296 Clouds 21 1015 70 10000 0.89 104 06:46 03.08.2021
6297 Clear 28 1013 45 10000 0.89 158 17:48 02.08.2021
6298 Clear 29 1013 43 10000 1.34 180 16:38 02.08.2021
6299 Clear 30 1014 41 10000 1.79 180 14:51 02.08.2021
6300 Clouds 29 1014 47 10000 1.34 250 11:59 02.08.2021
6301 Clouds 28 1014 49 10000 0.89 180 11:34 02.08.2021
6302 Clear 26 1014 60 10000 1.34 235 09:49 02.08.2021
6303 Clear 26 1011 52 10000 0.45 264 22:40 01.08.2021
6304 Clear 30 1010 45 10000 2.68 314 18:19 01.08.2021
6305 Clouds 33 1009 45 10000 3.58 246 13:38 01.08.2021
6306 Clear 33 1009 46 10000 3.13 211 11:38 01.08.2021
6307 Clouds 29 1008 56 10000 5.36 152 08:36 01.08.2021
6308 Clear 27 1007 62 10000 6.26 140 03:47 01.08.2021
6309 Clouds 27 1009 75 10000 2.24 169 22:48 31.07.2021
6310 Clear 28 1008 68 10000 1.79 177 20:52 31.07.2021
6311 Clear 33 1009 43 10000 1.79 136 17:28 31.07.2021
6312 Clear 33 1009 42 10000 3.13 202 16:22 31.07.2021
6313 Clear 34 1010 38 10000 1.79 91 12:31 31.07.2021
6314 Clear 23 1010 66 10000 1.54 90 06:56 31.07.2021
6315 Clear 26 1011 72 10000 0.89 271 00:23 31.07.2021
6316 Clear 31 1010 44 10000 0.89 225 20:28 30.07.2021
6317 Clear 33 1010 47 10000 1.34 192 19:18 30.07.2021
6318 Clear 26 1012 75 10000 0.89 192 22:30 29.07.2021
6319 Clear 34 1013 28 10000 2.24 215 12:34 29.07.2021
6320 Clear 23 1013 52 10000 1.03 0 05:31 29.07.2021
6321 Clear 24 1013 42 10000 1.03 0 04:28 29.07.2021
6322 Clear 29 1013 36 10000 1.34 180 20:54 28.07.2021
6323 Clear 34 1013 23 10000 0.89 180 17:19 28.07.2021
6324 Clear 32 1016 21 10000 2.24 144 10:54 28.07.2021
6325 Clouds 22 1015 67 10000 1.34 102 05:23 28.07.2021
6326 Clear 27 1015 55 10000 0.45 228 21:46 27.07.2021
6327 Clear 28 1015 52 10000 0.45 221 21:27 27.07.2021
6328 Clear 34 1016 30 10000 1.34 180 14:51 27.07.2021
6329 Clear 32 1016 29 10000 1.34 162 10:45 27.07.2021
6330 Clear 25 1015 33 10000 1.54 60 07:31 27.07.2021
6331 Clear 33 1013 29 10000 3.6 80 15:48 26.07.2021
6332 Clear 33 1013 29 10000 3.6 80 15:48 26.07.2021
6333 Clear 33 1014 33 10000 3.13 138 13:58 26.07.2021
6334 Clouds 29 1009 28 10000 4.47 146 21:44 25.07.2021
6335 Rain 29 1009 30 10000 9.83 143 20:55 25.07.2021
6336 Clear 32 1010 24 10000 4.92 124 17:45 25.07.2021
6337 Clear 32 1010 28 10000 7.15 173 15:27 25.07.2021
6338 Clear 28 1011 45 10000 2.68 128 10:30 25.07.2021
6339 Clouds 25 1011 57 10000 1.79 178 08:18 25.07.2021
6340 Clear 29 1012 46 10000 1.79 221 20:23 24.07.2021
6341 Clouds 30 1011 38 10000 0.89 180 19:37 24.07.2021
6342 Clear 32 1014 48 10000 0.89 202 11:59 24.07.2021
6343 Clear 27 1013 49 10000 0.89 225 21:47 23.07.2021
6344 Clear 34 1013 34 10000 3.13 258 14:35 23.07.2021
6345 Clear 33 1014 37 10000 3.13 302 12:40 23.07.2021
6346 Clear 27 1015 54 10000 0.45 180 22:53 22.07.2021
6347 Clouds 34 1014 34 10000 4.92 305 15:28 22.07.2021
6348 Clear 31 1017 41 10000 0.89 82 11:19 22.07.2021
6349 Clear 25 1016 59 10000 0.89 37 08:34 22.07.2021
6350 Clear 24 1016 72 10000 1.54 210 01:43 22.07.2021
6351 Clear 27 1017 58 10000 0.89 242 21:42 21.07.2021
6352 Clear 28 1016 47 10000 0.89 207 21:22 21.07.2021
6353 Clear 32 1017 42 10000 0.89 298 11:52 21.07.2021
6354 Clear 27 1017 62 10000 1.54 350 09:20 21.07.2021
6355 Clear 21 1015 76 10000 1.03 10 05:45 21.07.2021
6356 Clear 26 1014 64 10000 2.06 240 21:54 20.07.2021
6357 Clear 31 1012 45 10000 1.79 203 16:36 20.07.2021
6358 Clouds 32 1012 41 10000 3.58 280 15:28 20.07.2021
6359 Clear 31 1013 41 10000 0.89 265 12:36 20.07.2021
6360 Clear 23 1012 69 10000 0.45 44 07:57 20.07.2021
6361 Clear 22 1010 77 10000 1.03 0 03:19 20.07.2021
6362 Rain 27 1009 56 10000 0.45 52 19:21 19.07.2021
6363 Clouds 31 1008 40 10000 0.45 43 12:52 19.07.2021
6364 Clear 22 1007 69 10000 0.45 88 07:29 19.07.2021
6365 Clouds 28 1005 35 10000 1.79 180 17:21 18.07.2021
6366 Clouds 25 1006 61 10000 3.58 324 10:53 18.07.2021
6367 Clouds 22 1007 68 10000 2.24 18 23:36 17.07.2021
6368 Clouds 22 1008 68 10000 0.89 329 22:18 17.07.2021
6369 Clouds 22 1007 66 10000 0.89 32 21:41 17.07.2021
6370 Clouds 24 1008 56 10000 7.72 20 17:32 17.07.2021
6371 Clouds 26 1009 52 10000 3.13 354 11:31 17.07.2021
6372 Clear 19 1009 74 10000 2.06 40 04:48 17.07.2021
6373 Clouds 26 1010 53 10000 0.89 293 17:41 16.07.2021
6374 Clouds 26 1011 57 10000 1.34 142 13:19 16.07.2021
6375 Clouds 21 1012 71 10000 4.12 170 07:25 16.07.2021
6376 Clouds 24 1014 61 10000 0.89 176 20:39 15.07.2021
6377 Clouds 27 1014 49 10000 2.24 244 13:51 15.07.2021
6378 Clouds 24 1014 57 10000 0.89 203 09:52 15.07.2021
6379 Clear 20 1014 69 10000 3.09 170 00:32 15.07.2021
6380 Clouds 26 1014 51 10000 0.89 205 16:56 14.07.2021
6381 Clouds 26 1014 50 10000 1.34 223 12:49 14.07.2021
6382 Clear 20 1011 66 10000 0.89 140 04:44 14.07.2021
6383 Clouds 24 1011 61 10000 0.89 180 21:21 13.07.2021
6384 Clouds 26 1009 65 10000 1.34 229 19:54 13.07.2021
6385 Clouds 26 1009 68 8000 3.58 251 19:26 13.07.2021
6386 Clouds 27 1009 71 8000 1.34 180 18:45 13.07.2021
6387 Clouds 28 1009 67 10000 3.13 82 18:24 13.07.2021
6388 Clouds 29 1009 62 10000 1.34 180 17:30 13.07.2021
6389 Clear 29 1008 38 10000 1.34 225 09:49 13.07.2021
6390 Clear 25 1011 64 10000 0.89 142 00:26 13.07.2021
6391 Clear 31 1012 52 10000 3.13 190 17:34 12.07.2021
6392 Clear 32 1012 49 10000 2.24 131 15:21 12.07.2021
6393 Clear 26 1015 67 10000 1.03 0 09:40 12.07.2021
6394 Clouds 25 1013 73 10000 0.45 180 21:58 11.07.2021
6395 Clear 32 1013 34 10000 2.68 282 15:50 11.07.2021
6396 Clear 21 1012 69 10000 0.51 0 04:42 11.07.2021
6397 Clear 31 1012 38 10000 3.58 260 17:38 10.07.2021
6398 Clear 23 1014 71 10000 1.54 80 07:58 10.07.2021
6399 Clear 22 1014 72 10000 0.89 61 07:22 10.07.2021
6400 Clear 26 1015 62 10000 2.24 238 20:55 09.07.2021
6401 Clouds 32 1016 45 10000 1.34 270 14:53 09.07.2021
6402 Clouds 32 1016 38 10000 1.34 246 13:27 09.07.2021
6403 Clear 25 1017 78 10000 2.57 280 01:35 09.07.2021
6404 Clouds 26 1018 66 10000 0.45 203 22:52 08.07.2021
6405 Clouds 28 1018 58 10000 2.57 210 20:52 08.07.2021
6406 Clear 30 1016 44 10000 0.89 180 18:41 08.07.2021
6407 Clouds 33 1014 39 10000 1.79 180 13:52 08.07.2021
6408 Clouds 33 1015 46 10000 4.92 278 13:30 08.07.2021
6409 Clouds 31 1015 49 10000 1.34 121 12:35 08.07.2021
6410 Clouds 31 1015 49 10000 1.34 86 12:35 08.07.2021
6411 Clear 31 1016 44 10000 2.24 90 11:21 08.07.2021
6412 Clouds 24 1017 68 10000 2.06 220 06:52 08.07.2021
6413 Clear 23 1015 71 10000 2.24 326 04:41 08.07.2021
6414 Clear 26 1015 62 10000 0.89 203 23:44 07.07.2021
6415 Clear 27 1015 52 10000 0.51 0 22:20 07.07.2021
6416 Clear 27 1015 50 10000 2.06 260 21:45 07.07.2021
6417 Clear 28 1015 55 10000 0.45 203 21:24 07.07.2021
6418 Clear 31 1014 43 10000 0.89 180 19:59 07.07.2021
6419 Clear 32 1013 41 10000 0.45 203 19:30 07.07.2021
6420 Clear 33 1013 42 10000 0.45 225 18:55 07.07.2021
6421 Clear 33 1014 39 10000 1.79 253 15:58 07.07.2021
6422 Clear 33 1014 44 10000 3.13 255 14:58 07.07.2021
6423 Clear 32 1014 51 10000 0.45 227 11:24 07.07.2021
6424 Clear 24 1013 65 10000 1.54 110 07:23 07.07.2021
6425 Clear 22 1013 73 10000 1.03 120 05:51 07.07.2021
6426 Clear 23 1014 81 10000 1.03 0 02:55 07.07.2021
6427 Clear 30 1012 50 10000 0.45 225 20:18 06.07.2021
6428 Clear 31 1011 48 10000 0.89 180 18:57 06.07.2021
6429 Clear 32 1012 47 10000 0.89 180 18:37 06.07.2021
6430 Clear 33 1012 40 10000 0.89 180 17:43 06.07.2021
6431 Clear 33 1013 46 10000 2.24 188 13:33 06.07.2021
6432 Clear 28 1014 55 10000 0.89 154 09:44 06.07.2021
6433 Clear 26 1013 61 10000 1.54 20 08:36 06.07.2021
6434 Clear 24 1013 67 10000 1.34 77 07:39 06.07.2021
6435 Clear 24 1012 72 10000 0 0 01:57 06.07.2021
6436 Clear 25 1012 68 10000 1.54 220 23:57 05.07.2021
6437 Clear 26 1012 67 10000 2.06 220 21:58 05.07.2021
6438 Clouds 31 1011 42 10000 3.58 250 17:21 05.07.2021
6439 Clear 30 1011 45 10000 1.34 255 12:41 05.07.2021
6440 Clear 22 1009 79 10000 1.54 50 05:58 05.07.2021
6441 Clear 22 1009 79 10000 1.54 50 05:40 05.07.2021
6442 Clouds 24 1010 76 10000 0.45 239 00:22 05.07.2021
6443 Clear 26 1008 64 10000 0.89 180 20:53 04.07.2021
6444 Clear 29 1009 47 10000 0.89 180 17:35 04.07.2021
6445 Clouds 30 1011 51 10000 3.58 218 14:40 04.07.2021
6446 Clear 28 1013 45 10000 1.34 115 10:47 04.07.2021
6447 Clear 23 1012 60 10000 2.57 160 07:24 04.07.2021
6448 Clear 24 1014 65 10000 2.57 190 23:26 03.07.2021
6449 Clear 26 1014 55 10000 2.06 230 21:18 03.07.2021
6450 Clear 31 1015 43 10000 2.68 215 12:51 03.07.2021
6451 Clear 30 1015 42 10000 0.45 248 11:52 03.07.2021
6452 Clear 26 1016 56 10000 0.45 25 09:27 03.07.2021
6453 Clear 25 1015 59 10000 1.34 31 08:45 03.07.2021
6454 Clear 24 1014 55 10000 1.54 180 22:55 02.07.2021
6455 Clear 24 1013 62 10000 0.45 338 08:59 02.07.2021
6456 Clear 20 1013 70 10000 1.54 80 07:28 02.07.2021
6457 Clear 21 1014 75 10000 2.57 140 02:28 02.07.2021
6458 Clear 24 1013 69 10000 0.45 203 22:31 01.07.2021
6459 Clear 24 1014 68 10000 0.89 245 21:36 01.07.2021
6460 Clear 27 1012 49 10000 0.89 247 20:22 01.07.2021
6461 Clear 28 1013 49 10000 1.34 240 19:20 01.07.2021
6462 Clear 29 1012 46 10000 1.34 180 18:47 01.07.2021
6463 Clear 29 1012 44 10000 2.68 236 17:41 01.07.2021
6464 Clouds 30 1012 49 10000 1.79 275 16:39 01.07.2021
6465 Clouds 31 1012 44 10000 2.68 292 15:24 01.07.2021
6466 Clouds 30 1012 41 10000 2.06 320 14:19 01.07.2021
6467 Clouds 26 1014 59 10000 0.45 90 09:55 01.07.2021
6468 Clear 21 1013 74 10000 0.45 203 03:58 01.07.2021
6469 Clear 23 1013 67 10000 2.57 210 23:18 30.06.2021
6470 Clear 24 1014 64 10000 2.57 200 21:59 30.06.2021
6471 Clear 25 1012 62 10000 0.89 180 21:20 30.06.2021
6472 Clear 27 1012 50 10000 0.45 180 20:24 30.06.2021
6473 Clear 29 1012 37 10000 1.34 180 17:19 30.06.2021
6474 Clear 31 1012 39 10000 2.24 354 14:22 30.06.2021
6475 Clear 28 1013 56 10000 1.34 204 10:45 30.06.2021
6476 Clear 23 1012 80 10000 0.51 0 02:52 30.06.2021
6477 Clear 27 1012 68 10000 0.45 266 20:34 29.06.2021
6478 Clear 32 1011 46 7000 1.79 180 17:48 29.06.2021
6479 Clear 32 1011 48 7000 0.89 180 17:28 29.06.2021
6480 Clear 32 1012 50 10000 0.89 260 15:51 29.06.2021
6481 Clear 32 1012 56 10000 1.79 218 14:55 29.06.2021
6482 Rain 31 1013 53 10000 2.68 209 13:26 29.06.2021
6483 Rain 31 1013 53 10000 2.68 209 13:26 29.06.2021
6484 Clouds 25 1015 78 10000 4.12 80 08:26 29.06.2021
6485 Clouds 25 1015 83 10000 2.06 200 23:52 28.06.2021
6486 Clear 27 1012 69 10000 3.09 240 21:32 28.06.2021
6487 Clear 31 1012 44 10000 0.89 180 19:21 28.06.2021
6488 Clear 34 1013 31 10000 0.89 180 17:21 28.06.2021
6489 Clear 34 1013 30 10000 2.24 201 14:32 28.06.2021
6490 Clear 34 1013 27 10000 3.13 256 12:57 28.06.2021
6491 Clear 24 1015 54 10000 0.51 0 00:20 28.06.2021
6492 Clear 26 1014 48 10000 1.54 210 22:51 27.06.2021
6493 Clear 31 1012 28 10000 0.45 180 19:45 27.06.2021
6494 Clear 32 1012 31 10000 0.45 270 18:56 27.06.2021
6495 Clear 33 1013 41 10000 0.89 180 15:50 27.06.2021
6496 Clear 30 1014 39 10000 1.03 0 11:26 27.06.2021
6497 Clear 21 1014 71 10000 1.03 190 02:32 27.06.2021
6498 Clear 23 1014 64 10000 1.54 200 22:40 26.06.2021
6499 Clear 27 1014 52 10000 2.57 260 20:56 26.06.2021
6500 Clear 27 1013 40 10000 2.06 260 20:35 26.06.2021
6501 Clear 31 1013 39 10000 3.13 239 17:33 26.06.2021
6502 Clear 32 1014 20 10000 2.57 240 14:48 26.06.2021
6503 Clear 30 1015 33 10000 0.89 50 12:27 26.06.2021
6504 Clear 21 1015 73 10000 0.89 338 07:46 26.06.2021
6505 Clear 23 1016 73 10000 0.45 121 23:29 25.06.2021
6506 Clear 26 1015 56 10000 3.6 250 20:38 25.06.2021
6507 Clear 28 1014 39 10000 0.89 180 19:28 25.06.2021
6508 Clear 30 1014 41 10000 1.34 180 17:31 25.06.2021
6509 Clear 31 1014 40 10000 0.89 203 16:43 25.06.2021
6510 Clouds 31 1016 42 10000 4.12 260 14:22 25.06.2021
6511 Clear 27 1017 55 10000 0.45 180 10:46 25.06.2021
6512 Clear 23 1015 83 10000 1.54 30 07:39 25.06.2021
6513 Clouds 22 1015 84 8000 3.09 50 07:18 25.06.2021
6514 Clear 23 1017 80 10000 0.51 0 01:40 25.06.2021
6515 Clear 25 1017 70 10000 0.45 238 21:49 24.06.2021
6516 Clouds 26 1017 66 8000 0.45 180 20:45 24.06.2021
6517 Clouds 27 1017 63 8000 0.45 230 20:22 24.06.2021
6518 Clouds 28 1017 64 10000 1.79 291 18:35 24.06.2021
6519 Rain 29 1017 63 10000 1.34 210 15:24 24.06.2021
6520 Clouds 29 1017 61 10000 0.45 190 14:55 24.06.2021
6521 Clouds 29 1018 62 10000 1.79 214 13:57 24.06.2021
6522 Clouds 29 1016 53 10000 3.6 210 10:37 24.06.2021
6523 Clear 26 1016 70 10000 1.34 174 08:53 24.06.2021
6524 Clouds 24 1016 75 10000 1.03 130 07:38 24.06.2021
6525 Clouds 24 1016 76 10000 0.51 0 01:24 24.06.2021
6526 Clear 26 1015 66 10000 1.54 100 22:36 23.06.2021
6527 Clear 26 1014 62 10000 2.06 90 21:35 23.06.2021
6528 Clear 27 1014 57 8000 3.6 210 20:21 23.06.2021
6529 Clouds 28 1013 59 8000 1.79 258 18:32 23.06.2021
6530 Clear 28 1014 60 8000 1.34 231 17:21 23.06.2021
6531 Clouds 34 1013 46 8000 5.14 240 14:32 23.06.2021
6532 Clear 33 1013 39 10000 2.24 242 12:50 23.06.2021
6533 Clear 32 1012 39 10000 4.92 188 11:52 23.06.2021
6534 Clear 30 1012 56 10000 0.45 279 09:55 23.06.2021
6535 Clouds 26 1012 67 10000 1.79 67 08:42 23.06.2021
6536 Clear 25 1013 73 10000 2.24 84 07:50 23.06.2021
6537 Clear 23 1012 72 10000 0.51 0 06:37 23.06.2021
6538 Clear 24 1012 73 10000 0.51 90 02:26 23.06.2021
6539 Clear 25 1012 69 10000 1.03 240 00:22 23.06.2021
6540 Clear 25 1013 71 10000 1.03 220 23:47 22.06.2021
6541 Clear 26 1013 61 10000 2.06 240 22:44 22.06.2021
6542 Clear 26 1013 61 10000 2.06 240 22:44 22.06.2021
6543 Clear 27 1013 56 10000 1.54 240 21:47 22.06.2021
6544 Clear 28 1012 55 10000 0.45 180 20:55 22.06.2021
6545 Clear 31 1011 46 10000 0.45 232 19:23 22.06.2021
6546 Clear 32 1011 50 10000 1.79 294 18:40 22.06.2021
6547 Clear 32 1011 51 10000 1.79 263 18:19 22.06.2021
6548 Clear 32 1011 45 10000 3.13 234 17:21 22.06.2021
6549 Clear 33 1010 45 10000 0.89 180 15:48 22.06.2021
6550 Clear 34 1011 38 10000 2.06 0 14:32 22.06.2021
6551 Clear 34 1010 44 10000 0.45 221 13:43 22.06.2021
6552 Clear 32 1011 41 10000 2.06 240 12:31 22.06.2021
6553 Clear 31 1011 46 10000 0.45 180 10:57 22.06.2021
6554 Clear 27 1011 62 10000 0.45 286 08:56 22.06.2021
6555 Clear 23 1009 64 10000 2.06 60 03:29 22.06.2021
6556 Clear 24 1012 67 10000 0.89 180 00:37 22.06.2021
6557 Clear 25 1011 52 10000 0.45 225 22:59 21.06.2021
6558 Clear 26 1010 49 10000 1.54 160 21:38 21.06.2021
6559 Clear 27 1010 45 10000 4.12 200 20:52 21.06.2021
6560 Clear 28 1010 42 10000 1.34 180 19:56 21.06.2021
6561 Clear 30 1009 35 10000 0.89 180 19:29 21.06.2021
6562 Clear 31 1009 39 10000 1.79 180 18:22 21.06.2021
6563 Clear 31 1010 37 10000 1.34 204 16:54 21.06.2021
6564 Clear 30 1010 37 10000 0.89 232 16:29 21.06.2021
6565 Rain 31 1010 36 10000 1.34 275 15:56 21.06.2021
6566 Rain 31 1010 40 7000 2.68 150 15:19 21.06.2021
6567 Clear 33 1010 35 10000 1.79 159 13:40 21.06.2021
6568 Clear 32 1011 39 10000 1.79 177 12:55 21.06.2021
6569 Clear 32 1011 37 10000 0.45 135 12:31 21.06.2021
6570 Clear 30 1011 38 10000 1.54 0 10:43 21.06.2021
6571 Clear 29 1011 39 10000 1.54 0 10:22 21.06.2021
6572 Clear 26 1011 54 10000 0.89 52 08:32 21.06.2021
6573 Clear 25 1013 61 10000 1.34 36 07:56 21.06.2021
6574 Clear 25 1010 43 10000 2.57 10 01:53 21.06.2021
6575 Clear 26 1011 41 10000 3.09 160 23:52 20.06.2021
6576 Clear 26 1011 32 10000 0.89 142 23:32 20.06.2021
6577 Clear 26 1010 34 10000 1.34 118 22:47 20.06.2021
6578 Clear 26 1012 45 10000 2.68 84 21:44 20.06.2021
6579 Clear 27 1013 40 10000 1.03 0 20:26 20.06.2021
6580 Clear 28 1013 35 10000 0.89 234 19:36 20.06.2021
6581 Clear 29 1013 29 10000 0.89 180 18:44 20.06.2021
6582 Clear 30 1013 29 10000 0.89 203 17:37 20.06.2021
6583 Clear 30 1013 32 10000 0.89 158 16:39 20.06.2021
6584 Clear 30 1013 43 10000 1.34 199 15:38 20.06.2021
6585 Clouds 30 1012 45 10000 0.45 237 14:55 20.06.2021
6586 Clear 29 1013 43 10000 3.13 254 14:36 20.06.2021
6587 Clear 29 1013 42 10000 2.57 240 13:19 20.06.2021
6588 Clear 30 1012 36 10000 3.13 177 11:48 20.06.2021
6589 Clear 29 1012 39 10000 0.45 100 11:23 20.06.2021
6590 Clear 26 1015 59 10000 0.45 194 09:49 20.06.2021
6591 Clear 26 1014 57 10000 0.89 21 08:59 20.06.2021
6592 Clear 22 1015 55 10000 1.03 0 02:25 20.06.2021
6593 Clear 24 1015 56 10000 1.03 0 23:35 19.06.2021
6594 Clear 24 1015 54 10000 2.06 230 22:43 19.06.2021
6595 Clear 25 1015 54 10000 0.45 180 21:48 19.06.2021
6596 Clear 26 1015 44 10000 0.89 284 20:37 19.06.2021
6597 Clear 29 1015 38 10000 2.68 251 18:47 19.06.2021
6598 Clear 30 1015 35 10000 2.24 279 17:53 19.06.2021
6599 Clear 31 1015 33 10000 1.34 319 17:20 19.06.2021
6600 Clear 31 1015 28 10000 0.45 225 15:50 19.06.2021
6601 Clear 31 1016 33 10000 2.24 264 14:20 19.06.2021
6602 Clouds 30 1017 33 9000 1.34 293 12:45 19.06.2021
6603 Clouds 29 1017 43 9000 1.03 0 11:45 19.06.2021
6604 Clear 26 1017 47 10000 2.57 330 10:42 19.06.2021
6605 Clear 26 1017 52 10000 0.45 298 10:21 19.06.2021
6606 Clear 24 1017 62 10000 1.54 340 08:48 19.06.2021
6607 Clear 22 1017 66 10000 1.03 0 07:43 19.06.2021
6608 Clear 19 1018 74 10000 0.45 21 05:54 19.06.2021
6609 Clear 22 1017 65 10000 1.03 80 00:35 19.06.2021
6610 Clear 22 1017 64 10000 1.03 250 23:59 18.06.2021
6611 Clear 23 1017 62 10000 0.51 0 23:25 18.06.2021
6612 Clear 23 1018 60 10000 1.03 240 22:47 18.06.2021
6613 Clear 24 1017 55 10000 1.54 230 21:57 18.06.2021
6614 Clear 24 1017 57 10000 0.45 262 21:28 18.06.2021
6615 Clear 25 1017 48 10000 2.06 230 20:38 18.06.2021
6616 Clear 27 1017 44 10000 0.89 180 19:18 18.06.2021
6617 Clear 28 1017 48 10000 1.34 180 18:21 18.06.2021
6618 Clear 29 1017 39 10000 1.34 203 17:18 18.06.2021
6619 Clear 29 1017 39 10000 1.34 248 15:55 18.06.2021
6620 Clear 29 1017 44 10000 0.45 180 14:56 18.06.2021
6621 Clear 30 1017 40 10000 0.45 180 14:29 18.06.2021
6622 Clear 29 1017 46 10000 0.45 307 13:30 18.06.2021
6623 Clear 28 1017 50 10000 0.89 270 12:44 18.06.2021
6624 Clear 28 1018 50 10000 2.06 260 11:56 18.06.2021
6625 Rain 28 1018 54 10000 0.45 203 11:20 18.06.2021
6626 Clear 28 1018 54 10000 2.06 280 10:51 18.06.2021
6627 Clear 27 1018 54 10000 1.34 266 10:20 18.06.2021
6628 Clear 25 1019 64 10000 1.54 340 09:29 18.06.2021
6629 Clear 24 1018 68 10000 0.89 59 08:43 18.06.2021
6630 Clear 22 1018 77 10000 2.57 100 07:48 18.06.2021
6631 Clear 21 1018 76 10000 0.51 0 07:21 18.06.2021
6632 Clear 22 1017 69 10000 1.54 90 00:41 18.06.2021
6633 Clear 22 1017 67 10000 2.06 220 23:41 17.06.2021
6634 Clear 23 1017 70 10000 1.54 240 22:49 17.06.2021
6635 Clear 23 1017 63 10000 1.54 220 22:23 17.06.2021
6636 Clear 23 1017 65 10000 0.89 180 21:38 17.06.2021
6637 Clear 25 1016 59 10000 2.57 230 20:49 17.06.2021
6638 Clear 25 1016 58 10000 0.45 225 20:23 17.06.2021
6639 Clear 26 1016 57 10000 0.45 203 19:46 17.06.2021
6640 Clouds 26 1016 55 10000 0.45 225 18:33 17.06.2021
6641 Clear 28 1016 45 10000 1.79 180 17:42 17.06.2021
6642 Clear 28 1016 45 10000 2.24 180 17:19 17.06.2021
6643 Clouds 29 1015 43 10000 1.34 180 16:25 17.06.2021
6644 Clouds 30 1016 46 10000 2.24 180 14:58 17.06.2021
6645 Clouds 30 1016 46 10000 2.24 260 13:59 17.06.2021
6646 Clear 29 1017 51 10000 0.45 200 12:41 17.06.2021
6647 Clear 29 1017 51 10000 1.34 325 12:22 17.06.2021
6648 Clear 27 1018 61 10000 1.54 0 10:52 17.06.2021
6649 Clear 26 1018 61 10000 0.45 270 10:30 17.06.2021
6650 Clear 26 1018 65 10000 0.89 348 09:51 17.06.2021
6651 Clear 25 1018 68 10000 0.89 25 09:33 17.06.2021
6652 Clear 23 1018 83 10000 1.54 110 08:21 17.06.2021
6653 Clear 20 1017 82 10000 2.06 160 06:55 17.06.2021
6654 Clear 20 1015 78 10000 1.03 10 04:20 17.06.2021
6655 Clear 22 1016 71 10000 0.45 260 23:50 16.06.2021
6656 Clear 23 1016 69